<?xml version="1.0" encoding="UTF-8" standalone="no" ?>
<gpx xmlns="http://www.topografix.com/GPX/1/1" xmlns:xsi="http://www.w3.org/2001/XMLSchema-instance" xsi:schemaLocation="http://www.topografix.com/GPX/1/1 http://www.topografix.com/GPX/1/1/gpx.xsd" version="1.1" creator="VisuGPX - https://www.visugpx.com">
  <metadata>
    <name>Port-la-Nouvelle - Argelès-sur-mer</name>
    <desc><![CDATA[la côte languedocienne depuis le port audois jusqu'à la plaine du Roussillon en suivant le plus possible la côte.]]></desc>
  </metadata>
  <trk>
    <name><![CDATA[Randonnée du 31/08/2018 à 08:11]]></name>
    <trkseg>
      <trkpt lat="43.01413" lon="3.05238">
        <ele>1</ele>
        <time>2018-08-31T08:11:30+02:00</time>
      </trkpt>
      <trkpt lat="43.01392" lon="3.05224">
        <ele>1</ele>
        <time>2018-08-31T08:12:02+02:00</time>
      </trkpt>
      <trkpt lat="43.01368" lon="3.0523">
        <ele>1</ele>
        <time>2018-08-31T08:12:10+02:00</time>
      </trkpt>
      <trkpt lat="43.01352" lon="3.05204">
        <ele>1</ele>
        <time>2018-08-31T08:12:17+02:00</time>
      </trkpt>
      <trkpt lat="43.01344" lon="3.05172">
        <ele>1</ele>
        <time>2018-08-31T08:12:24+02:00</time>
      </trkpt>
      <trkpt lat="43.01336" lon="3.05204">
        <ele>1</ele>
        <time>2018-08-31T08:12:43+02:00</time>
      </trkpt>
      <trkpt lat="43.01353" lon="3.05238">
        <ele>1</ele>
        <time>2018-08-31T08:12:51+02:00</time>
      </trkpt>
      <trkpt lat="43.01376" lon="3.05225">
        <ele>1</ele>
        <time>2018-08-31T08:12:58+02:00</time>
      </trkpt>
      <trkpt lat="43.01397" lon="3.05238">
        <ele>1</ele>
        <time>2018-08-31T08:13:08+02:00</time>
      </trkpt>
      <trkpt lat="43.01419" lon="3.05225">
        <ele>1</ele>
        <time>2018-08-31T08:13:33+02:00</time>
      </trkpt>
      <trkpt lat="43.01397" lon="3.05216">
        <ele>1</ele>
        <time>2018-08-31T08:14:03+02:00</time>
      </trkpt>
      <trkpt lat="43.01372" lon="3.05225">
        <ele>1</ele>
        <time>2018-08-31T08:14:08+02:00</time>
      </trkpt>
      <trkpt lat="43.01351" lon="3.05205">
        <ele>1</ele>
        <time>2018-08-31T08:14:18+02:00</time>
      </trkpt>
      <trkpt lat="43.01341" lon="3.05175">
        <ele>1</ele>
        <time>2018-08-31T08:14:24+02:00</time>
      </trkpt>
      <trkpt lat="43.01338" lon="3.05143">
        <ele>1</ele>
        <time>2018-08-31T08:14:30+02:00</time>
      </trkpt>
      <trkpt lat="43.01361" lon="3.05134">
        <ele>1</ele>
        <time>2018-08-31T08:14:37+02:00</time>
      </trkpt>
      <trkpt lat="43.01383" lon="3.05127">
        <ele>1</ele>
        <time>2018-08-31T08:14:45+02:00</time>
      </trkpt>
      <trkpt lat="43.01405" lon="3.05116">
        <ele>1</ele>
        <time>2018-08-31T08:14:52+02:00</time>
      </trkpt>
      <trkpt lat="43.01423" lon="3.05096">
        <ele>1</ele>
        <time>2018-08-31T08:14:57+02:00</time>
      </trkpt>
      <trkpt lat="43.01448" lon="3.05087">
        <ele>1</ele>
        <time>2018-08-31T08:15:04+02:00</time>
      </trkpt>
      <trkpt lat="43.0147" lon="3.05078">
        <ele>1</ele>
        <time>2018-08-31T08:15:10+02:00</time>
      </trkpt>
      <trkpt lat="43.01492" lon="3.05068">
        <ele>1</ele>
        <time>2018-08-31T08:15:19+02:00</time>
      </trkpt>
      <trkpt lat="43.01515" lon="3.05066">
        <ele>1</ele>
        <time>2018-08-31T08:15:30+02:00</time>
      </trkpt>
      <trkpt lat="43.0152" lon="3.05033">
        <ele>1</ele>
        <time>2018-08-31T08:15:36+02:00</time>
      </trkpt>
      <trkpt lat="43.01504" lon="3.05003">
        <ele>1</ele>
        <time>2018-08-31T08:15:43+02:00</time>
      </trkpt>
      <trkpt lat="43.01493" lon="3.04972">
        <ele>1</ele>
        <time>2018-08-31T08:15:49+02:00</time>
      </trkpt>
      <trkpt lat="43.01488" lon="3.04939">
        <ele>1</ele>
        <time>2018-08-31T08:15:55+02:00</time>
      </trkpt>
      <trkpt lat="43.01481" lon="3.04909">
        <ele>1</ele>
        <time>2018-08-31T08:16:01+02:00</time>
      </trkpt>
      <trkpt lat="43.01476" lon="3.04877">
        <ele>1</ele>
        <time>2018-08-31T08:16:07+02:00</time>
      </trkpt>
      <trkpt lat="43.01468" lon="3.04842">
        <ele>1</ele>
        <time>2018-08-31T08:16:13+02:00</time>
      </trkpt>
      <trkpt lat="43.01461" lon="3.04813">
        <ele>1</ele>
        <time>2018-08-31T08:16:19+02:00</time>
      </trkpt>
      <trkpt lat="43.01455" lon="3.04782">
        <ele>1</ele>
        <time>2018-08-31T08:16:24+02:00</time>
      </trkpt>
      <trkpt lat="43.01446" lon="3.0475">
        <ele>1</ele>
        <time>2018-08-31T08:16:32+02:00</time>
      </trkpt>
      <trkpt lat="43.01457" lon="3.04718">
        <ele>1</ele>
        <time>2018-08-31T08:16:39+02:00</time>
      </trkpt>
      <trkpt lat="43.0146" lon="3.04686">
        <ele>1</ele>
        <time>2018-08-31T08:16:45+02:00</time>
      </trkpt>
      <trkpt lat="43.01444" lon="3.04652">
        <ele>1</ele>
        <time>2018-08-31T08:16:52+02:00</time>
      </trkpt>
      <trkpt lat="43.01422" lon="3.04641">
        <ele>1</ele>
        <time>2018-08-31T08:16:57+02:00</time>
      </trkpt>
      <trkpt lat="43.01414" lon="3.04607">
        <ele>1</ele>
        <time>2018-08-31T08:17:03+02:00</time>
      </trkpt>
      <trkpt lat="43.01408" lon="3.04576">
        <ele>1</ele>
        <time>2018-08-31T08:17:09+02:00</time>
      </trkpt>
      <trkpt lat="43.01399" lon="3.04539">
        <ele>1</ele>
        <time>2018-08-31T08:17:14+02:00</time>
      </trkpt>
      <trkpt lat="43.01392" lon="3.04509">
        <ele>1</ele>
        <time>2018-08-31T08:17:19+02:00</time>
      </trkpt>
      <trkpt lat="43.01384" lon="3.04479">
        <ele>1</ele>
        <time>2018-08-31T08:17:24+02:00</time>
      </trkpt>
      <trkpt lat="43.01376" lon="3.04446">
        <ele>1</ele>
        <time>2018-08-31T08:17:30+02:00</time>
      </trkpt>
      <trkpt lat="43.01365" lon="3.04412">
        <ele>1</ele>
        <time>2018-08-31T08:17:36+02:00</time>
      </trkpt>
      <trkpt lat="43.01358" lon="3.0438">
        <ele>1</ele>
        <time>2018-08-31T08:17:42+02:00</time>
      </trkpt>
      <trkpt lat="43.0135" lon="3.04351">
        <ele>1</ele>
        <time>2018-08-31T08:17:48+02:00</time>
      </trkpt>
      <trkpt lat="43.01343" lon="3.04318">
        <ele>1</ele>
        <time>2018-08-31T08:17:54+02:00</time>
      </trkpt>
      <trkpt lat="43.01334" lon="3.04287">
        <ele>1</ele>
        <time>2018-08-31T08:18:00+02:00</time>
      </trkpt>
      <trkpt lat="43.01335" lon="3.04253">
        <ele>1</ele>
        <time>2018-08-31T08:18:07+02:00</time>
      </trkpt>
      <trkpt lat="43.01351" lon="3.04231">
        <ele>1</ele>
        <time>2018-08-31T08:18:13+02:00</time>
      </trkpt>
      <trkpt lat="43.01364" lon="3.04202">
        <ele>1</ele>
        <time>2018-08-31T08:18:19+02:00</time>
      </trkpt>
      <trkpt lat="43.01377" lon="3.0417">
        <ele>1</ele>
        <time>2018-08-31T08:18:25+02:00</time>
      </trkpt>
      <trkpt lat="43.01393" lon="3.04144">
        <ele>1</ele>
        <time>2018-08-31T08:18:32+02:00</time>
      </trkpt>
      <trkpt lat="43.01388" lon="3.0411">
        <ele>1</ele>
        <time>2018-08-31T08:18:38+02:00</time>
      </trkpt>
      <trkpt lat="43.01382" lon="3.04078">
        <ele>1</ele>
        <time>2018-08-31T08:18:43+02:00</time>
      </trkpt>
      <trkpt lat="43.01377" lon="3.04043">
        <ele>1</ele>
        <time>2018-08-31T08:18:48+02:00</time>
      </trkpt>
      <trkpt lat="43.01372" lon="3.04008">
        <ele>1</ele>
        <time>2018-08-31T08:18:54+02:00</time>
      </trkpt>
      <trkpt lat="43.01365" lon="3.03976">
        <ele>1</ele>
        <time>2018-08-31T08:19:01+02:00</time>
      </trkpt>
      <trkpt lat="43.01349" lon="3.03954">
        <ele>1</ele>
        <time>2018-08-31T08:19:07+02:00</time>
      </trkpt>
      <trkpt lat="43.01327" lon="3.03945">
        <ele>1</ele>
        <time>2018-08-31T08:19:11+02:00</time>
      </trkpt>
      <trkpt lat="43.01303" lon="3.03944">
        <ele>1</ele>
        <time>2018-08-31T08:19:16+02:00</time>
      </trkpt>
      <trkpt lat="43.01281" lon="3.03938">
        <ele>1</ele>
        <time>2018-08-31T08:19:20+02:00</time>
      </trkpt>
      <trkpt lat="43.01258" lon="3.03945">
        <ele>1</ele>
        <time>2018-08-31T08:19:24+02:00</time>
      </trkpt>
      <trkpt lat="43.01234" lon="3.03953">
        <ele>1</ele>
        <time>2018-08-31T08:19:30+02:00</time>
      </trkpt>
      <trkpt lat="43.0121" lon="3.03955">
        <ele>1</ele>
        <time>2018-08-31T08:19:34+02:00</time>
      </trkpt>
      <trkpt lat="43.01186" lon="3.03966">
        <ele>1</ele>
        <time>2018-08-31T08:19:40+02:00</time>
      </trkpt>
      <trkpt lat="43.01164" lon="3.03984">
        <ele>1</ele>
        <time>2018-08-31T08:19:45+02:00</time>
      </trkpt>
      <trkpt lat="43.01147" lon="3.04009">
        <ele>1</ele>
        <time>2018-08-31T08:19:49+02:00</time>
      </trkpt>
      <trkpt lat="43.01126" lon="3.04027">
        <ele>1</ele>
        <time>2018-08-31T08:19:53+02:00</time>
      </trkpt>
      <trkpt lat="43.01105" lon="3.0405">
        <ele>1</ele>
        <time>2018-08-31T08:19:57+02:00</time>
      </trkpt>
      <trkpt lat="43.01083" lon="3.04065">
        <ele>1</ele>
        <time>2018-08-31T08:20:01+02:00</time>
      </trkpt>
      <trkpt lat="43.01059" lon="3.0407">
        <ele>1</ele>
        <time>2018-08-31T08:20:05+02:00</time>
      </trkpt>
      <trkpt lat="43.01036" lon="3.04077">
        <ele>1</ele>
        <time>2018-08-31T08:20:10+02:00</time>
      </trkpt>
      <trkpt lat="43.01012" lon="3.04086">
        <ele>1</ele>
        <time>2018-08-31T08:20:16+02:00</time>
      </trkpt>
      <trkpt lat="43.00983" lon="3.04087">
        <ele>1</ele>
        <time>2018-08-31T08:20:22+02:00</time>
      </trkpt>
      <trkpt lat="43.00959" lon="3.04089">
        <ele>1</ele>
        <time>2018-08-31T08:20:26+02:00</time>
      </trkpt>
      <trkpt lat="43.00934" lon="3.04094">
        <ele>1</ele>
        <time>2018-08-31T08:20:31+02:00</time>
      </trkpt>
      <trkpt lat="43.0091" lon="3.04099">
        <ele>1</ele>
        <time>2018-08-31T08:20:36+02:00</time>
      </trkpt>
      <trkpt lat="43.00882" lon="3.04104">
        <ele>1</ele>
        <time>2018-08-31T08:20:41+02:00</time>
      </trkpt>
      <trkpt lat="43.00856" lon="3.04107">
        <ele>1</ele>
        <time>2018-08-31T08:20:46+02:00</time>
      </trkpt>
      <trkpt lat="43.00832" lon="3.04111">
        <ele>1</ele>
        <time>2018-08-31T08:20:51+02:00</time>
      </trkpt>
      <trkpt lat="43.00808" lon="3.04118">
        <ele>1</ele>
        <time>2018-08-31T08:20:56+02:00</time>
      </trkpt>
      <trkpt lat="43.00781" lon="3.04123">
        <ele>1</ele>
        <time>2018-08-31T08:21:01+02:00</time>
      </trkpt>
      <trkpt lat="43.00754" lon="3.04127">
        <ele>1</ele>
        <time>2018-08-31T08:21:06+02:00</time>
      </trkpt>
      <trkpt lat="43.00731" lon="3.04129">
        <ele>1</ele>
        <time>2018-08-31T08:21:10+02:00</time>
      </trkpt>
      <trkpt lat="43.00706" lon="3.0413">
        <ele>1</ele>
        <time>2018-08-31T08:21:15+02:00</time>
      </trkpt>
      <trkpt lat="43.00681" lon="3.04133">
        <ele>1</ele>
        <time>2018-08-31T08:21:20+02:00</time>
      </trkpt>
      <trkpt lat="43.00657" lon="3.04135">
        <ele>1</ele>
        <time>2018-08-31T08:21:24+02:00</time>
      </trkpt>
      <trkpt lat="43.00634" lon="3.04138">
        <ele>1</ele>
        <time>2018-08-31T08:21:28+02:00</time>
      </trkpt>
      <trkpt lat="43.00607" lon="3.04143">
        <ele>1</ele>
        <time>2018-08-31T08:21:33+02:00</time>
      </trkpt>
      <trkpt lat="43.00584" lon="3.04148">
        <ele>1</ele>
        <time>2018-08-31T08:21:38+02:00</time>
      </trkpt>
      <trkpt lat="43.00564" lon="3.04164">
        <ele>1</ele>
        <time>2018-08-31T08:21:43+02:00</time>
      </trkpt>
      <trkpt lat="43.0056" lon="3.04199">
        <ele>1</ele>
        <time>2018-08-31T08:21:48+02:00</time>
      </trkpt>
      <trkpt lat="43.00555" lon="3.04231">
        <ele>1</ele>
        <time>2018-08-31T08:21:52+02:00</time>
      </trkpt>
      <trkpt lat="43.00552" lon="3.04263">
        <ele>1</ele>
        <time>2018-08-31T08:21:56+02:00</time>
      </trkpt>
      <trkpt lat="43.00546" lon="3.04296">
        <ele>1</ele>
        <time>2018-08-31T08:22:01+02:00</time>
      </trkpt>
      <trkpt lat="43.00545" lon="3.04328">
        <ele>1</ele>
        <time>2018-08-31T08:22:05+02:00</time>
      </trkpt>
      <trkpt lat="43.0054" lon="3.04366">
        <ele>1</ele>
        <time>2018-08-31T08:22:10+02:00</time>
      </trkpt>
      <trkpt lat="43.00538" lon="3.04401">
        <ele>1</ele>
        <time>2018-08-31T08:22:15+02:00</time>
      </trkpt>
      <trkpt lat="43.00531" lon="3.04434">
        <ele>1</ele>
        <time>2018-08-31T08:22:20+02:00</time>
      </trkpt>
      <trkpt lat="43.00512" lon="3.04454">
        <ele>1</ele>
        <time>2018-08-31T08:22:25+02:00</time>
      </trkpt>
      <trkpt lat="43.00487" lon="3.04464">
        <ele>1</ele>
        <time>2018-08-31T08:22:30+02:00</time>
      </trkpt>
      <trkpt lat="43.00459" lon="3.04464">
        <ele>1</ele>
        <time>2018-08-31T08:22:35+02:00</time>
      </trkpt>
      <trkpt lat="43.00435" lon="3.0446">
        <ele>1</ele>
        <time>2018-08-31T08:22:40+02:00</time>
      </trkpt>
      <trkpt lat="43.00411" lon="3.04457">
        <ele>1</ele>
        <time>2018-08-31T08:22:46+02:00</time>
      </trkpt>
      <trkpt lat="43.00378" lon="3.04453">
        <ele>1</ele>
        <time>2018-08-31T08:22:52+02:00</time>
      </trkpt>
      <trkpt lat="43.00354" lon="3.0445">
        <ele>1</ele>
        <time>2018-08-31T08:22:56+02:00</time>
      </trkpt>
      <trkpt lat="43.00329" lon="3.04445">
        <ele>1</ele>
        <time>2018-08-31T08:23:02+02:00</time>
      </trkpt>
      <trkpt lat="43.00306" lon="3.04439">
        <ele>1</ele>
        <time>2018-08-31T08:23:07+02:00</time>
      </trkpt>
      <trkpt lat="43.00281" lon="3.04438">
        <ele>1</ele>
        <time>2018-08-31T08:23:12+02:00</time>
      </trkpt>
      <trkpt lat="43.00257" lon="3.04433">
        <ele>1</ele>
        <time>2018-08-31T08:23:17+02:00</time>
      </trkpt>
      <trkpt lat="43.00234" lon="3.04428">
        <ele>1</ele>
        <time>2018-08-31T08:23:22+02:00</time>
      </trkpt>
      <trkpt lat="43.00212" lon="3.04425">
        <ele>1</ele>
        <time>2018-08-31T08:23:26+02:00</time>
      </trkpt>
      <trkpt lat="43.00186" lon="3.0442">
        <ele>1</ele>
        <time>2018-08-31T08:23:31+02:00</time>
      </trkpt>
      <trkpt lat="43.00161" lon="3.04413">
        <ele>1</ele>
        <time>2018-08-31T08:23:36+02:00</time>
      </trkpt>
      <trkpt lat="43.00138" lon="3.04408">
        <ele>1</ele>
        <time>2018-08-31T08:23:40+02:00</time>
      </trkpt>
      <trkpt lat="43.00112" lon="3.04401">
        <ele>1</ele>
        <time>2018-08-31T08:23:46+02:00</time>
      </trkpt>
      <trkpt lat="43.00088" lon="3.04399">
        <ele>1</ele>
        <time>2018-08-31T08:23:51+02:00</time>
      </trkpt>
      <trkpt lat="43.00065" lon="3.04404">
        <ele>1</ele>
        <time>2018-08-31T08:23:55+02:00</time>
      </trkpt>
      <trkpt lat="43.00043" lon="3.04414">
        <ele>1</ele>
        <time>2018-08-31T08:23:59+02:00</time>
      </trkpt>
      <trkpt lat="43.00023" lon="3.04431">
        <ele>1</ele>
        <time>2018-08-31T08:24:04+02:00</time>
      </trkpt>
      <trkpt lat="43.00006" lon="3.04451">
        <ele>1</ele>
        <time>2018-08-31T08:24:09+02:00</time>
      </trkpt>
      <trkpt lat="42.99986" lon="3.04471">
        <ele>1</ele>
        <time>2018-08-31T08:24:14+02:00</time>
      </trkpt>
      <trkpt lat="42.99971" lon="3.045">
        <ele>1</ele>
        <time>2018-08-31T08:24:19+02:00</time>
      </trkpt>
      <trkpt lat="42.99956" lon="3.04527">
        <ele>1</ele>
        <time>2018-08-31T08:24:25+02:00</time>
      </trkpt>
      <trkpt lat="42.99943" lon="3.04554">
        <ele>1</ele>
        <time>2018-08-31T08:24:29+02:00</time>
      </trkpt>
      <trkpt lat="42.9992" lon="3.04571">
        <ele>1</ele>
        <time>2018-08-31T08:24:34+02:00</time>
      </trkpt>
      <trkpt lat="42.99901" lon="3.04595">
        <ele>1</ele>
        <time>2018-08-31T08:24:39+02:00</time>
      </trkpt>
      <trkpt lat="42.99889" lon="3.04622">
        <ele>1</ele>
        <time>2018-08-31T08:24:44+02:00</time>
      </trkpt>
      <trkpt lat="42.99868" lon="3.04646">
        <ele>1</ele>
        <time>2018-08-31T08:24:49+02:00</time>
      </trkpt>
      <trkpt lat="42.99852" lon="3.04673">
        <ele>1</ele>
        <time>2018-08-31T08:24:54+02:00</time>
      </trkpt>
      <trkpt lat="42.99835" lon="3.04697">
        <ele>1</ele>
        <time>2018-08-31T08:24:59+02:00</time>
      </trkpt>
      <trkpt lat="42.99814" lon="3.04715">
        <ele>1</ele>
        <time>2018-08-31T08:25:04+02:00</time>
      </trkpt>
      <trkpt lat="42.9979" lon="3.04723">
        <ele>1</ele>
        <time>2018-08-31T08:25:09+02:00</time>
      </trkpt>
      <trkpt lat="42.99766" lon="3.04738">
        <ele>1</ele>
        <time>2018-08-31T08:25:14+02:00</time>
      </trkpt>
      <trkpt lat="42.99745" lon="3.0476">
        <ele>1</ele>
        <time>2018-08-31T08:25:19+02:00</time>
      </trkpt>
      <trkpt lat="42.99726" lon="3.04784">
        <ele>1</ele>
        <time>2018-08-31T08:25:24+02:00</time>
      </trkpt>
      <trkpt lat="42.9971" lon="3.04806">
        <ele>1</ele>
        <time>2018-08-31T08:25:29+02:00</time>
      </trkpt>
      <trkpt lat="42.99695" lon="3.04836">
        <ele>1</ele>
        <time>2018-08-31T08:25:34+02:00</time>
      </trkpt>
      <trkpt lat="42.9968" lon="3.04861">
        <ele>1</ele>
        <time>2018-08-31T08:25:39+02:00</time>
      </trkpt>
      <trkpt lat="42.99655" lon="3.04871">
        <ele>1</ele>
        <time>2018-08-31T08:25:44+02:00</time>
      </trkpt>
      <trkpt lat="42.99632" lon="3.04881">
        <ele>1</ele>
        <time>2018-08-31T08:25:48+02:00</time>
      </trkpt>
      <trkpt lat="42.99606" lon="3.04887">
        <ele>1</ele>
        <time>2018-08-31T08:25:53+02:00</time>
      </trkpt>
      <trkpt lat="42.99581" lon="3.04888">
        <ele>1</ele>
        <time>2018-08-31T08:25:58+02:00</time>
      </trkpt>
      <trkpt lat="42.99557" lon="3.04887">
        <ele>1</ele>
        <time>2018-08-31T08:26:03+02:00</time>
      </trkpt>
      <trkpt lat="42.99533" lon="3.04881">
        <ele>1.2</ele>
        <time>2018-08-31T08:26:09+02:00</time>
      </trkpt>
      <trkpt lat="42.99507" lon="3.04878">
        <ele>1.4</ele>
        <time>2018-08-31T08:26:15+02:00</time>
      </trkpt>
      <trkpt lat="42.99481" lon="3.04869">
        <ele>1</ele>
        <time>2018-08-31T08:26:22+02:00</time>
      </trkpt>
      <trkpt lat="42.99456" lon="3.04865">
        <ele>1</ele>
        <time>2018-08-31T08:26:27+02:00</time>
      </trkpt>
      <trkpt lat="42.99428" lon="3.04857">
        <ele>1</ele>
        <time>2018-08-31T08:26:31+02:00</time>
      </trkpt>
      <trkpt lat="42.99402" lon="3.04856">
        <ele>1</ele>
        <time>2018-08-31T08:26:36+02:00</time>
      </trkpt>
      <trkpt lat="42.99379" lon="3.04853">
        <ele>1</ele>
        <time>2018-08-31T08:26:41+02:00</time>
      </trkpt>
      <trkpt lat="42.99354" lon="3.04852">
        <ele>1</ele>
        <time>2018-08-31T08:26:46+02:00</time>
      </trkpt>
      <trkpt lat="42.99329" lon="3.04847">
        <ele>1</ele>
        <time>2018-08-31T08:26:52+02:00</time>
      </trkpt>
      <trkpt lat="42.99303" lon="3.04841">
        <ele>1</ele>
        <time>2018-08-31T08:26:57+02:00</time>
      </trkpt>
      <trkpt lat="42.99279" lon="3.04836">
        <ele>1</ele>
        <time>2018-08-31T08:27:02+02:00</time>
      </trkpt>
      <trkpt lat="42.99252" lon="3.04824">
        <ele>1</ele>
        <time>2018-08-31T08:27:07+02:00</time>
      </trkpt>
      <trkpt lat="42.99229" lon="3.0481">
        <ele>1</ele>
        <time>2018-08-31T08:27:12+02:00</time>
      </trkpt>
      <trkpt lat="42.99205" lon="3.04798">
        <ele>1</ele>
        <time>2018-08-31T08:27:17+02:00</time>
      </trkpt>
      <trkpt lat="42.99182" lon="3.0478">
        <ele>1</ele>
        <time>2018-08-31T08:27:22+02:00</time>
      </trkpt>
      <trkpt lat="42.9916" lon="3.04765">
        <ele>1</ele>
        <time>2018-08-31T08:27:28+02:00</time>
      </trkpt>
      <trkpt lat="42.99138" lon="3.04749">
        <ele>1</ele>
        <time>2018-08-31T08:27:33+02:00</time>
      </trkpt>
      <trkpt lat="42.99114" lon="3.04739">
        <ele>1</ele>
        <time>2018-08-31T08:27:38+02:00</time>
      </trkpt>
      <trkpt lat="42.99089" lon="3.04729">
        <ele>1</ele>
        <time>2018-08-31T08:27:43+02:00</time>
      </trkpt>
      <trkpt lat="42.99066" lon="3.04715">
        <ele>1</ele>
        <time>2018-08-31T08:27:49+02:00</time>
      </trkpt>
      <trkpt lat="42.9904" lon="3.04704">
        <ele>1</ele>
        <time>2018-08-31T08:27:55+02:00</time>
      </trkpt>
      <trkpt lat="42.99016" lon="3.04696">
        <ele>1</ele>
        <time>2018-08-31T08:28:00+02:00</time>
      </trkpt>
      <trkpt lat="42.98986" lon="3.04693">
        <ele>1</ele>
        <time>2018-08-31T08:28:04+02:00</time>
      </trkpt>
      <trkpt lat="42.98966" lon="3.04675">
        <ele>1</ele>
        <time>2018-08-31T08:28:09+02:00</time>
      </trkpt>
      <trkpt lat="42.98939" lon="3.04668">
        <ele>1</ele>
        <time>2018-08-31T08:28:14+02:00</time>
      </trkpt>
      <trkpt lat="42.98915" lon="3.04667">
        <ele>1</ele>
        <time>2018-08-31T08:28:19+02:00</time>
      </trkpt>
      <trkpt lat="42.9889" lon="3.04668">
        <ele>1</ele>
        <time>2018-08-31T08:28:24+02:00</time>
      </trkpt>
      <trkpt lat="42.98868" lon="3.04657">
        <ele>1.5</ele>
        <time>2018-08-31T08:28:29+02:00</time>
      </trkpt>
      <trkpt lat="42.98846" lon="3.04645">
        <ele>1.1</ele>
        <time>2018-08-31T08:28:34+02:00</time>
      </trkpt>
      <trkpt lat="42.98826" lon="3.04631">
        <ele>1</ele>
        <time>2018-08-31T08:28:38+02:00</time>
      </trkpt>
      <trkpt lat="42.98804" lon="3.04614">
        <ele>1</ele>
        <time>2018-08-31T08:28:43+02:00</time>
      </trkpt>
      <trkpt lat="42.98782" lon="3.04596">
        <ele>1</ele>
        <time>2018-08-31T08:28:48+02:00</time>
      </trkpt>
      <trkpt lat="42.98762" lon="3.04574">
        <ele>1</ele>
        <time>2018-08-31T08:28:54+02:00</time>
      </trkpt>
      <trkpt lat="42.98738" lon="3.04557">
        <ele>1</ele>
        <time>2018-08-31T08:28:59+02:00</time>
      </trkpt>
      <trkpt lat="42.98716" lon="3.04534">
        <ele>1</ele>
        <time>2018-08-31T08:29:04+02:00</time>
      </trkpt>
      <trkpt lat="42.9869" lon="3.04524">
        <ele>1</ele>
        <time>2018-08-31T08:29:08+02:00</time>
      </trkpt>
      <trkpt lat="42.98669" lon="3.04504">
        <ele>1</ele>
        <time>2018-08-31T08:29:14+02:00</time>
      </trkpt>
      <trkpt lat="42.98648" lon="3.04487">
        <ele>1</ele>
        <time>2018-08-31T08:29:20+02:00</time>
      </trkpt>
      <trkpt lat="42.98626" lon="3.04468">
        <ele>1</ele>
        <time>2018-08-31T08:29:26+02:00</time>
      </trkpt>
      <trkpt lat="42.986" lon="3.04457">
        <ele>1</ele>
        <time>2018-08-31T08:29:32+02:00</time>
      </trkpt>
      <trkpt lat="42.98575" lon="3.04442">
        <ele>1</ele>
        <time>2018-08-31T08:29:37+02:00</time>
      </trkpt>
      <trkpt lat="42.98548" lon="3.0443">
        <ele>1</ele>
        <time>2018-08-31T08:29:44+02:00</time>
      </trkpt>
      <trkpt lat="42.98527" lon="3.04418">
        <ele>1</ele>
        <time>2018-08-31T08:30:22+02:00</time>
      </trkpt>
      <trkpt lat="42.9851" lon="3.04391">
        <ele>1</ele>
        <time>2018-08-31T08:30:28+02:00</time>
      </trkpt>
      <trkpt lat="42.98493" lon="3.04365">
        <ele>1</ele>
        <time>2018-08-31T08:30:34+02:00</time>
      </trkpt>
      <trkpt lat="42.98473" lon="3.04343">
        <ele>1</ele>
        <time>2018-08-31T08:30:39+02:00</time>
      </trkpt>
      <trkpt lat="42.98453" lon="3.04329">
        <ele>1.2</ele>
        <time>2018-08-31T08:30:43+02:00</time>
      </trkpt>
      <trkpt lat="42.9843" lon="3.04316">
        <ele>1</ele>
        <time>2018-08-31T08:30:49+02:00</time>
      </trkpt>
      <trkpt lat="42.98407" lon="3.04301">
        <ele>1</ele>
        <time>2018-08-31T08:30:55+02:00</time>
      </trkpt>
      <trkpt lat="42.98385" lon="3.04288">
        <ele>1</ele>
        <time>2018-08-31T08:31:00+02:00</time>
      </trkpt>
      <trkpt lat="42.9836" lon="3.04277">
        <ele>1</ele>
        <time>2018-08-31T08:31:05+02:00</time>
      </trkpt>
      <trkpt lat="42.9834" lon="3.04259">
        <ele>1</ele>
        <time>2018-08-31T08:31:10+02:00</time>
      </trkpt>
      <trkpt lat="42.98323" lon="3.04236">
        <ele>1</ele>
        <time>2018-08-31T08:31:15+02:00</time>
      </trkpt>
      <trkpt lat="42.98302" lon="3.04213">
        <ele>1</ele>
        <time>2018-08-31T08:31:20+02:00</time>
      </trkpt>
      <trkpt lat="42.9828" lon="3.04191">
        <ele>1</ele>
        <time>2018-08-31T08:31:25+02:00</time>
      </trkpt>
      <trkpt lat="42.98262" lon="3.04169">
        <ele>1.1</ele>
        <time>2018-08-31T08:31:30+02:00</time>
      </trkpt>
      <trkpt lat="42.98243" lon="3.04146">
        <ele>1</ele>
        <time>2018-08-31T08:31:35+02:00</time>
      </trkpt>
      <trkpt lat="42.98224" lon="3.04124">
        <ele>1</ele>
        <time>2018-08-31T08:31:41+02:00</time>
      </trkpt>
      <trkpt lat="42.98203" lon="3.04103">
        <ele>1</ele>
        <time>2018-08-31T08:31:46+02:00</time>
      </trkpt>
      <trkpt lat="42.98205" lon="3.04071">
        <ele>1</ele>
        <time>2018-08-31T08:31:51+02:00</time>
      </trkpt>
      <trkpt lat="42.98221" lon="3.04046">
        <ele>1</ele>
        <time>2018-08-31T08:31:59+02:00</time>
      </trkpt>
      <trkpt lat="42.98237" lon="3.04014">
        <ele>1</ele>
        <time>2018-08-31T08:32:04+02:00</time>
      </trkpt>
      <trkpt lat="42.98251" lon="3.03987">
        <ele>1</ele>
        <time>2018-08-31T08:32:08+02:00</time>
      </trkpt>
      <trkpt lat="42.98264" lon="3.03957">
        <ele>1</ele>
        <time>2018-08-31T08:32:13+02:00</time>
      </trkpt>
      <trkpt lat="42.98272" lon="3.03925">
        <ele>1</ele>
        <time>2018-08-31T08:32:17+02:00</time>
      </trkpt>
      <trkpt lat="42.98286" lon="3.03895">
        <ele>1</ele>
        <time>2018-08-31T08:32:22+02:00</time>
      </trkpt>
      <trkpt lat="42.98296" lon="3.03861">
        <ele>1</ele>
        <time>2018-08-31T08:32:27+02:00</time>
      </trkpt>
      <trkpt lat="42.98315" lon="3.0384">
        <ele>1</ele>
        <time>2018-08-31T08:32:32+02:00</time>
      </trkpt>
      <trkpt lat="42.9833" lon="3.03814">
        <ele>1</ele>
        <time>2018-08-31T08:32:37+02:00</time>
      </trkpt>
      <trkpt lat="42.98344" lon="3.03782">
        <ele>1.5</ele>
        <time>2018-08-31T08:32:42+02:00</time>
      </trkpt>
      <trkpt lat="42.98358" lon="3.03755">
        <ele>1</ele>
        <time>2018-08-31T08:32:47+02:00</time>
      </trkpt>
      <trkpt lat="42.98372" lon="3.03731">
        <ele>1</ele>
        <time>2018-08-31T08:32:52+02:00</time>
      </trkpt>
      <trkpt lat="42.98387" lon="3.03703">
        <ele>1</ele>
        <time>2018-08-31T08:32:57+02:00</time>
      </trkpt>
      <trkpt lat="42.98397" lon="3.03674">
        <ele>1</ele>
        <time>2018-08-31T08:33:01+02:00</time>
      </trkpt>
      <trkpt lat="42.98415" lon="3.03646">
        <ele>1</ele>
        <time>2018-08-31T08:33:07+02:00</time>
      </trkpt>
      <trkpt lat="42.98429" lon="3.0362">
        <ele>1</ele>
        <time>2018-08-31T08:33:12+02:00</time>
      </trkpt>
      <trkpt lat="42.98442" lon="3.03587">
        <ele>1</ele>
        <time>2018-08-31T08:33:17+02:00</time>
      </trkpt>
      <trkpt lat="42.98457" lon="3.0356">
        <ele>1</ele>
        <time>2018-08-31T08:33:22+02:00</time>
      </trkpt>
      <trkpt lat="42.98474" lon="3.03533">
        <ele>1</ele>
        <time>2018-08-31T08:33:27+02:00</time>
      </trkpt>
      <trkpt lat="42.98486" lon="3.035">
        <ele>1</ele>
        <time>2018-08-31T08:33:32+02:00</time>
      </trkpt>
      <trkpt lat="42.98499" lon="3.03472">
        <ele>1</ele>
        <time>2018-08-31T08:33:37+02:00</time>
      </trkpt>
      <trkpt lat="42.98516" lon="3.03447">
        <ele>1</ele>
        <time>2018-08-31T08:33:42+02:00</time>
      </trkpt>
      <trkpt lat="42.98532" lon="3.03417">
        <ele>1</ele>
        <time>2018-08-31T08:33:47+02:00</time>
      </trkpt>
      <trkpt lat="42.98547" lon="3.03389">
        <ele>1</ele>
        <time>2018-08-31T08:33:52+02:00</time>
      </trkpt>
      <trkpt lat="42.98556" lon="3.03359">
        <ele>1</ele>
        <time>2018-08-31T08:33:56+02:00</time>
      </trkpt>
      <trkpt lat="42.9857" lon="3.0333">
        <ele>1</ele>
        <time>2018-08-31T08:34:01+02:00</time>
      </trkpt>
      <trkpt lat="42.98591" lon="3.03307">
        <ele>1</ele>
        <time>2018-08-31T08:34:06+02:00</time>
      </trkpt>
      <trkpt lat="42.98604" lon="3.0328">
        <ele>1</ele>
        <time>2018-08-31T08:34:11+02:00</time>
      </trkpt>
      <trkpt lat="42.9862" lon="3.03254">
        <ele>2</ele>
        <time>2018-08-31T08:34:20+02:00</time>
      </trkpt>
      <trkpt lat="42.98609" lon="3.03222">
        <ele>3</ele>
        <time>2018-08-31T08:34:28+02:00</time>
      </trkpt>
      <trkpt lat="42.98598" lon="3.03192">
        <ele>3</ele>
        <time>2018-08-31T08:34:34+02:00</time>
      </trkpt>
      <trkpt lat="42.98588" lon="3.03158">
        <ele>3</ele>
        <time>2018-08-31T08:34:39+02:00</time>
      </trkpt>
      <trkpt lat="42.98575" lon="3.03132">
        <ele>2</ele>
        <time>2018-08-31T08:34:43+02:00</time>
      </trkpt>
      <trkpt lat="42.98554" lon="3.03106">
        <ele>1</ele>
        <time>2018-08-31T08:34:47+02:00</time>
      </trkpt>
      <trkpt lat="42.98536" lon="3.03073">
        <ele>1</ele>
        <time>2018-08-31T08:34:52+02:00</time>
      </trkpt>
      <trkpt lat="42.98522" lon="3.03043">
        <ele>1</ele>
        <time>2018-08-31T08:34:57+02:00</time>
      </trkpt>
      <trkpt lat="42.98507" lon="3.03017">
        <ele>1</ele>
        <time>2018-08-31T08:35:02+02:00</time>
      </trkpt>
      <trkpt lat="42.98494" lon="3.02986">
        <ele>1</ele>
        <time>2018-08-31T08:35:07+02:00</time>
      </trkpt>
      <trkpt lat="42.98485" lon="3.02952">
        <ele>1</ele>
        <time>2018-08-31T08:35:11+02:00</time>
      </trkpt>
      <trkpt lat="42.98468" lon="3.02927">
        <ele>1</ele>
        <time>2018-08-31T08:35:15+02:00</time>
      </trkpt>
      <trkpt lat="42.98459" lon="3.02894">
        <ele>1</ele>
        <time>2018-08-31T08:35:20+02:00</time>
      </trkpt>
      <trkpt lat="42.98448" lon="3.02864">
        <ele>1</ele>
        <time>2018-08-31T08:35:25+02:00</time>
      </trkpt>
      <trkpt lat="42.98436" lon="3.02833">
        <ele>1</ele>
        <time>2018-08-31T08:35:31+02:00</time>
      </trkpt>
      <trkpt lat="42.98422" lon="3.02801">
        <ele>1</ele>
        <time>2018-08-31T08:35:36+02:00</time>
      </trkpt>
      <trkpt lat="42.98411" lon="3.02772">
        <ele>1</ele>
        <time>2018-08-31T08:35:40+02:00</time>
      </trkpt>
      <trkpt lat="42.98404" lon="3.02743">
        <ele>1</ele>
        <time>2018-08-31T08:35:44+02:00</time>
      </trkpt>
      <trkpt lat="42.98387" lon="3.02722">
        <ele>1</ele>
        <time>2018-08-31T08:35:47+02:00</time>
      </trkpt>
      <trkpt lat="42.98372" lon="3.02691">
        <ele>1</ele>
        <time>2018-08-31T08:35:52+02:00</time>
      </trkpt>
      <trkpt lat="42.98362" lon="3.02663">
        <ele>1</ele>
        <time>2018-08-31T08:35:56+02:00</time>
      </trkpt>
      <trkpt lat="42.98351" lon="3.02634">
        <ele>1</ele>
        <time>2018-08-31T08:36:01+02:00</time>
      </trkpt>
      <trkpt lat="42.98337" lon="3.02602">
        <ele>1</ele>
        <time>2018-08-31T08:36:07+02:00</time>
      </trkpt>
      <trkpt lat="42.98315" lon="3.02581">
        <ele>1</ele>
        <time>2018-08-31T08:36:11+02:00</time>
      </trkpt>
      <trkpt lat="42.98322" lon="3.0255">
        <ele>1</ele>
        <time>2018-08-31T08:36:15+02:00</time>
      </trkpt>
      <trkpt lat="42.98312" lon="3.02519">
        <ele>1</ele>
        <time>2018-08-31T08:36:20+02:00</time>
      </trkpt>
      <trkpt lat="42.98303" lon="3.02488">
        <ele>1</ele>
        <time>2018-08-31T08:36:25+02:00</time>
      </trkpt>
      <trkpt lat="42.98287" lon="3.02463">
        <ele>1</ele>
        <time>2018-08-31T08:36:29+02:00</time>
      </trkpt>
      <trkpt lat="42.98275" lon="3.02436">
        <ele>1</ele>
        <time>2018-08-31T08:36:33+02:00</time>
      </trkpt>
      <trkpt lat="42.98257" lon="3.0241">
        <ele>1</ele>
        <time>2018-08-31T08:36:37+02:00</time>
      </trkpt>
      <trkpt lat="42.9825" lon="3.02373">
        <ele>1</ele>
        <time>2018-08-31T08:36:42+02:00</time>
      </trkpt>
      <trkpt lat="42.98234" lon="3.02345">
        <ele>1</ele>
        <time>2018-08-31T08:36:47+02:00</time>
      </trkpt>
      <trkpt lat="42.98219" lon="3.02307">
        <ele>1</ele>
        <time>2018-08-31T08:36:52+02:00</time>
      </trkpt>
      <trkpt lat="42.98208" lon="3.02279">
        <ele>1</ele>
        <time>2018-08-31T08:36:57+02:00</time>
      </trkpt>
      <trkpt lat="42.98198" lon="3.0225">
        <ele>1</ele>
        <time>2018-08-31T08:37:01+02:00</time>
      </trkpt>
      <trkpt lat="42.98185" lon="3.02223">
        <ele>1</ele>
        <time>2018-08-31T08:37:05+02:00</time>
      </trkpt>
      <trkpt lat="42.98173" lon="3.02193">
        <ele>1</ele>
        <time>2018-08-31T08:37:09+02:00</time>
      </trkpt>
      <trkpt lat="42.9816" lon="3.02165">
        <ele>1</ele>
        <time>2018-08-31T08:37:13+02:00</time>
      </trkpt>
      <trkpt lat="42.98149" lon="3.02135">
        <ele>1</ele>
        <time>2018-08-31T08:37:18+02:00</time>
      </trkpt>
      <trkpt lat="42.98137" lon="3.02109">
        <ele>1</ele>
        <time>2018-08-31T08:37:22+02:00</time>
      </trkpt>
      <trkpt lat="42.98124" lon="3.02076">
        <ele>1</ele>
        <time>2018-08-31T08:37:27+02:00</time>
      </trkpt>
      <trkpt lat="42.98114" lon="3.02049">
        <ele>1</ele>
        <time>2018-08-31T08:37:31+02:00</time>
      </trkpt>
      <trkpt lat="42.98103" lon="3.02017">
        <ele>1</ele>
        <time>2018-08-31T08:37:36+02:00</time>
      </trkpt>
      <trkpt lat="42.98089" lon="3.01984">
        <ele>1</ele>
        <time>2018-08-31T08:37:41+02:00</time>
      </trkpt>
      <trkpt lat="42.98075" lon="3.01953">
        <ele>1</ele>
        <time>2018-08-31T08:37:46+02:00</time>
      </trkpt>
      <trkpt lat="42.9806" lon="3.0192">
        <ele>1</ele>
        <time>2018-08-31T08:37:51+02:00</time>
      </trkpt>
      <trkpt lat="42.98048" lon="3.0189">
        <ele>1</ele>
        <time>2018-08-31T08:37:55+02:00</time>
      </trkpt>
      <trkpt lat="42.98038" lon="3.01859">
        <ele>1</ele>
        <time>2018-08-31T08:38:00+02:00</time>
      </trkpt>
      <trkpt lat="42.98031" lon="3.0183">
        <ele>1</ele>
        <time>2018-08-31T08:38:04+02:00</time>
      </trkpt>
      <trkpt lat="42.98017" lon="3.01804">
        <ele>1</ele>
        <time>2018-08-31T08:38:08+02:00</time>
      </trkpt>
      <trkpt lat="42.98002" lon="3.01773">
        <ele>1</ele>
        <time>2018-08-31T08:38:13+02:00</time>
      </trkpt>
      <trkpt lat="42.97994" lon="3.01739">
        <ele>1</ele>
        <time>2018-08-31T08:38:18+02:00</time>
      </trkpt>
      <trkpt lat="42.97979" lon="3.01712">
        <ele>1</ele>
        <time>2018-08-31T08:38:23+02:00</time>
      </trkpt>
      <trkpt lat="42.97968" lon="3.01678">
        <ele>1</ele>
        <time>2018-08-31T08:38:28+02:00</time>
      </trkpt>
      <trkpt lat="42.97958" lon="3.01647">
        <ele>1</ele>
        <time>2018-08-31T08:38:33+02:00</time>
      </trkpt>
      <trkpt lat="42.97943" lon="3.01612">
        <ele>1</ele>
        <time>2018-08-31T08:38:38+02:00</time>
      </trkpt>
      <trkpt lat="42.97925" lon="3.0158">
        <ele>1</ele>
        <time>2018-08-31T08:38:43+02:00</time>
      </trkpt>
      <trkpt lat="42.97912" lon="3.01551">
        <ele>1</ele>
        <time>2018-08-31T08:38:47+02:00</time>
      </trkpt>
      <trkpt lat="42.979" lon="3.01522">
        <ele>1</ele>
        <time>2018-08-31T08:38:52+02:00</time>
      </trkpt>
      <trkpt lat="42.9789" lon="3.01491">
        <ele>1</ele>
        <time>2018-08-31T08:38:57+02:00</time>
      </trkpt>
      <trkpt lat="42.97877" lon="3.01458">
        <ele>1</ele>
        <time>2018-08-31T08:39:02+02:00</time>
      </trkpt>
      <trkpt lat="42.97864" lon="3.01431">
        <ele>1</ele>
        <time>2018-08-31T08:39:06+02:00</time>
      </trkpt>
      <trkpt lat="42.97852" lon="3.01405">
        <ele>1</ele>
        <time>2018-08-31T08:39:11+02:00</time>
      </trkpt>
      <trkpt lat="42.97841" lon="3.01372">
        <ele>1</ele>
        <time>2018-08-31T08:39:16+02:00</time>
      </trkpt>
      <trkpt lat="42.9783" lon="3.0134">
        <ele>1</ele>
        <time>2018-08-31T08:39:21+02:00</time>
      </trkpt>
      <trkpt lat="42.97819" lon="3.0131">
        <ele>1</ele>
        <time>2018-08-31T08:39:26+02:00</time>
      </trkpt>
      <trkpt lat="42.97812" lon="3.01276">
        <ele>1</ele>
        <time>2018-08-31T08:39:31+02:00</time>
      </trkpt>
      <trkpt lat="42.97798" lon="3.01251">
        <ele>1</ele>
        <time>2018-08-31T08:39:35+02:00</time>
      </trkpt>
      <trkpt lat="42.97789" lon="3.01215">
        <ele>1</ele>
        <time>2018-08-31T08:39:40+02:00</time>
      </trkpt>
      <trkpt lat="42.97773" lon="3.01191">
        <ele>1</ele>
        <time>2018-08-31T08:39:44+02:00</time>
      </trkpt>
      <trkpt lat="42.97755" lon="3.01169">
        <ele>1</ele>
        <time>2018-08-31T08:39:48+02:00</time>
      </trkpt>
      <trkpt lat="42.97744" lon="3.01138">
        <ele>1</ele>
        <time>2018-08-31T08:39:53+02:00</time>
      </trkpt>
      <trkpt lat="42.97735" lon="3.01106">
        <ele>1</ele>
        <time>2018-08-31T08:39:58+02:00</time>
      </trkpt>
      <trkpt lat="42.97733" lon="3.01075">
        <ele>1</ele>
        <time>2018-08-31T08:40:03+02:00</time>
      </trkpt>
      <trkpt lat="42.97719" lon="3.0105">
        <ele>1</ele>
        <time>2018-08-31T08:40:07+02:00</time>
      </trkpt>
      <trkpt lat="42.97706" lon="3.01024">
        <ele>1</ele>
        <time>2018-08-31T08:40:11+02:00</time>
      </trkpt>
      <trkpt lat="42.97695" lon="3.00995">
        <ele>1</ele>
        <time>2018-08-31T08:40:15+02:00</time>
      </trkpt>
      <trkpt lat="42.97681" lon="3.00969">
        <ele>1</ele>
        <time>2018-08-31T08:40:19+02:00</time>
      </trkpt>
      <trkpt lat="42.97665" lon="3.0094">
        <ele>1</ele>
        <time>2018-08-31T08:40:24+02:00</time>
      </trkpt>
      <trkpt lat="42.97656" lon="3.00911">
        <ele>1</ele>
        <time>2018-08-31T08:40:29+02:00</time>
      </trkpt>
      <trkpt lat="42.97643" lon="3.00883">
        <ele>1</ele>
        <time>2018-08-31T08:40:34+02:00</time>
      </trkpt>
      <trkpt lat="42.97632" lon="3.00854">
        <ele>1</ele>
        <time>2018-08-31T08:40:39+02:00</time>
      </trkpt>
      <trkpt lat="42.97621" lon="3.00824">
        <ele>1</ele>
        <time>2018-08-31T08:40:44+02:00</time>
      </trkpt>
      <trkpt lat="42.97609" lon="3.00795">
        <ele>1</ele>
        <time>2018-08-31T08:40:49+02:00</time>
      </trkpt>
      <trkpt lat="42.97595" lon="3.00766">
        <ele>1</ele>
        <time>2018-08-31T08:40:53+02:00</time>
      </trkpt>
      <trkpt lat="42.97586" lon="3.00734">
        <ele>1</ele>
        <time>2018-08-31T08:40:59+02:00</time>
      </trkpt>
      <trkpt lat="42.9757" lon="3.007">
        <ele>1</ele>
        <time>2018-08-31T08:41:04+02:00</time>
      </trkpt>
      <trkpt lat="42.97558" lon="3.00672">
        <ele>1</ele>
        <time>2018-08-31T08:41:08+02:00</time>
      </trkpt>
      <trkpt lat="42.97549" lon="3.00644">
        <ele>1</ele>
        <time>2018-08-31T08:41:13+02:00</time>
      </trkpt>
      <trkpt lat="42.97537" lon="3.00613">
        <ele>1</ele>
        <time>2018-08-31T08:41:18+02:00</time>
      </trkpt>
      <trkpt lat="42.97525" lon="3.00587">
        <ele>1</ele>
        <time>2018-08-31T08:41:23+02:00</time>
      </trkpt>
      <trkpt lat="42.9751" lon="3.00557">
        <ele>1</ele>
        <time>2018-08-31T08:41:28+02:00</time>
      </trkpt>
      <trkpt lat="42.97498" lon="3.00526">
        <ele>1</ele>
        <time>2018-08-31T08:41:33+02:00</time>
      </trkpt>
      <trkpt lat="42.97488" lon="3.00493">
        <ele>1</ele>
        <time>2018-08-31T08:41:39+02:00</time>
      </trkpt>
      <trkpt lat="42.97476" lon="3.00461">
        <ele>1</ele>
        <time>2018-08-31T08:41:44+02:00</time>
      </trkpt>
      <trkpt lat="42.97464" lon="3.00435">
        <ele>1</ele>
        <time>2018-08-31T08:41:48+02:00</time>
      </trkpt>
      <trkpt lat="42.9745" lon="3.00403">
        <ele>1</ele>
        <time>2018-08-31T08:41:53+02:00</time>
      </trkpt>
      <trkpt lat="42.97439" lon="3.00371">
        <ele>1</ele>
        <time>2018-08-31T08:41:58+02:00</time>
      </trkpt>
      <trkpt lat="42.97427" lon="3.00339">
        <ele>1</ele>
        <time>2018-08-31T08:42:03+02:00</time>
      </trkpt>
      <trkpt lat="42.97415" lon="3.0031">
        <ele>1</ele>
        <time>2018-08-31T08:42:07+02:00</time>
      </trkpt>
      <trkpt lat="42.97401" lon="3.0028">
        <ele>1</ele>
        <time>2018-08-31T08:42:12+02:00</time>
      </trkpt>
      <trkpt lat="42.9739" lon="3.00249">
        <ele>1</ele>
        <time>2018-08-31T08:42:17+02:00</time>
      </trkpt>
      <trkpt lat="42.97374" lon="3.00221">
        <ele>1</ele>
        <time>2018-08-31T08:42:21+02:00</time>
      </trkpt>
      <trkpt lat="42.97358" lon="3.00197">
        <ele>1</ele>
        <time>2018-08-31T08:42:25+02:00</time>
      </trkpt>
      <trkpt lat="42.97342" lon="3.00173">
        <ele>1</ele>
        <time>2018-08-31T08:42:31+02:00</time>
      </trkpt>
      <trkpt lat="42.97326" lon="3.00151">
        <ele>1</ele>
        <time>2018-08-31T08:42:36+02:00</time>
      </trkpt>
      <trkpt lat="42.97307" lon="3.00132">
        <ele>1</ele>
        <time>2018-08-31T08:42:41+02:00</time>
      </trkpt>
      <trkpt lat="42.97287" lon="3.00111">
        <ele>1</ele>
        <time>2018-08-31T08:42:46+02:00</time>
      </trkpt>
      <trkpt lat="42.97262" lon="3.00087">
        <ele>1</ele>
        <time>2018-08-31T08:42:52+02:00</time>
      </trkpt>
      <trkpt lat="42.97241" lon="3.00074">
        <ele>1</ele>
        <time>2018-08-31T08:42:56+02:00</time>
      </trkpt>
      <trkpt lat="42.97218" lon="3.00053">
        <ele>1</ele>
        <time>2018-08-31T08:43:01+02:00</time>
      </trkpt>
      <trkpt lat="42.97197" lon="3.00034">
        <ele>1</ele>
        <time>2018-08-31T08:43:07+02:00</time>
      </trkpt>
      <trkpt lat="42.97174" lon="3.00019">
        <ele>1</ele>
        <time>2018-08-31T08:43:12+02:00</time>
      </trkpt>
      <trkpt lat="42.9715" lon="3.0001">
        <ele>1</ele>
        <time>2018-08-31T08:43:17+02:00</time>
      </trkpt>
      <trkpt lat="42.97127" lon="2.99999">
        <ele>1</ele>
        <time>2018-08-31T08:43:21+02:00</time>
      </trkpt>
      <trkpt lat="42.97103" lon="2.99984">
        <ele>1</ele>
        <time>2018-08-31T08:43:26+02:00</time>
      </trkpt>
      <trkpt lat="42.97081" lon="2.99973">
        <ele>1</ele>
        <time>2018-08-31T08:43:30+02:00</time>
      </trkpt>
      <trkpt lat="42.97055" lon="2.99959">
        <ele>1</ele>
        <time>2018-08-31T08:43:35+02:00</time>
      </trkpt>
      <trkpt lat="42.97033" lon="2.99948">
        <ele>1</ele>
        <time>2018-08-31T08:43:39+02:00</time>
      </trkpt>
      <trkpt lat="42.97011" lon="2.99932">
        <ele>1</ele>
        <time>2018-08-31T08:43:44+02:00</time>
      </trkpt>
      <trkpt lat="42.96988" lon="2.9992">
        <ele>1</ele>
        <time>2018-08-31T08:43:49+02:00</time>
      </trkpt>
      <trkpt lat="42.96965" lon="2.99907">
        <ele>1</ele>
        <time>2018-08-31T08:43:55+02:00</time>
      </trkpt>
      <trkpt lat="42.96943" lon="2.99896">
        <ele>1</ele>
        <time>2018-08-31T08:43:59+02:00</time>
      </trkpt>
      <trkpt lat="42.9692" lon="2.99879">
        <ele>1</ele>
        <time>2018-08-31T08:44:05+02:00</time>
      </trkpt>
      <trkpt lat="42.96891" lon="2.99873">
        <ele>1</ele>
        <time>2018-08-31T08:44:08+02:00</time>
      </trkpt>
      <trkpt lat="42.96866" lon="2.99861">
        <ele>1</ele>
        <time>2018-08-31T08:44:13+02:00</time>
      </trkpt>
      <trkpt lat="42.96839" lon="2.99855">
        <ele>1</ele>
        <time>2018-08-31T08:44:17+02:00</time>
      </trkpt>
      <trkpt lat="42.96821" lon="2.99834">
        <ele>1</ele>
        <time>2018-08-31T08:44:24+02:00</time>
      </trkpt>
      <trkpt lat="42.96799" lon="2.99823">
        <ele>1</ele>
        <time>2018-08-31T08:44:29+02:00</time>
      </trkpt>
      <trkpt lat="42.9677" lon="2.9981">
        <ele>1</ele>
        <time>2018-08-31T08:44:34+02:00</time>
      </trkpt>
      <trkpt lat="42.96749" lon="2.99793">
        <ele>1</ele>
        <time>2018-08-31T08:44:40+02:00</time>
      </trkpt>
      <trkpt lat="42.96728" lon="2.99779">
        <ele>1</ele>
        <time>2018-08-31T08:44:45+02:00</time>
      </trkpt>
      <trkpt lat="42.96699" lon="2.99766">
        <ele>1</ele>
        <time>2018-08-31T08:44:49+02:00</time>
      </trkpt>
      <trkpt lat="42.96673" lon="2.99756">
        <ele>1</ele>
        <time>2018-08-31T08:44:54+02:00</time>
      </trkpt>
      <trkpt lat="42.96651" lon="2.9974">
        <ele>1</ele>
        <time>2018-08-31T08:44:59+02:00</time>
      </trkpt>
      <trkpt lat="42.9663" lon="2.99726">
        <ele>2</ele>
        <time>2018-08-31T08:45:05+02:00</time>
      </trkpt>
      <trkpt lat="42.966" lon="2.99714">
        <ele>2</ele>
        <time>2018-08-31T08:45:10+02:00</time>
      </trkpt>
      <trkpt lat="42.96577" lon="2.99702">
        <ele>2</ele>
        <time>2018-08-31T08:45:14+02:00</time>
      </trkpt>
      <trkpt lat="42.96554" lon="2.99687">
        <ele>2</ele>
        <time>2018-08-31T08:45:20+02:00</time>
      </trkpt>
      <trkpt lat="42.96527" lon="2.99672">
        <ele>3</ele>
        <time>2018-08-31T08:45:25+02:00</time>
      </trkpt>
      <trkpt lat="42.96497" lon="2.99655">
        <ele>5</ele>
        <time>2018-08-31T08:45:31+02:00</time>
      </trkpt>
      <trkpt lat="42.96478" lon="2.99636">
        <ele>4</ele>
        <time>2018-08-31T08:45:36+02:00</time>
      </trkpt>
      <trkpt lat="42.96457" lon="2.9962">
        <ele>3</ele>
        <time>2018-08-31T08:45:40+02:00</time>
      </trkpt>
      <trkpt lat="42.96437" lon="2.99594">
        <ele>3</ele>
        <time>2018-08-31T08:45:45+02:00</time>
      </trkpt>
      <trkpt lat="42.96417" lon="2.99578">
        <ele>2</ele>
        <time>2018-08-31T08:45:48+02:00</time>
      </trkpt>
      <trkpt lat="42.96406" lon="2.99545">
        <ele>3</ele>
        <time>2018-08-31T08:45:54+02:00</time>
      </trkpt>
      <trkpt lat="42.96392" lon="2.99513">
        <ele>3</ele>
        <time>2018-08-31T08:45:58+02:00</time>
      </trkpt>
      <trkpt lat="42.96382" lon="2.99479">
        <ele>3</ele>
        <time>2018-08-31T08:46:04+02:00</time>
      </trkpt>
      <trkpt lat="42.96369" lon="2.99454">
        <ele>3</ele>
        <time>2018-08-31T08:46:08+02:00</time>
      </trkpt>
      <trkpt lat="42.96351" lon="2.99425">
        <ele>2</ele>
        <time>2018-08-31T08:46:12+02:00</time>
      </trkpt>
      <trkpt lat="42.96343" lon="2.99395">
        <ele>3</ele>
        <time>2018-08-31T08:46:18+02:00</time>
      </trkpt>
      <trkpt lat="42.96333" lon="2.99366">
        <ele>3</ele>
        <time>2018-08-31T08:46:23+02:00</time>
      </trkpt>
      <trkpt lat="42.9632" lon="2.99334">
        <ele>3</ele>
        <time>2018-08-31T08:46:28+02:00</time>
      </trkpt>
      <trkpt lat="42.96309" lon="2.99299">
        <ele>4</ele>
        <time>2018-08-31T08:46:33+02:00</time>
      </trkpt>
      <trkpt lat="42.96295" lon="2.99271">
        <ele>5</ele>
        <time>2018-08-31T08:46:39+02:00</time>
      </trkpt>
      <trkpt lat="42.96267" lon="2.99264">
        <ele>4</ele>
        <time>2018-08-31T08:46:43+02:00</time>
      </trkpt>
      <trkpt lat="42.9624" lon="2.99272">
        <ele>3</ele>
        <time>2018-08-31T08:46:47+02:00</time>
      </trkpt>
      <trkpt lat="42.96215" lon="2.99294">
        <ele>2</ele>
        <time>2018-08-31T08:46:52+02:00</time>
      </trkpt>
      <trkpt lat="42.96192" lon="2.99298">
        <ele>1</ele>
        <time>2018-08-31T08:46:56+02:00</time>
      </trkpt>
      <trkpt lat="42.96168" lon="2.99288">
        <ele>1</ele>
        <time>2018-08-31T08:47:01+02:00</time>
      </trkpt>
      <trkpt lat="42.96146" lon="2.99279">
        <ele>1</ele>
        <time>2018-08-31T08:47:05+02:00</time>
      </trkpt>
      <trkpt lat="42.96123" lon="2.99282">
        <ele>1</ele>
        <time>2018-08-31T08:47:10+02:00</time>
      </trkpt>
      <trkpt lat="42.96096" lon="2.99283">
        <ele>1</ele>
        <time>2018-08-31T08:47:15+02:00</time>
      </trkpt>
      <trkpt lat="42.96072" lon="2.99283">
        <ele>1</ele>
        <time>2018-08-31T08:47:19+02:00</time>
      </trkpt>
      <trkpt lat="42.96046" lon="2.99284">
        <ele>1</ele>
        <time>2018-08-31T08:47:25+02:00</time>
      </trkpt>
      <trkpt lat="42.96024" lon="2.9928">
        <ele>1</ele>
        <time>2018-08-31T08:47:30+02:00</time>
      </trkpt>
      <trkpt lat="42.95997" lon="2.99279">
        <ele>4</ele>
        <time>2018-08-31T08:47:35+02:00</time>
      </trkpt>
      <trkpt lat="42.9597" lon="2.99279">
        <ele>7</ele>
        <time>2018-08-31T08:47:40+02:00</time>
      </trkpt>
      <trkpt lat="42.95946" lon="2.9928">
        <ele>9</ele>
        <time>2018-08-31T08:47:45+02:00</time>
      </trkpt>
      <trkpt lat="42.95922" lon="2.99281">
        <ele>9</ele>
        <time>2018-08-31T08:47:50+02:00</time>
      </trkpt>
      <trkpt lat="42.95897" lon="2.99291">
        <ele>9</ele>
        <time>2018-08-31T08:47:55+02:00</time>
      </trkpt>
      <trkpt lat="42.95873" lon="2.99306">
        <ele>9</ele>
        <time>2018-08-31T08:48:00+02:00</time>
      </trkpt>
      <trkpt lat="42.95849" lon="2.99319">
        <ele>9</ele>
        <time>2018-08-31T08:48:05+02:00</time>
      </trkpt>
      <trkpt lat="42.95823" lon="2.99332">
        <ele>9</ele>
        <time>2018-08-31T08:48:10+02:00</time>
      </trkpt>
      <trkpt lat="42.95798" lon="2.99342">
        <ele>9</ele>
        <time>2018-08-31T08:48:15+02:00</time>
      </trkpt>
      <trkpt lat="42.95776" lon="2.99352">
        <ele>9</ele>
        <time>2018-08-31T08:48:20+02:00</time>
      </trkpt>
      <trkpt lat="42.95755" lon="2.99366">
        <ele>9</ele>
        <time>2018-08-31T08:48:25+02:00</time>
      </trkpt>
      <trkpt lat="42.95733" lon="2.9938">
        <ele>9</ele>
        <time>2018-08-31T08:48:30+02:00</time>
      </trkpt>
      <trkpt lat="42.9571" lon="2.99385">
        <ele>9</ele>
        <time>2018-08-31T08:48:35+02:00</time>
      </trkpt>
      <trkpt lat="42.95686" lon="2.99387">
        <ele>9</ele>
        <time>2018-08-31T08:48:40+02:00</time>
      </trkpt>
      <trkpt lat="42.95663" lon="2.99403">
        <ele>10</ele>
        <time>2018-08-31T08:48:44+02:00</time>
      </trkpt>
      <trkpt lat="42.9564" lon="2.99406">
        <ele>9</ele>
        <time>2018-08-31T08:48:49+02:00</time>
      </trkpt>
      <trkpt lat="42.95617" lon="2.9942">
        <ele>8</ele>
        <time>2018-08-31T08:48:54+02:00</time>
      </trkpt>
      <trkpt lat="42.95596" lon="2.99433">
        <ele>8</ele>
        <time>2018-08-31T08:48:59+02:00</time>
      </trkpt>
      <trkpt lat="42.95577" lon="2.99455">
        <ele>7</ele>
        <time>2018-08-31T08:49:04+02:00</time>
      </trkpt>
      <trkpt lat="42.95553" lon="2.99468">
        <ele>7</ele>
        <time>2018-08-31T08:49:09+02:00</time>
      </trkpt>
      <trkpt lat="42.95532" lon="2.99484">
        <ele>6</ele>
        <time>2018-08-31T08:49:14+02:00</time>
      </trkpt>
      <trkpt lat="42.95513" lon="2.99502">
        <ele>5</ele>
        <time>2018-08-31T08:49:19+02:00</time>
      </trkpt>
      <trkpt lat="42.95494" lon="2.99527">
        <ele>5</ele>
        <time>2018-08-31T08:49:24+02:00</time>
      </trkpt>
      <trkpt lat="42.95472" lon="2.9955">
        <ele>5</ele>
        <time>2018-08-31T08:49:29+02:00</time>
      </trkpt>
      <trkpt lat="42.95453" lon="2.99568">
        <ele>5</ele>
        <time>2018-08-31T08:49:34+02:00</time>
      </trkpt>
      <trkpt lat="42.9544" lon="2.99596">
        <ele>5</ele>
        <time>2018-08-31T08:49:38+02:00</time>
      </trkpt>
      <trkpt lat="42.95418" lon="2.99617">
        <ele>4</ele>
        <time>2018-08-31T08:49:43+02:00</time>
      </trkpt>
      <trkpt lat="42.95398" lon="2.99642">
        <ele>4</ele>
        <time>2018-08-31T08:49:48+02:00</time>
      </trkpt>
      <trkpt lat="42.95376" lon="2.99664">
        <ele>4</ele>
        <time>2018-08-31T08:49:53+02:00</time>
      </trkpt>
      <trkpt lat="42.95354" lon="2.99683">
        <ele>4</ele>
        <time>2018-08-31T08:49:58+02:00</time>
      </trkpt>
      <trkpt lat="42.95331" lon="2.99703">
        <ele>4</ele>
        <time>2018-08-31T08:50:03+02:00</time>
      </trkpt>
      <trkpt lat="42.95309" lon="2.99718">
        <ele>4</ele>
        <time>2018-08-31T08:50:08+02:00</time>
      </trkpt>
      <trkpt lat="42.95288" lon="2.99733">
        <ele>4</ele>
        <time>2018-08-31T08:50:13+02:00</time>
      </trkpt>
      <trkpt lat="42.95268" lon="2.99751">
        <ele>4</ele>
        <time>2018-08-31T08:50:17+02:00</time>
      </trkpt>
      <trkpt lat="42.95244" lon="2.99764">
        <ele>4</ele>
        <time>2018-08-31T08:50:22+02:00</time>
      </trkpt>
      <trkpt lat="42.95219" lon="2.99775">
        <ele>4</ele>
        <time>2018-08-31T08:50:27+02:00</time>
      </trkpt>
      <trkpt lat="42.95203" lon="2.99797">
        <ele>4</ele>
        <time>2018-08-31T08:50:31+02:00</time>
      </trkpt>
      <trkpt lat="42.9518" lon="2.9982">
        <ele>4</ele>
        <time>2018-08-31T08:50:36+02:00</time>
      </trkpt>
      <trkpt lat="42.95156" lon="2.99838">
        <ele>4</ele>
        <time>2018-08-31T08:50:41+02:00</time>
      </trkpt>
      <trkpt lat="42.95133" lon="2.99857">
        <ele>4</ele>
        <time>2018-08-31T08:50:46+02:00</time>
      </trkpt>
      <trkpt lat="42.95104" lon="2.99882">
        <ele>4</ele>
        <time>2018-08-31T08:50:52+02:00</time>
      </trkpt>
      <trkpt lat="42.95083" lon="2.99906">
        <ele>4</ele>
        <time>2018-08-31T08:50:57+02:00</time>
      </trkpt>
      <trkpt lat="42.9506" lon="2.99922">
        <ele>4</ele>
        <time>2018-08-31T08:51:02+02:00</time>
      </trkpt>
      <trkpt lat="42.95036" lon="2.99937">
        <ele>4</ele>
        <time>2018-08-31T08:51:07+02:00</time>
      </trkpt>
      <trkpt lat="42.9501" lon="2.9995">
        <ele>4</ele>
        <time>2018-08-31T08:51:12+02:00</time>
      </trkpt>
      <trkpt lat="42.94985" lon="2.9997">
        <ele>4</ele>
        <time>2018-08-31T08:51:17+02:00</time>
      </trkpt>
      <trkpt lat="42.94963" lon="2.99992">
        <ele>5</ele>
        <time>2018-08-31T08:51:22+02:00</time>
      </trkpt>
      <trkpt lat="42.94939" lon="3.00009">
        <ele>5</ele>
        <time>2018-08-31T08:51:27+02:00</time>
      </trkpt>
      <trkpt lat="42.94914" lon="3.00023">
        <ele>6</ele>
        <time>2018-08-31T08:51:32+02:00</time>
      </trkpt>
      <trkpt lat="42.94889" lon="3.00034">
        <ele>7</ele>
        <time>2018-08-31T08:51:37+02:00</time>
      </trkpt>
      <trkpt lat="42.94865" lon="3.00045">
        <ele>7</ele>
        <time>2018-08-31T08:51:42+02:00</time>
      </trkpt>
      <trkpt lat="42.94838" lon="3.00054">
        <ele>7</ele>
        <time>2018-08-31T08:51:47+02:00</time>
      </trkpt>
      <trkpt lat="42.94814" lon="3.0007">
        <ele>7</ele>
        <time>2018-08-31T08:51:52+02:00</time>
      </trkpt>
      <trkpt lat="42.94789" lon="3.00076">
        <ele>7</ele>
        <time>2018-08-31T08:51:57+02:00</time>
      </trkpt>
      <trkpt lat="42.94761" lon="3.00083">
        <ele>7</ele>
        <time>2018-08-31T08:52:02+02:00</time>
      </trkpt>
      <trkpt lat="42.94736" lon="3.00089">
        <ele>7</ele>
        <time>2018-08-31T08:52:06+02:00</time>
      </trkpt>
      <trkpt lat="42.94711" lon="3.00098">
        <ele>7</ele>
        <time>2018-08-31T08:52:11+02:00</time>
      </trkpt>
      <trkpt lat="42.94687" lon="3.00109">
        <ele>7</ele>
        <time>2018-08-31T08:52:16+02:00</time>
      </trkpt>
      <trkpt lat="42.94664" lon="3.00119">
        <ele>7</ele>
        <time>2018-08-31T08:52:21+02:00</time>
      </trkpt>
      <trkpt lat="42.94652" lon="3.00149">
        <ele>7</ele>
        <time>2018-08-31T08:52:26+02:00</time>
      </trkpt>
      <trkpt lat="42.94642" lon="3.00179">
        <ele>7</ele>
        <time>2018-08-31T08:52:30+02:00</time>
      </trkpt>
      <trkpt lat="42.94628" lon="3.00209">
        <ele>6</ele>
        <time>2018-08-31T08:52:34+02:00</time>
      </trkpt>
      <trkpt lat="42.94604" lon="3.00227">
        <ele>6</ele>
        <time>2018-08-31T08:52:39+02:00</time>
      </trkpt>
      <trkpt lat="42.94582" lon="3.00238">
        <ele>6</ele>
        <time>2018-08-31T08:52:43+02:00</time>
      </trkpt>
      <trkpt lat="42.9456" lon="3.0026">
        <ele>6</ele>
        <time>2018-08-31T08:52:48+02:00</time>
      </trkpt>
      <trkpt lat="42.94542" lon="3.00287">
        <ele>6</ele>
        <time>2018-08-31T08:52:53+02:00</time>
      </trkpt>
      <trkpt lat="42.94522" lon="3.00314">
        <ele>5</ele>
        <time>2018-08-31T08:52:58+02:00</time>
      </trkpt>
      <trkpt lat="42.94501" lon="3.00332">
        <ele>5</ele>
        <time>2018-08-31T08:53:02+02:00</time>
      </trkpt>
      <trkpt lat="42.94483" lon="3.00349">
        <ele>4</ele>
        <time>2018-08-31T08:53:06+02:00</time>
      </trkpt>
      <trkpt lat="42.94457" lon="3.00355">
        <ele>4</ele>
        <time>2018-08-31T08:53:11+02:00</time>
      </trkpt>
      <trkpt lat="42.94435" lon="3.00363">
        <ele>4</ele>
        <time>2018-08-31T08:53:15+02:00</time>
      </trkpt>
      <trkpt lat="42.94412" lon="3.00381">
        <ele>4</ele>
        <time>2018-08-31T08:53:20+02:00</time>
      </trkpt>
      <trkpt lat="42.94391" lon="3.00398">
        <ele>4</ele>
        <time>2018-08-31T08:53:25+02:00</time>
      </trkpt>
      <trkpt lat="42.94372" lon="3.00419">
        <ele>4</ele>
        <time>2018-08-31T08:53:30+02:00</time>
      </trkpt>
      <trkpt lat="42.94351" lon="3.00438">
        <ele>4</ele>
        <time>2018-08-31T08:53:35+02:00</time>
      </trkpt>
      <trkpt lat="42.9433" lon="3.00454">
        <ele>4</ele>
        <time>2018-08-31T08:53:40+02:00</time>
      </trkpt>
      <trkpt lat="42.94307" lon="3.00471">
        <ele>4</ele>
        <time>2018-08-31T08:53:45+02:00</time>
      </trkpt>
      <trkpt lat="42.94286" lon="3.00487">
        <ele>3</ele>
        <time>2018-08-31T08:53:50+02:00</time>
      </trkpt>
      <trkpt lat="42.94262" lon="3.00496">
        <ele>4</ele>
        <time>2018-08-31T08:53:55+02:00</time>
      </trkpt>
      <trkpt lat="42.94236" lon="3.00503">
        <ele>4</ele>
        <time>2018-08-31T08:54:00+02:00</time>
      </trkpt>
      <trkpt lat="42.94214" lon="3.00511">
        <ele>4</ele>
        <time>2018-08-31T08:54:05+02:00</time>
      </trkpt>
      <trkpt lat="42.94197" lon="3.00487">
        <ele>4</ele>
        <time>2018-08-31T08:54:11+02:00</time>
      </trkpt>
      <trkpt lat="42.94181" lon="3.00461">
        <ele>4</ele>
        <time>2018-08-31T08:54:16+02:00</time>
      </trkpt>
      <trkpt lat="42.94158" lon="3.00465">
        <ele>4</ele>
        <time>2018-08-31T08:54:21+02:00</time>
      </trkpt>
      <trkpt lat="42.94133" lon="3.00464">
        <ele>4</ele>
        <time>2018-08-31T08:54:26+02:00</time>
      </trkpt>
      <trkpt lat="42.9411" lon="3.00468">
        <ele>4</ele>
        <time>2018-08-31T08:54:30+02:00</time>
      </trkpt>
      <trkpt lat="42.94084" lon="3.00463">
        <ele>4</ele>
        <time>2018-08-31T08:54:35+02:00</time>
      </trkpt>
      <trkpt lat="42.94058" lon="3.00461">
        <ele>5</ele>
        <time>2018-08-31T08:54:40+02:00</time>
      </trkpt>
      <trkpt lat="42.94031" lon="3.00462">
        <ele>5</ele>
        <time>2018-08-31T08:54:45+02:00</time>
      </trkpt>
      <trkpt lat="42.93994" lon="3.00463">
        <ele>5</ele>
        <time>2018-08-31T08:54:52+02:00</time>
      </trkpt>
      <trkpt lat="42.93971" lon="3.00465">
        <ele>5</ele>
        <time>2018-08-31T08:54:57+02:00</time>
      </trkpt>
      <trkpt lat="42.93946" lon="3.00469">
        <ele>5</ele>
        <time>2018-08-31T08:55:02+02:00</time>
      </trkpt>
      <trkpt lat="42.93917" lon="3.00469">
        <ele>5</ele>
        <time>2018-08-31T08:55:07+02:00</time>
      </trkpt>
      <trkpt lat="42.93893" lon="3.00469">
        <ele>5</ele>
        <time>2018-08-31T08:55:11+02:00</time>
      </trkpt>
      <trkpt lat="42.93867" lon="3.00473">
        <ele>5</ele>
        <time>2018-08-31T08:55:16+02:00</time>
      </trkpt>
      <trkpt lat="42.93844" lon="3.00478">
        <ele>5</ele>
        <time>2018-08-31T08:55:22+02:00</time>
      </trkpt>
      <trkpt lat="42.93818" lon="3.00483">
        <ele>5</ele>
        <time>2018-08-31T08:55:27+02:00</time>
      </trkpt>
      <trkpt lat="42.93795" lon="3.00481">
        <ele>5</ele>
        <time>2018-08-31T08:55:31+02:00</time>
      </trkpt>
      <trkpt lat="42.93772" lon="3.00484">
        <ele>5</ele>
        <time>2018-08-31T08:55:36+02:00</time>
      </trkpt>
      <trkpt lat="42.93746" lon="3.00481">
        <ele>5</ele>
        <time>2018-08-31T08:55:41+02:00</time>
      </trkpt>
      <trkpt lat="42.9372" lon="3.00484">
        <ele>5</ele>
        <time>2018-08-31T08:55:46+02:00</time>
      </trkpt>
      <trkpt lat="42.93697" lon="3.00474">
        <ele>5</ele>
        <time>2018-08-31T08:57:36+02:00</time>
      </trkpt>
      <trkpt lat="42.93672" lon="3.00464">
        <ele>5</ele>
        <time>2018-08-31T08:57:43+02:00</time>
      </trkpt>
      <trkpt lat="42.93647" lon="3.00458">
        <ele>5</ele>
        <time>2018-08-31T08:57:50+02:00</time>
      </trkpt>
      <trkpt lat="42.93621" lon="3.00451">
        <ele>5</ele>
        <time>2018-08-31T08:57:55+02:00</time>
      </trkpt>
      <trkpt lat="42.93597" lon="3.00446">
        <ele>5</ele>
        <time>2018-08-31T08:58:01+02:00</time>
      </trkpt>
      <trkpt lat="42.93574" lon="3.00444">
        <ele>5</ele>
        <time>2018-08-31T08:58:06+02:00</time>
      </trkpt>
      <trkpt lat="42.93549" lon="3.00436">
        <ele>5</ele>
        <time>2018-08-31T08:58:12+02:00</time>
      </trkpt>
      <trkpt lat="42.93527" lon="3.00426">
        <ele>5</ele>
        <time>2018-08-31T08:58:18+02:00</time>
      </trkpt>
      <trkpt lat="42.93503" lon="3.00418">
        <ele>5</ele>
        <time>2018-08-31T08:58:23+02:00</time>
      </trkpt>
      <trkpt lat="42.9348" lon="3.0041">
        <ele>5</ele>
        <time>2018-08-31T08:58:29+02:00</time>
      </trkpt>
      <trkpt lat="42.93458" lon="3.004">
        <ele>5</ele>
        <time>2018-08-31T08:58:35+02:00</time>
      </trkpt>
      <trkpt lat="42.93445" lon="3.00373">
        <ele>5</ele>
        <time>2018-08-31T08:58:41+02:00</time>
      </trkpt>
      <trkpt lat="42.93442" lon="3.00339">
        <ele>5</ele>
        <time>2018-08-31T08:58:46+02:00</time>
      </trkpt>
      <trkpt lat="42.93437" lon="3.00304">
        <ele>6</ele>
        <time>2018-08-31T08:58:52+02:00</time>
      </trkpt>
      <trkpt lat="42.93413" lon="3.00294">
        <ele>6</ele>
        <time>2018-08-31T08:58:58+02:00</time>
      </trkpt>
      <trkpt lat="42.93392" lon="3.00279">
        <ele>6</ele>
        <time>2018-08-31T08:59:03+02:00</time>
      </trkpt>
      <trkpt lat="42.93374" lon="3.00258">
        <ele>6</ele>
        <time>2018-08-31T08:59:08+02:00</time>
      </trkpt>
      <trkpt lat="42.9335" lon="3.00261">
        <ele>6</ele>
        <time>2018-08-31T08:59:12+02:00</time>
      </trkpt>
      <trkpt lat="42.93348" lon="3.00299">
        <ele>6</ele>
        <time>2018-08-31T08:59:17+02:00</time>
      </trkpt>
      <trkpt lat="42.93349" lon="3.00332">
        <ele>5</ele>
        <time>2018-08-31T08:59:21+02:00</time>
      </trkpt>
      <trkpt lat="42.93341" lon="3.00366">
        <ele>5</ele>
        <time>2018-08-31T08:59:25+02:00</time>
      </trkpt>
      <trkpt lat="42.93333" lon="3.00395">
        <ele>4</ele>
        <time>2018-08-31T08:59:29+02:00</time>
      </trkpt>
      <trkpt lat="42.93325" lon="3.00424">
        <ele>4</ele>
        <time>2018-08-31T08:59:33+02:00</time>
      </trkpt>
      <trkpt lat="42.93318" lon="3.00457">
        <ele>4</ele>
        <time>2018-08-31T08:59:36+02:00</time>
      </trkpt>
      <trkpt lat="42.93309" lon="3.00488">
        <ele>3</ele>
        <time>2018-08-31T08:59:40+02:00</time>
      </trkpt>
      <trkpt lat="42.93302" lon="3.0052">
        <ele>2</ele>
        <time>2018-08-31T08:59:44+02:00</time>
      </trkpt>
      <trkpt lat="42.93292" lon="3.00551">
        <ele>2</ele>
        <time>2018-08-31T08:59:48+02:00</time>
      </trkpt>
      <trkpt lat="42.93283" lon="3.0058">
        <ele>2</ele>
        <time>2018-08-31T08:59:52+02:00</time>
      </trkpt>
      <trkpt lat="42.93278" lon="3.00616">
        <ele>2</ele>
        <time>2018-08-31T08:59:55+02:00</time>
      </trkpt>
      <trkpt lat="42.93267" lon="3.00644">
        <ele>2</ele>
        <time>2018-08-31T08:59:59+02:00</time>
      </trkpt>
      <trkpt lat="42.93256" lon="3.00676">
        <ele>2</ele>
        <time>2018-08-31T09:00:03+02:00</time>
      </trkpt>
      <trkpt lat="42.93247" lon="3.00705">
        <ele>2</ele>
        <time>2018-08-31T09:00:07+02:00</time>
      </trkpt>
      <trkpt lat="42.93239" lon="3.00736">
        <ele>2</ele>
        <time>2018-08-31T09:00:11+02:00</time>
      </trkpt>
      <trkpt lat="42.93232" lon="3.00768">
        <ele>2</ele>
        <time>2018-08-31T09:00:15+02:00</time>
      </trkpt>
      <trkpt lat="42.93222" lon="3.00802">
        <ele>2</ele>
        <time>2018-08-31T09:00:20+02:00</time>
      </trkpt>
      <trkpt lat="42.93214" lon="3.00833">
        <ele>2</ele>
        <time>2018-08-31T09:00:24+02:00</time>
      </trkpt>
      <trkpt lat="42.93206" lon="3.00863">
        <ele>2</ele>
        <time>2018-08-31T09:00:28+02:00</time>
      </trkpt>
      <trkpt lat="42.93196" lon="3.009">
        <ele>2</ele>
        <time>2018-08-31T09:00:33+02:00</time>
      </trkpt>
      <trkpt lat="42.9319" lon="3.0093">
        <ele>2</ele>
        <time>2018-08-31T09:00:37+02:00</time>
      </trkpt>
      <trkpt lat="42.93181" lon="3.00963">
        <ele>2</ele>
        <time>2018-08-31T09:00:42+02:00</time>
      </trkpt>
      <trkpt lat="42.93173" lon="3.00995">
        <ele>2</ele>
        <time>2018-08-31T09:00:47+02:00</time>
      </trkpt>
      <trkpt lat="42.93164" lon="3.01024">
        <ele>2</ele>
        <time>2018-08-31T09:00:52+02:00</time>
      </trkpt>
      <trkpt lat="42.93154" lon="3.01056">
        <ele>2</ele>
        <time>2018-08-31T09:00:58+02:00</time>
      </trkpt>
      <trkpt lat="42.93145" lon="3.01085">
        <ele>2</ele>
        <time>2018-08-31T09:01:04+02:00</time>
      </trkpt>
      <trkpt lat="42.93134" lon="3.01118">
        <ele>3</ele>
        <time>2018-08-31T09:01:10+02:00</time>
      </trkpt>
      <trkpt lat="42.93126" lon="3.01153">
        <ele>4</ele>
        <time>2018-08-31T09:01:16+02:00</time>
      </trkpt>
      <trkpt lat="42.93119" lon="3.01183">
        <ele>4</ele>
        <time>2018-08-31T09:01:22+02:00</time>
      </trkpt>
      <trkpt lat="42.93112" lon="3.01215">
        <ele>5</ele>
        <time>2018-08-31T09:01:28+02:00</time>
      </trkpt>
      <trkpt lat="42.93104" lon="3.01244">
        <ele>5</ele>
        <time>2018-08-31T09:01:34+02:00</time>
      </trkpt>
      <trkpt lat="42.93094" lon="3.01274">
        <ele>6</ele>
        <time>2018-08-31T09:01:41+02:00</time>
      </trkpt>
      <trkpt lat="42.93084" lon="3.01303">
        <ele>7</ele>
        <time>2018-08-31T09:01:47+02:00</time>
      </trkpt>
      <trkpt lat="42.93074" lon="3.01337">
        <ele>8</ele>
        <time>2018-08-31T09:01:54+02:00</time>
      </trkpt>
      <trkpt lat="42.93065" lon="3.01367">
        <ele>9</ele>
        <time>2018-08-31T09:02:00+02:00</time>
      </trkpt>
      <trkpt lat="42.93055" lon="3.01397">
        <ele>10</ele>
        <time>2018-08-31T09:02:06+02:00</time>
      </trkpt>
      <trkpt lat="42.93033" lon="3.01409">
        <ele>14</ele>
        <time>2018-08-31T09:02:13+02:00</time>
      </trkpt>
      <trkpt lat="42.93009" lon="3.01397">
        <ele>16</ele>
        <time>2018-08-31T09:02:21+02:00</time>
      </trkpt>
      <trkpt lat="42.93001" lon="3.01366">
        <ele>18</ele>
        <time>2018-08-31T09:02:27+02:00</time>
      </trkpt>
      <trkpt lat="42.9301" lon="3.01332">
        <ele>16</ele>
        <time>2018-08-31T09:02:32+02:00</time>
      </trkpt>
      <trkpt lat="42.93022" lon="3.01296">
        <ele>13</ele>
        <time>2018-08-31T09:02:36+02:00</time>
      </trkpt>
      <trkpt lat="42.93029" lon="3.0126">
        <ele>10</ele>
        <time>2018-08-31T09:02:40+02:00</time>
      </trkpt>
      <trkpt lat="42.93034" lon="3.01229">
        <ele>8</ele>
        <time>2018-08-31T09:02:43+02:00</time>
      </trkpt>
      <trkpt lat="42.93041" lon="3.01195">
        <ele>7</ele>
        <time>2018-08-31T09:02:46+02:00</time>
      </trkpt>
      <trkpt lat="42.93058" lon="3.01166">
        <ele>5</ele>
        <time>2018-08-31T09:02:51+02:00</time>
      </trkpt>
      <trkpt lat="42.93079" lon="3.01186">
        <ele>5</ele>
        <time>2018-08-31T09:02:56+02:00</time>
      </trkpt>
      <trkpt lat="42.93102" lon="3.012">
        <ele>5</ele>
        <time>2018-08-31T09:03:00+02:00</time>
      </trkpt>
      <trkpt lat="42.93125" lon="3.01217">
        <ele>5</ele>
        <time>2018-08-31T09:03:04+02:00</time>
      </trkpt>
      <trkpt lat="42.93151" lon="3.01228">
        <ele>5</ele>
        <time>2018-08-31T09:03:08+02:00</time>
      </trkpt>
      <trkpt lat="42.93173" lon="3.01242">
        <ele>4</ele>
        <time>2018-08-31T09:03:12+02:00</time>
      </trkpt>
      <trkpt lat="42.9319" lon="3.01267">
        <ele>5</ele>
        <time>2018-08-31T09:03:17+02:00</time>
      </trkpt>
      <trkpt lat="42.93211" lon="3.01282">
        <ele>5</ele>
        <time>2018-08-31T09:03:21+02:00</time>
      </trkpt>
      <trkpt lat="42.9323" lon="3.01303">
        <ele>5</ele>
        <time>2018-08-31T09:03:26+02:00</time>
      </trkpt>
      <trkpt lat="42.93249" lon="3.01318">
        <ele>4</ele>
        <time>2018-08-31T09:03:30+02:00</time>
      </trkpt>
      <trkpt lat="42.93265" lon="3.01342">
        <ele>4</ele>
        <time>2018-08-31T09:03:35+02:00</time>
      </trkpt>
      <trkpt lat="42.93282" lon="3.01367">
        <ele>4</ele>
        <time>2018-08-31T09:03:42+02:00</time>
      </trkpt>
      <trkpt lat="42.93302" lon="3.01388">
        <ele>4</ele>
        <time>2018-08-31T09:03:49+02:00</time>
      </trkpt>
      <trkpt lat="42.9332" lon="3.01412">
        <ele>3</ele>
        <time>2018-08-31T09:03:55+02:00</time>
      </trkpt>
      <trkpt lat="42.93332" lon="3.01443">
        <ele>3</ele>
        <time>2018-08-31T09:04:00+02:00</time>
      </trkpt>
      <trkpt lat="42.93351" lon="3.01467">
        <ele>3</ele>
        <time>2018-08-31T09:04:04+02:00</time>
      </trkpt>
      <trkpt lat="42.93369" lon="3.01493">
        <ele>3</ele>
        <time>2018-08-31T09:04:10+02:00</time>
      </trkpt>
      <trkpt lat="42.93391" lon="3.01515">
        <ele>3</ele>
        <time>2018-08-31T09:04:15+02:00</time>
      </trkpt>
      <trkpt lat="42.93412" lon="3.01538">
        <ele>2</ele>
        <time>2018-08-31T09:04:20+02:00</time>
      </trkpt>
      <trkpt lat="42.93429" lon="3.01565">
        <ele>2</ele>
        <time>2018-08-31T09:04:26+02:00</time>
      </trkpt>
      <trkpt lat="42.93441" lon="3.01596">
        <ele>2</ele>
        <time>2018-08-31T09:04:31+02:00</time>
      </trkpt>
      <trkpt lat="42.93449" lon="3.01626">
        <ele>2</ele>
        <time>2018-08-31T09:04:36+02:00</time>
      </trkpt>
      <trkpt lat="42.93447" lon="3.01664">
        <ele>2</ele>
        <time>2018-08-31T09:04:41+02:00</time>
      </trkpt>
      <trkpt lat="42.9344" lon="3.01693">
        <ele>2</ele>
        <time>2018-08-31T09:04:46+02:00</time>
      </trkpt>
      <trkpt lat="42.93426" lon="3.0172">
        <ele>3</ele>
        <time>2018-08-31T09:04:52+02:00</time>
      </trkpt>
      <trkpt lat="42.93419" lon="3.01753">
        <ele>3</ele>
        <time>2018-08-31T09:04:57+02:00</time>
      </trkpt>
      <trkpt lat="42.9341" lon="3.01783">
        <ele>4</ele>
        <time>2018-08-31T09:05:02+02:00</time>
      </trkpt>
      <trkpt lat="42.93408" lon="3.01815">
        <ele>5</ele>
        <time>2018-08-31T09:05:07+02:00</time>
      </trkpt>
      <trkpt lat="42.93404" lon="3.01845">
        <ele>5</ele>
        <time>2018-08-31T09:05:12+02:00</time>
      </trkpt>
      <trkpt lat="42.934" lon="3.01879">
        <ele>4</ele>
        <time>2018-08-31T09:05:17+02:00</time>
      </trkpt>
      <trkpt lat="42.93398" lon="3.01911">
        <ele>3</ele>
        <time>2018-08-31T09:05:22+02:00</time>
      </trkpt>
      <trkpt lat="42.93387" lon="3.01942">
        <ele>3</ele>
        <time>2018-08-31T09:05:29+02:00</time>
      </trkpt>
      <trkpt lat="42.93381" lon="3.01974">
        <ele>4</ele>
        <time>2018-08-31T09:05:34+02:00</time>
      </trkpt>
      <trkpt lat="42.93381" lon="3.02007">
        <ele>4</ele>
        <time>2018-08-31T09:05:39+02:00</time>
      </trkpt>
      <trkpt lat="42.93381" lon="3.02038">
        <ele>4</ele>
        <time>2018-08-31T09:05:44+02:00</time>
      </trkpt>
      <trkpt lat="42.93382" lon="3.02072">
        <ele>3</ele>
        <time>2018-08-31T09:05:49+02:00</time>
      </trkpt>
      <trkpt lat="42.93381" lon="3.02107">
        <ele>3</ele>
        <time>2018-08-31T09:05:54+02:00</time>
      </trkpt>
      <trkpt lat="42.93382" lon="3.02142">
        <ele>3</ele>
        <time>2018-08-31T09:06:00+02:00</time>
      </trkpt>
      <trkpt lat="42.93377" lon="3.02171">
        <ele>3</ele>
        <time>2018-08-31T09:06:08+02:00</time>
      </trkpt>
      <trkpt lat="42.93353" lon="3.02178">
        <ele>7</ele>
        <time>2018-08-31T09:06:17+02:00</time>
      </trkpt>
      <trkpt lat="42.93331" lon="3.02187">
        <ele>11</ele>
        <time>2018-08-31T09:06:28+02:00</time>
      </trkpt>
      <trkpt lat="42.93313" lon="3.02207">
        <ele>16</ele>
        <time>2018-08-31T09:06:43+02:00</time>
      </trkpt>
      <trkpt lat="42.93305" lon="3.02237">
        <ele>19</ele>
        <time>2018-08-31T09:06:53+02:00</time>
      </trkpt>
      <trkpt lat="42.93291" lon="3.02261">
        <ele>22</ele>
        <time>2018-08-31T09:07:05+02:00</time>
      </trkpt>
      <trkpt lat="42.93283" lon="3.02291">
        <ele>24</ele>
        <time>2018-08-31T09:07:15+02:00</time>
      </trkpt>
      <trkpt lat="42.93265" lon="3.0231">
        <ele>28</ele>
        <time>2018-08-31T09:07:29+02:00</time>
      </trkpt>
      <trkpt lat="42.93247" lon="3.02332">
        <ele>31</ele>
        <time>2018-08-31T09:07:42+02:00</time>
      </trkpt>
      <trkpt lat="42.93225" lon="3.02338">
        <ele>33</ele>
        <time>2018-08-31T09:07:54+02:00</time>
      </trkpt>
      <trkpt lat="42.93202" lon="3.0235">
        <ele>34</ele>
        <time>2018-08-31T09:08:09+02:00</time>
      </trkpt>
      <trkpt lat="42.93181" lon="3.02363">
        <ele>35</ele>
        <time>2018-08-31T09:08:21+02:00</time>
      </trkpt>
      <trkpt lat="42.93159" lon="3.02373">
        <ele>35</ele>
        <time>2018-08-31T09:08:32+02:00</time>
      </trkpt>
      <trkpt lat="42.93137" lon="3.0238">
        <ele>35</ele>
        <time>2018-08-31T09:08:40+02:00</time>
      </trkpt>
      <trkpt lat="42.93119" lon="3.02404">
        <ele>36</ele>
        <time>2018-08-31T09:08:47+02:00</time>
      </trkpt>
      <trkpt lat="42.93097" lon="3.02399">
        <ele>35</ele>
        <time>2018-08-31T09:08:57+02:00</time>
      </trkpt>
      <trkpt lat="42.93074" lon="3.02417">
        <ele>36</ele>
        <time>2018-08-31T09:09:04+02:00</time>
      </trkpt>
      <trkpt lat="42.93057" lon="3.02441">
        <ele>36</ele>
        <time>2018-08-31T09:09:11+02:00</time>
      </trkpt>
      <trkpt lat="42.93042" lon="3.02467">
        <ele>37</ele>
        <time>2018-08-31T09:09:17+02:00</time>
      </trkpt>
      <trkpt lat="42.93026" lon="3.02493">
        <ele>38</ele>
        <time>2018-08-31T09:09:23+02:00</time>
      </trkpt>
      <trkpt lat="42.93006" lon="3.02515">
        <ele>39</ele>
        <time>2018-08-31T09:09:30+02:00</time>
      </trkpt>
      <trkpt lat="42.92984" lon="3.02535">
        <ele>39</ele>
        <time>2018-08-31T09:09:36+02:00</time>
      </trkpt>
      <trkpt lat="42.92963" lon="3.02548">
        <ele>39</ele>
        <time>2018-08-31T09:09:41+02:00</time>
      </trkpt>
      <trkpt lat="42.92938" lon="3.02559">
        <ele>38</ele>
        <time>2018-08-31T09:09:47+02:00</time>
      </trkpt>
      <trkpt lat="42.92914" lon="3.02564">
        <ele>37</ele>
        <time>2018-08-31T09:09:52+02:00</time>
      </trkpt>
      <trkpt lat="42.929" lon="3.02536">
        <ele>35</ele>
        <time>2018-08-31T09:10:02+02:00</time>
      </trkpt>
      <trkpt lat="42.92883" lon="3.02511">
        <ele>33</ele>
        <time>2018-08-31T09:10:38+02:00</time>
      </trkpt>
      <trkpt lat="42.92863" lon="3.02491">
        <ele>31</ele>
        <time>2018-08-31T09:10:44+02:00</time>
      </trkpt>
      <trkpt lat="42.92848" lon="3.02465">
        <ele>30</ele>
        <time>2018-08-31T09:10:50+02:00</time>
      </trkpt>
      <trkpt lat="42.92823" lon="3.02449">
        <ele>30</ele>
        <time>2018-08-31T09:10:56+02:00</time>
      </trkpt>
      <trkpt lat="42.92798" lon="3.0244">
        <ele>31</ele>
        <time>2018-08-31T09:11:02+02:00</time>
      </trkpt>
      <trkpt lat="42.92777" lon="3.02453">
        <ele>31</ele>
        <time>2018-08-31T09:11:07+02:00</time>
      </trkpt>
      <trkpt lat="42.92756" lon="3.02468">
        <ele>31</ele>
        <time>2018-08-31T09:11:12+02:00</time>
      </trkpt>
      <trkpt lat="42.92736" lon="3.02486">
        <ele>32</ele>
        <time>2018-08-31T09:11:17+02:00</time>
      </trkpt>
      <trkpt lat="42.92718" lon="3.02505">
        <ele>33</ele>
        <time>2018-08-31T09:11:23+02:00</time>
      </trkpt>
      <trkpt lat="42.92705" lon="3.02531">
        <ele>33</ele>
        <time>2018-08-31T09:11:28+02:00</time>
      </trkpt>
      <trkpt lat="42.92694" lon="3.02561">
        <ele>32</ele>
        <time>2018-08-31T09:11:33+02:00</time>
      </trkpt>
      <trkpt lat="42.92682" lon="3.02591">
        <ele>32</ele>
        <time>2018-08-31T09:11:38+02:00</time>
      </trkpt>
      <trkpt lat="42.92666" lon="3.02619">
        <ele>32</ele>
        <time>2018-08-31T09:11:44+02:00</time>
      </trkpt>
      <trkpt lat="42.92654" lon="3.02645">
        <ele>34</ele>
        <time>2018-08-31T09:11:49+02:00</time>
      </trkpt>
      <trkpt lat="42.92642" lon="3.02673">
        <ele>36</ele>
        <time>2018-08-31T09:11:54+02:00</time>
      </trkpt>
      <trkpt lat="42.9263" lon="3.02702">
        <ele>35</ele>
        <time>2018-08-31T09:11:59+02:00</time>
      </trkpt>
      <trkpt lat="42.92615" lon="3.02734">
        <ele>37</ele>
        <time>2018-08-31T09:12:06+02:00</time>
      </trkpt>
      <trkpt lat="42.92598" lon="3.02763">
        <ele>36</ele>
        <time>2018-08-31T09:12:13+02:00</time>
      </trkpt>
      <trkpt lat="42.92577" lon="3.02779">
        <ele>37</ele>
        <time>2018-08-31T09:12:19+02:00</time>
      </trkpt>
      <trkpt lat="42.92555" lon="3.02786">
        <ele>38</ele>
        <time>2018-08-31T09:12:24+02:00</time>
      </trkpt>
      <trkpt lat="42.92533" lon="3.028">
        <ele>40</ele>
        <time>2018-08-31T09:12:30+02:00</time>
      </trkpt>
      <trkpt lat="42.9251" lon="3.02814">
        <ele>41</ele>
        <time>2018-08-31T09:12:36+02:00</time>
      </trkpt>
      <trkpt lat="42.92488" lon="3.02823">
        <ele>41</ele>
        <time>2018-08-31T09:12:42+02:00</time>
      </trkpt>
      <trkpt lat="42.92467" lon="3.02803">
        <ele>42</ele>
        <time>2018-08-31T09:12:51+02:00</time>
      </trkpt>
      <trkpt lat="42.92447" lon="3.02788">
        <ele>43</ele>
        <time>2018-08-31T09:12:58+02:00</time>
      </trkpt>
      <trkpt lat="42.92437" lon="3.0276">
        <ele>44</ele>
        <time>2018-08-31T09:13:06+02:00</time>
      </trkpt>
      <trkpt lat="42.92419" lon="3.02737">
        <ele>44</ele>
        <time>2018-08-31T09:13:14+02:00</time>
      </trkpt>
      <trkpt lat="42.92398" lon="3.02722">
        <ele>45</ele>
        <time>2018-08-31T09:13:20+02:00</time>
      </trkpt>
      <trkpt lat="42.92377" lon="3.0271">
        <ele>45</ele>
        <time>2018-08-31T09:13:27+02:00</time>
      </trkpt>
      <trkpt lat="42.92356" lon="3.02696">
        <ele>45</ele>
        <time>2018-08-31T09:13:33+02:00</time>
      </trkpt>
      <trkpt lat="42.92339" lon="3.02672">
        <ele>46</ele>
        <time>2018-08-31T09:13:39+02:00</time>
      </trkpt>
      <trkpt lat="42.92318" lon="3.02646">
        <ele>47</ele>
        <time>2018-08-31T09:13:47+02:00</time>
      </trkpt>
      <trkpt lat="42.92298" lon="3.02627">
        <ele>48</ele>
        <time>2018-08-31T09:13:54+02:00</time>
      </trkpt>
      <trkpt lat="42.92273" lon="3.02617">
        <ele>48</ele>
        <time>2018-08-31T09:13:59+02:00</time>
      </trkpt>
      <trkpt lat="42.92251" lon="3.02604">
        <ele>48</ele>
        <time>2018-08-31T09:14:05+02:00</time>
      </trkpt>
      <trkpt lat="42.92227" lon="3.02594">
        <ele>47</ele>
        <time>2018-08-31T09:14:11+02:00</time>
      </trkpt>
      <trkpt lat="42.92201" lon="3.02591">
        <ele>45</ele>
        <time>2018-08-31T09:14:18+02:00</time>
      </trkpt>
      <trkpt lat="42.92175" lon="3.02581">
        <ele>45</ele>
        <time>2018-08-31T09:14:24+02:00</time>
      </trkpt>
      <trkpt lat="42.92151" lon="3.02572">
        <ele>45</ele>
        <time>2018-08-31T09:14:31+02:00</time>
      </trkpt>
      <trkpt lat="42.92127" lon="3.02556">
        <ele>45</ele>
        <time>2018-08-31T09:14:37+02:00</time>
      </trkpt>
      <trkpt lat="42.92114" lon="3.02531">
        <ele>45</ele>
        <time>2018-08-31T09:14:44+02:00</time>
      </trkpt>
      <trkpt lat="42.92093" lon="3.02512">
        <ele>46</ele>
        <time>2018-08-31T09:14:52+02:00</time>
      </trkpt>
      <trkpt lat="42.92072" lon="3.02498">
        <ele>48</ele>
        <time>2018-08-31T09:14:59+02:00</time>
      </trkpt>
      <trkpt lat="42.92052" lon="3.02481">
        <ele>50</ele>
        <time>2018-08-31T09:15:06+02:00</time>
      </trkpt>
      <trkpt lat="42.92031" lon="3.02465">
        <ele>50</ele>
        <time>2018-08-31T09:15:13+02:00</time>
      </trkpt>
      <trkpt lat="42.92007" lon="3.02457">
        <ele>50</ele>
        <time>2018-08-31T09:15:18+02:00</time>
      </trkpt>
      <trkpt lat="42.91986" lon="3.0244">
        <ele>50</ele>
        <time>2018-08-31T09:15:26+02:00</time>
      </trkpt>
      <trkpt lat="42.91965" lon="3.02427">
        <ele>50</ele>
        <time>2018-08-31T09:15:31+02:00</time>
      </trkpt>
      <trkpt lat="42.91941" lon="3.02431">
        <ele>50</ele>
        <time>2018-08-31T09:15:37+02:00</time>
      </trkpt>
      <trkpt lat="42.91918" lon="3.02444">
        <ele>50</ele>
        <time>2018-08-31T09:15:44+02:00</time>
      </trkpt>
      <trkpt lat="42.91894" lon="3.02456">
        <ele>50</ele>
        <time>2018-08-31T09:15:51+02:00</time>
      </trkpt>
      <trkpt lat="42.91871" lon="3.02466">
        <ele>49</ele>
        <time>2018-08-31T09:15:58+02:00</time>
      </trkpt>
      <trkpt lat="42.91847" lon="3.02462">
        <ele>49</ele>
        <time>2018-08-31T09:16:05+02:00</time>
      </trkpt>
      <trkpt lat="42.91825" lon="3.02462">
        <ele>49</ele>
        <time>2018-08-31T09:16:10+02:00</time>
      </trkpt>
      <trkpt lat="42.91803" lon="3.02445">
        <ele>48</ele>
        <time>2018-08-31T09:16:16+02:00</time>
      </trkpt>
      <trkpt lat="42.91783" lon="3.02422">
        <ele>47</ele>
        <time>2018-08-31T09:16:22+02:00</time>
      </trkpt>
      <trkpt lat="42.91759" lon="3.02423">
        <ele>47</ele>
        <time>2018-08-31T09:16:28+02:00</time>
      </trkpt>
      <trkpt lat="42.91742" lon="3.0245">
        <ele>47</ele>
        <time>2018-08-31T09:16:34+02:00</time>
      </trkpt>
      <trkpt lat="42.9172" lon="3.02457">
        <ele>47</ele>
        <time>2018-08-31T09:16:40+02:00</time>
      </trkpt>
      <trkpt lat="42.91697" lon="3.02461">
        <ele>47</ele>
        <time>2018-08-31T09:16:46+02:00</time>
      </trkpt>
      <trkpt lat="42.91675" lon="3.0247">
        <ele>46</ele>
        <time>2018-08-31T09:16:51+02:00</time>
      </trkpt>
      <trkpt lat="42.91651" lon="3.02469">
        <ele>45</ele>
        <time>2018-08-31T09:16:58+02:00</time>
      </trkpt>
      <trkpt lat="42.91628" lon="3.02458">
        <ele>45</ele>
        <time>2018-08-31T09:17:05+02:00</time>
      </trkpt>
      <trkpt lat="42.91605" lon="3.0245">
        <ele>45</ele>
        <time>2018-08-31T09:17:10+02:00</time>
      </trkpt>
      <trkpt lat="42.91582" lon="3.02444">
        <ele>45</ele>
        <time>2018-08-31T09:17:17+02:00</time>
      </trkpt>
      <trkpt lat="42.91557" lon="3.02442">
        <ele>44</ele>
        <time>2018-08-31T09:17:23+02:00</time>
      </trkpt>
      <trkpt lat="42.91532" lon="3.02442">
        <ele>43</ele>
        <time>2018-08-31T09:17:30+02:00</time>
      </trkpt>
      <trkpt lat="42.91507" lon="3.02434">
        <ele>43</ele>
        <time>2018-08-31T09:17:37+02:00</time>
      </trkpt>
      <trkpt lat="42.91481" lon="3.02432">
        <ele>42</ele>
        <time>2018-08-31T09:17:42+02:00</time>
      </trkpt>
      <trkpt lat="42.91455" lon="3.02433">
        <ele>42</ele>
        <time>2018-08-31T09:17:47+02:00</time>
      </trkpt>
      <trkpt lat="42.91431" lon="3.02434">
        <ele>42</ele>
        <time>2018-08-31T09:17:50+02:00</time>
      </trkpt>
      <trkpt lat="42.91409" lon="3.02438">
        <ele>42</ele>
        <time>2018-08-31T09:17:54+02:00</time>
      </trkpt>
      <trkpt lat="42.91385" lon="3.0244">
        <ele>41</ele>
        <time>2018-08-31T09:17:58+02:00</time>
      </trkpt>
      <trkpt lat="42.91359" lon="3.02445">
        <ele>41</ele>
        <time>2018-08-31T09:18:03+02:00</time>
      </trkpt>
      <trkpt lat="42.91335" lon="3.02458">
        <ele>41</ele>
        <time>2018-08-31T09:18:08+02:00</time>
      </trkpt>
      <trkpt lat="42.91311" lon="3.02464">
        <ele>40</ele>
        <time>2018-08-31T09:18:13+02:00</time>
      </trkpt>
      <trkpt lat="42.91287" lon="3.0247">
        <ele>40</ele>
        <time>2018-08-31T09:18:18+02:00</time>
      </trkpt>
      <trkpt lat="42.91264" lon="3.02471">
        <ele>40</ele>
        <time>2018-08-31T09:18:22+02:00</time>
      </trkpt>
      <trkpt lat="42.91238" lon="3.02485">
        <ele>39</ele>
        <time>2018-08-31T09:18:26+02:00</time>
      </trkpt>
      <trkpt lat="42.91216" lon="3.02509">
        <ele>38</ele>
        <time>2018-08-31T09:18:29+02:00</time>
      </trkpt>
      <trkpt lat="42.91193" lon="3.02528">
        <ele>37</ele>
        <time>2018-08-31T09:18:32+02:00</time>
      </trkpt>
      <trkpt lat="42.9117" lon="3.02538">
        <ele>35</ele>
        <time>2018-08-31T09:18:35+02:00</time>
      </trkpt>
      <trkpt lat="42.91147" lon="3.02547">
        <ele>33</ele>
        <time>2018-08-31T09:18:38+02:00</time>
      </trkpt>
      <trkpt lat="42.91124" lon="3.02558">
        <ele>32</ele>
        <time>2018-08-31T09:18:47+02:00</time>
      </trkpt>
      <trkpt lat="42.91115" lon="3.02591">
        <ele>31</ele>
        <time>2018-08-31T09:18:52+02:00</time>
      </trkpt>
      <trkpt lat="42.91103" lon="3.02625">
        <ele>31</ele>
        <time>2018-08-31T09:18:58+02:00</time>
      </trkpt>
      <trkpt lat="42.91108" lon="3.02662">
        <ele>31</ele>
        <time>2018-08-31T09:19:01+02:00</time>
      </trkpt>
      <trkpt lat="42.91083" lon="3.02679">
        <ele>30</ele>
        <time>2018-08-31T09:19:07+02:00</time>
      </trkpt>
      <trkpt lat="42.91077" lon="3.02708">
        <ele>30</ele>
        <time>2018-08-31T09:19:14+02:00</time>
      </trkpt>
      <trkpt lat="42.91062" lon="3.02743">
        <ele>30</ele>
        <time>2018-08-31T09:19:47+02:00</time>
      </trkpt>
      <trkpt lat="42.91044" lon="3.02771">
        <ele>30</ele>
        <time>2018-08-31T09:19:50+02:00</time>
      </trkpt>
      <trkpt lat="42.91035" lon="3.02802">
        <ele>30</ele>
        <time>2018-08-31T09:19:53+02:00</time>
      </trkpt>
      <trkpt lat="42.91022" lon="3.02831">
        <ele>30</ele>
        <time>2018-08-31T09:19:57+02:00</time>
      </trkpt>
      <trkpt lat="42.9101" lon="3.0286">
        <ele>30</ele>
        <time>2018-08-31T09:20:01+02:00</time>
      </trkpt>
      <trkpt lat="42.91001" lon="3.02894">
        <ele>30</ele>
        <time>2018-08-31T09:20:06+02:00</time>
      </trkpt>
      <trkpt lat="42.90999" lon="3.02928">
        <ele>30</ele>
        <time>2018-08-31T09:20:11+02:00</time>
      </trkpt>
      <trkpt lat="42.90981" lon="3.02949">
        <ele>30</ele>
        <time>2018-08-31T09:20:14+02:00</time>
      </trkpt>
      <trkpt lat="42.90972" lon="3.02984">
        <ele>30</ele>
        <time>2018-08-31T09:20:19+02:00</time>
      </trkpt>
      <trkpt lat="42.90951" lon="3.03006">
        <ele>30</ele>
        <time>2018-08-31T09:20:22+02:00</time>
      </trkpt>
      <trkpt lat="42.9094" lon="3.03037">
        <ele>29</ele>
        <time>2018-08-31T09:20:31+02:00</time>
      </trkpt>
      <trkpt lat="42.90922" lon="3.03057">
        <ele>27</ele>
        <time>2018-08-31T09:20:36+02:00</time>
      </trkpt>
      <trkpt lat="42.90899" lon="3.03071">
        <ele>26</ele>
        <time>2018-08-31T09:20:41+02:00</time>
      </trkpt>
      <trkpt lat="42.90877" lon="3.03077">
        <ele>26</ele>
        <time>2018-08-31T09:20:46+02:00</time>
      </trkpt>
      <trkpt lat="42.90854" lon="3.03077">
        <ele>26</ele>
        <time>2018-08-31T09:20:53+02:00</time>
      </trkpt>
      <trkpt lat="42.9083" lon="3.03089">
        <ele>27</ele>
        <time>2018-08-31T09:20:58+02:00</time>
      </trkpt>
      <trkpt lat="42.90811" lon="3.03108">
        <ele>27</ele>
        <time>2018-08-31T09:21:03+02:00</time>
      </trkpt>
      <trkpt lat="42.90799" lon="3.03136">
        <ele>27</ele>
        <time>2018-08-31T09:21:07+02:00</time>
      </trkpt>
      <trkpt lat="42.90783" lon="3.03168">
        <ele>28</ele>
        <time>2018-08-31T09:21:11+02:00</time>
      </trkpt>
      <trkpt lat="42.90765" lon="3.03195">
        <ele>26</ele>
        <time>2018-08-31T09:21:15+02:00</time>
      </trkpt>
      <trkpt lat="42.90751" lon="3.03228">
        <ele>24</ele>
        <time>2018-08-31T09:21:19+02:00</time>
      </trkpt>
      <trkpt lat="42.90732" lon="3.03264">
        <ele>21</ele>
        <time>2018-08-31T09:21:23+02:00</time>
      </trkpt>
      <trkpt lat="42.90719" lon="3.03295">
        <ele>19</ele>
        <time>2018-08-31T09:21:26+02:00</time>
      </trkpt>
      <trkpt lat="42.90701" lon="3.03328">
        <ele>17</ele>
        <time>2018-08-31T09:21:30+02:00</time>
      </trkpt>
      <trkpt lat="42.90689" lon="3.03358">
        <ele>16</ele>
        <time>2018-08-31T09:21:33+02:00</time>
      </trkpt>
      <trkpt lat="42.90669" lon="3.03378">
        <ele>14</ele>
        <time>2018-08-31T09:21:37+02:00</time>
      </trkpt>
      <trkpt lat="42.90659" lon="3.03408">
        <ele>13</ele>
        <time>2018-08-31T09:21:42+02:00</time>
      </trkpt>
      <trkpt lat="42.90646" lon="3.03463">
        <ele>10</ele>
        <time>2018-08-31T09:21:47+02:00</time>
      </trkpt>
      <trkpt lat="42.90642" lon="3.03494">
        <ele>10</ele>
        <time>2018-08-31T09:21:49+02:00</time>
      </trkpt>
      <trkpt lat="42.90637" lon="3.03525">
        <ele>10</ele>
        <time>2018-08-31T09:21:51+02:00</time>
      </trkpt>
      <trkpt lat="42.90629" lon="3.03565">
        <ele>9</ele>
        <time>2018-08-31T09:21:54+02:00</time>
      </trkpt>
      <trkpt lat="42.90622" lon="3.03595">
        <ele>9</ele>
        <time>2018-08-31T09:21:56+02:00</time>
      </trkpt>
      <trkpt lat="42.90605" lon="3.03624">
        <ele>8</ele>
        <time>2018-08-31T09:22:00+02:00</time>
      </trkpt>
      <trkpt lat="42.90587" lon="3.03648">
        <ele>8</ele>
        <time>2018-08-31T09:22:05+02:00</time>
      </trkpt>
      <trkpt lat="42.90583" lon="3.03682">
        <ele>7</ele>
        <time>2018-08-31T09:22:09+02:00</time>
      </trkpt>
      <trkpt lat="42.90582" lon="3.03717">
        <ele>6</ele>
        <time>2018-08-31T09:22:13+02:00</time>
      </trkpt>
      <trkpt lat="42.90573" lon="3.03751">
        <ele>6</ele>
        <time>2018-08-31T09:22:17+02:00</time>
      </trkpt>
      <trkpt lat="42.90569" lon="3.03783">
        <ele>5</ele>
        <time>2018-08-31T09:22:20+02:00</time>
      </trkpt>
      <trkpt lat="42.90568" lon="3.03817">
        <ele>4</ele>
        <time>2018-08-31T09:22:24+02:00</time>
      </trkpt>
      <trkpt lat="42.90577" lon="3.03855">
        <ele>4</ele>
        <time>2018-08-31T09:22:28+02:00</time>
      </trkpt>
      <trkpt lat="42.90586" lon="3.03893">
        <ele>4</ele>
        <time>2018-08-31T09:22:32+02:00</time>
      </trkpt>
      <trkpt lat="42.90595" lon="3.03927">
        <ele>4</ele>
        <time>2018-08-31T09:22:36+02:00</time>
      </trkpt>
      <trkpt lat="42.90601" lon="3.0396">
        <ele>4</ele>
        <time>2018-08-31T09:22:41+02:00</time>
      </trkpt>
      <trkpt lat="42.90603" lon="3.03993">
        <ele>4</ele>
        <time>2018-08-31T09:22:45+02:00</time>
      </trkpt>
      <trkpt lat="42.90601" lon="3.04025">
        <ele>3</ele>
        <time>2018-08-31T09:22:49+02:00</time>
      </trkpt>
      <trkpt lat="42.90599" lon="3.0406">
        <ele>2</ele>
        <time>2018-08-31T09:22:53+02:00</time>
      </trkpt>
      <trkpt lat="42.90596" lon="3.04092">
        <ele>1</ele>
        <time>2018-08-31T09:22:57+02:00</time>
      </trkpt>
      <trkpt lat="42.90588" lon="3.04124">
        <ele>1</ele>
        <time>2018-08-31T09:23:01+02:00</time>
      </trkpt>
      <trkpt lat="42.90589" lon="3.04155">
        <ele>1</ele>
        <time>2018-08-31T09:23:04+02:00</time>
      </trkpt>
      <trkpt lat="42.90582" lon="3.04189">
        <ele>2</ele>
        <time>2018-08-31T09:23:08+02:00</time>
      </trkpt>
      <trkpt lat="42.90575" lon="3.04219">
        <ele>2</ele>
        <time>2018-08-31T09:23:11+02:00</time>
      </trkpt>
      <trkpt lat="42.90567" lon="3.0425">
        <ele>2</ele>
        <time>2018-08-31T09:23:15+02:00</time>
      </trkpt>
      <trkpt lat="42.90558" lon="3.0428">
        <ele>3</ele>
        <time>2018-08-31T09:23:19+02:00</time>
      </trkpt>
      <trkpt lat="42.90547" lon="3.04314">
        <ele>3</ele>
        <time>2018-08-31T09:23:23+02:00</time>
      </trkpt>
      <trkpt lat="42.90536" lon="3.04342">
        <ele>3</ele>
        <time>2018-08-31T09:23:27+02:00</time>
      </trkpt>
      <trkpt lat="42.90524" lon="3.0437">
        <ele>3</ele>
        <time>2018-08-31T09:23:31+02:00</time>
      </trkpt>
      <trkpt lat="42.90512" lon="3.04399">
        <ele>3</ele>
        <time>2018-08-31T09:23:35+02:00</time>
      </trkpt>
      <trkpt lat="42.90501" lon="3.04428">
        <ele>3</ele>
        <time>2018-08-31T09:23:39+02:00</time>
      </trkpt>
      <trkpt lat="42.90489" lon="3.04458">
        <ele>3</ele>
        <time>2018-08-31T09:23:43+02:00</time>
      </trkpt>
      <trkpt lat="42.90477" lon="3.04486">
        <ele>3</ele>
        <time>2018-08-31T09:23:47+02:00</time>
      </trkpt>
      <trkpt lat="42.90464" lon="3.04519">
        <ele>2</ele>
        <time>2018-08-31T09:23:52+02:00</time>
      </trkpt>
      <trkpt lat="42.90453" lon="3.04549">
        <ele>2</ele>
        <time>2018-08-31T09:23:56+02:00</time>
      </trkpt>
      <trkpt lat="42.90442" lon="3.04581">
        <ele>3</ele>
        <time>2018-08-31T09:24:00+02:00</time>
      </trkpt>
      <trkpt lat="42.90432" lon="3.04612">
        <ele>2</ele>
        <time>2018-08-31T09:24:04+02:00</time>
      </trkpt>
      <trkpt lat="42.9042" lon="3.0464">
        <ele>2</ele>
        <time>2018-08-31T09:24:08+02:00</time>
      </trkpt>
      <trkpt lat="42.90408" lon="3.0467">
        <ele>2</ele>
        <time>2018-08-31T09:24:12+02:00</time>
      </trkpt>
      <trkpt lat="42.90399" lon="3.04698">
        <ele>2</ele>
        <time>2018-08-31T09:24:16+02:00</time>
      </trkpt>
      <trkpt lat="42.90388" lon="3.0473">
        <ele>2</ele>
        <time>2018-08-31T09:24:20+02:00</time>
      </trkpt>
      <trkpt lat="42.9038" lon="3.04761">
        <ele>3</ele>
        <time>2018-08-31T09:24:24+02:00</time>
      </trkpt>
      <trkpt lat="42.90376" lon="3.04793">
        <ele>3</ele>
        <time>2018-08-31T09:24:28+02:00</time>
      </trkpt>
      <trkpt lat="42.90371" lon="3.04824">
        <ele>2</ele>
        <time>2018-08-31T09:24:32+02:00</time>
      </trkpt>
      <trkpt lat="42.90364" lon="3.04858">
        <ele>3</ele>
        <time>2018-08-31T09:24:37+02:00</time>
      </trkpt>
      <trkpt lat="42.90371" lon="3.04888">
        <ele>3</ele>
        <time>2018-08-31T09:24:42+02:00</time>
      </trkpt>
      <trkpt lat="42.90373" lon="3.04922">
        <ele>3</ele>
        <time>2018-08-31T09:24:47+02:00</time>
      </trkpt>
      <trkpt lat="42.90376" lon="3.04953">
        <ele>4</ele>
        <time>2018-08-31T09:24:53+02:00</time>
      </trkpt>
      <trkpt lat="42.90374" lon="3.0499">
        <ele>4</ele>
        <time>2018-08-31T09:24:58+02:00</time>
      </trkpt>
      <trkpt lat="42.90376" lon="3.05023">
        <ele>5</ele>
        <time>2018-08-31T09:25:02+02:00</time>
      </trkpt>
      <trkpt lat="42.90377" lon="3.05057">
        <ele>5</ele>
        <time>2018-08-31T09:25:07+02:00</time>
      </trkpt>
      <trkpt lat="42.90368" lon="3.05091">
        <ele>5</ele>
        <time>2018-08-31T09:25:13+02:00</time>
      </trkpt>
      <trkpt lat="42.90351" lon="3.05113">
        <ele>4</ele>
        <time>2018-08-31T09:25:18+02:00</time>
      </trkpt>
      <trkpt lat="42.90333" lon="3.05139">
        <ele>4</ele>
        <time>2018-08-31T09:25:23+02:00</time>
      </trkpt>
      <trkpt lat="42.90317" lon="3.05164">
        <ele>3</ele>
        <time>2018-08-31T09:25:28+02:00</time>
      </trkpt>
      <trkpt lat="42.90294" lon="3.05178">
        <ele>2</ele>
        <time>2018-08-31T09:25:33+02:00</time>
      </trkpt>
      <trkpt lat="42.90276" lon="3.05196">
        <ele>2</ele>
        <time>2018-08-31T09:25:38+02:00</time>
      </trkpt>
      <trkpt lat="42.90255" lon="3.05212">
        <ele>2</ele>
        <time>2018-08-31T09:25:43+02:00</time>
      </trkpt>
      <trkpt lat="42.90233" lon="3.05232">
        <ele>1</ele>
        <time>2018-08-31T09:25:48+02:00</time>
      </trkpt>
      <trkpt lat="42.90216" lon="3.05257">
        <ele>1</ele>
        <time>2018-08-31T09:25:53+02:00</time>
      </trkpt>
      <trkpt lat="42.90202" lon="3.05285">
        <ele>1</ele>
        <time>2018-08-31T09:25:58+02:00</time>
      </trkpt>
      <trkpt lat="42.90185" lon="3.05312">
        <ele>1</ele>
        <time>2018-08-31T09:26:03+02:00</time>
      </trkpt>
      <trkpt lat="42.90168" lon="3.05336">
        <ele>1</ele>
        <time>2018-08-31T09:26:09+02:00</time>
      </trkpt>
      <trkpt lat="42.90161" lon="3.05365">
        <ele>1</ele>
        <time>2018-08-31T09:26:14+02:00</time>
      </trkpt>
      <trkpt lat="42.90154" lon="3.05396">
        <ele>1</ele>
        <time>2018-08-31T09:26:19+02:00</time>
      </trkpt>
      <trkpt lat="42.90168" lon="3.05368">
        <ele>1</ele>
        <time>2018-08-31T09:27:03+02:00</time>
      </trkpt>
      <trkpt lat="42.90173" lon="3.05333">
        <ele>1</ele>
        <time>2018-08-31T09:27:10+02:00</time>
      </trkpt>
      <trkpt lat="42.9015" lon="3.05324">
        <ele>1</ele>
        <time>2018-08-31T09:27:16+02:00</time>
      </trkpt>
      <trkpt lat="42.90126" lon="3.0532">
        <ele>1</ele>
        <time>2018-08-31T09:27:21+02:00</time>
      </trkpt>
      <trkpt lat="42.90105" lon="3.05312">
        <ele>1</ele>
        <time>2018-08-31T09:27:26+02:00</time>
      </trkpt>
      <trkpt lat="42.90081" lon="3.05294">
        <ele>1</ele>
        <time>2018-08-31T09:27:32+02:00</time>
      </trkpt>
      <trkpt lat="42.90058" lon="3.05282">
        <ele>1</ele>
        <time>2018-08-31T09:27:38+02:00</time>
      </trkpt>
      <trkpt lat="42.90036" lon="3.05272">
        <ele>1</ele>
        <time>2018-08-31T09:27:43+02:00</time>
      </trkpt>
      <trkpt lat="42.90013" lon="3.05261">
        <ele>1</ele>
        <time>2018-08-31T09:27:48+02:00</time>
      </trkpt>
      <trkpt lat="42.89988" lon="3.05248">
        <ele>1</ele>
        <time>2018-08-31T09:27:55+02:00</time>
      </trkpt>
      <trkpt lat="42.89962" lon="3.05245">
        <ele>1</ele>
        <time>2018-08-31T09:28:01+02:00</time>
      </trkpt>
      <trkpt lat="42.89939" lon="3.05249">
        <ele>1</ele>
        <time>2018-08-31T09:28:06+02:00</time>
      </trkpt>
      <trkpt lat="42.89912" lon="3.05249">
        <ele>1</ele>
        <time>2018-08-31T09:28:11+02:00</time>
      </trkpt>
      <trkpt lat="42.89887" lon="3.05242">
        <ele>1</ele>
        <time>2018-08-31T09:28:17+02:00</time>
      </trkpt>
      <trkpt lat="42.89863" lon="3.05235">
        <ele>1</ele>
        <time>2018-08-31T09:28:21+02:00</time>
      </trkpt>
      <trkpt lat="42.89841" lon="3.05227">
        <ele>1</ele>
        <time>2018-08-31T09:28:25+02:00</time>
      </trkpt>
      <trkpt lat="42.89815" lon="3.05221">
        <ele>1</ele>
        <time>2018-08-31T09:28:30+02:00</time>
      </trkpt>
      <trkpt lat="42.8979" lon="3.05212">
        <ele>1</ele>
        <time>2018-08-31T09:28:35+02:00</time>
      </trkpt>
      <trkpt lat="42.89769" lon="3.05204">
        <ele>1</ele>
        <time>2018-08-31T09:28:39+02:00</time>
      </trkpt>
      <trkpt lat="42.89743" lon="3.05194">
        <ele>1</ele>
        <time>2018-08-31T09:28:44+02:00</time>
      </trkpt>
      <trkpt lat="42.89718" lon="3.05185">
        <ele>1</ele>
        <time>2018-08-31T09:28:49+02:00</time>
      </trkpt>
      <trkpt lat="42.89693" lon="3.05177">
        <ele>1</ele>
        <time>2018-08-31T09:28:54+02:00</time>
      </trkpt>
      <trkpt lat="42.89667" lon="3.05171">
        <ele>1</ele>
        <time>2018-08-31T09:29:00+02:00</time>
      </trkpt>
      <trkpt lat="42.89642" lon="3.05165">
        <ele>1</ele>
        <time>2018-08-31T09:29:05+02:00</time>
      </trkpt>
      <trkpt lat="42.89615" lon="3.05158">
        <ele>1</ele>
        <time>2018-08-31T09:29:11+02:00</time>
      </trkpt>
      <trkpt lat="42.89591" lon="3.05151">
        <ele>1</ele>
        <time>2018-08-31T09:29:16+02:00</time>
      </trkpt>
      <trkpt lat="42.89568" lon="3.0514">
        <ele>1</ele>
        <time>2018-08-31T09:29:21+02:00</time>
      </trkpt>
      <trkpt lat="42.89546" lon="3.05129">
        <ele>1</ele>
        <time>2018-08-31T09:29:25+02:00</time>
      </trkpt>
      <trkpt lat="42.89525" lon="3.05116">
        <ele>1</ele>
        <time>2018-08-31T09:29:30+02:00</time>
      </trkpt>
      <trkpt lat="42.89506" lon="3.05094">
        <ele>1</ele>
        <time>2018-08-31T09:29:35+02:00</time>
      </trkpt>
      <trkpt lat="42.89488" lon="3.05075">
        <ele>1</ele>
        <time>2018-08-31T09:29:40+02:00</time>
      </trkpt>
      <trkpt lat="42.89465" lon="3.05064">
        <ele>1</ele>
        <time>2018-08-31T09:29:44+02:00</time>
      </trkpt>
      <trkpt lat="42.8944" lon="3.05051">
        <ele>1</ele>
        <time>2018-08-31T09:29:49+02:00</time>
      </trkpt>
      <trkpt lat="42.89416" lon="3.05042">
        <ele>1</ele>
        <time>2018-08-31T09:29:54+02:00</time>
      </trkpt>
      <trkpt lat="42.89389" lon="3.05035">
        <ele>1</ele>
        <time>2018-08-31T09:30:00+02:00</time>
      </trkpt>
      <trkpt lat="42.89363" lon="3.05037">
        <ele>1</ele>
        <time>2018-08-31T09:30:05+02:00</time>
      </trkpt>
      <trkpt lat="42.89336" lon="3.05034">
        <ele>1</ele>
        <time>2018-08-31T09:30:10+02:00</time>
      </trkpt>
      <trkpt lat="42.89309" lon="3.05032">
        <ele>1</ele>
        <time>2018-08-31T09:30:15+02:00</time>
      </trkpt>
      <trkpt lat="42.89283" lon="3.05025">
        <ele>1</ele>
        <time>2018-08-31T09:30:21+02:00</time>
      </trkpt>
      <trkpt lat="42.89258" lon="3.05024">
        <ele>1</ele>
        <time>2018-08-31T09:30:26+02:00</time>
      </trkpt>
      <trkpt lat="42.89233" lon="3.05021">
        <ele>1</ele>
        <time>2018-08-31T09:30:31+02:00</time>
      </trkpt>
      <trkpt lat="42.8921" lon="3.05017">
        <ele>1</ele>
        <time>2018-08-31T09:30:35+02:00</time>
      </trkpt>
      <trkpt lat="42.89186" lon="3.05005">
        <ele>1</ele>
        <time>2018-08-31T09:30:41+02:00</time>
      </trkpt>
      <trkpt lat="42.89161" lon="3.0499">
        <ele>1</ele>
        <time>2018-08-31T09:30:46+02:00</time>
      </trkpt>
      <trkpt lat="42.89141" lon="3.04973">
        <ele>1</ele>
        <time>2018-08-31T09:30:51+02:00</time>
      </trkpt>
      <trkpt lat="42.89117" lon="3.04961">
        <ele>1</ele>
        <time>2018-08-31T09:30:56+02:00</time>
      </trkpt>
      <trkpt lat="42.89091" lon="3.04958">
        <ele>1</ele>
        <time>2018-08-31T09:31:01+02:00</time>
      </trkpt>
      <trkpt lat="42.89068" lon="3.04951">
        <ele>1</ele>
        <time>2018-08-31T09:31:06+02:00</time>
      </trkpt>
      <trkpt lat="42.89041" lon="3.04945">
        <ele>1</ele>
        <time>2018-08-31T09:31:11+02:00</time>
      </trkpt>
      <trkpt lat="42.8902" lon="3.0493">
        <ele>1</ele>
        <time>2018-08-31T09:31:17+02:00</time>
      </trkpt>
      <trkpt lat="42.88997" lon="3.04922">
        <ele>1</ele>
        <time>2018-08-31T09:31:26+02:00</time>
      </trkpt>
      <trkpt lat="42.88971" lon="3.04924">
        <ele>1</ele>
        <time>2018-08-31T09:31:33+02:00</time>
      </trkpt>
      <trkpt lat="42.88946" lon="3.0493">
        <ele>1</ele>
        <time>2018-08-31T09:31:38+02:00</time>
      </trkpt>
      <trkpt lat="42.8892" lon="3.04942">
        <ele>1</ele>
        <time>2018-08-31T09:31:44+02:00</time>
      </trkpt>
      <trkpt lat="42.889" lon="3.04957">
        <ele>1</ele>
        <time>2018-08-31T09:31:49+02:00</time>
      </trkpt>
      <trkpt lat="42.88879" lon="3.04973">
        <ele>1</ele>
        <time>2018-08-31T09:31:54+02:00</time>
      </trkpt>
      <trkpt lat="42.88858" lon="3.04993">
        <ele>1</ele>
        <time>2018-08-31T09:31:59+02:00</time>
      </trkpt>
      <trkpt lat="42.88837" lon="3.05008">
        <ele>1</ele>
        <time>2018-08-31T09:32:03+02:00</time>
      </trkpt>
      <trkpt lat="42.88812" lon="3.05005">
        <ele>1</ele>
        <time>2018-08-31T09:32:08+02:00</time>
      </trkpt>
      <trkpt lat="42.88789" lon="3.05008">
        <ele>1</ele>
        <time>2018-08-31T09:32:13+02:00</time>
      </trkpt>
      <trkpt lat="42.88763" lon="3.05013">
        <ele>1</ele>
        <time>2018-08-31T09:32:18+02:00</time>
      </trkpt>
      <trkpt lat="42.88739" lon="3.0502">
        <ele>1</ele>
        <time>2018-08-31T09:32:23+02:00</time>
      </trkpt>
      <trkpt lat="42.88713" lon="3.05026">
        <ele>1</ele>
        <time>2018-08-31T09:32:28+02:00</time>
      </trkpt>
      <trkpt lat="42.88691" lon="3.0502">
        <ele>1</ele>
        <time>2018-08-31T09:32:35+02:00</time>
      </trkpt>
      <trkpt lat="42.88672" lon="3.05045">
        <ele>1</ele>
        <time>2018-08-31T09:32:44+02:00</time>
      </trkpt>
      <trkpt lat="42.88649" lon="3.05054">
        <ele>1</ele>
        <time>2018-08-31T09:32:50+02:00</time>
      </trkpt>
      <trkpt lat="42.88625" lon="3.05061">
        <ele>1</ele>
        <time>2018-08-31T09:32:56+02:00</time>
      </trkpt>
      <trkpt lat="42.88603" lon="3.05068">
        <ele>1</ele>
        <time>2018-08-31T09:33:02+02:00</time>
      </trkpt>
      <trkpt lat="42.88579" lon="3.05074">
        <ele>1</ele>
        <time>2018-08-31T09:33:08+02:00</time>
      </trkpt>
      <trkpt lat="42.88557" lon="3.05084">
        <ele>1</ele>
        <time>2018-08-31T09:33:15+02:00</time>
      </trkpt>
      <trkpt lat="42.8854" lon="3.05108">
        <ele>1</ele>
        <time>2018-08-31T09:33:21+02:00</time>
      </trkpt>
      <trkpt lat="42.88516" lon="3.05112">
        <ele>1</ele>
        <time>2018-08-31T09:34:08+02:00</time>
      </trkpt>
      <trkpt lat="42.88494" lon="3.05098">
        <ele>2.1</ele>
        <time>2018-08-31T09:34:22+02:00</time>
      </trkpt>
      <trkpt lat="42.88474" lon="3.05076">
        <ele>1</ele>
        <time>2018-08-31T09:34:28+02:00</time>
      </trkpt>
      <trkpt lat="42.88484" lon="3.05046">
        <ele>1</ele>
        <time>2018-08-31T09:34:34+02:00</time>
      </trkpt>
      <trkpt lat="42.88499" lon="3.0502">
        <ele>1</ele>
        <time>2018-08-31T09:34:40+02:00</time>
      </trkpt>
      <trkpt lat="42.88511" lon="3.04993">
        <ele>1</ele>
        <time>2018-08-31T09:34:46+02:00</time>
      </trkpt>
      <trkpt lat="42.88523" lon="3.04966">
        <ele>1</ele>
        <time>2018-08-31T09:34:53+02:00</time>
      </trkpt>
      <trkpt lat="42.88537" lon="3.04939">
        <ele>1</ele>
        <time>2018-08-31T09:35:00+02:00</time>
      </trkpt>
      <trkpt lat="42.88552" lon="3.04911">
        <ele>1</ele>
        <time>2018-08-31T09:35:08+02:00</time>
      </trkpt>
      <trkpt lat="42.88562" lon="3.04884">
        <ele>1</ele>
        <time>2018-08-31T09:35:14+02:00</time>
      </trkpt>
      <trkpt lat="42.88575" lon="3.04856">
        <ele>1</ele>
        <time>2018-08-31T09:35:21+02:00</time>
      </trkpt>
      <trkpt lat="42.88564" lon="3.04827">
        <ele>1</ele>
        <time>2018-08-31T09:35:32+02:00</time>
      </trkpt>
      <trkpt lat="42.88547" lon="3.04806">
        <ele>1</ele>
        <time>2018-08-31T09:35:37+02:00</time>
      </trkpt>
      <trkpt lat="42.88529" lon="3.04786">
        <ele>1</ele>
        <time>2018-08-31T09:35:42+02:00</time>
      </trkpt>
      <trkpt lat="42.88506" lon="3.0477">
        <ele>1</ele>
        <time>2018-08-31T09:35:47+02:00</time>
      </trkpt>
      <trkpt lat="42.88484" lon="3.04749">
        <ele>1</ele>
        <time>2018-08-31T09:35:53+02:00</time>
      </trkpt>
      <trkpt lat="42.88463" lon="3.04731">
        <ele>1</ele>
        <time>2018-08-31T09:35:58+02:00</time>
      </trkpt>
      <trkpt lat="42.88443" lon="3.04717">
        <ele>1</ele>
        <time>2018-08-31T09:36:02+02:00</time>
      </trkpt>
      <trkpt lat="42.88418" lon="3.04701">
        <ele>1</ele>
        <time>2018-08-31T09:36:07+02:00</time>
      </trkpt>
      <trkpt lat="42.88391" lon="3.04687">
        <ele>1</ele>
        <time>2018-08-31T09:36:12+02:00</time>
      </trkpt>
      <trkpt lat="42.88368" lon="3.04687">
        <ele>1</ele>
        <time>2018-08-31T09:36:17+02:00</time>
      </trkpt>
      <trkpt lat="42.88345" lon="3.04687">
        <ele>1</ele>
        <time>2018-08-31T09:36:21+02:00</time>
      </trkpt>
      <trkpt lat="42.88321" lon="3.04681">
        <ele>2</ele>
        <time>2018-08-31T09:36:26+02:00</time>
      </trkpt>
      <trkpt lat="42.88298" lon="3.04666">
        <ele>1</ele>
        <time>2018-08-31T09:36:31+02:00</time>
      </trkpt>
      <trkpt lat="42.88275" lon="3.0466">
        <ele>2</ele>
        <time>2018-08-31T09:36:36+02:00</time>
      </trkpt>
      <trkpt lat="42.88251" lon="3.04664">
        <ele>2</ele>
        <time>2018-08-31T09:36:42+02:00</time>
      </trkpt>
      <trkpt lat="42.88232" lon="3.04641">
        <ele>2</ele>
        <time>2018-08-31T09:36:48+02:00</time>
      </trkpt>
      <trkpt lat="42.88215" lon="3.04619">
        <ele>2</ele>
        <time>2018-08-31T09:36:56+02:00</time>
      </trkpt>
      <trkpt lat="42.88207" lon="3.0459">
        <ele>1</ele>
        <time>2018-08-31T09:37:03+02:00</time>
      </trkpt>
      <trkpt lat="42.88188" lon="3.04572">
        <ele>1</ele>
        <time>2018-08-31T09:37:10+02:00</time>
      </trkpt>
      <trkpt lat="42.88168" lon="3.04553">
        <ele>1</ele>
        <time>2018-08-31T09:37:19+02:00</time>
      </trkpt>
      <trkpt lat="42.88148" lon="3.04532">
        <ele>1</ele>
        <time>2018-08-31T09:37:25+02:00</time>
      </trkpt>
      <trkpt lat="42.88131" lon="3.04512">
        <ele>1</ele>
        <time>2018-08-31T09:37:31+02:00</time>
      </trkpt>
      <trkpt lat="42.8811" lon="3.04496">
        <ele>1</ele>
        <time>2018-08-31T09:37:36+02:00</time>
      </trkpt>
      <trkpt lat="42.88091" lon="3.04475">
        <ele>1</ele>
        <time>2018-08-31T09:37:41+02:00</time>
      </trkpt>
      <trkpt lat="42.88073" lon="3.04452">
        <ele>1</ele>
        <time>2018-08-31T09:37:47+02:00</time>
      </trkpt>
      <trkpt lat="42.88054" lon="3.04432">
        <ele>1</ele>
        <time>2018-08-31T09:37:52+02:00</time>
      </trkpt>
      <trkpt lat="42.88033" lon="3.04408">
        <ele>1</ele>
        <time>2018-08-31T09:37:58+02:00</time>
      </trkpt>
      <trkpt lat="42.88012" lon="3.04389">
        <ele>1</ele>
        <time>2018-08-31T09:38:04+02:00</time>
      </trkpt>
      <trkpt lat="42.87994" lon="3.04369">
        <ele>1</ele>
        <time>2018-08-31T09:38:09+02:00</time>
      </trkpt>
      <trkpt lat="42.87971" lon="3.04347">
        <ele>1</ele>
        <time>2018-08-31T09:38:15+02:00</time>
      </trkpt>
      <trkpt lat="42.87947" lon="3.04329">
        <ele>1</ele>
        <time>2018-08-31T09:38:20+02:00</time>
      </trkpt>
      <trkpt lat="42.87938" lon="3.043">
        <ele>1</ele>
        <time>2018-08-31T09:38:24+02:00</time>
      </trkpt>
      <trkpt lat="42.87925" lon="3.04273">
        <ele>1</ele>
        <time>2018-08-31T09:38:29+02:00</time>
      </trkpt>
      <trkpt lat="42.87904" lon="3.04248">
        <ele>1</ele>
        <time>2018-08-31T09:38:35+02:00</time>
      </trkpt>
      <trkpt lat="42.87882" lon="3.04226">
        <ele>1</ele>
        <time>2018-08-31T09:38:41+02:00</time>
      </trkpt>
      <trkpt lat="42.87861" lon="3.04208">
        <ele>1</ele>
        <time>2018-08-31T09:38:46+02:00</time>
      </trkpt>
      <trkpt lat="42.87838" lon="3.04193">
        <ele>1</ele>
        <time>2018-08-31T09:38:51+02:00</time>
      </trkpt>
      <trkpt lat="42.87817" lon="3.04177">
        <ele>1</ele>
        <time>2018-08-31T09:38:56+02:00</time>
      </trkpt>
      <trkpt lat="42.87796" lon="3.0416">
        <ele>1</ele>
        <time>2018-08-31T09:39:01+02:00</time>
      </trkpt>
      <trkpt lat="42.87775" lon="3.04143">
        <ele>1</ele>
        <time>2018-08-31T09:39:06+02:00</time>
      </trkpt>
      <trkpt lat="42.87753" lon="3.04127">
        <ele>1</ele>
        <time>2018-08-31T09:39:11+02:00</time>
      </trkpt>
      <trkpt lat="42.87732" lon="3.04116">
        <ele>1</ele>
        <time>2018-08-31T09:39:16+02:00</time>
      </trkpt>
      <trkpt lat="42.87706" lon="3.04121">
        <ele>1</ele>
        <time>2018-08-31T09:39:21+02:00</time>
      </trkpt>
      <trkpt lat="42.87681" lon="3.0413">
        <ele>1</ele>
        <time>2018-08-31T09:39:26+02:00</time>
      </trkpt>
      <trkpt lat="42.87656" lon="3.0414">
        <ele>1</ele>
        <time>2018-08-31T09:39:31+02:00</time>
      </trkpt>
      <trkpt lat="42.87633" lon="3.04144">
        <ele>1</ele>
        <time>2018-08-31T09:39:36+02:00</time>
      </trkpt>
      <trkpt lat="42.87608" lon="3.04153">
        <ele>1</ele>
        <time>2018-08-31T09:39:41+02:00</time>
      </trkpt>
      <trkpt lat="42.87577" lon="3.04161">
        <ele>1</ele>
        <time>2018-08-31T09:39:47+02:00</time>
      </trkpt>
      <trkpt lat="42.87548" lon="3.04162">
        <ele>1</ele>
        <time>2018-08-31T09:39:52+02:00</time>
      </trkpt>
      <trkpt lat="42.87526" lon="3.0414">
        <ele>1</ele>
        <time>2018-08-31T09:39:57+02:00</time>
      </trkpt>
      <trkpt lat="42.87506" lon="3.04122">
        <ele>1</ele>
        <time>2018-08-31T09:40:01+02:00</time>
      </trkpt>
      <trkpt lat="42.87486" lon="3.041">
        <ele>1</ele>
        <time>2018-08-31T09:40:06+02:00</time>
      </trkpt>
      <trkpt lat="42.87465" lon="3.04082">
        <ele>1</ele>
        <time>2018-08-31T09:40:11+02:00</time>
      </trkpt>
      <trkpt lat="42.87446" lon="3.04066">
        <ele>1</ele>
        <time>2018-08-31T09:40:15+02:00</time>
      </trkpt>
      <trkpt lat="42.87434" lon="3.04038">
        <ele>1</ele>
        <time>2018-08-31T09:40:21+02:00</time>
      </trkpt>
      <trkpt lat="42.87447" lon="3.0401">
        <ele>1</ele>
        <time>2018-08-31T09:40:27+02:00</time>
      </trkpt>
      <trkpt lat="42.87457" lon="3.03979">
        <ele>1</ele>
        <time>2018-08-31T09:40:34+02:00</time>
      </trkpt>
      <trkpt lat="42.87456" lon="3.03947">
        <ele>1</ele>
        <time>2018-08-31T09:40:40+02:00</time>
      </trkpt>
      <trkpt lat="42.87451" lon="3.03914">
        <ele>1</ele>
        <time>2018-08-31T09:40:45+02:00</time>
      </trkpt>
      <trkpt lat="42.87447" lon="3.03883">
        <ele>1</ele>
        <time>2018-08-31T09:40:49+02:00</time>
      </trkpt>
      <trkpt lat="42.87444" lon="3.0385">
        <ele>1</ele>
        <time>2018-08-31T09:40:54+02:00</time>
      </trkpt>
      <trkpt lat="42.87437" lon="3.03817">
        <ele>1</ele>
        <time>2018-08-31T09:40:59+02:00</time>
      </trkpt>
      <trkpt lat="42.87419" lon="3.0379">
        <ele>1</ele>
        <time>2018-08-31T09:41:04+02:00</time>
      </trkpt>
      <trkpt lat="42.87397" lon="3.03777">
        <ele>1</ele>
        <time>2018-08-31T09:41:08+02:00</time>
      </trkpt>
      <trkpt lat="42.87377" lon="3.03759">
        <ele>1</ele>
        <time>2018-08-31T09:41:13+02:00</time>
      </trkpt>
      <trkpt lat="42.87356" lon="3.03743">
        <ele>1</ele>
        <time>2018-08-31T09:41:18+02:00</time>
      </trkpt>
      <trkpt lat="42.87333" lon="3.03722">
        <ele>1</ele>
        <time>2018-08-31T09:41:24+02:00</time>
      </trkpt>
      <trkpt lat="42.87308" lon="3.0372">
        <ele>1</ele>
        <time>2018-08-31T09:41:29+02:00</time>
      </trkpt>
      <trkpt lat="42.87285" lon="3.03731">
        <ele>1</ele>
        <time>2018-08-31T09:41:34+02:00</time>
      </trkpt>
      <trkpt lat="42.87263" lon="3.03742">
        <ele>1</ele>
        <time>2018-08-31T09:41:38+02:00</time>
      </trkpt>
      <trkpt lat="42.8724" lon="3.03746">
        <ele>1</ele>
        <time>2018-08-31T09:41:42+02:00</time>
      </trkpt>
      <trkpt lat="42.87215" lon="3.03739">
        <ele>1</ele>
        <time>2018-08-31T09:41:47+02:00</time>
      </trkpt>
      <trkpt lat="42.87198" lon="3.03717">
        <ele>1</ele>
        <time>2018-08-31T09:41:54+02:00</time>
      </trkpt>
      <trkpt lat="42.87176" lon="3.03709">
        <ele>1</ele>
        <time>2018-08-31T09:41:58+02:00</time>
      </trkpt>
      <trkpt lat="42.87161" lon="3.03682">
        <ele>1</ele>
        <time>2018-08-31T09:42:26+02:00</time>
      </trkpt>
      <trkpt lat="42.87136" lon="3.03667">
        <ele>1</ele>
        <time>2018-08-31T09:42:30+02:00</time>
      </trkpt>
      <trkpt lat="42.87114" lon="3.0365">
        <ele>1</ele>
        <time>2018-08-31T09:42:35+02:00</time>
      </trkpt>
      <trkpt lat="42.87092" lon="3.0364">
        <ele>1</ele>
        <time>2018-08-31T09:42:39+02:00</time>
      </trkpt>
      <trkpt lat="42.87074" lon="3.03616">
        <ele>1</ele>
        <time>2018-08-31T09:42:46+02:00</time>
      </trkpt>
      <trkpt lat="42.87053" lon="3.03602">
        <ele>1</ele>
        <time>2018-08-31T09:42:51+02:00</time>
      </trkpt>
      <trkpt lat="42.87029" lon="3.03587">
        <ele>1</ele>
        <time>2018-08-31T09:42:55+02:00</time>
      </trkpt>
      <trkpt lat="42.87009" lon="3.03568">
        <ele>1</ele>
        <time>2018-08-31T09:43:01+02:00</time>
      </trkpt>
      <trkpt lat="42.86986" lon="3.03552">
        <ele>1</ele>
        <time>2018-08-31T09:43:07+02:00</time>
      </trkpt>
      <trkpt lat="42.8697" lon="3.03528">
        <ele>1</ele>
        <time>2018-08-31T09:43:13+02:00</time>
      </trkpt>
      <trkpt lat="42.86946" lon="3.0351">
        <ele>1</ele>
        <time>2018-08-31T09:43:19+02:00</time>
      </trkpt>
      <trkpt lat="42.86948" lon="3.03479">
        <ele>1</ele>
        <time>2018-08-31T09:43:26+02:00</time>
      </trkpt>
      <trkpt lat="42.86927" lon="3.03462">
        <ele>1</ele>
        <time>2018-08-31T09:43:31+02:00</time>
      </trkpt>
      <trkpt lat="42.86909" lon="3.03444">
        <ele>1</ele>
        <time>2018-08-31T09:43:36+02:00</time>
      </trkpt>
      <trkpt lat="42.86886" lon="3.03429">
        <ele>1</ele>
        <time>2018-08-31T09:43:41+02:00</time>
      </trkpt>
      <trkpt lat="42.86861" lon="3.03409">
        <ele>1</ele>
        <time>2018-08-31T09:43:47+02:00</time>
      </trkpt>
      <trkpt lat="42.86848" lon="3.03381">
        <ele>1</ele>
        <time>2018-08-31T09:43:53+02:00</time>
      </trkpt>
      <trkpt lat="42.86843" lon="3.03348">
        <ele>1</ele>
        <time>2018-08-31T09:43:58+02:00</time>
      </trkpt>
      <trkpt lat="42.86823" lon="3.03321">
        <ele>1</ele>
        <time>2018-08-31T09:44:03+02:00</time>
      </trkpt>
      <trkpt lat="42.86802" lon="3.03304">
        <ele>1</ele>
        <time>2018-08-31T09:44:08+02:00</time>
      </trkpt>
      <trkpt lat="42.86783" lon="3.03287">
        <ele>1</ele>
        <time>2018-08-31T09:44:13+02:00</time>
      </trkpt>
      <trkpt lat="42.86762" lon="3.03271">
        <ele>1</ele>
        <time>2018-08-31T09:44:18+02:00</time>
      </trkpt>
      <trkpt lat="42.8674" lon="3.0326">
        <ele>1</ele>
        <time>2018-08-31T09:44:23+02:00</time>
      </trkpt>
      <trkpt lat="42.86718" lon="3.03252">
        <ele>1</ele>
        <time>2018-08-31T09:44:28+02:00</time>
      </trkpt>
      <trkpt lat="42.86693" lon="3.03249">
        <ele>1</ele>
        <time>2018-08-31T09:44:34+02:00</time>
      </trkpt>
      <trkpt lat="42.86669" lon="3.03252">
        <ele>1</ele>
        <time>2018-08-31T09:44:39+02:00</time>
      </trkpt>
      <trkpt lat="42.86645" lon="3.03261">
        <ele>1</ele>
        <time>2018-08-31T09:44:44+02:00</time>
      </trkpt>
      <trkpt lat="42.86621" lon="3.03266">
        <ele>1</ele>
        <time>2018-08-31T09:44:49+02:00</time>
      </trkpt>
      <trkpt lat="42.86597" lon="3.03268">
        <ele>1</ele>
        <time>2018-08-31T09:44:54+02:00</time>
      </trkpt>
      <trkpt lat="42.86572" lon="3.03256">
        <ele>1</ele>
        <time>2018-08-31T09:44:59+02:00</time>
      </trkpt>
      <trkpt lat="42.86549" lon="3.03239">
        <ele>1</ele>
        <time>2018-08-31T09:45:05+02:00</time>
      </trkpt>
      <trkpt lat="42.86521" lon="3.03234">
        <ele>1</ele>
        <time>2018-08-31T09:45:09+02:00</time>
      </trkpt>
      <trkpt lat="42.86493" lon="3.03226">
        <ele>1</ele>
        <time>2018-08-31T09:45:14+02:00</time>
      </trkpt>
      <trkpt lat="42.86468" lon="3.03209">
        <ele>1</ele>
        <time>2018-08-31T09:45:24+02:00</time>
      </trkpt>
      <trkpt lat="42.86447" lon="3.03192">
        <ele>1</ele>
        <time>2018-08-31T09:45:29+02:00</time>
      </trkpt>
      <trkpt lat="42.86427" lon="3.03171">
        <ele>1</ele>
        <time>2018-08-31T09:45:34+02:00</time>
      </trkpt>
      <trkpt lat="42.86416" lon="3.0314">
        <ele>1</ele>
        <time>2018-08-31T09:45:40+02:00</time>
      </trkpt>
      <trkpt lat="42.86402" lon="3.03101">
        <ele>1</ele>
        <time>2018-08-31T09:45:47+02:00</time>
      </trkpt>
      <trkpt lat="42.86391" lon="3.03072">
        <ele>1</ele>
        <time>2018-08-31T09:45:53+02:00</time>
      </trkpt>
      <trkpt lat="42.8637" lon="3.03052">
        <ele>1</ele>
        <time>2018-08-31T09:46:00+02:00</time>
      </trkpt>
      <trkpt lat="42.86346" lon="3.03029">
        <ele>2</ele>
        <time>2018-08-31T09:46:05+02:00</time>
      </trkpt>
      <trkpt lat="42.86326" lon="3.03008">
        <ele>2</ele>
        <time>2018-08-31T09:46:11+02:00</time>
      </trkpt>
      <trkpt lat="42.86303" lon="3.02989">
        <ele>2</ele>
        <time>2018-08-31T09:46:16+02:00</time>
      </trkpt>
      <trkpt lat="42.86285" lon="3.02965">
        <ele>1</ele>
        <time>2018-08-31T09:46:23+02:00</time>
      </trkpt>
      <trkpt lat="42.86263" lon="3.02961">
        <ele>1</ele>
        <time>2018-08-31T09:46:26+02:00</time>
      </trkpt>
      <trkpt lat="42.8624" lon="3.02963">
        <ele>1</ele>
        <time>2018-08-31T09:46:31+02:00</time>
      </trkpt>
      <trkpt lat="42.86217" lon="3.02964">
        <ele>1</ele>
        <time>2018-08-31T09:46:35+02:00</time>
      </trkpt>
      <trkpt lat="42.86191" lon="3.02961">
        <ele>1</ele>
        <time>2018-08-31T09:46:40+02:00</time>
      </trkpt>
      <trkpt lat="42.86165" lon="3.02964">
        <ele>1</ele>
        <time>2018-08-31T09:46:45+02:00</time>
      </trkpt>
      <trkpt lat="42.8614" lon="3.02967">
        <ele>1</ele>
        <time>2018-08-31T09:46:50+02:00</time>
      </trkpt>
      <trkpt lat="42.86117" lon="3.0297">
        <ele>1</ele>
        <time>2018-08-31T09:46:55+02:00</time>
      </trkpt>
      <trkpt lat="42.8609" lon="3.02975">
        <ele>1</ele>
        <time>2018-08-31T09:47:01+02:00</time>
      </trkpt>
      <trkpt lat="42.86062" lon="3.02983">
        <ele>1</ele>
        <time>2018-08-31T09:47:07+02:00</time>
      </trkpt>
      <trkpt lat="42.86035" lon="3.02993">
        <ele>1</ele>
        <time>2018-08-31T09:47:13+02:00</time>
      </trkpt>
      <trkpt lat="42.8601" lon="3.03002">
        <ele>1</ele>
        <time>2018-08-31T09:47:19+02:00</time>
      </trkpt>
      <trkpt lat="42.85986" lon="3.03013">
        <ele>1</ele>
        <time>2018-08-31T09:47:24+02:00</time>
      </trkpt>
      <trkpt lat="42.85959" lon="3.03025">
        <ele>1</ele>
        <time>2018-08-31T09:47:30+02:00</time>
      </trkpt>
      <trkpt lat="42.85935" lon="3.03035">
        <ele>1</ele>
        <time>2018-08-31T09:47:36+02:00</time>
      </trkpt>
      <trkpt lat="42.85914" lon="3.03047">
        <ele>1</ele>
        <time>2018-08-31T09:47:41+02:00</time>
      </trkpt>
      <trkpt lat="42.85889" lon="3.03061">
        <ele>1</ele>
        <time>2018-08-31T09:47:47+02:00</time>
      </trkpt>
      <trkpt lat="42.85864" lon="3.03072">
        <ele>1</ele>
        <time>2018-08-31T09:47:53+02:00</time>
      </trkpt>
      <trkpt lat="42.85844" lon="3.03088">
        <ele>1</ele>
        <time>2018-08-31T09:47:59+02:00</time>
      </trkpt>
      <trkpt lat="42.85826" lon="3.03108">
        <ele>1</ele>
        <time>2018-08-31T09:48:32+02:00</time>
      </trkpt>
      <trkpt lat="42.85805" lon="3.03121">
        <ele>1</ele>
        <time>2018-08-31T09:48:39+02:00</time>
      </trkpt>
      <trkpt lat="42.85781" lon="3.03134">
        <ele>1</ele>
        <time>2018-08-31T09:48:46+02:00</time>
      </trkpt>
      <trkpt lat="42.85758" lon="3.03151">
        <ele>1</ele>
        <time>2018-08-31T09:48:53+02:00</time>
      </trkpt>
      <trkpt lat="42.85737" lon="3.03168">
        <ele>1</ele>
        <time>2018-08-31T09:48:59+02:00</time>
      </trkpt>
      <trkpt lat="42.85716" lon="3.03182">
        <ele>1</ele>
        <time>2018-08-31T09:49:05+02:00</time>
      </trkpt>
      <trkpt lat="42.85694" lon="3.03196">
        <ele>1</ele>
        <time>2018-08-31T09:49:11+02:00</time>
      </trkpt>
      <trkpt lat="42.85671" lon="3.03209">
        <ele>1</ele>
        <time>2018-08-31T09:49:17+02:00</time>
      </trkpt>
      <trkpt lat="42.85648" lon="3.03226">
        <ele>1</ele>
        <time>2018-08-31T09:49:24+02:00</time>
      </trkpt>
      <trkpt lat="42.85627" lon="3.03243">
        <ele>1</ele>
        <time>2018-08-31T09:49:30+02:00</time>
      </trkpt>
      <trkpt lat="42.85607" lon="3.03258">
        <ele>1</ele>
        <time>2018-08-31T09:49:36+02:00</time>
      </trkpt>
      <trkpt lat="42.85585" lon="3.03274">
        <ele>3</ele>
        <time>2018-08-31T09:49:42+02:00</time>
      </trkpt>
      <trkpt lat="42.85564" lon="3.03287">
        <ele>1</ele>
        <time>2018-08-31T09:49:47+02:00</time>
      </trkpt>
      <trkpt lat="42.85545" lon="3.03305">
        <ele>1</ele>
        <time>2018-08-31T09:49:52+02:00</time>
      </trkpt>
      <trkpt lat="42.85524" lon="3.03315">
        <ele>1</ele>
        <time>2018-08-31T09:49:57+02:00</time>
      </trkpt>
      <trkpt lat="42.85504" lon="3.0333">
        <ele>1</ele>
        <time>2018-08-31T09:50:02+02:00</time>
      </trkpt>
      <trkpt lat="42.85479" lon="3.03345">
        <ele>1</ele>
        <time>2018-08-31T09:50:07+02:00</time>
      </trkpt>
      <trkpt lat="42.85459" lon="3.0336">
        <ele>1</ele>
        <time>2018-08-31T09:50:11+02:00</time>
      </trkpt>
      <trkpt lat="42.85436" lon="3.03374">
        <ele>1</ele>
        <time>2018-08-31T09:50:15+02:00</time>
      </trkpt>
      <trkpt lat="42.85414" lon="3.0339">
        <ele>1</ele>
        <time>2018-08-31T09:50:19+02:00</time>
      </trkpt>
      <trkpt lat="42.8539" lon="3.03404">
        <ele>1</ele>
        <time>2018-08-31T09:50:23+02:00</time>
      </trkpt>
      <trkpt lat="42.85365" lon="3.03424">
        <ele>1</ele>
        <time>2018-08-31T09:50:27+02:00</time>
      </trkpt>
      <trkpt lat="42.85345" lon="3.03441">
        <ele>1</ele>
        <time>2018-08-31T09:50:30+02:00</time>
      </trkpt>
      <trkpt lat="42.85323" lon="3.03459">
        <ele>1</ele>
        <time>2018-08-31T09:50:33+02:00</time>
      </trkpt>
      <trkpt lat="42.85301" lon="3.0347">
        <ele>1</ele>
        <time>2018-08-31T09:50:36+02:00</time>
      </trkpt>
      <trkpt lat="42.8528" lon="3.03485">
        <ele>1</ele>
        <time>2018-08-31T09:50:39+02:00</time>
      </trkpt>
      <trkpt lat="42.85257" lon="3.03505">
        <ele>1</ele>
        <time>2018-08-31T09:50:43+02:00</time>
      </trkpt>
      <trkpt lat="42.85237" lon="3.03524">
        <ele>1</ele>
        <time>2018-08-31T09:50:46+02:00</time>
      </trkpt>
      <trkpt lat="42.85215" lon="3.03538">
        <ele>1</ele>
        <time>2018-08-31T09:50:49+02:00</time>
      </trkpt>
      <trkpt lat="42.85188" lon="3.0356">
        <ele>1</ele>
        <time>2018-08-31T09:50:53+02:00</time>
      </trkpt>
      <trkpt lat="42.85167" lon="3.03574">
        <ele>1</ele>
        <time>2018-08-31T09:50:57+02:00</time>
      </trkpt>
      <trkpt lat="42.85154" lon="3.03601">
        <ele>1</ele>
        <time>2018-08-31T09:51:01+02:00</time>
      </trkpt>
      <trkpt lat="42.85158" lon="3.03639">
        <ele>1</ele>
        <time>2018-08-31T09:51:05+02:00</time>
      </trkpt>
      <trkpt lat="42.85176" lon="3.0366">
        <ele>1</ele>
        <time>2018-08-31T09:51:09+02:00</time>
      </trkpt>
      <trkpt lat="42.85201" lon="3.03666">
        <ele>1</ele>
        <time>2018-08-31T09:51:13+02:00</time>
      </trkpt>
      <trkpt lat="42.85229" lon="3.03669">
        <ele>1</ele>
        <time>2018-08-31T09:51:18+02:00</time>
      </trkpt>
      <trkpt lat="42.85255" lon="3.03664">
        <ele>1</ele>
        <time>2018-08-31T09:51:24+02:00</time>
      </trkpt>
      <trkpt lat="42.85277" lon="3.03657">
        <ele>1</ele>
        <time>2018-08-31T09:51:32+02:00</time>
      </trkpt>
      <trkpt lat="42.85297" lon="3.03642">
        <ele>1</ele>
        <time>2018-08-31T09:53:35+02:00</time>
      </trkpt>
      <trkpt lat="42.85317" lon="3.03616">
        <ele>1</ele>
        <time>2018-08-31T09:53:49+02:00</time>
      </trkpt>
      <trkpt lat="42.85339" lon="3.03599">
        <ele>1</ele>
        <time>2018-08-31T09:53:57+02:00</time>
      </trkpt>
      <trkpt lat="42.85357" lon="3.03577">
        <ele>1</ele>
        <time>2018-08-31T09:54:07+02:00</time>
      </trkpt>
      <trkpt lat="42.85382" lon="3.0359">
        <ele>1</ele>
        <time>2018-08-31T09:54:12+02:00</time>
      </trkpt>
      <trkpt lat="42.85397" lon="3.03618">
        <ele>1</ele>
        <time>2018-08-31T09:54:17+02:00</time>
      </trkpt>
      <trkpt lat="42.85416" lon="3.03642">
        <ele>1</ele>
        <time>2018-08-31T09:54:20+02:00</time>
      </trkpt>
      <trkpt lat="42.85431" lon="3.03669">
        <ele>1</ele>
        <time>2018-08-31T09:54:24+02:00</time>
      </trkpt>
      <trkpt lat="42.85449" lon="3.03698">
        <ele>1</ele>
        <time>2018-08-31T09:54:31+02:00</time>
      </trkpt>
      <trkpt lat="42.85466" lon="3.03719">
        <ele>1</ele>
        <time>2018-08-31T09:54:36+02:00</time>
      </trkpt>
      <trkpt lat="42.85484" lon="3.03744">
        <ele>1</ele>
        <time>2018-08-31T09:54:41+02:00</time>
      </trkpt>
      <trkpt lat="42.85499" lon="3.03771">
        <ele>1</ele>
        <time>2018-08-31T09:54:49+02:00</time>
      </trkpt>
      <trkpt lat="42.85516" lon="3.03792">
        <ele>2</ele>
        <time>2018-08-31T09:54:54+02:00</time>
      </trkpt>
      <trkpt lat="42.85532" lon="3.03814">
        <ele>2</ele>
        <time>2018-08-31T09:54:58+02:00</time>
      </trkpt>
      <trkpt lat="42.85549" lon="3.0384">
        <ele>2</ele>
        <time>2018-08-31T09:55:03+02:00</time>
      </trkpt>
      <trkpt lat="42.85571" lon="3.03866">
        <ele>2</ele>
        <time>2018-08-31T09:55:08+02:00</time>
      </trkpt>
      <trkpt lat="42.85586" lon="3.03895">
        <ele>2</ele>
        <time>2018-08-31T09:55:12+02:00</time>
      </trkpt>
      <trkpt lat="42.85601" lon="3.03923">
        <ele>2</ele>
        <time>2018-08-31T09:55:21+02:00</time>
      </trkpt>
      <trkpt lat="42.85582" lon="3.03939">
        <ele>2</ele>
        <time>2018-08-31T09:55:27+02:00</time>
      </trkpt>
      <trkpt lat="42.85566" lon="3.03962">
        <ele>2</ele>
        <time>2018-08-31T09:55:31+02:00</time>
      </trkpt>
      <trkpt lat="42.85549" lon="3.03983">
        <ele>2</ele>
        <time>2018-08-31T09:55:36+02:00</time>
      </trkpt>
      <trkpt lat="42.8553" lon="3.04008">
        <ele>2</ele>
        <time>2018-08-31T09:55:41+02:00</time>
      </trkpt>
      <trkpt lat="42.85512" lon="3.04034">
        <ele>1</ele>
        <time>2018-08-31T09:55:47+02:00</time>
      </trkpt>
      <trkpt lat="42.85489" lon="3.04051">
        <ele>1</ele>
        <time>2018-08-31T09:55:52+02:00</time>
      </trkpt>
      <trkpt lat="42.85463" lon="3.04063">
        <ele>1</ele>
        <time>2018-08-31T09:55:57+02:00</time>
      </trkpt>
      <trkpt lat="42.85436" lon="3.04066">
        <ele>1</ele>
        <time>2018-08-31T09:56:02+02:00</time>
      </trkpt>
      <trkpt lat="42.8541" lon="3.04067">
        <ele>1</ele>
        <time>2018-08-31T09:56:08+02:00</time>
      </trkpt>
      <trkpt lat="42.85382" lon="3.04066">
        <ele>1</ele>
        <time>2018-08-31T09:56:14+02:00</time>
      </trkpt>
      <trkpt lat="42.85355" lon="3.0406">
        <ele>1</ele>
        <time>2018-08-31T09:56:19+02:00</time>
      </trkpt>
      <trkpt lat="42.85331" lon="3.04059">
        <ele>1</ele>
        <time>2018-08-31T09:56:24+02:00</time>
      </trkpt>
      <trkpt lat="42.85308" lon="3.04059">
        <ele>1</ele>
        <time>2018-08-31T09:56:29+02:00</time>
      </trkpt>
      <trkpt lat="42.85283" lon="3.04064">
        <ele>1</ele>
        <time>2018-08-31T09:56:34+02:00</time>
      </trkpt>
      <trkpt lat="42.85258" lon="3.04063">
        <ele>1</ele>
        <time>2018-08-31T09:56:39+02:00</time>
      </trkpt>
      <trkpt lat="42.85234" lon="3.04063">
        <ele>1</ele>
        <time>2018-08-31T09:56:44+02:00</time>
      </trkpt>
      <trkpt lat="42.85209" lon="3.04066">
        <ele>1</ele>
        <time>2018-08-31T09:56:49+02:00</time>
      </trkpt>
      <trkpt lat="42.85184" lon="3.04064">
        <ele>1</ele>
        <time>2018-08-31T09:56:54+02:00</time>
      </trkpt>
      <trkpt lat="42.8516" lon="3.0406">
        <ele>1</ele>
        <time>2018-08-31T09:56:59+02:00</time>
      </trkpt>
      <trkpt lat="42.85137" lon="3.04053">
        <ele>1</ele>
        <time>2018-08-31T09:57:04+02:00</time>
      </trkpt>
      <trkpt lat="42.85113" lon="3.04056">
        <ele>1</ele>
        <time>2018-08-31T09:57:09+02:00</time>
      </trkpt>
      <trkpt lat="42.85088" lon="3.04057">
        <ele>1</ele>
        <time>2018-08-31T09:57:14+02:00</time>
      </trkpt>
      <trkpt lat="42.85062" lon="3.04058">
        <ele>1</ele>
        <time>2018-08-31T09:57:19+02:00</time>
      </trkpt>
      <trkpt lat="42.85037" lon="3.04056">
        <ele>1</ele>
        <time>2018-08-31T09:57:24+02:00</time>
      </trkpt>
      <trkpt lat="42.85014" lon="3.0406">
        <ele>1</ele>
        <time>2018-08-31T09:57:28+02:00</time>
      </trkpt>
      <trkpt lat="42.84987" lon="3.04059">
        <ele>1</ele>
        <time>2018-08-31T09:57:33+02:00</time>
      </trkpt>
      <trkpt lat="42.84963" lon="3.04061">
        <ele>2</ele>
        <time>2018-08-31T09:57:37+02:00</time>
      </trkpt>
      <trkpt lat="42.84938" lon="3.04063">
        <ele>2</ele>
        <time>2018-08-31T09:57:42+02:00</time>
      </trkpt>
      <trkpt lat="42.84913" lon="3.04075">
        <ele>2</ele>
        <time>2018-08-31T09:57:47+02:00</time>
      </trkpt>
      <trkpt lat="42.84895" lon="3.04094">
        <ele>2</ele>
        <time>2018-08-31T09:57:51+02:00</time>
      </trkpt>
      <trkpt lat="42.84876" lon="3.04115">
        <ele>2</ele>
        <time>2018-08-31T09:57:56+02:00</time>
      </trkpt>
      <trkpt lat="42.84855" lon="3.04137">
        <ele>2</ele>
        <time>2018-08-31T09:58:01+02:00</time>
      </trkpt>
      <trkpt lat="42.84839" lon="3.04167">
        <ele>2</ele>
        <time>2018-08-31T09:58:06+02:00</time>
      </trkpt>
      <trkpt lat="42.84821" lon="3.04187">
        <ele>2</ele>
        <time>2018-08-31T09:58:11+02:00</time>
      </trkpt>
      <trkpt lat="42.84806" lon="3.0421">
        <ele>2</ele>
        <time>2018-08-31T09:58:16+02:00</time>
      </trkpt>
      <trkpt lat="42.84783" lon="3.04211">
        <ele>2</ele>
        <time>2018-08-31T09:58:21+02:00</time>
      </trkpt>
      <trkpt lat="42.84759" lon="3.04211">
        <ele>2</ele>
        <time>2018-08-31T09:58:28+02:00</time>
      </trkpt>
      <trkpt lat="42.84733" lon="3.04211">
        <ele>2</ele>
        <time>2018-08-31T09:58:34+02:00</time>
      </trkpt>
      <trkpt lat="42.84706" lon="3.04211">
        <ele>1</ele>
        <time>2018-08-31T09:58:40+02:00</time>
      </trkpt>
      <trkpt lat="42.84679" lon="3.04209">
        <ele>1</ele>
        <time>2018-08-31T09:58:45+02:00</time>
      </trkpt>
      <trkpt lat="42.84656" lon="3.04211">
        <ele>1</ele>
        <time>2018-08-31T09:58:49+02:00</time>
      </trkpt>
      <trkpt lat="42.8463" lon="3.04215">
        <ele>1</ele>
        <time>2018-08-31T09:58:54+02:00</time>
      </trkpt>
      <trkpt lat="42.84605" lon="3.04219">
        <ele>1</ele>
        <time>2018-08-31T09:58:59+02:00</time>
      </trkpt>
      <trkpt lat="42.84584" lon="3.0421">
        <ele>1</ele>
        <time>2018-08-31T09:59:04+02:00</time>
      </trkpt>
      <trkpt lat="42.84561" lon="3.0421">
        <ele>1</ele>
        <time>2018-08-31T09:59:08+02:00</time>
      </trkpt>
      <trkpt lat="42.84536" lon="3.04211">
        <ele>1</ele>
        <time>2018-08-31T09:59:12+02:00</time>
      </trkpt>
      <trkpt lat="42.84508" lon="3.04211">
        <ele>1</ele>
        <time>2018-08-31T09:59:17+02:00</time>
      </trkpt>
      <trkpt lat="42.84484" lon="3.04209">
        <ele>1</ele>
        <time>2018-08-31T09:59:22+02:00</time>
      </trkpt>
      <trkpt lat="42.84458" lon="3.04209">
        <ele>1</ele>
        <time>2018-08-31T09:59:27+02:00</time>
      </trkpt>
      <trkpt lat="42.84434" lon="3.04207">
        <ele>1</ele>
        <time>2018-08-31T09:59:32+02:00</time>
      </trkpt>
      <trkpt lat="42.84406" lon="3.04207">
        <ele>1</ele>
        <time>2018-08-31T09:59:37+02:00</time>
      </trkpt>
      <trkpt lat="42.84383" lon="3.04205">
        <ele>1</ele>
        <time>2018-08-31T09:59:42+02:00</time>
      </trkpt>
      <trkpt lat="42.84357" lon="3.04206">
        <ele>1</ele>
        <time>2018-08-31T09:59:48+02:00</time>
      </trkpt>
      <trkpt lat="42.84334" lon="3.04209">
        <ele>1</ele>
        <time>2018-08-31T09:59:52+02:00</time>
      </trkpt>
      <trkpt lat="42.84307" lon="3.04214">
        <ele>1</ele>
        <time>2018-08-31T09:59:57+02:00</time>
      </trkpt>
      <trkpt lat="42.84281" lon="3.04214">
        <ele>1</ele>
        <time>2018-08-31T10:00:02+02:00</time>
      </trkpt>
      <trkpt lat="42.84255" lon="3.04214">
        <ele>1</ele>
        <time>2018-08-31T10:00:07+02:00</time>
      </trkpt>
      <trkpt lat="42.84228" lon="3.04218">
        <ele>1</ele>
        <time>2018-08-31T10:00:12+02:00</time>
      </trkpt>
      <trkpt lat="42.84201" lon="3.04217">
        <ele>1</ele>
        <time>2018-08-31T10:00:18+02:00</time>
      </trkpt>
      <trkpt lat="42.84178" lon="3.04221">
        <ele>1</ele>
        <time>2018-08-31T10:00:23+02:00</time>
      </trkpt>
      <trkpt lat="42.8415" lon="3.04224">
        <ele>1</ele>
        <time>2018-08-31T10:00:28+02:00</time>
      </trkpt>
      <trkpt lat="42.84126" lon="3.04222">
        <ele>1</ele>
        <time>2018-08-31T10:00:33+02:00</time>
      </trkpt>
      <trkpt lat="42.84101" lon="3.04221">
        <ele>1</ele>
        <time>2018-08-31T10:00:38+02:00</time>
      </trkpt>
      <trkpt lat="42.84078" lon="3.04222">
        <ele>1</ele>
        <time>2018-08-31T10:00:43+02:00</time>
      </trkpt>
      <trkpt lat="42.84054" lon="3.04221">
        <ele>1</ele>
        <time>2018-08-31T10:00:48+02:00</time>
      </trkpt>
      <trkpt lat="42.8403" lon="3.04212">
        <ele>1</ele>
        <time>2018-08-31T10:00:54+02:00</time>
      </trkpt>
      <trkpt lat="42.84014" lon="3.04185">
        <ele>1</ele>
        <time>2018-08-31T10:01:01+02:00</time>
      </trkpt>
      <trkpt lat="42.83997" lon="3.04162">
        <ele>1</ele>
        <time>2018-08-31T10:01:07+02:00</time>
      </trkpt>
      <trkpt lat="42.8398" lon="3.0414">
        <ele>1</ele>
        <time>2018-08-31T10:01:12+02:00</time>
      </trkpt>
      <trkpt lat="42.8396" lon="3.04118">
        <ele>1</ele>
        <time>2018-08-31T10:01:17+02:00</time>
      </trkpt>
      <trkpt lat="42.83942" lon="3.04091">
        <ele>1</ele>
        <time>2018-08-31T10:01:23+02:00</time>
      </trkpt>
      <trkpt lat="42.83924" lon="3.04067">
        <ele>1</ele>
        <time>2018-08-31T10:01:29+02:00</time>
      </trkpt>
      <trkpt lat="42.83909" lon="3.04043">
        <ele>1</ele>
        <time>2018-08-31T10:01:35+02:00</time>
      </trkpt>
      <trkpt lat="42.83892" lon="3.04016">
        <ele>1</ele>
        <time>2018-08-31T10:01:41+02:00</time>
      </trkpt>
      <trkpt lat="42.83875" lon="3.03995">
        <ele>1</ele>
        <time>2018-08-31T10:01:47+02:00</time>
      </trkpt>
      <trkpt lat="42.83861" lon="3.0397">
        <ele>1</ele>
        <time>2018-08-31T10:01:55+02:00</time>
      </trkpt>
      <trkpt lat="42.83842" lon="3.03952">
        <ele>1</ele>
        <time>2018-08-31T10:02:04+02:00</time>
      </trkpt>
      <trkpt lat="42.83829" lon="3.03983">
        <ele>1</ele>
        <time>2018-08-31T10:02:20+02:00</time>
      </trkpt>
      <trkpt lat="42.83815" lon="3.04013">
        <ele>1</ele>
        <time>2018-08-31T10:02:27+02:00</time>
      </trkpt>
      <trkpt lat="42.83797" lon="3.04036">
        <ele>1</ele>
        <time>2018-08-31T10:02:33+02:00</time>
      </trkpt>
      <trkpt lat="42.83772" lon="3.0404">
        <ele>1</ele>
        <time>2018-08-31T10:02:39+02:00</time>
      </trkpt>
      <trkpt lat="42.83749" lon="3.04036">
        <ele>1</ele>
        <time>2018-08-31T10:02:45+02:00</time>
      </trkpt>
      <trkpt lat="42.83723" lon="3.04028">
        <ele>1</ele>
        <time>2018-08-31T10:02:51+02:00</time>
      </trkpt>
      <trkpt lat="42.83698" lon="3.04033">
        <ele>1</ele>
        <time>2018-08-31T10:02:55+02:00</time>
      </trkpt>
      <trkpt lat="42.83675" lon="3.04031">
        <ele>1</ele>
        <time>2018-08-31T10:02:59+02:00</time>
      </trkpt>
      <trkpt lat="42.83648" lon="3.04029">
        <ele>1</ele>
        <time>2018-08-31T10:03:05+02:00</time>
      </trkpt>
      <trkpt lat="42.83622" lon="3.04024">
        <ele>1</ele>
        <time>2018-08-31T10:03:11+02:00</time>
      </trkpt>
      <trkpt lat="42.83596" lon="3.04017">
        <ele>1</ele>
        <time>2018-08-31T10:03:17+02:00</time>
      </trkpt>
      <trkpt lat="42.83577" lon="3.03998">
        <ele>1</ele>
        <time>2018-08-31T10:03:22+02:00</time>
      </trkpt>
      <trkpt lat="42.83553" lon="3.03984">
        <ele>1</ele>
        <time>2018-08-31T10:03:29+02:00</time>
      </trkpt>
      <trkpt lat="42.83525" lon="3.03978">
        <ele>1</ele>
        <time>2018-08-31T10:03:35+02:00</time>
      </trkpt>
      <trkpt lat="42.83501" lon="3.03976">
        <ele>1</ele>
        <time>2018-08-31T10:03:43+02:00</time>
      </trkpt>
      <trkpt lat="42.83475" lon="3.03975">
        <ele>1</ele>
        <time>2018-08-31T10:03:49+02:00</time>
      </trkpt>
      <trkpt lat="42.83447" lon="3.03973">
        <ele>1</ele>
        <time>2018-08-31T10:03:54+02:00</time>
      </trkpt>
      <trkpt lat="42.83418" lon="3.03972">
        <ele>1</ele>
        <time>2018-08-31T10:04:00+02:00</time>
      </trkpt>
      <trkpt lat="42.83393" lon="3.03967">
        <ele>1</ele>
        <time>2018-08-31T10:04:06+02:00</time>
      </trkpt>
      <trkpt lat="42.8337" lon="3.03966">
        <ele>1</ele>
        <time>2018-08-31T10:04:11+02:00</time>
      </trkpt>
      <trkpt lat="42.83345" lon="3.03965">
        <ele>1</ele>
        <time>2018-08-31T10:04:16+02:00</time>
      </trkpt>
      <trkpt lat="42.83321" lon="3.03958">
        <ele>1</ele>
        <time>2018-08-31T10:04:20+02:00</time>
      </trkpt>
      <trkpt lat="42.83297" lon="3.03956">
        <ele>1</ele>
        <time>2018-08-31T10:04:25+02:00</time>
      </trkpt>
      <trkpt lat="42.83272" lon="3.03951">
        <ele>1</ele>
        <time>2018-08-31T10:04:31+02:00</time>
      </trkpt>
      <trkpt lat="42.83247" lon="3.03955">
        <ele>1</ele>
        <time>2018-08-31T10:04:35+02:00</time>
      </trkpt>
      <trkpt lat="42.83226" lon="3.0394">
        <ele>1</ele>
        <time>2018-08-31T10:04:41+02:00</time>
      </trkpt>
      <trkpt lat="42.83205" lon="3.03925">
        <ele>1</ele>
        <time>2018-08-31T10:04:45+02:00</time>
      </trkpt>
      <trkpt lat="42.8319" lon="3.03899">
        <ele>1</ele>
        <time>2018-08-31T10:04:51+02:00</time>
      </trkpt>
      <trkpt lat="42.83174" lon="3.03867">
        <ele>1</ele>
        <time>2018-08-31T10:05:00+02:00</time>
      </trkpt>
      <trkpt lat="42.8315" lon="3.03861">
        <ele>1</ele>
        <time>2018-08-31T10:05:04+02:00</time>
      </trkpt>
      <trkpt lat="42.83121" lon="3.03856">
        <ele>1</ele>
        <time>2018-08-31T10:05:09+02:00</time>
      </trkpt>
      <trkpt lat="42.83096" lon="3.0385">
        <ele>1</ele>
        <time>2018-08-31T10:05:14+02:00</time>
      </trkpt>
      <trkpt lat="42.83073" lon="3.03846">
        <ele>1</ele>
        <time>2018-08-31T10:05:19+02:00</time>
      </trkpt>
      <trkpt lat="42.83049" lon="3.0384">
        <ele>1</ele>
        <time>2018-08-31T10:05:25+02:00</time>
      </trkpt>
      <trkpt lat="42.83027" lon="3.0382">
        <ele>1</ele>
        <time>2018-08-31T10:05:31+02:00</time>
      </trkpt>
      <trkpt lat="42.8301" lon="3.03796">
        <ele>1</ele>
        <time>2018-08-31T10:05:37+02:00</time>
      </trkpt>
      <trkpt lat="42.82991" lon="3.0377">
        <ele>1</ele>
        <time>2018-08-31T10:05:43+02:00</time>
      </trkpt>
      <trkpt lat="42.8297" lon="3.03747">
        <ele>1</ele>
        <time>2018-08-31T10:05:49+02:00</time>
      </trkpt>
      <trkpt lat="42.82949" lon="3.03724">
        <ele>1</ele>
        <time>2018-08-31T10:05:55+02:00</time>
      </trkpt>
      <trkpt lat="42.8293" lon="3.03706">
        <ele>1</ele>
        <time>2018-08-31T10:06:04+02:00</time>
      </trkpt>
      <trkpt lat="42.82915" lon="3.03731">
        <ele>1</ele>
        <time>2018-08-31T10:06:10+02:00</time>
      </trkpt>
      <trkpt lat="42.82907" lon="3.03761">
        <ele>1</ele>
        <time>2018-08-31T10:06:17+02:00</time>
      </trkpt>
      <trkpt lat="42.82903" lon="3.03794">
        <ele>1</ele>
        <time>2018-08-31T10:06:23+02:00</time>
      </trkpt>
      <trkpt lat="42.82897" lon="3.03828">
        <ele>1</ele>
        <time>2018-08-31T10:06:29+02:00</time>
      </trkpt>
      <trkpt lat="42.82891" lon="3.03859">
        <ele>1</ele>
        <time>2018-08-31T10:06:35+02:00</time>
      </trkpt>
      <trkpt lat="42.82885" lon="3.03897">
        <ele>1</ele>
        <time>2018-08-31T10:06:41+02:00</time>
      </trkpt>
      <trkpt lat="42.82881" lon="3.03927">
        <ele>1</ele>
        <time>2018-08-31T10:06:45+02:00</time>
      </trkpt>
      <trkpt lat="42.82878" lon="3.03962">
        <ele>1</ele>
        <time>2018-08-31T10:06:50+02:00</time>
      </trkpt>
      <trkpt lat="42.82869" lon="3.03992">
        <ele>1</ele>
        <time>2018-08-31T10:06:56+02:00</time>
      </trkpt>
      <trkpt lat="42.8286" lon="3.04025">
        <ele>1</ele>
        <time>2018-08-31T10:07:03+02:00</time>
      </trkpt>
      <trkpt lat="42.82846" lon="3.04051">
        <ele>1</ele>
        <time>2018-08-31T10:07:09+02:00</time>
      </trkpt>
      <trkpt lat="42.82831" lon="3.04075">
        <ele>1</ele>
        <time>2018-08-31T10:07:42+02:00</time>
      </trkpt>
      <trkpt lat="42.82851" lon="3.0406">
        <ele>1</ele>
        <time>2018-08-31T10:08:50+02:00</time>
      </trkpt>
      <trkpt lat="42.8283" lon="3.04049">
        <ele>1</ele>
        <time>2018-08-31T10:09:43+02:00</time>
      </trkpt>
      <trkpt lat="42.82812" lon="3.04068">
        <ele>1</ele>
        <time>2018-08-31T10:10:22+02:00</time>
      </trkpt>
      <trkpt lat="42.82785" lon="3.04073">
        <ele>1</ele>
        <time>2018-08-31T10:10:29+02:00</time>
      </trkpt>
      <trkpt lat="42.82762" lon="3.04069">
        <ele>1</ele>
        <time>2018-08-31T10:10:35+02:00</time>
      </trkpt>
      <trkpt lat="42.8274" lon="3.04058">
        <ele>1</ele>
        <time>2018-08-31T10:10:41+02:00</time>
      </trkpt>
      <trkpt lat="42.8272" lon="3.04042">
        <ele>1</ele>
        <time>2018-08-31T10:10:47+02:00</time>
      </trkpt>
      <trkpt lat="42.82712" lon="3.04011">
        <ele>1</ele>
        <time>2018-08-31T10:10:54+02:00</time>
      </trkpt>
      <trkpt lat="42.82714" lon="3.03973">
        <ele>1</ele>
        <time>2018-08-31T10:11:03+02:00</time>
      </trkpt>
      <trkpt lat="42.82714" lon="3.03937">
        <ele>1</ele>
        <time>2018-08-31T10:11:07+02:00</time>
      </trkpt>
      <trkpt lat="42.82715" lon="3.03905">
        <ele>1</ele>
        <time>2018-08-31T10:11:12+02:00</time>
      </trkpt>
      <trkpt lat="42.8272" lon="3.03867">
        <ele>1</ele>
        <time>2018-08-31T10:11:19+02:00</time>
      </trkpt>
      <trkpt lat="42.82721" lon="3.03833">
        <ele>1</ele>
        <time>2018-08-31T10:11:26+02:00</time>
      </trkpt>
      <trkpt lat="42.82702" lon="3.03812">
        <ele>1</ele>
        <time>2018-08-31T10:11:31+02:00</time>
      </trkpt>
      <trkpt lat="42.82678" lon="3.03801">
        <ele>1</ele>
        <time>2018-08-31T10:11:40+02:00</time>
      </trkpt>
      <trkpt lat="42.82655" lon="3.03788">
        <ele>1</ele>
        <time>2018-08-31T10:11:47+02:00</time>
      </trkpt>
      <trkpt lat="42.82628" lon="3.03782">
        <ele>1</ele>
        <time>2018-08-31T10:11:53+02:00</time>
      </trkpt>
      <trkpt lat="42.82605" lon="3.03778">
        <ele>1</ele>
        <time>2018-08-31T10:11:56+02:00</time>
      </trkpt>
      <trkpt lat="42.82583" lon="3.03773">
        <ele>1</ele>
        <time>2018-08-31T10:12:00+02:00</time>
      </trkpt>
      <trkpt lat="42.82559" lon="3.03768">
        <ele>1</ele>
        <time>2018-08-31T10:12:04+02:00</time>
      </trkpt>
      <trkpt lat="42.82535" lon="3.03751">
        <ele>1</ele>
        <time>2018-08-31T10:12:10+02:00</time>
      </trkpt>
      <trkpt lat="42.82511" lon="3.03743">
        <ele>1</ele>
        <time>2018-08-31T10:12:14+02:00</time>
      </trkpt>
      <trkpt lat="42.82489" lon="3.03735">
        <ele>1</ele>
        <time>2018-08-31T10:12:18+02:00</time>
      </trkpt>
      <trkpt lat="42.82461" lon="3.03726">
        <ele>1</ele>
        <time>2018-08-31T10:12:24+02:00</time>
      </trkpt>
      <trkpt lat="42.82439" lon="3.03716">
        <ele>1</ele>
        <time>2018-08-31T10:12:28+02:00</time>
      </trkpt>
      <trkpt lat="42.82434" lon="3.03682">
        <ele>1</ele>
        <time>2018-08-31T10:12:34+02:00</time>
      </trkpt>
      <trkpt lat="42.82434" lon="3.03646">
        <ele>1</ele>
        <time>2018-08-31T10:12:39+02:00</time>
      </trkpt>
      <trkpt lat="42.82439" lon="3.03613">
        <ele>1</ele>
        <time>2018-08-31T10:12:45+02:00</time>
      </trkpt>
      <trkpt lat="42.8244" lon="3.03581">
        <ele>1</ele>
        <time>2018-08-31T10:12:50+02:00</time>
      </trkpt>
      <trkpt lat="42.82441" lon="3.03546">
        <ele>1</ele>
        <time>2018-08-31T10:12:56+02:00</time>
      </trkpt>
      <trkpt lat="42.82434" lon="3.03514">
        <ele>1</ele>
        <time>2018-08-31T10:13:02+02:00</time>
      </trkpt>
      <trkpt lat="42.82411" lon="3.03504">
        <ele>1</ele>
        <time>2018-08-31T10:13:07+02:00</time>
      </trkpt>
      <trkpt lat="42.82384" lon="3.035">
        <ele>1</ele>
        <time>2018-08-31T10:13:12+02:00</time>
      </trkpt>
      <trkpt lat="42.82368" lon="3.03476">
        <ele>1</ele>
        <time>2018-08-31T10:13:20+02:00</time>
      </trkpt>
      <trkpt lat="42.82343" lon="3.03457">
        <ele>1</ele>
        <time>2018-08-31T10:13:27+02:00</time>
      </trkpt>
      <trkpt lat="42.82317" lon="3.03464">
        <ele>1</ele>
        <time>2018-08-31T10:13:33+02:00</time>
      </trkpt>
      <trkpt lat="42.8229" lon="3.03465">
        <ele>1</ele>
        <time>2018-08-31T10:13:39+02:00</time>
      </trkpt>
      <trkpt lat="42.82267" lon="3.0346">
        <ele>1</ele>
        <time>2018-08-31T10:13:44+02:00</time>
      </trkpt>
      <trkpt lat="42.82244" lon="3.03456">
        <ele>1</ele>
        <time>2018-08-31T10:13:49+02:00</time>
      </trkpt>
      <trkpt lat="42.82221" lon="3.03458">
        <ele>1</ele>
        <time>2018-08-31T10:13:53+02:00</time>
      </trkpt>
      <trkpt lat="42.82198" lon="3.03452">
        <ele>1</ele>
        <time>2018-08-31T10:13:57+02:00</time>
      </trkpt>
      <trkpt lat="42.82176" lon="3.03473">
        <ele>1</ele>
        <time>2018-08-31T10:14:03+02:00</time>
      </trkpt>
      <trkpt lat="42.82163" lon="3.035">
        <ele>1</ele>
        <time>2018-08-31T10:14:07+02:00</time>
      </trkpt>
      <trkpt lat="42.82157" lon="3.03532">
        <ele>1</ele>
        <time>2018-08-31T10:14:11+02:00</time>
      </trkpt>
      <trkpt lat="42.82148" lon="3.03569">
        <ele>1</ele>
        <time>2018-08-31T10:14:16+02:00</time>
      </trkpt>
      <trkpt lat="42.82145" lon="3.03606">
        <ele>2</ele>
        <time>2018-08-31T10:14:20+02:00</time>
      </trkpt>
      <trkpt lat="42.82139" lon="3.03638">
        <ele>2</ele>
        <time>2018-08-31T10:14:24+02:00</time>
      </trkpt>
      <trkpt lat="42.82135" lon="3.03669">
        <ele>2</ele>
        <time>2018-08-31T10:14:28+02:00</time>
      </trkpt>
      <trkpt lat="42.8213" lon="3.03699">
        <ele>2</ele>
        <time>2018-08-31T10:14:32+02:00</time>
      </trkpt>
      <trkpt lat="42.82129" lon="3.03737">
        <ele>2</ele>
        <time>2018-08-31T10:14:36+02:00</time>
      </trkpt>
      <trkpt lat="42.82125" lon="3.03773">
        <ele>2</ele>
        <time>2018-08-31T10:14:41+02:00</time>
      </trkpt>
      <trkpt lat="42.82127" lon="3.03806">
        <ele>2</ele>
        <time>2018-08-31T10:14:52+02:00</time>
      </trkpt>
      <trkpt lat="42.82114" lon="3.03838">
        <ele>2</ele>
        <time>2018-08-31T10:14:59+02:00</time>
      </trkpt>
      <trkpt lat="42.82096" lon="3.03865">
        <ele>2</ele>
        <time>2018-08-31T10:15:04+02:00</time>
      </trkpt>
      <trkpt lat="42.82068" lon="3.03872">
        <ele>2</ele>
        <time>2018-08-31T10:15:10+02:00</time>
      </trkpt>
      <trkpt lat="42.82038" lon="3.03866">
        <ele>2</ele>
        <time>2018-08-31T10:15:15+02:00</time>
      </trkpt>
      <trkpt lat="42.82015" lon="3.03861">
        <ele>2</ele>
        <time>2018-08-31T10:15:19+02:00</time>
      </trkpt>
      <trkpt lat="42.81989" lon="3.03856">
        <ele>2</ele>
        <time>2018-08-31T10:15:24+02:00</time>
      </trkpt>
      <trkpt lat="42.81966" lon="3.03854">
        <ele>2</ele>
        <time>2018-08-31T10:15:28+02:00</time>
      </trkpt>
      <trkpt lat="42.81938" lon="3.03851">
        <ele>2</ele>
        <time>2018-08-31T10:15:33+02:00</time>
      </trkpt>
      <trkpt lat="42.81911" lon="3.03849">
        <ele>2</ele>
        <time>2018-08-31T10:15:38+02:00</time>
      </trkpt>
      <trkpt lat="42.81888" lon="3.03847">
        <ele>2</ele>
        <time>2018-08-31T10:15:42+02:00</time>
      </trkpt>
      <trkpt lat="42.81861" lon="3.03845">
        <ele>2</ele>
        <time>2018-08-31T10:15:47+02:00</time>
      </trkpt>
      <trkpt lat="42.81834" lon="3.03841">
        <ele>2</ele>
        <time>2018-08-31T10:15:52+02:00</time>
      </trkpt>
      <trkpt lat="42.81811" lon="3.03839">
        <ele>2</ele>
        <time>2018-08-31T10:15:56+02:00</time>
      </trkpt>
      <trkpt lat="42.81788" lon="3.0384">
        <ele>2</ele>
        <time>2018-08-31T10:16:00+02:00</time>
      </trkpt>
      <trkpt lat="42.8176" lon="3.03836">
        <ele>2</ele>
        <time>2018-08-31T10:16:05+02:00</time>
      </trkpt>
      <trkpt lat="42.81737" lon="3.03837">
        <ele>2</ele>
        <time>2018-08-31T10:16:09+02:00</time>
      </trkpt>
      <trkpt lat="42.81712" lon="3.03835">
        <ele>2</ele>
        <time>2018-08-31T10:16:14+02:00</time>
      </trkpt>
      <trkpt lat="42.81686" lon="3.03832">
        <ele>2</ele>
        <time>2018-08-31T10:16:18+02:00</time>
      </trkpt>
      <trkpt lat="42.8166" lon="3.03828">
        <ele>2</ele>
        <time>2018-08-31T10:16:22+02:00</time>
      </trkpt>
      <trkpt lat="42.81635" lon="3.03827">
        <ele>2</ele>
        <time>2018-08-31T10:16:26+02:00</time>
      </trkpt>
      <trkpt lat="42.81611" lon="3.03824">
        <ele>2</ele>
        <time>2018-08-31T10:16:30+02:00</time>
      </trkpt>
      <trkpt lat="42.81586" lon="3.03821">
        <ele>2</ele>
        <time>2018-08-31T10:16:34+02:00</time>
      </trkpt>
      <trkpt lat="42.81561" lon="3.03819">
        <ele>2</ele>
        <time>2018-08-31T10:16:38+02:00</time>
      </trkpt>
      <trkpt lat="42.81538" lon="3.03816">
        <ele>2</ele>
        <time>2018-08-31T10:16:42+02:00</time>
      </trkpt>
      <trkpt lat="42.81513" lon="3.03814">
        <ele>2</ele>
        <time>2018-08-31T10:16:46+02:00</time>
      </trkpt>
      <trkpt lat="42.8149" lon="3.03814">
        <ele>2</ele>
        <time>2018-08-31T10:16:50+02:00</time>
      </trkpt>
      <trkpt lat="42.81467" lon="3.0381">
        <ele>2</ele>
        <time>2018-08-31T10:16:54+02:00</time>
      </trkpt>
      <trkpt lat="42.81444" lon="3.03808">
        <ele>2</ele>
        <time>2018-08-31T10:16:58+02:00</time>
      </trkpt>
      <trkpt lat="42.8142" lon="3.03806">
        <ele>1</ele>
        <time>2018-08-31T10:17:02+02:00</time>
      </trkpt>
      <trkpt lat="42.81395" lon="3.03805">
        <ele>1</ele>
        <time>2018-08-31T10:17:06+02:00</time>
      </trkpt>
      <trkpt lat="42.81371" lon="3.03802">
        <ele>1</ele>
        <time>2018-08-31T10:17:10+02:00</time>
      </trkpt>
      <trkpt lat="42.81349" lon="3.038">
        <ele>1</ele>
        <time>2018-08-31T10:17:14+02:00</time>
      </trkpt>
      <trkpt lat="42.8132" lon="3.03795">
        <ele>1</ele>
        <time>2018-08-31T10:17:19+02:00</time>
      </trkpt>
      <trkpt lat="42.81297" lon="3.03794">
        <ele>1</ele>
        <time>2018-08-31T10:17:23+02:00</time>
      </trkpt>
      <trkpt lat="42.81271" lon="3.03791">
        <ele>2</ele>
        <time>2018-08-31T10:17:28+02:00</time>
      </trkpt>
      <trkpt lat="42.81248" lon="3.03787">
        <ele>2</ele>
        <time>2018-08-31T10:17:32+02:00</time>
      </trkpt>
      <trkpt lat="42.81225" lon="3.03787">
        <ele>2</ele>
        <time>2018-08-31T10:17:36+02:00</time>
      </trkpt>
      <trkpt lat="42.81199" lon="3.03787">
        <ele>2</ele>
        <time>2018-08-31T10:17:41+02:00</time>
      </trkpt>
      <trkpt lat="42.81167" lon="3.03769">
        <ele>2</ele>
        <time>2018-08-31T10:17:47+02:00</time>
      </trkpt>
      <trkpt lat="42.81145" lon="3.03776">
        <ele>2</ele>
        <time>2018-08-31T10:17:52+02:00</time>
      </trkpt>
      <trkpt lat="42.81122" lon="3.03777">
        <ele>2</ele>
        <time>2018-08-31T10:17:56+02:00</time>
      </trkpt>
      <trkpt lat="42.81099" lon="3.0377">
        <ele>2</ele>
        <time>2018-08-31T10:18:02+02:00</time>
      </trkpt>
      <trkpt lat="42.81075" lon="3.0377">
        <ele>2</ele>
        <time>2018-08-31T10:18:06+02:00</time>
      </trkpt>
      <trkpt lat="42.81047" lon="3.03768">
        <ele>2</ele>
        <time>2018-08-31T10:18:11+02:00</time>
      </trkpt>
      <trkpt lat="42.81024" lon="3.03764">
        <ele>2</ele>
        <time>2018-08-31T10:18:15+02:00</time>
      </trkpt>
      <trkpt lat="42.80999" lon="3.03761">
        <ele>2</ele>
        <time>2018-08-31T10:18:20+02:00</time>
      </trkpt>
      <trkpt lat="42.80972" lon="3.0376">
        <ele>2</ele>
        <time>2018-08-31T10:18:25+02:00</time>
      </trkpt>
      <trkpt lat="42.80946" lon="3.03759">
        <ele>2</ele>
        <time>2018-08-31T10:18:30+02:00</time>
      </trkpt>
      <trkpt lat="42.80924" lon="3.03753">
        <ele>2</ele>
        <time>2018-08-31T10:18:34+02:00</time>
      </trkpt>
      <trkpt lat="42.80898" lon="3.03749">
        <ele>2</ele>
        <time>2018-08-31T10:18:39+02:00</time>
      </trkpt>
      <trkpt lat="42.80874" lon="3.0375">
        <ele>2</ele>
        <time>2018-08-31T10:18:43+02:00</time>
      </trkpt>
      <trkpt lat="42.80847" lon="3.03746">
        <ele>2</ele>
        <time>2018-08-31T10:18:48+02:00</time>
      </trkpt>
      <trkpt lat="42.80823" lon="3.03743">
        <ele>2</ele>
        <time>2018-08-31T10:18:52+02:00</time>
      </trkpt>
      <trkpt lat="42.80801" lon="3.0374">
        <ele>2</ele>
        <time>2018-08-31T10:18:56+02:00</time>
      </trkpt>
      <trkpt lat="42.80776" lon="3.03736">
        <ele>2</ele>
        <time>2018-08-31T10:19:00+02:00</time>
      </trkpt>
      <trkpt lat="42.80752" lon="3.03734">
        <ele>2</ele>
        <time>2018-08-31T10:19:05+02:00</time>
      </trkpt>
      <trkpt lat="42.80725" lon="3.03732">
        <ele>2</ele>
        <time>2018-08-31T10:19:09+02:00</time>
      </trkpt>
      <trkpt lat="42.80697" lon="3.03734">
        <ele>2</ele>
        <time>2018-08-31T10:19:15+02:00</time>
      </trkpt>
      <trkpt lat="42.80675" lon="3.03737">
        <ele>2</ele>
        <time>2018-08-31T10:19:19+02:00</time>
      </trkpt>
      <trkpt lat="42.80649" lon="3.03732">
        <ele>2</ele>
        <time>2018-08-31T10:19:24+02:00</time>
      </trkpt>
      <trkpt lat="42.80631" lon="3.0371">
        <ele>2</ele>
        <time>2018-08-31T10:19:34+02:00</time>
      </trkpt>
      <trkpt lat="42.80605" lon="3.03712">
        <ele>2</ele>
        <time>2018-08-31T10:19:40+02:00</time>
      </trkpt>
      <trkpt lat="42.80581" lon="3.0372">
        <ele>2</ele>
        <time>2018-08-31T10:19:44+02:00</time>
      </trkpt>
      <trkpt lat="42.80552" lon="3.03727">
        <ele>2</ele>
        <time>2018-08-31T10:19:49+02:00</time>
      </trkpt>
      <trkpt lat="42.8053" lon="3.03725">
        <ele>2</ele>
        <time>2018-08-31T10:19:55+02:00</time>
      </trkpt>
      <trkpt lat="42.80505" lon="3.03718">
        <ele>2</ele>
        <time>2018-08-31T10:20:01+02:00</time>
      </trkpt>
      <trkpt lat="42.8048" lon="3.03714">
        <ele>2</ele>
        <time>2018-08-31T10:20:05+02:00</time>
      </trkpt>
      <trkpt lat="42.80455" lon="3.03711">
        <ele>2</ele>
        <time>2018-08-31T10:20:10+02:00</time>
      </trkpt>
      <trkpt lat="42.8043" lon="3.03703">
        <ele>2</ele>
        <time>2018-08-31T10:20:15+02:00</time>
      </trkpt>
      <trkpt lat="42.80403" lon="3.03707">
        <ele>2</ele>
        <time>2018-08-31T10:20:21+02:00</time>
      </trkpt>
      <trkpt lat="42.80378" lon="3.03705">
        <ele>2</ele>
        <time>2018-08-31T10:20:25+02:00</time>
      </trkpt>
      <trkpt lat="42.80353" lon="3.03702">
        <ele>2</ele>
        <time>2018-08-31T10:20:30+02:00</time>
      </trkpt>
      <trkpt lat="42.80327" lon="3.03704">
        <ele>2</ele>
        <time>2018-08-31T10:20:35+02:00</time>
      </trkpt>
      <trkpt lat="42.80301" lon="3.037">
        <ele>2</ele>
        <time>2018-08-31T10:20:40+02:00</time>
      </trkpt>
      <trkpt lat="42.80275" lon="3.03698">
        <ele>2</ele>
        <time>2018-08-31T10:20:45+02:00</time>
      </trkpt>
      <trkpt lat="42.80251" lon="3.03694">
        <ele>2</ele>
        <time>2018-08-31T10:20:50+02:00</time>
      </trkpt>
      <trkpt lat="42.80228" lon="3.03693">
        <ele>2</ele>
        <time>2018-08-31T10:20:54+02:00</time>
      </trkpt>
      <trkpt lat="42.80204" lon="3.03691">
        <ele>2</ele>
        <time>2018-08-31T10:20:58+02:00</time>
      </trkpt>
      <trkpt lat="42.80177" lon="3.03693">
        <ele>2</ele>
        <time>2018-08-31T10:21:03+02:00</time>
      </trkpt>
      <trkpt lat="42.8015" lon="3.0369">
        <ele>2</ele>
        <time>2018-08-31T10:21:09+02:00</time>
      </trkpt>
      <trkpt lat="42.80124" lon="3.03688">
        <ele>2</ele>
        <time>2018-08-31T10:21:14+02:00</time>
      </trkpt>
      <trkpt lat="42.801" lon="3.03688">
        <ele>2</ele>
        <time>2018-08-31T10:21:18+02:00</time>
      </trkpt>
      <trkpt lat="42.80075" lon="3.03685">
        <ele>2</ele>
        <time>2018-08-31T10:21:23+02:00</time>
      </trkpt>
      <trkpt lat="42.8005" lon="3.03683">
        <ele>2</ele>
        <time>2018-08-31T10:21:28+02:00</time>
      </trkpt>
      <trkpt lat="42.80031" lon="3.03661">
        <ele>2</ele>
        <time>2018-08-31T10:21:34+02:00</time>
      </trkpt>
      <trkpt lat="42.80013" lon="3.03641">
        <ele>2</ele>
        <time>2018-08-31T10:21:39+02:00</time>
      </trkpt>
      <trkpt lat="42.79989" lon="3.0365">
        <ele>2</ele>
        <time>2018-08-31T10:21:44+02:00</time>
      </trkpt>
      <trkpt lat="42.79966" lon="3.03674">
        <ele>2</ele>
        <time>2018-08-31T10:21:50+02:00</time>
      </trkpt>
      <trkpt lat="42.79938" lon="3.0367">
        <ele>1</ele>
        <time>2018-08-31T10:21:56+02:00</time>
      </trkpt>
      <trkpt lat="42.79915" lon="3.03667">
        <ele>1</ele>
        <time>2018-08-31T10:22:01+02:00</time>
      </trkpt>
      <trkpt lat="42.79887" lon="3.03667">
        <ele>1</ele>
        <time>2018-08-31T10:22:06+02:00</time>
      </trkpt>
      <trkpt lat="42.79863" lon="3.03663">
        <ele>1</ele>
        <time>2018-08-31T10:22:12+02:00</time>
      </trkpt>
      <trkpt lat="42.79841" lon="3.03665">
        <ele>1.8</ele>
        <time>2018-08-31T10:22:52+02:00</time>
      </trkpt>
      <trkpt lat="42.79815" lon="3.03666">
        <ele>2.32</ele>
        <time>2018-08-31T10:22:57+02:00</time>
      </trkpt>
      <trkpt lat="42.7979" lon="3.03661">
        <ele>2.6</ele>
        <time>2018-08-31T10:23:03+02:00</time>
      </trkpt>
      <trkpt lat="42.79766" lon="3.03658">
        <ele>1</ele>
        <time>2018-08-31T10:23:12+02:00</time>
      </trkpt>
      <trkpt lat="42.79742" lon="3.03655">
        <ele>1</ele>
        <time>2018-08-31T10:23:35+02:00</time>
      </trkpt>
      <trkpt lat="42.79717" lon="3.03654">
        <ele>1</ele>
        <time>2018-08-31T10:23:41+02:00</time>
      </trkpt>
      <trkpt lat="42.79693" lon="3.03654">
        <ele>1</ele>
        <time>2018-08-31T10:23:46+02:00</time>
      </trkpt>
      <trkpt lat="42.79669" lon="3.0365">
        <ele>2</ele>
        <time>2018-08-31T10:23:51+02:00</time>
      </trkpt>
      <trkpt lat="42.79646" lon="3.03636">
        <ele>2</ele>
        <time>2018-08-31T10:23:56+02:00</time>
      </trkpt>
      <trkpt lat="42.79622" lon="3.03649">
        <ele>2</ele>
        <time>2018-08-31T10:24:01+02:00</time>
      </trkpt>
      <trkpt lat="42.79598" lon="3.03647">
        <ele>2</ele>
        <time>2018-08-31T10:24:06+02:00</time>
      </trkpt>
      <trkpt lat="42.79575" lon="3.03646">
        <ele>2</ele>
        <time>2018-08-31T10:24:10+02:00</time>
      </trkpt>
      <trkpt lat="42.79549" lon="3.03642">
        <ele>2</ele>
        <time>2018-08-31T10:24:15+02:00</time>
      </trkpt>
      <trkpt lat="42.79521" lon="3.03637">
        <ele>2</ele>
        <time>2018-08-31T10:24:21+02:00</time>
      </trkpt>
      <trkpt lat="42.79498" lon="3.03632">
        <ele>2</ele>
        <time>2018-08-31T10:24:26+02:00</time>
      </trkpt>
      <trkpt lat="42.79473" lon="3.03634">
        <ele>2</ele>
        <time>2018-08-31T10:24:32+02:00</time>
      </trkpt>
      <trkpt lat="42.7945" lon="3.03633">
        <ele>2</ele>
        <time>2018-08-31T10:24:37+02:00</time>
      </trkpt>
      <trkpt lat="42.79424" lon="3.03632">
        <ele>2</ele>
        <time>2018-08-31T10:24:42+02:00</time>
      </trkpt>
      <trkpt lat="42.79399" lon="3.0363">
        <ele>2</ele>
        <time>2018-08-31T10:24:47+02:00</time>
      </trkpt>
      <trkpt lat="42.79373" lon="3.0363">
        <ele>2</ele>
        <time>2018-08-31T10:24:52+02:00</time>
      </trkpt>
      <trkpt lat="42.79349" lon="3.03632">
        <ele>2</ele>
        <time>2018-08-31T10:24:57+02:00</time>
      </trkpt>
      <trkpt lat="42.79322" lon="3.03634">
        <ele>2</ele>
        <time>2018-08-31T10:25:02+02:00</time>
      </trkpt>
      <trkpt lat="42.79299" lon="3.03639">
        <ele>2</ele>
        <time>2018-08-31T10:25:06+02:00</time>
      </trkpt>
      <trkpt lat="42.79274" lon="3.03642">
        <ele>2</ele>
        <time>2018-08-31T10:25:10+02:00</time>
      </trkpt>
      <trkpt lat="42.79248" lon="3.03643">
        <ele>2</ele>
        <time>2018-08-31T10:25:15+02:00</time>
      </trkpt>
      <trkpt lat="42.79224" lon="3.03643">
        <ele>2</ele>
        <time>2018-08-31T10:25:20+02:00</time>
      </trkpt>
      <trkpt lat="42.79197" lon="3.03645">
        <ele>2</ele>
        <time>2018-08-31T10:25:25+02:00</time>
      </trkpt>
      <trkpt lat="42.79171" lon="3.03647">
        <ele>2</ele>
        <time>2018-08-31T10:25:29+02:00</time>
      </trkpt>
      <trkpt lat="42.79147" lon="3.03652">
        <ele>2</ele>
        <time>2018-08-31T10:25:34+02:00</time>
      </trkpt>
      <trkpt lat="42.79122" lon="3.03654">
        <ele>2</ele>
        <time>2018-08-31T10:25:39+02:00</time>
      </trkpt>
      <trkpt lat="42.79098" lon="3.03654">
        <ele>2</ele>
        <time>2018-08-31T10:25:44+02:00</time>
      </trkpt>
      <trkpt lat="42.79074" lon="3.03656">
        <ele>2</ele>
        <time>2018-08-31T10:25:48+02:00</time>
      </trkpt>
      <trkpt lat="42.79052" lon="3.03659">
        <ele>2</ele>
        <time>2018-08-31T10:25:52+02:00</time>
      </trkpt>
      <trkpt lat="42.79027" lon="3.03658">
        <ele>2</ele>
        <time>2018-08-31T10:25:58+02:00</time>
      </trkpt>
      <trkpt lat="42.79001" lon="3.03665">
        <ele>2</ele>
        <time>2018-08-31T10:26:03+02:00</time>
      </trkpt>
      <trkpt lat="42.78972" lon="3.0367">
        <ele>2</ele>
        <time>2018-08-31T10:26:07+02:00</time>
      </trkpt>
      <trkpt lat="42.78946" lon="3.03673">
        <ele>2</ele>
        <time>2018-08-31T10:26:12+02:00</time>
      </trkpt>
      <trkpt lat="42.78923" lon="3.03673">
        <ele>2</ele>
        <time>2018-08-31T10:26:18+02:00</time>
      </trkpt>
      <trkpt lat="42.78898" lon="3.03678">
        <ele>2</ele>
        <time>2018-08-31T10:26:24+02:00</time>
      </trkpt>
      <trkpt lat="42.78875" lon="3.03681">
        <ele>2</ele>
        <time>2018-08-31T10:26:30+02:00</time>
      </trkpt>
      <trkpt lat="42.78864" lon="3.03709">
        <ele>2</ele>
        <time>2018-08-31T10:26:38+02:00</time>
      </trkpt>
      <trkpt lat="42.78862" lon="3.0374">
        <ele>2</ele>
        <time>2018-08-31T10:26:43+02:00</time>
      </trkpt>
      <trkpt lat="42.78866" lon="3.0377">
        <ele>2</ele>
        <time>2018-08-31T10:26:56+02:00</time>
      </trkpt>
      <trkpt lat="42.78862" lon="3.03804">
        <ele>2</ele>
        <time>2018-08-31T10:27:05+02:00</time>
      </trkpt>
      <trkpt lat="42.78839" lon="3.03806">
        <ele>2</ele>
        <time>2018-08-31T10:27:12+02:00</time>
      </trkpt>
      <trkpt lat="42.78814" lon="3.03812">
        <ele>2</ele>
        <time>2018-08-31T10:27:20+02:00</time>
      </trkpt>
      <trkpt lat="42.7879" lon="3.03814">
        <ele>2</ele>
        <time>2018-08-31T10:27:28+02:00</time>
      </trkpt>
      <trkpt lat="42.78767" lon="3.03815">
        <ele>2</ele>
        <time>2018-08-31T10:27:34+02:00</time>
      </trkpt>
      <trkpt lat="42.78743" lon="3.03815">
        <ele>2</ele>
        <time>2018-08-31T10:27:41+02:00</time>
      </trkpt>
      <trkpt lat="42.78716" lon="3.03814">
        <ele>2</ele>
        <time>2018-08-31T10:27:47+02:00</time>
      </trkpt>
      <trkpt lat="42.78689" lon="3.03817">
        <ele>2</ele>
        <time>2018-08-31T10:27:54+02:00</time>
      </trkpt>
      <trkpt lat="42.78665" lon="3.03821">
        <ele>2</ele>
        <time>2018-08-31T10:27:59+02:00</time>
      </trkpt>
      <trkpt lat="42.78642" lon="3.03825">
        <ele>2</ele>
        <time>2018-08-31T10:28:05+02:00</time>
      </trkpt>
      <trkpt lat="42.78616" lon="3.03826">
        <ele>2</ele>
        <time>2018-08-31T10:28:09+02:00</time>
      </trkpt>
      <trkpt lat="42.78593" lon="3.03827">
        <ele>2</ele>
        <time>2018-08-31T10:28:15+02:00</time>
      </trkpt>
      <trkpt lat="42.7857" lon="3.03832">
        <ele>2</ele>
        <time>2018-08-31T10:28:20+02:00</time>
      </trkpt>
      <trkpt lat="42.78546" lon="3.03835">
        <ele>2</ele>
        <time>2018-08-31T10:28:28+02:00</time>
      </trkpt>
      <trkpt lat="42.78522" lon="3.03836">
        <ele>2</ele>
        <time>2018-08-31T10:28:33+02:00</time>
      </trkpt>
      <trkpt lat="42.78495" lon="3.03838">
        <ele>2</ele>
        <time>2018-08-31T10:28:39+02:00</time>
      </trkpt>
      <trkpt lat="42.78469" lon="3.03841">
        <ele>2</ele>
        <time>2018-08-31T10:28:46+02:00</time>
      </trkpt>
      <trkpt lat="42.78452" lon="3.03817">
        <ele>2</ele>
        <time>2018-08-31T10:28:58+02:00</time>
      </trkpt>
      <trkpt lat="42.78428" lon="3.03813">
        <ele>2</ele>
        <time>2018-08-31T10:29:07+02:00</time>
      </trkpt>
      <trkpt lat="42.78403" lon="3.03811">
        <ele>2</ele>
        <time>2018-08-31T10:29:11+02:00</time>
      </trkpt>
      <trkpt lat="42.78381" lon="3.03813">
        <ele>2</ele>
        <time>2018-08-31T10:29:15+02:00</time>
      </trkpt>
      <trkpt lat="42.78357" lon="3.0381">
        <ele>2</ele>
        <time>2018-08-31T10:29:20+02:00</time>
      </trkpt>
      <trkpt lat="42.78332" lon="3.03808">
        <ele>2</ele>
        <time>2018-08-31T10:29:26+02:00</time>
      </trkpt>
      <trkpt lat="42.78308" lon="3.03808">
        <ele>2</ele>
        <time>2018-08-31T10:29:31+02:00</time>
      </trkpt>
      <trkpt lat="42.78284" lon="3.03803">
        <ele>2</ele>
        <time>2018-08-31T10:29:36+02:00</time>
      </trkpt>
      <trkpt lat="42.78259" lon="3.03802">
        <ele>2</ele>
        <time>2018-08-31T10:29:41+02:00</time>
      </trkpt>
      <trkpt lat="42.78234" lon="3.03793">
        <ele>1</ele>
        <time>2018-08-31T10:29:47+02:00</time>
      </trkpt>
      <trkpt lat="42.78212" lon="3.03789">
        <ele>1</ele>
        <time>2018-08-31T10:29:52+02:00</time>
      </trkpt>
      <trkpt lat="42.78187" lon="3.03788">
        <ele>1</ele>
        <time>2018-08-31T10:29:56+02:00</time>
      </trkpt>
      <trkpt lat="42.78162" lon="3.03787">
        <ele>2</ele>
        <time>2018-08-31T10:30:02+02:00</time>
      </trkpt>
      <trkpt lat="42.78136" lon="3.03788">
        <ele>2</ele>
        <time>2018-08-31T10:30:07+02:00</time>
      </trkpt>
      <trkpt lat="42.78113" lon="3.03788">
        <ele>2</ele>
        <time>2018-08-31T10:30:12+02:00</time>
      </trkpt>
      <trkpt lat="42.78086" lon="3.03789">
        <ele>2</ele>
        <time>2018-08-31T10:30:17+02:00</time>
      </trkpt>
      <trkpt lat="42.78062" lon="3.03787">
        <ele>2</ele>
        <time>2018-08-31T10:30:23+02:00</time>
      </trkpt>
      <trkpt lat="42.7804" lon="3.0378">
        <ele>2</ele>
        <time>2018-08-31T10:30:31+02:00</time>
      </trkpt>
      <trkpt lat="42.78023" lon="3.03756">
        <ele>2</ele>
        <time>2018-08-31T10:33:44+02:00</time>
      </trkpt>
      <trkpt lat="42.78011" lon="3.0373">
        <ele>1</ele>
        <time>2018-08-31T10:33:50+02:00</time>
      </trkpt>
      <trkpt lat="42.77999" lon="3.037">
        <ele>2</ele>
        <time>2018-08-31T10:33:56+02:00</time>
      </trkpt>
      <trkpt lat="42.77985" lon="3.03664">
        <ele>1</ele>
        <time>2018-08-31T10:34:03+02:00</time>
      </trkpt>
      <trkpt lat="42.77977" lon="3.03632">
        <ele>1</ele>
        <time>2018-08-31T10:34:09+02:00</time>
      </trkpt>
      <trkpt lat="42.77968" lon="3.03601">
        <ele>1</ele>
        <time>2018-08-31T10:34:14+02:00</time>
      </trkpt>
      <trkpt lat="42.77964" lon="3.0357">
        <ele>2</ele>
        <time>2018-08-31T10:34:20+02:00</time>
      </trkpt>
      <trkpt lat="42.77954" lon="3.03537">
        <ele>1</ele>
        <time>2018-08-31T10:34:26+02:00</time>
      </trkpt>
      <trkpt lat="42.77947" lon="3.03499">
        <ele>2</ele>
        <time>2018-08-31T10:34:32+02:00</time>
      </trkpt>
      <trkpt lat="42.77942" lon="3.03468">
        <ele>2</ele>
        <time>2018-08-31T10:34:37+02:00</time>
      </trkpt>
      <trkpt lat="42.77934" lon="3.03436">
        <ele>2</ele>
        <time>2018-08-31T10:34:42+02:00</time>
      </trkpt>
      <trkpt lat="42.77922" lon="3.03406">
        <ele>2</ele>
        <time>2018-08-31T10:34:47+02:00</time>
      </trkpt>
      <trkpt lat="42.77918" lon="3.03376">
        <ele>2</ele>
        <time>2018-08-31T10:34:52+02:00</time>
      </trkpt>
      <trkpt lat="42.77906" lon="3.03346">
        <ele>2</ele>
        <time>2018-08-31T10:34:57+02:00</time>
      </trkpt>
      <trkpt lat="42.77889" lon="3.03318">
        <ele>2</ele>
        <time>2018-08-31T10:35:02+02:00</time>
      </trkpt>
      <trkpt lat="42.77877" lon="3.03288">
        <ele>2</ele>
        <time>2018-08-31T10:35:07+02:00</time>
      </trkpt>
      <trkpt lat="42.77863" lon="3.03263">
        <ele>2</ele>
        <time>2018-08-31T10:35:11+02:00</time>
      </trkpt>
      <trkpt lat="42.7785" lon="3.0323">
        <ele>2</ele>
        <time>2018-08-31T10:35:17+02:00</time>
      </trkpt>
      <trkpt lat="42.77833" lon="3.03207">
        <ele>2</ele>
        <time>2018-08-31T10:35:22+02:00</time>
      </trkpt>
      <trkpt lat="42.77817" lon="3.03184">
        <ele>2</ele>
        <time>2018-08-31T10:35:26+02:00</time>
      </trkpt>
      <trkpt lat="42.77798" lon="3.03157">
        <ele>2</ele>
        <time>2018-08-31T10:35:31+02:00</time>
      </trkpt>
      <trkpt lat="42.77781" lon="3.03132">
        <ele>2</ele>
        <time>2018-08-31T10:35:36+02:00</time>
      </trkpt>
      <trkpt lat="42.7776" lon="3.03111">
        <ele>2</ele>
        <time>2018-08-31T10:35:41+02:00</time>
      </trkpt>
      <trkpt lat="42.77741" lon="3.0309">
        <ele>2</ele>
        <time>2018-08-31T10:35:46+02:00</time>
      </trkpt>
      <trkpt lat="42.77718" lon="3.03067">
        <ele>2</ele>
        <time>2018-08-31T10:35:51+02:00</time>
      </trkpt>
      <trkpt lat="42.77698" lon="3.03048">
        <ele>2</ele>
        <time>2018-08-31T10:35:56+02:00</time>
      </trkpt>
      <trkpt lat="42.7768" lon="3.03029">
        <ele>2</ele>
        <time>2018-08-31T10:36:01+02:00</time>
      </trkpt>
      <trkpt lat="42.77657" lon="3.03008">
        <ele>2</ele>
        <time>2018-08-31T10:36:06+02:00</time>
      </trkpt>
      <trkpt lat="42.77637" lon="3.02986">
        <ele>2</ele>
        <time>2018-08-31T10:36:11+02:00</time>
      </trkpt>
      <trkpt lat="42.77615" lon="3.02969">
        <ele>2</ele>
        <time>2018-08-31T10:36:16+02:00</time>
      </trkpt>
      <trkpt lat="42.77595" lon="3.02947">
        <ele>2</ele>
        <time>2018-08-31T10:36:21+02:00</time>
      </trkpt>
      <trkpt lat="42.77577" lon="3.02929">
        <ele>2</ele>
        <time>2018-08-31T10:36:26+02:00</time>
      </trkpt>
      <trkpt lat="42.77554" lon="3.0291">
        <ele>2</ele>
        <time>2018-08-31T10:36:31+02:00</time>
      </trkpt>
      <trkpt lat="42.77534" lon="3.02891">
        <ele>2</ele>
        <time>2018-08-31T10:36:36+02:00</time>
      </trkpt>
      <trkpt lat="42.77513" lon="3.02872">
        <ele>2</ele>
        <time>2018-08-31T10:36:41+02:00</time>
      </trkpt>
      <trkpt lat="42.77494" lon="3.02851">
        <ele>2</ele>
        <time>2018-08-31T10:36:46+02:00</time>
      </trkpt>
      <trkpt lat="42.77475" lon="3.02831">
        <ele>2</ele>
        <time>2018-08-31T10:36:51+02:00</time>
      </trkpt>
      <trkpt lat="42.77456" lon="3.02812">
        <ele>2</ele>
        <time>2018-08-31T10:36:56+02:00</time>
      </trkpt>
      <trkpt lat="42.77438" lon="3.02793">
        <ele>2</ele>
        <time>2018-08-31T10:37:01+02:00</time>
      </trkpt>
      <trkpt lat="42.7742" lon="3.02772">
        <ele>2</ele>
        <time>2018-08-31T10:37:06+02:00</time>
      </trkpt>
      <trkpt lat="42.774" lon="3.02754">
        <ele>2</ele>
        <time>2018-08-31T10:37:11+02:00</time>
      </trkpt>
      <trkpt lat="42.7738" lon="3.02735">
        <ele>2</ele>
        <time>2018-08-31T10:37:16+02:00</time>
      </trkpt>
      <trkpt lat="42.77359" lon="3.02717">
        <ele>2</ele>
        <time>2018-08-31T10:37:21+02:00</time>
      </trkpt>
      <trkpt lat="42.77337" lon="3.02698">
        <ele>2</ele>
        <time>2018-08-31T10:37:26+02:00</time>
      </trkpt>
      <trkpt lat="42.77315" lon="3.02678">
        <ele>2</ele>
        <time>2018-08-31T10:37:31+02:00</time>
      </trkpt>
      <trkpt lat="42.77296" lon="3.02658">
        <ele>2</ele>
        <time>2018-08-31T10:37:36+02:00</time>
      </trkpt>
      <trkpt lat="42.77278" lon="3.02639">
        <ele>2</ele>
        <time>2018-08-31T10:37:41+02:00</time>
      </trkpt>
      <trkpt lat="42.7726" lon="3.02618">
        <ele>2</ele>
        <time>2018-08-31T10:37:46+02:00</time>
      </trkpt>
      <trkpt lat="42.7724" lon="3.02601">
        <ele>2</ele>
        <time>2018-08-31T10:37:51+02:00</time>
      </trkpt>
      <trkpt lat="42.77222" lon="3.02576">
        <ele>2</ele>
        <time>2018-08-31T10:37:56+02:00</time>
      </trkpt>
      <trkpt lat="42.77205" lon="3.02552">
        <ele>2</ele>
        <time>2018-08-31T10:38:01+02:00</time>
      </trkpt>
      <trkpt lat="42.77185" lon="3.02529">
        <ele>2</ele>
        <time>2018-08-31T10:38:06+02:00</time>
      </trkpt>
      <trkpt lat="42.77172" lon="3.02501">
        <ele>2</ele>
        <time>2018-08-31T10:38:11+02:00</time>
      </trkpt>
      <trkpt lat="42.77165" lon="3.02471">
        <ele>2</ele>
        <time>2018-08-31T10:38:16+02:00</time>
      </trkpt>
      <trkpt lat="42.77155" lon="3.02441">
        <ele>2</ele>
        <time>2018-08-31T10:38:21+02:00</time>
      </trkpt>
      <trkpt lat="42.77143" lon="3.02409">
        <ele>2</ele>
        <time>2018-08-31T10:38:26+02:00</time>
      </trkpt>
      <trkpt lat="42.77135" lon="3.02381">
        <ele>2</ele>
        <time>2018-08-31T10:38:31+02:00</time>
      </trkpt>
      <trkpt lat="42.77127" lon="3.02344">
        <ele>2</ele>
        <time>2018-08-31T10:38:37+02:00</time>
      </trkpt>
      <trkpt lat="42.77131" lon="3.02306">
        <ele>2</ele>
        <time>2018-08-31T10:38:43+02:00</time>
      </trkpt>
      <trkpt lat="42.7713" lon="3.02275">
        <ele>2</ele>
        <time>2018-08-31T10:38:48+02:00</time>
      </trkpt>
      <trkpt lat="42.77128" lon="3.02244">
        <ele>2</ele>
        <time>2018-08-31T10:38:52+02:00</time>
      </trkpt>
      <trkpt lat="42.77127" lon="3.02209">
        <ele>2</ele>
        <time>2018-08-31T10:38:57+02:00</time>
      </trkpt>
      <trkpt lat="42.77127" lon="3.02178">
        <ele>2</ele>
        <time>2018-08-31T10:39:02+02:00</time>
      </trkpt>
      <trkpt lat="42.77127" lon="3.02145">
        <ele>2</ele>
        <time>2018-08-31T10:39:07+02:00</time>
      </trkpt>
      <trkpt lat="42.77122" lon="3.02113">
        <ele>2</ele>
        <time>2018-08-31T10:39:12+02:00</time>
      </trkpt>
      <trkpt lat="42.77119" lon="3.02075">
        <ele>2</ele>
        <time>2018-08-31T10:39:18+02:00</time>
      </trkpt>
      <trkpt lat="42.77118" lon="3.02042">
        <ele>2</ele>
        <time>2018-08-31T10:39:25+02:00</time>
      </trkpt>
      <trkpt lat="42.77121" lon="3.02011">
        <ele>2</ele>
        <time>2018-08-31T10:39:37+02:00</time>
      </trkpt>
      <trkpt lat="42.77119" lon="3.01976">
        <ele>2</ele>
        <time>2018-08-31T10:39:45+02:00</time>
      </trkpt>
      <trkpt lat="42.77117" lon="3.01945">
        <ele>2</ele>
        <time>2018-08-31T10:39:52+02:00</time>
      </trkpt>
      <trkpt lat="42.77115" lon="3.01913">
        <ele>2</ele>
        <time>2018-08-31T10:39:58+02:00</time>
      </trkpt>
      <trkpt lat="42.7711" lon="3.01867">
        <ele>2</ele>
        <time>2018-08-31T10:40:06+02:00</time>
      </trkpt>
      <trkpt lat="42.77112" lon="3.01834">
        <ele>2</ele>
        <time>2018-08-31T10:40:13+02:00</time>
      </trkpt>
      <trkpt lat="42.77105" lon="3.01802">
        <ele>2</ele>
        <time>2018-08-31T10:40:18+02:00</time>
      </trkpt>
      <trkpt lat="42.771" lon="3.01766">
        <ele>2</ele>
        <time>2018-08-31T10:40:23+02:00</time>
      </trkpt>
      <trkpt lat="42.77095" lon="3.01735">
        <ele>1</ele>
        <time>2018-08-31T10:40:27+02:00</time>
      </trkpt>
      <trkpt lat="42.771" lon="3.01698">
        <ele>2</ele>
        <time>2018-08-31T10:40:32+02:00</time>
      </trkpt>
      <trkpt lat="42.771" lon="3.01666">
        <ele>2</ele>
        <time>2018-08-31T10:40:39+02:00</time>
      </trkpt>
      <trkpt lat="42.77102" lon="3.01699">
        <ele>2</ele>
        <time>2018-08-31T10:40:52+02:00</time>
      </trkpt>
      <trkpt lat="42.7709" lon="3.01726">
        <ele>1</ele>
        <time>2018-08-31T10:41:08+02:00</time>
      </trkpt>
      <trkpt lat="42.77068" lon="3.01735">
        <ele>1</ele>
        <time>2018-08-31T10:41:52+02:00</time>
      </trkpt>
      <trkpt lat="42.77045" lon="3.01741">
        <ele>1</ele>
        <time>2018-08-31T10:42:00+02:00</time>
      </trkpt>
      <trkpt lat="42.77022" lon="3.01742">
        <ele>1</ele>
        <time>2018-08-31T10:42:07+02:00</time>
      </trkpt>
      <trkpt lat="42.77004" lon="3.01722">
        <ele>2</ele>
        <time>2018-08-31T10:42:21+02:00</time>
      </trkpt>
      <trkpt lat="42.77001" lon="3.01756">
        <ele>2</ele>
        <time>2018-08-31T10:42:28+02:00</time>
      </trkpt>
      <trkpt lat="42.76999" lon="3.01788">
        <ele>2</ele>
        <time>2018-08-31T10:42:34+02:00</time>
      </trkpt>
      <trkpt lat="42.77014" lon="3.01814">
        <ele>1</ele>
        <time>2018-08-31T10:42:42+02:00</time>
      </trkpt>
      <trkpt lat="42.77016" lon="3.01845">
        <ele>1</ele>
        <time>2018-08-31T10:42:49+02:00</time>
      </trkpt>
      <trkpt lat="42.77015" lon="3.01877">
        <ele>1</ele>
        <time>2018-08-31T10:42:55+02:00</time>
      </trkpt>
      <trkpt lat="42.77015" lon="3.01913">
        <ele>1</ele>
        <time>2018-08-31T10:43:01+02:00</time>
      </trkpt>
      <trkpt lat="42.77013" lon="3.01947">
        <ele>2</ele>
        <time>2018-08-31T10:43:07+02:00</time>
      </trkpt>
      <trkpt lat="42.77016" lon="3.01984">
        <ele>2</ele>
        <time>2018-08-31T10:43:12+02:00</time>
      </trkpt>
      <trkpt lat="42.77014" lon="3.0202">
        <ele>2</ele>
        <time>2018-08-31T10:43:18+02:00</time>
      </trkpt>
      <trkpt lat="42.77018" lon="3.02061">
        <ele>2</ele>
        <time>2018-08-31T10:43:23+02:00</time>
      </trkpt>
      <trkpt lat="42.77018" lon="3.02096">
        <ele>2</ele>
        <time>2018-08-31T10:43:28+02:00</time>
      </trkpt>
      <trkpt lat="42.7702" lon="3.0213">
        <ele>2</ele>
        <time>2018-08-31T10:43:33+02:00</time>
      </trkpt>
      <trkpt lat="42.77019" lon="3.02168">
        <ele>2</ele>
        <time>2018-08-31T10:43:38+02:00</time>
      </trkpt>
      <trkpt lat="42.77019" lon="3.022">
        <ele>2</ele>
        <time>2018-08-31T10:43:43+02:00</time>
      </trkpt>
      <trkpt lat="42.77017" lon="3.02232">
        <ele>2</ele>
        <time>2018-08-31T10:43:48+02:00</time>
      </trkpt>
      <trkpt lat="42.77019" lon="3.02265">
        <ele>2</ele>
        <time>2018-08-31T10:43:52+02:00</time>
      </trkpt>
      <trkpt lat="42.77019" lon="3.02299">
        <ele>2</ele>
        <time>2018-08-31T10:43:57+02:00</time>
      </trkpt>
      <trkpt lat="42.77019" lon="3.02335">
        <ele>2</ele>
        <time>2018-08-31T10:44:02+02:00</time>
      </trkpt>
      <trkpt lat="42.7702" lon="3.02369">
        <ele>2</ele>
        <time>2018-08-31T10:44:07+02:00</time>
      </trkpt>
      <trkpt lat="42.77024" lon="3.02406">
        <ele>2</ele>
        <time>2018-08-31T10:44:12+02:00</time>
      </trkpt>
      <trkpt lat="42.7703" lon="3.02441">
        <ele>2</ele>
        <time>2018-08-31T10:44:17+02:00</time>
      </trkpt>
      <trkpt lat="42.77039" lon="3.02471">
        <ele>2</ele>
        <time>2018-08-31T10:44:21+02:00</time>
      </trkpt>
      <trkpt lat="42.77048" lon="3.02499">
        <ele>2</ele>
        <time>2018-08-31T10:44:25+02:00</time>
      </trkpt>
      <trkpt lat="42.77055" lon="3.02531">
        <ele>2</ele>
        <time>2018-08-31T10:44:30+02:00</time>
      </trkpt>
      <trkpt lat="42.77064" lon="3.02564">
        <ele>2</ele>
        <time>2018-08-31T10:44:35+02:00</time>
      </trkpt>
      <trkpt lat="42.77075" lon="3.02593">
        <ele>2</ele>
        <time>2018-08-31T10:44:40+02:00</time>
      </trkpt>
      <trkpt lat="42.77088" lon="3.02619">
        <ele>2</ele>
        <time>2018-08-31T10:44:44+02:00</time>
      </trkpt>
      <trkpt lat="42.77103" lon="3.0265">
        <ele>2</ele>
        <time>2018-08-31T10:44:49+02:00</time>
      </trkpt>
      <trkpt lat="42.77118" lon="3.02675">
        <ele>2</ele>
        <time>2018-08-31T10:44:54+02:00</time>
      </trkpt>
      <trkpt lat="42.77134" lon="3.02699">
        <ele>2</ele>
        <time>2018-08-31T10:44:59+02:00</time>
      </trkpt>
      <trkpt lat="42.77152" lon="3.0272">
        <ele>2</ele>
        <time>2018-08-31T10:45:04+02:00</time>
      </trkpt>
      <trkpt lat="42.77171" lon="3.02738">
        <ele>1</ele>
        <time>2018-08-31T10:45:08+02:00</time>
      </trkpt>
      <trkpt lat="42.7719" lon="3.02763">
        <ele>2</ele>
        <time>2018-08-31T10:45:13+02:00</time>
      </trkpt>
      <trkpt lat="42.77212" lon="3.02785">
        <ele>2</ele>
        <time>2018-08-31T10:45:18+02:00</time>
      </trkpt>
      <trkpt lat="42.77232" lon="3.02806">
        <ele>2</ele>
        <time>2018-08-31T10:45:23+02:00</time>
      </trkpt>
      <trkpt lat="42.77253" lon="3.02829">
        <ele>2</ele>
        <time>2018-08-31T10:45:28+02:00</time>
      </trkpt>
      <trkpt lat="42.77275" lon="3.02851">
        <ele>2</ele>
        <time>2018-08-31T10:45:33+02:00</time>
      </trkpt>
      <trkpt lat="42.77294" lon="3.02875">
        <ele>2</ele>
        <time>2018-08-31T10:45:38+02:00</time>
      </trkpt>
      <trkpt lat="42.77316" lon="3.02899">
        <ele>2</ele>
        <time>2018-08-31T10:45:43+02:00</time>
      </trkpt>
      <trkpt lat="42.77335" lon="3.02921">
        <ele>2</ele>
        <time>2018-08-31T10:45:48+02:00</time>
      </trkpt>
      <trkpt lat="42.77354" lon="3.0294">
        <ele>2</ele>
        <time>2018-08-31T10:45:52+02:00</time>
      </trkpt>
      <trkpt lat="42.77376" lon="3.02962">
        <ele>1</ele>
        <time>2018-08-31T10:45:57+02:00</time>
      </trkpt>
      <trkpt lat="42.77396" lon="3.02986">
        <ele>1</ele>
        <time>2018-08-31T10:46:02+02:00</time>
      </trkpt>
      <trkpt lat="42.77419" lon="3.03006">
        <ele>1</ele>
        <time>2018-08-31T10:46:07+02:00</time>
      </trkpt>
      <trkpt lat="42.77439" lon="3.0303">
        <ele>1</ele>
        <time>2018-08-31T10:46:12+02:00</time>
      </trkpt>
      <trkpt lat="42.7746" lon="3.03052">
        <ele>1</ele>
        <time>2018-08-31T10:46:17+02:00</time>
      </trkpt>
      <trkpt lat="42.77481" lon="3.03075">
        <ele>1</ele>
        <time>2018-08-31T10:46:22+02:00</time>
      </trkpt>
      <trkpt lat="42.77501" lon="3.03098">
        <ele>2</ele>
        <time>2018-08-31T10:46:27+02:00</time>
      </trkpt>
      <trkpt lat="42.77522" lon="3.0312">
        <ele>1</ele>
        <time>2018-08-31T10:46:32+02:00</time>
      </trkpt>
      <trkpt lat="42.77542" lon="3.03142">
        <ele>2</ele>
        <time>2018-08-31T10:46:37+02:00</time>
      </trkpt>
      <trkpt lat="42.7756" lon="3.03164">
        <ele>2</ele>
        <time>2018-08-31T10:46:42+02:00</time>
      </trkpt>
      <trkpt lat="42.77582" lon="3.03187">
        <ele>2</ele>
        <time>2018-08-31T10:46:47+02:00</time>
      </trkpt>
      <trkpt lat="42.77603" lon="3.03208">
        <ele>2</ele>
        <time>2018-08-31T10:46:52+02:00</time>
      </trkpt>
      <trkpt lat="42.77626" lon="3.03229">
        <ele>2</ele>
        <time>2018-08-31T10:46:57+02:00</time>
      </trkpt>
      <trkpt lat="42.77646" lon="3.03255">
        <ele>2</ele>
        <time>2018-08-31T10:47:02+02:00</time>
      </trkpt>
      <trkpt lat="42.77665" lon="3.0328">
        <ele>2</ele>
        <time>2018-08-31T10:47:07+02:00</time>
      </trkpt>
      <trkpt lat="42.77682" lon="3.03303">
        <ele>2</ele>
        <time>2018-08-31T10:47:12+02:00</time>
      </trkpt>
      <trkpt lat="42.777" lon="3.03332">
        <ele>2</ele>
        <time>2018-08-31T10:47:17+02:00</time>
      </trkpt>
      <trkpt lat="42.77716" lon="3.03361">
        <ele>2</ele>
        <time>2018-08-31T10:47:22+02:00</time>
      </trkpt>
      <trkpt lat="42.77731" lon="3.03393">
        <ele>2</ele>
        <time>2018-08-31T10:47:27+02:00</time>
      </trkpt>
      <trkpt lat="42.77741" lon="3.03421">
        <ele>2</ele>
        <time>2018-08-31T10:47:31+02:00</time>
      </trkpt>
      <trkpt lat="42.77752" lon="3.0345">
        <ele>2</ele>
        <time>2018-08-31T10:47:36+02:00</time>
      </trkpt>
      <trkpt lat="42.77763" lon="3.03483">
        <ele>2</ele>
        <time>2018-08-31T10:47:41+02:00</time>
      </trkpt>
      <trkpt lat="42.77773" lon="3.03518">
        <ele>2</ele>
        <time>2018-08-31T10:47:46+02:00</time>
      </trkpt>
      <trkpt lat="42.77782" lon="3.03553">
        <ele>2</ele>
        <time>2018-08-31T10:47:51+02:00</time>
      </trkpt>
      <trkpt lat="42.77787" lon="3.03584">
        <ele>2</ele>
        <time>2018-08-31T10:47:55+02:00</time>
      </trkpt>
      <trkpt lat="42.77797" lon="3.03617">
        <ele>2</ele>
        <time>2018-08-31T10:48:00+02:00</time>
      </trkpt>
      <trkpt lat="42.778" lon="3.03651">
        <ele>2</ele>
        <time>2018-08-31T10:48:05+02:00</time>
      </trkpt>
      <trkpt lat="42.77807" lon="3.03686">
        <ele>2</ele>
        <time>2018-08-31T10:48:11+02:00</time>
      </trkpt>
      <trkpt lat="42.7779" lon="3.03708">
        <ele>2</ele>
        <time>2018-08-31T10:48:20+02:00</time>
      </trkpt>
      <trkpt lat="42.77764" lon="3.03707">
        <ele>2</ele>
        <time>2018-08-31T10:48:27+02:00</time>
      </trkpt>
      <trkpt lat="42.77739" lon="3.03712">
        <ele>2</ele>
        <time>2018-08-31T10:48:34+02:00</time>
      </trkpt>
      <trkpt lat="42.77715" lon="3.03715">
        <ele>2</ele>
        <time>2018-08-31T10:48:39+02:00</time>
      </trkpt>
      <trkpt lat="42.77691" lon="3.03712">
        <ele>2</ele>
        <time>2018-08-31T10:48:44+02:00</time>
      </trkpt>
      <trkpt lat="42.77665" lon="3.03704">
        <ele>2</ele>
        <time>2018-08-31T10:48:49+02:00</time>
      </trkpt>
      <trkpt lat="42.7764" lon="3.03691">
        <ele>2</ele>
        <time>2018-08-31T10:48:54+02:00</time>
      </trkpt>
      <trkpt lat="42.77618" lon="3.03681">
        <ele>2</ele>
        <time>2018-08-31T10:48:59+02:00</time>
      </trkpt>
      <trkpt lat="42.77594" lon="3.03665">
        <ele>2</ele>
        <time>2018-08-31T10:49:05+02:00</time>
      </trkpt>
      <trkpt lat="42.77572" lon="3.03659">
        <ele>2</ele>
        <time>2018-08-31T10:49:09+02:00</time>
      </trkpt>
      <trkpt lat="42.77545" lon="3.03656">
        <ele>2</ele>
        <time>2018-08-31T10:49:14+02:00</time>
      </trkpt>
      <trkpt lat="42.77523" lon="3.03654">
        <ele>2</ele>
        <time>2018-08-31T10:49:19+02:00</time>
      </trkpt>
      <trkpt lat="42.77498" lon="3.03652">
        <ele>2</ele>
        <time>2018-08-31T10:49:24+02:00</time>
      </trkpt>
      <trkpt lat="42.77472" lon="3.03647">
        <ele>2</ele>
        <time>2018-08-31T10:49:29+02:00</time>
      </trkpt>
      <trkpt lat="42.77447" lon="3.03644">
        <ele>2</ele>
        <time>2018-08-31T10:49:34+02:00</time>
      </trkpt>
      <trkpt lat="42.77421" lon="3.03635">
        <ele>2</ele>
        <time>2018-08-31T10:49:39+02:00</time>
      </trkpt>
      <trkpt lat="42.77396" lon="3.03635">
        <ele>2</ele>
        <time>2018-08-31T10:49:44+02:00</time>
      </trkpt>
      <trkpt lat="42.7737" lon="3.03625">
        <ele>2</ele>
        <time>2018-08-31T10:49:50+02:00</time>
      </trkpt>
      <trkpt lat="42.77351" lon="3.03599">
        <ele>2</ele>
        <time>2018-08-31T10:49:55+02:00</time>
      </trkpt>
      <trkpt lat="42.77326" lon="3.03584">
        <ele>2</ele>
        <time>2018-08-31T10:50:00+02:00</time>
      </trkpt>
      <trkpt lat="42.77299" lon="3.03577">
        <ele>2</ele>
        <time>2018-08-31T10:50:06+02:00</time>
      </trkpt>
      <trkpt lat="42.77276" lon="3.03571">
        <ele>2</ele>
        <time>2018-08-31T10:50:11+02:00</time>
      </trkpt>
      <trkpt lat="42.77251" lon="3.03569">
        <ele>2</ele>
        <time>2018-08-31T10:50:16+02:00</time>
      </trkpt>
      <trkpt lat="42.77225" lon="3.0357">
        <ele>2</ele>
        <time>2018-08-31T10:50:21+02:00</time>
      </trkpt>
      <trkpt lat="42.77198" lon="3.03571">
        <ele>2</ele>
        <time>2018-08-31T10:50:27+02:00</time>
      </trkpt>
      <trkpt lat="42.77173" lon="3.03566">
        <ele>2</ele>
        <time>2018-08-31T10:50:32+02:00</time>
      </trkpt>
      <trkpt lat="42.7715" lon="3.03556">
        <ele>2</ele>
        <time>2018-08-31T10:50:38+02:00</time>
      </trkpt>
      <trkpt lat="42.77125" lon="3.03555">
        <ele>2</ele>
        <time>2018-08-31T10:50:44+02:00</time>
      </trkpt>
      <trkpt lat="42.77102" lon="3.03548">
        <ele>2</ele>
        <time>2018-08-31T10:50:50+02:00</time>
      </trkpt>
      <trkpt lat="42.77076" lon="3.03548">
        <ele>2</ele>
        <time>2018-08-31T10:50:57+02:00</time>
      </trkpt>
      <trkpt lat="42.77052" lon="3.03542">
        <ele>2</ele>
        <time>2018-08-31T10:51:01+02:00</time>
      </trkpt>
      <trkpt lat="42.77027" lon="3.03539">
        <ele>2</ele>
        <time>2018-08-31T10:51:06+02:00</time>
      </trkpt>
      <trkpt lat="42.77002" lon="3.0354">
        <ele>2</ele>
        <time>2018-08-31T10:51:10+02:00</time>
      </trkpt>
      <trkpt lat="42.76975" lon="3.03543">
        <ele>2</ele>
        <time>2018-08-31T10:51:15+02:00</time>
      </trkpt>
      <trkpt lat="42.76951" lon="3.03543">
        <ele>2</ele>
        <time>2018-08-31T10:51:19+02:00</time>
      </trkpt>
      <trkpt lat="42.76928" lon="3.03529">
        <ele>2</ele>
        <time>2018-08-31T10:51:24+02:00</time>
      </trkpt>
      <trkpt lat="42.7691" lon="3.03505">
        <ele>2</ele>
        <time>2018-08-31T10:51:29+02:00</time>
      </trkpt>
      <trkpt lat="42.76898" lon="3.03473">
        <ele>2</ele>
        <time>2018-08-31T10:51:35+02:00</time>
      </trkpt>
      <trkpt lat="42.76885" lon="3.03445">
        <ele>2</ele>
        <time>2018-08-31T10:51:40+02:00</time>
      </trkpt>
      <trkpt lat="42.76864" lon="3.03425">
        <ele>2</ele>
        <time>2018-08-31T10:51:45+02:00</time>
      </trkpt>
      <trkpt lat="42.76845" lon="3.03408">
        <ele>2</ele>
        <time>2018-08-31T10:51:50+02:00</time>
      </trkpt>
      <trkpt lat="42.76821" lon="3.03396">
        <ele>2</ele>
        <time>2018-08-31T10:51:56+02:00</time>
      </trkpt>
      <trkpt lat="42.76796" lon="3.03397">
        <ele>2</ele>
        <time>2018-08-31T10:52:01+02:00</time>
      </trkpt>
      <trkpt lat="42.76772" lon="3.03398">
        <ele>2</ele>
        <time>2018-08-31T10:52:06+02:00</time>
      </trkpt>
      <trkpt lat="42.7675" lon="3.03408">
        <ele>2</ele>
        <time>2018-08-31T10:52:11+02:00</time>
      </trkpt>
      <trkpt lat="42.76723" lon="3.03407">
        <ele>2</ele>
        <time>2018-08-31T10:52:17+02:00</time>
      </trkpt>
      <trkpt lat="42.76705" lon="3.03432">
        <ele>2</ele>
        <time>2018-08-31T10:52:24+02:00</time>
      </trkpt>
      <trkpt lat="42.76703" lon="3.03464">
        <ele>2</ele>
        <time>2018-08-31T10:52:29+02:00</time>
      </trkpt>
      <trkpt lat="42.76701" lon="3.03496">
        <ele>2</ele>
        <time>2018-08-31T10:52:34+02:00</time>
      </trkpt>
      <trkpt lat="42.76698" lon="3.03529">
        <ele>2</ele>
        <time>2018-08-31T10:52:39+02:00</time>
      </trkpt>
      <trkpt lat="42.76696" lon="3.0356">
        <ele>2</ele>
        <time>2018-08-31T10:52:44+02:00</time>
      </trkpt>
      <trkpt lat="42.76693" lon="3.03593">
        <ele>2</ele>
        <time>2018-08-31T10:52:49+02:00</time>
      </trkpt>
      <trkpt lat="42.76687" lon="3.03627">
        <ele>2</ele>
        <time>2018-08-31T10:52:55+02:00</time>
      </trkpt>
      <trkpt lat="42.76686" lon="3.03658">
        <ele>2</ele>
        <time>2018-08-31T10:53:00+02:00</time>
      </trkpt>
      <trkpt lat="42.76688" lon="3.03691">
        <ele>3</ele>
        <time>2018-08-31T10:53:05+02:00</time>
      </trkpt>
      <trkpt lat="42.76676" lon="3.0372">
        <ele>2</ele>
        <time>2018-08-31T10:53:15+02:00</time>
      </trkpt>
      <trkpt lat="42.76651" lon="3.0372">
        <ele>2</ele>
        <time>2018-08-31T10:53:22+02:00</time>
      </trkpt>
      <trkpt lat="42.76626" lon="3.03723">
        <ele>2</ele>
        <time>2018-08-31T10:53:28+02:00</time>
      </trkpt>
      <trkpt lat="42.76603" lon="3.03723">
        <ele>2</ele>
        <time>2018-08-31T10:53:33+02:00</time>
      </trkpt>
      <trkpt lat="42.76577" lon="3.03723">
        <ele>2</ele>
        <time>2018-08-31T10:53:38+02:00</time>
      </trkpt>
      <trkpt lat="42.76554" lon="3.03718">
        <ele>2</ele>
        <time>2018-08-31T10:53:44+02:00</time>
      </trkpt>
      <trkpt lat="42.76532" lon="3.0372">
        <ele>2</ele>
        <time>2018-08-31T10:53:49+02:00</time>
      </trkpt>
      <trkpt lat="42.76506" lon="3.03722">
        <ele>2</ele>
        <time>2018-08-31T10:53:54+02:00</time>
      </trkpt>
      <trkpt lat="42.7648" lon="3.03722">
        <ele>2</ele>
        <time>2018-08-31T10:53:59+02:00</time>
      </trkpt>
      <trkpt lat="42.76456" lon="3.03722">
        <ele>2</ele>
        <time>2018-08-31T10:54:03+02:00</time>
      </trkpt>
      <trkpt lat="42.7643" lon="3.03715">
        <ele>2</ele>
        <time>2018-08-31T10:54:08+02:00</time>
      </trkpt>
      <trkpt lat="42.76403" lon="3.0371">
        <ele>2</ele>
        <time>2018-08-31T10:54:13+02:00</time>
      </trkpt>
      <trkpt lat="42.76379" lon="3.03709">
        <ele>2</ele>
        <time>2018-08-31T10:54:18+02:00</time>
      </trkpt>
      <trkpt lat="42.76354" lon="3.03707">
        <ele>2</ele>
        <time>2018-08-31T10:54:23+02:00</time>
      </trkpt>
      <trkpt lat="42.76331" lon="3.03705">
        <ele>2</ele>
        <time>2018-08-31T10:54:28+02:00</time>
      </trkpt>
      <trkpt lat="42.76308" lon="3.03708">
        <ele>2</ele>
        <time>2018-08-31T10:54:33+02:00</time>
      </trkpt>
      <trkpt lat="42.76284" lon="3.03716">
        <ele>2</ele>
        <time>2018-08-31T10:54:39+02:00</time>
      </trkpt>
      <trkpt lat="42.76261" lon="3.03721">
        <ele>2</ele>
        <time>2018-08-31T10:54:44+02:00</time>
      </trkpt>
      <trkpt lat="42.76237" lon="3.03728">
        <ele>2</ele>
        <time>2018-08-31T10:54:50+02:00</time>
      </trkpt>
      <trkpt lat="42.76212" lon="3.03725">
        <ele>2</ele>
        <time>2018-08-31T10:54:55+02:00</time>
      </trkpt>
      <trkpt lat="42.76185" lon="3.03726">
        <ele>2</ele>
        <time>2018-08-31T10:55:00+02:00</time>
      </trkpt>
      <trkpt lat="42.76161" lon="3.03721">
        <ele>2</ele>
        <time>2018-08-31T10:55:04+02:00</time>
      </trkpt>
      <trkpt lat="42.76137" lon="3.03719">
        <ele>2</ele>
        <time>2018-08-31T10:55:08+02:00</time>
      </trkpt>
      <trkpt lat="42.76112" lon="3.03717">
        <ele>2</ele>
        <time>2018-08-31T10:55:13+02:00</time>
      </trkpt>
      <trkpt lat="42.76087" lon="3.03718">
        <ele>2</ele>
        <time>2018-08-31T10:55:17+02:00</time>
      </trkpt>
      <trkpt lat="42.7606" lon="3.03718">
        <ele>2</ele>
        <time>2018-08-31T10:55:22+02:00</time>
      </trkpt>
      <trkpt lat="42.76033" lon="3.03717">
        <ele>2</ele>
        <time>2018-08-31T10:55:28+02:00</time>
      </trkpt>
      <trkpt lat="42.76006" lon="3.03713">
        <ele>2</ele>
        <time>2018-08-31T10:55:33+02:00</time>
      </trkpt>
      <trkpt lat="42.75981" lon="3.03711">
        <ele>2</ele>
        <time>2018-08-31T10:55:38+02:00</time>
      </trkpt>
      <trkpt lat="42.75958" lon="3.0371">
        <ele>2</ele>
        <time>2018-08-31T10:55:42+02:00</time>
      </trkpt>
      <trkpt lat="42.75935" lon="3.03708">
        <ele>2</ele>
        <time>2018-08-31T10:55:46+02:00</time>
      </trkpt>
      <trkpt lat="42.75912" lon="3.0371">
        <ele>2</ele>
        <time>2018-08-31T10:55:51+02:00</time>
      </trkpt>
      <trkpt lat="42.75886" lon="3.03709">
        <ele>2</ele>
        <time>2018-08-31T10:55:56+02:00</time>
      </trkpt>
      <trkpt lat="42.75862" lon="3.03711">
        <ele>2</ele>
        <time>2018-08-31T10:56:01+02:00</time>
      </trkpt>
      <trkpt lat="42.75839" lon="3.03699">
        <ele>2</ele>
        <time>2018-08-31T10:56:08+02:00</time>
      </trkpt>
      <trkpt lat="42.75821" lon="3.03678">
        <ele>2</ele>
        <time>2018-08-31T10:56:15+02:00</time>
      </trkpt>
      <trkpt lat="42.75814" lon="3.03648">
        <ele>2</ele>
        <time>2018-08-31T10:56:22+02:00</time>
      </trkpt>
      <trkpt lat="42.75816" lon="3.03614">
        <ele>2</ele>
        <time>2018-08-31T10:56:30+02:00</time>
      </trkpt>
      <trkpt lat="42.75802" lon="3.03588">
        <ele>2</ele>
        <time>2018-08-31T10:56:36+02:00</time>
      </trkpt>
      <trkpt lat="42.75801" lon="3.03557">
        <ele>2</ele>
        <time>2018-08-31T10:57:50+02:00</time>
      </trkpt>
      <trkpt lat="42.75805" lon="3.03526">
        <ele>2</ele>
        <time>2018-08-31T10:57:57+02:00</time>
      </trkpt>
      <trkpt lat="42.75809" lon="3.03489">
        <ele>2</ele>
        <time>2018-08-31T10:58:03+02:00</time>
      </trkpt>
      <trkpt lat="42.7581" lon="3.03455">
        <ele>2</ele>
        <time>2018-08-31T10:58:08+02:00</time>
      </trkpt>
      <trkpt lat="42.75811" lon="3.03423">
        <ele>2</ele>
        <time>2018-08-31T10:58:14+02:00</time>
      </trkpt>
      <trkpt lat="42.7581" lon="3.0339">
        <ele>2</ele>
        <time>2018-08-31T10:58:21+02:00</time>
      </trkpt>
      <trkpt lat="42.75797" lon="3.03362">
        <ele>2</ele>
        <time>2018-08-31T10:58:27+02:00</time>
      </trkpt>
      <trkpt lat="42.75791" lon="3.0333">
        <ele>1</ele>
        <time>2018-08-31T10:58:33+02:00</time>
      </trkpt>
      <trkpt lat="42.75794" lon="3.03297">
        <ele>2</ele>
        <time>2018-08-31T10:58:39+02:00</time>
      </trkpt>
      <trkpt lat="42.75804" lon="3.03265">
        <ele>2</ele>
        <time>2018-08-31T10:58:46+02:00</time>
      </trkpt>
      <trkpt lat="42.75815" lon="3.0323">
        <ele>2</ele>
        <time>2018-08-31T10:58:52+02:00</time>
      </trkpt>
      <trkpt lat="42.75812" lon="3.03199">
        <ele>2</ele>
        <time>2018-08-31T10:58:57+02:00</time>
      </trkpt>
      <trkpt lat="42.75806" lon="3.0317">
        <ele>1</ele>
        <time>2018-08-31T10:59:02+02:00</time>
      </trkpt>
      <trkpt lat="42.75798" lon="3.03135">
        <ele>1</ele>
        <time>2018-08-31T10:59:08+02:00</time>
      </trkpt>
      <trkpt lat="42.75788" lon="3.03105">
        <ele>1</ele>
        <time>2018-08-31T10:59:13+02:00</time>
      </trkpt>
      <trkpt lat="42.75768" lon="3.03088">
        <ele>1</ele>
        <time>2018-08-31T10:59:18+02:00</time>
      </trkpt>
      <trkpt lat="42.75743" lon="3.0308">
        <ele>1</ele>
        <time>2018-08-31T10:59:48+02:00</time>
      </trkpt>
      <trkpt lat="42.75725" lon="3.03107">
        <ele>1</ele>
        <time>2018-08-31T10:59:54+02:00</time>
      </trkpt>
      <trkpt lat="42.75703" lon="3.03089">
        <ele>1</ele>
        <time>2018-08-31T11:00:01+02:00</time>
      </trkpt>
      <trkpt lat="42.7569" lon="3.03063">
        <ele>1</ele>
        <time>2018-08-31T11:00:06+02:00</time>
      </trkpt>
      <trkpt lat="42.75686" lon="3.0303">
        <ele>1</ele>
        <time>2018-08-31T11:00:11+02:00</time>
      </trkpt>
      <trkpt lat="42.75685" lon="3.02994">
        <ele>1</ele>
        <time>2018-08-31T11:00:16+02:00</time>
      </trkpt>
      <trkpt lat="42.75677" lon="3.02966">
        <ele>1</ele>
        <time>2018-08-31T11:00:21+02:00</time>
      </trkpt>
      <trkpt lat="42.75667" lon="3.02928">
        <ele>1</ele>
        <time>2018-08-31T11:00:27+02:00</time>
      </trkpt>
      <trkpt lat="42.75656" lon="3.02897">
        <ele>1</ele>
        <time>2018-08-31T11:00:32+02:00</time>
      </trkpt>
      <trkpt lat="42.75659" lon="3.0286">
        <ele>1</ele>
        <time>2018-08-31T11:00:38+02:00</time>
      </trkpt>
      <trkpt lat="42.75674" lon="3.02832">
        <ele>2</ele>
        <time>2018-08-31T11:00:44+02:00</time>
      </trkpt>
      <trkpt lat="42.75692" lon="3.02813">
        <ele>2</ele>
        <time>2018-08-31T11:00:49+02:00</time>
      </trkpt>
      <trkpt lat="42.75701" lon="3.02784">
        <ele>2</ele>
        <time>2018-08-31T11:00:56+02:00</time>
      </trkpt>
      <trkpt lat="42.757" lon="3.02751">
        <ele>2</ele>
        <time>2018-08-31T11:01:02+02:00</time>
      </trkpt>
      <trkpt lat="42.75699" lon="3.02717">
        <ele>2</ele>
        <time>2018-08-31T11:01:07+02:00</time>
      </trkpt>
      <trkpt lat="42.75709" lon="3.02687">
        <ele>2</ele>
        <time>2018-08-31T11:01:12+02:00</time>
      </trkpt>
      <trkpt lat="42.75715" lon="3.02655">
        <ele>2</ele>
        <time>2018-08-31T11:01:17+02:00</time>
      </trkpt>
      <trkpt lat="42.75719" lon="3.02624">
        <ele>2</ele>
        <time>2018-08-31T11:01:22+02:00</time>
      </trkpt>
      <trkpt lat="42.75723" lon="3.0259">
        <ele>2</ele>
        <time>2018-08-31T11:01:28+02:00</time>
      </trkpt>
      <trkpt lat="42.75723" lon="3.02557">
        <ele>2</ele>
        <time>2018-08-31T11:01:33+02:00</time>
      </trkpt>
      <trkpt lat="42.75717" lon="3.02524">
        <ele>2</ele>
        <time>2018-08-31T11:01:39+02:00</time>
      </trkpt>
      <trkpt lat="42.75709" lon="3.02494">
        <ele>2</ele>
        <time>2018-08-31T11:01:44+02:00</time>
      </trkpt>
      <trkpt lat="42.75703" lon="3.02461">
        <ele>2</ele>
        <time>2018-08-31T11:01:50+02:00</time>
      </trkpt>
      <trkpt lat="42.75694" lon="3.0243">
        <ele>2</ele>
        <time>2018-08-31T11:01:55+02:00</time>
      </trkpt>
      <trkpt lat="42.7569" lon="3.02397">
        <ele>2</ele>
        <time>2018-08-31T11:02:00+02:00</time>
      </trkpt>
      <trkpt lat="42.75692" lon="3.02364">
        <ele>2</ele>
        <time>2018-08-31T11:02:06+02:00</time>
      </trkpt>
      <trkpt lat="42.75689" lon="3.02333">
        <ele>2</ele>
        <time>2018-08-31T11:02:11+02:00</time>
      </trkpt>
      <trkpt lat="42.75681" lon="3.02304">
        <ele>2</ele>
        <time>2018-08-31T11:02:16+02:00</time>
      </trkpt>
      <trkpt lat="42.75674" lon="3.02274">
        <ele>2</ele>
        <time>2018-08-31T11:02:22+02:00</time>
      </trkpt>
      <trkpt lat="42.75665" lon="3.02243">
        <ele>2</ele>
        <time>2018-08-31T11:02:27+02:00</time>
      </trkpt>
      <trkpt lat="42.75655" lon="3.02212">
        <ele>2</ele>
        <time>2018-08-31T11:02:32+02:00</time>
      </trkpt>
      <trkpt lat="42.75644" lon="3.02176">
        <ele>2</ele>
        <time>2018-08-31T11:02:39+02:00</time>
      </trkpt>
      <trkpt lat="42.75642" lon="3.02141">
        <ele>2</ele>
        <time>2018-08-31T11:02:44+02:00</time>
      </trkpt>
      <trkpt lat="42.75645" lon="3.02106">
        <ele>2</ele>
        <time>2018-08-31T11:02:50+02:00</time>
      </trkpt>
      <trkpt lat="42.75632" lon="3.0208">
        <ele>2</ele>
        <time>2018-08-31T11:03:05+02:00</time>
      </trkpt>
      <trkpt lat="42.75607" lon="3.02086">
        <ele>2</ele>
        <time>2018-08-31T11:03:11+02:00</time>
      </trkpt>
      <trkpt lat="42.75578" lon="3.02096">
        <ele>2</ele>
        <time>2018-08-31T11:03:16+02:00</time>
      </trkpt>
      <trkpt lat="42.75557" lon="3.02107">
        <ele>2</ele>
        <time>2018-08-31T11:03:20+02:00</time>
      </trkpt>
      <trkpt lat="42.75529" lon="3.02112">
        <ele>2</ele>
        <time>2018-08-31T11:03:24+02:00</time>
      </trkpt>
      <trkpt lat="42.75505" lon="3.0212">
        <ele>2</ele>
        <time>2018-08-31T11:03:28+02:00</time>
      </trkpt>
      <trkpt lat="42.75478" lon="3.02124">
        <ele>2</ele>
        <time>2018-08-31T11:03:32+02:00</time>
      </trkpt>
      <trkpt lat="42.75448" lon="3.02127">
        <ele>2</ele>
        <time>2018-08-31T11:03:36+02:00</time>
      </trkpt>
      <trkpt lat="42.7542" lon="3.02134">
        <ele>2</ele>
        <time>2018-08-31T11:03:41+02:00</time>
      </trkpt>
      <trkpt lat="42.75395" lon="3.02143">
        <ele>2</ele>
        <time>2018-08-31T11:03:45+02:00</time>
      </trkpt>
      <trkpt lat="42.75369" lon="3.02148">
        <ele>2</ele>
        <time>2018-08-31T11:03:50+02:00</time>
      </trkpt>
      <trkpt lat="42.75342" lon="3.02152">
        <ele>2</ele>
        <time>2018-08-31T11:03:55+02:00</time>
      </trkpt>
      <trkpt lat="42.75319" lon="3.02159">
        <ele>2</ele>
        <time>2018-08-31T11:03:59+02:00</time>
      </trkpt>
      <trkpt lat="42.75295" lon="3.02165">
        <ele>2</ele>
        <time>2018-08-31T11:04:02+02:00</time>
      </trkpt>
      <trkpt lat="42.75272" lon="3.02167">
        <ele>1</ele>
        <time>2018-08-31T11:04:09+02:00</time>
      </trkpt>
      <trkpt lat="42.75247" lon="3.02169">
        <ele>1</ele>
        <time>2018-08-31T11:04:18+02:00</time>
      </trkpt>
      <trkpt lat="42.75221" lon="3.02177">
        <ele>1</ele>
        <time>2018-08-31T11:04:25+02:00</time>
      </trkpt>
      <trkpt lat="42.75198" lon="3.0218">
        <ele>2</ele>
        <time>2018-08-31T11:05:05+02:00</time>
      </trkpt>
      <trkpt lat="42.75171" lon="3.02185">
        <ele>2</ele>
        <time>2018-08-31T11:05:09+02:00</time>
      </trkpt>
      <trkpt lat="42.75143" lon="3.0219">
        <ele>2</ele>
        <time>2018-08-31T11:05:13+02:00</time>
      </trkpt>
      <trkpt lat="42.7512" lon="3.02195">
        <ele>2</ele>
        <time>2018-08-31T11:05:16+02:00</time>
      </trkpt>
      <trkpt lat="42.75096" lon="3.02199">
        <ele>2</ele>
        <time>2018-08-31T11:05:20+02:00</time>
      </trkpt>
      <trkpt lat="42.75073" lon="3.02203">
        <ele>2</ele>
        <time>2018-08-31T11:05:23+02:00</time>
      </trkpt>
      <trkpt lat="42.75048" lon="3.02207">
        <ele>2</ele>
        <time>2018-08-31T11:05:28+02:00</time>
      </trkpt>
      <trkpt lat="42.75025" lon="3.0221">
        <ele>2</ele>
        <time>2018-08-31T11:05:32+02:00</time>
      </trkpt>
      <trkpt lat="42.75003" lon="3.02214">
        <ele>2</ele>
        <time>2018-08-31T11:05:35+02:00</time>
      </trkpt>
      <trkpt lat="42.74978" lon="3.02224">
        <ele>2</ele>
        <time>2018-08-31T11:05:39+02:00</time>
      </trkpt>
      <trkpt lat="42.74951" lon="3.02222">
        <ele>3</ele>
        <time>2018-08-31T11:05:43+02:00</time>
      </trkpt>
      <trkpt lat="42.74924" lon="3.02229">
        <ele>3</ele>
        <time>2018-08-31T11:05:47+02:00</time>
      </trkpt>
      <trkpt lat="42.74896" lon="3.02241">
        <ele>3</ele>
        <time>2018-08-31T11:05:51+02:00</time>
      </trkpt>
      <trkpt lat="42.74872" lon="3.02245">
        <ele>3</ele>
        <time>2018-08-31T11:05:55+02:00</time>
      </trkpt>
      <trkpt lat="42.74848" lon="3.02251">
        <ele>3</ele>
        <time>2018-08-31T11:05:58+02:00</time>
      </trkpt>
      <trkpt lat="42.74822" lon="3.02259">
        <ele>3</ele>
        <time>2018-08-31T11:06:02+02:00</time>
      </trkpt>
      <trkpt lat="42.74794" lon="3.02265">
        <ele>2</ele>
        <time>2018-08-31T11:06:06+02:00</time>
      </trkpt>
      <trkpt lat="42.74772" lon="3.02269">
        <ele>2</ele>
        <time>2018-08-31T11:06:09+02:00</time>
      </trkpt>
      <trkpt lat="42.74741" lon="3.02275">
        <ele>2</ele>
        <time>2018-08-31T11:06:13+02:00</time>
      </trkpt>
      <trkpt lat="42.74718" lon="3.02278">
        <ele>2</ele>
        <time>2018-08-31T11:06:17+02:00</time>
      </trkpt>
      <trkpt lat="42.74687" lon="3.02285">
        <ele>2</ele>
        <time>2018-08-31T11:06:21+02:00</time>
      </trkpt>
      <trkpt lat="42.74665" lon="3.02289">
        <ele>2</ele>
        <time>2018-08-31T11:06:25+02:00</time>
      </trkpt>
      <trkpt lat="42.74636" lon="3.02294">
        <ele>2</ele>
        <time>2018-08-31T11:06:28+02:00</time>
      </trkpt>
      <trkpt lat="42.7461" lon="3.02301">
        <ele>3</ele>
        <time>2018-08-31T11:06:31+02:00</time>
      </trkpt>
      <trkpt lat="42.74581" lon="3.02311">
        <ele>3</ele>
        <time>2018-08-31T11:06:35+02:00</time>
      </trkpt>
      <trkpt lat="42.74559" lon="3.02316">
        <ele>3</ele>
        <time>2018-08-31T11:06:38+02:00</time>
      </trkpt>
      <trkpt lat="42.74536" lon="3.02317">
        <ele>3</ele>
        <time>2018-08-31T11:06:41+02:00</time>
      </trkpt>
      <trkpt lat="42.74514" lon="3.02324">
        <ele>3</ele>
        <time>2018-08-31T11:06:44+02:00</time>
      </trkpt>
      <trkpt lat="42.74486" lon="3.02327">
        <ele>3</ele>
        <time>2018-08-31T11:06:48+02:00</time>
      </trkpt>
      <trkpt lat="42.7446" lon="3.02335">
        <ele>3</ele>
        <time>2018-08-31T11:06:52+02:00</time>
      </trkpt>
      <trkpt lat="42.74427" lon="3.02344">
        <ele>2</ele>
        <time>2018-08-31T11:06:55+02:00</time>
      </trkpt>
      <trkpt lat="42.74402" lon="3.02353">
        <ele>2</ele>
        <time>2018-08-31T11:06:58+02:00</time>
      </trkpt>
      <trkpt lat="42.74371" lon="3.02356">
        <ele>2</ele>
        <time>2018-08-31T11:07:02+02:00</time>
      </trkpt>
      <trkpt lat="42.74347" lon="3.02371">
        <ele>2</ele>
        <time>2018-08-31T11:07:06+02:00</time>
      </trkpt>
      <trkpt lat="42.74315" lon="3.02382">
        <ele>2</ele>
        <time>2018-08-31T11:07:10+02:00</time>
      </trkpt>
      <trkpt lat="42.7429" lon="3.02382">
        <ele>2</ele>
        <time>2018-08-31T11:07:13+02:00</time>
      </trkpt>
      <trkpt lat="42.74262" lon="3.02388">
        <ele>2</ele>
        <time>2018-08-31T11:07:17+02:00</time>
      </trkpt>
      <trkpt lat="42.74232" lon="3.02394">
        <ele>2</ele>
        <time>2018-08-31T11:07:21+02:00</time>
      </trkpt>
      <trkpt lat="42.74208" lon="3.02399">
        <ele>2</ele>
        <time>2018-08-31T11:07:24+02:00</time>
      </trkpt>
      <trkpt lat="42.74177" lon="3.02405">
        <ele>2</ele>
        <time>2018-08-31T11:07:28+02:00</time>
      </trkpt>
      <trkpt lat="42.7415" lon="3.02411">
        <ele>2</ele>
        <time>2018-08-31T11:07:32+02:00</time>
      </trkpt>
      <trkpt lat="42.74123" lon="3.02417">
        <ele>2</ele>
        <time>2018-08-31T11:07:36+02:00</time>
      </trkpt>
      <trkpt lat="42.74099" lon="3.02426">
        <ele>2</ele>
        <time>2018-08-31T11:07:39+02:00</time>
      </trkpt>
      <trkpt lat="42.74071" lon="3.0243">
        <ele>2</ele>
        <time>2018-08-31T11:07:42+02:00</time>
      </trkpt>
      <trkpt lat="42.74047" lon="3.02436">
        <ele>2</ele>
        <time>2018-08-31T11:07:45+02:00</time>
      </trkpt>
      <trkpt lat="42.74022" lon="3.02436">
        <ele>1</ele>
        <time>2018-08-31T11:07:52+02:00</time>
      </trkpt>
      <trkpt lat="42.73995" lon="3.02441">
        <ele>1</ele>
        <time>2018-08-31T11:07:58+02:00</time>
      </trkpt>
      <trkpt lat="42.73965" lon="3.02447">
        <ele>1</ele>
        <time>2018-08-31T11:08:02+02:00</time>
      </trkpt>
      <trkpt lat="42.73933" lon="3.02459">
        <ele>2</ele>
        <time>2018-08-31T11:08:06+02:00</time>
      </trkpt>
      <trkpt lat="42.73908" lon="3.0247">
        <ele>2</ele>
        <time>2018-08-31T11:08:10+02:00</time>
      </trkpt>
      <trkpt lat="42.73884" lon="3.02477">
        <ele>2</ele>
        <time>2018-08-31T11:08:14+02:00</time>
      </trkpt>
      <trkpt lat="42.73859" lon="3.0248">
        <ele>2</ele>
        <time>2018-08-31T11:08:17+02:00</time>
      </trkpt>
      <trkpt lat="42.73829" lon="3.02488">
        <ele>2</ele>
        <time>2018-08-31T11:08:21+02:00</time>
      </trkpt>
      <trkpt lat="42.73803" lon="3.02491">
        <ele>2</ele>
        <time>2018-08-31T11:08:24+02:00</time>
      </trkpt>
      <trkpt lat="42.73774" lon="3.025">
        <ele>2</ele>
        <time>2018-08-31T11:08:27+02:00</time>
      </trkpt>
      <trkpt lat="42.73747" lon="3.025">
        <ele>2</ele>
        <time>2018-08-31T11:08:31+02:00</time>
      </trkpt>
      <trkpt lat="42.73725" lon="3.02484">
        <ele>2</ele>
        <time>2018-08-31T11:08:35+02:00</time>
      </trkpt>
      <trkpt lat="42.73702" lon="3.0249">
        <ele>2</ele>
        <time>2018-08-31T11:08:42+02:00</time>
      </trkpt>
      <trkpt lat="42.73697" lon="3.0252">
        <ele>2</ele>
        <time>2018-08-31T11:09:28+02:00</time>
      </trkpt>
      <trkpt lat="42.73716" lon="3.02538">
        <ele>2</ele>
        <time>2018-08-31T11:09:34+02:00</time>
      </trkpt>
      <trkpt lat="42.73728" lon="3.02566">
        <ele>2</ele>
        <time>2018-08-31T11:09:41+02:00</time>
      </trkpt>
      <trkpt lat="42.73738" lon="3.02595">
        <ele>2</ele>
        <time>2018-08-31T11:09:46+02:00</time>
      </trkpt>
      <trkpt lat="42.73747" lon="3.02623">
        <ele>2</ele>
        <time>2018-08-31T11:09:51+02:00</time>
      </trkpt>
      <trkpt lat="42.73757" lon="3.02653">
        <ele>2</ele>
        <time>2018-08-31T11:09:56+02:00</time>
      </trkpt>
      <trkpt lat="42.73767" lon="3.02683">
        <ele>2</ele>
        <time>2018-08-31T11:10:01+02:00</time>
      </trkpt>
      <trkpt lat="42.73777" lon="3.02713">
        <ele>2</ele>
        <time>2018-08-31T11:10:06+02:00</time>
      </trkpt>
      <trkpt lat="42.73787" lon="3.02746">
        <ele>2</ele>
        <time>2018-08-31T11:10:12+02:00</time>
      </trkpt>
      <trkpt lat="42.73798" lon="3.02777">
        <ele>2</ele>
        <time>2018-08-31T11:10:17+02:00</time>
      </trkpt>
      <trkpt lat="42.73809" lon="3.02805">
        <ele>2</ele>
        <time>2018-08-31T11:10:21+02:00</time>
      </trkpt>
      <trkpt lat="42.73822" lon="3.02836">
        <ele>2</ele>
        <time>2018-08-31T11:10:26+02:00</time>
      </trkpt>
      <trkpt lat="42.73835" lon="3.02864">
        <ele>2</ele>
        <time>2018-08-31T11:10:31+02:00</time>
      </trkpt>
      <trkpt lat="42.73845" lon="3.02895">
        <ele>2</ele>
        <time>2018-08-31T11:10:37+02:00</time>
      </trkpt>
      <trkpt lat="42.73853" lon="3.02923">
        <ele>2</ele>
        <time>2018-08-31T11:10:42+02:00</time>
      </trkpt>
      <trkpt lat="42.73863" lon="3.02952">
        <ele>2</ele>
        <time>2018-08-31T11:10:47+02:00</time>
      </trkpt>
      <trkpt lat="42.73873" lon="3.0298">
        <ele>1</ele>
        <time>2018-08-31T11:10:52+02:00</time>
      </trkpt>
      <trkpt lat="42.73883" lon="3.03011">
        <ele>1</ele>
        <time>2018-08-31T11:10:58+02:00</time>
      </trkpt>
      <trkpt lat="42.73893" lon="3.0304">
        <ele>1</ele>
        <time>2018-08-31T11:11:03+02:00</time>
      </trkpt>
      <trkpt lat="42.73907" lon="3.03066">
        <ele>1</ele>
        <time>2018-08-31T11:11:08+02:00</time>
      </trkpt>
      <trkpt lat="42.73927" lon="3.03086">
        <ele>1</ele>
        <time>2018-08-31T11:11:13+02:00</time>
      </trkpt>
      <trkpt lat="42.73951" lon="3.03101">
        <ele>1</ele>
        <time>2018-08-31T11:11:18+02:00</time>
      </trkpt>
      <trkpt lat="42.7397" lon="3.03119">
        <ele>1</ele>
        <time>2018-08-31T11:11:23+02:00</time>
      </trkpt>
      <trkpt lat="42.73993" lon="3.03136">
        <ele>1</ele>
        <time>2018-08-31T11:11:28+02:00</time>
      </trkpt>
      <trkpt lat="42.74013" lon="3.03159">
        <ele>1</ele>
        <time>2018-08-31T11:11:34+02:00</time>
      </trkpt>
      <trkpt lat="42.74033" lon="3.03181">
        <ele>1</ele>
        <time>2018-08-31T11:11:40+02:00</time>
      </trkpt>
      <trkpt lat="42.74054" lon="3.03205">
        <ele>1</ele>
        <time>2018-08-31T11:11:46+02:00</time>
      </trkpt>
      <trkpt lat="42.74077" lon="3.03232">
        <ele>1</ele>
        <time>2018-08-31T11:11:54+02:00</time>
      </trkpt>
      <trkpt lat="42.74099" lon="3.03251">
        <ele>1</ele>
        <time>2018-08-31T11:12:00+02:00</time>
      </trkpt>
      <trkpt lat="42.74118" lon="3.03267">
        <ele>1</ele>
        <time>2018-08-31T11:12:07+02:00</time>
      </trkpt>
      <trkpt lat="42.74137" lon="3.03292">
        <ele>1</ele>
        <time>2018-08-31T11:12:12+02:00</time>
      </trkpt>
      <trkpt lat="42.74153" lon="3.03318">
        <ele>1</ele>
        <time>2018-08-31T11:12:19+02:00</time>
      </trkpt>
      <trkpt lat="42.7417" lon="3.03345">
        <ele>1</ele>
        <time>2018-08-31T11:12:25+02:00</time>
      </trkpt>
      <trkpt lat="42.74183" lon="3.03371">
        <ele>1</ele>
        <time>2018-08-31T11:12:30+02:00</time>
      </trkpt>
      <trkpt lat="42.74195" lon="3.03403">
        <ele>1</ele>
        <time>2018-08-31T11:12:36+02:00</time>
      </trkpt>
      <trkpt lat="42.74208" lon="3.03428">
        <ele>1</ele>
        <time>2018-08-31T11:12:43+02:00</time>
      </trkpt>
      <trkpt lat="42.74188" lon="3.03452">
        <ele>1</ele>
        <time>2018-08-31T11:13:02+02:00</time>
      </trkpt>
      <trkpt lat="42.74177" lon="3.03481">
        <ele>1</ele>
        <time>2018-08-31T11:13:08+02:00</time>
      </trkpt>
      <trkpt lat="42.7418" lon="3.03515">
        <ele>1</ele>
        <time>2018-08-31T11:13:15+02:00</time>
      </trkpt>
      <trkpt lat="42.74178" lon="3.03547">
        <ele>1</ele>
        <time>2018-08-31T11:13:24+02:00</time>
      </trkpt>
      <trkpt lat="42.74195" lon="3.03571">
        <ele>1</ele>
        <time>2018-08-31T11:13:30+02:00</time>
      </trkpt>
      <trkpt lat="42.74214" lon="3.03591">
        <ele>1</ele>
        <time>2018-08-31T11:13:35+02:00</time>
      </trkpt>
      <trkpt lat="42.74236" lon="3.03613">
        <ele>1</ele>
        <time>2018-08-31T11:13:41+02:00</time>
      </trkpt>
      <trkpt lat="42.7425" lon="3.03638">
        <ele>1</ele>
        <time>2018-08-31T11:13:47+02:00</time>
      </trkpt>
      <trkpt lat="42.74231" lon="3.03655">
        <ele>1</ele>
        <time>2018-08-31T11:13:57+02:00</time>
      </trkpt>
      <trkpt lat="42.74208" lon="3.03664">
        <ele>2</ele>
        <time>2018-08-31T11:14:01+02:00</time>
      </trkpt>
      <trkpt lat="42.74185" lon="3.03667">
        <ele>2</ele>
        <time>2018-08-31T11:14:07+02:00</time>
      </trkpt>
      <trkpt lat="42.74159" lon="3.03663">
        <ele>2</ele>
        <time>2018-08-31T11:14:13+02:00</time>
      </trkpt>
      <trkpt lat="42.74133" lon="3.0366">
        <ele>2</ele>
        <time>2018-08-31T11:14:18+02:00</time>
      </trkpt>
      <trkpt lat="42.74108" lon="3.03663">
        <ele>2</ele>
        <time>2018-08-31T11:14:23+02:00</time>
      </trkpt>
      <trkpt lat="42.74081" lon="3.03669">
        <ele>2</ele>
        <time>2018-08-31T11:14:28+02:00</time>
      </trkpt>
      <trkpt lat="42.74059" lon="3.03666">
        <ele>2</ele>
        <time>2018-08-31T11:14:35+02:00</time>
      </trkpt>
      <trkpt lat="42.74035" lon="3.03668">
        <ele>2</ele>
        <time>2018-08-31T11:14:40+02:00</time>
      </trkpt>
      <trkpt lat="42.7401" lon="3.03668">
        <ele>2</ele>
        <time>2018-08-31T11:14:46+02:00</time>
      </trkpt>
      <trkpt lat="42.73987" lon="3.03674">
        <ele>2</ele>
        <time>2018-08-31T11:14:50+02:00</time>
      </trkpt>
      <trkpt lat="42.73962" lon="3.03678">
        <ele>2</ele>
        <time>2018-08-31T11:14:54+02:00</time>
      </trkpt>
      <trkpt lat="42.73937" lon="3.03672">
        <ele>2</ele>
        <time>2018-08-31T11:15:01+02:00</time>
      </trkpt>
      <trkpt lat="42.73909" lon="3.03676">
        <ele>2</ele>
        <time>2018-08-31T11:15:05+02:00</time>
      </trkpt>
      <trkpt lat="42.73883" lon="3.03674">
        <ele>2</ele>
        <time>2018-08-31T11:15:11+02:00</time>
      </trkpt>
      <trkpt lat="42.7386" lon="3.03669">
        <ele>2</ele>
        <time>2018-08-31T11:15:21+02:00</time>
      </trkpt>
      <trkpt lat="42.73836" lon="3.03656">
        <ele>2</ele>
        <time>2018-08-31T11:15:28+02:00</time>
      </trkpt>
      <trkpt lat="42.73809" lon="3.03659">
        <ele>2</ele>
        <time>2018-08-31T11:15:34+02:00</time>
      </trkpt>
      <trkpt lat="42.73786" lon="3.03671">
        <ele>2</ele>
        <time>2018-08-31T11:15:38+02:00</time>
      </trkpt>
      <trkpt lat="42.73763" lon="3.03666">
        <ele>2</ele>
        <time>2018-08-31T11:15:44+02:00</time>
      </trkpt>
      <trkpt lat="42.7374" lon="3.03666">
        <ele>2</ele>
        <time>2018-08-31T11:15:48+02:00</time>
      </trkpt>
      <trkpt lat="42.73716" lon="3.03665">
        <ele>2</ele>
        <time>2018-08-31T11:15:53+02:00</time>
      </trkpt>
      <trkpt lat="42.73689" lon="3.0367">
        <ele>1</ele>
        <time>2018-08-31T11:15:58+02:00</time>
      </trkpt>
      <trkpt lat="42.73665" lon="3.03672">
        <ele>1</ele>
        <time>2018-08-31T11:16:03+02:00</time>
      </trkpt>
      <trkpt lat="42.7363" lon="3.03683">
        <ele>1</ele>
        <time>2018-08-31T11:16:08+02:00</time>
      </trkpt>
      <trkpt lat="42.73602" lon="3.03687">
        <ele>1</ele>
        <time>2018-08-31T11:16:15+02:00</time>
      </trkpt>
      <trkpt lat="42.73577" lon="3.03684">
        <ele>1</ele>
        <time>2018-08-31T11:16:20+02:00</time>
      </trkpt>
      <trkpt lat="42.73552" lon="3.03686">
        <ele>1</ele>
        <time>2018-08-31T11:16:25+02:00</time>
      </trkpt>
      <trkpt lat="42.73531" lon="3.03673">
        <ele>1</ele>
        <time>2018-08-31T11:16:29+02:00</time>
      </trkpt>
      <trkpt lat="42.73505" lon="3.03686">
        <ele>1</ele>
        <time>2018-08-31T11:16:34+02:00</time>
      </trkpt>
      <trkpt lat="42.73482" lon="3.03687">
        <ele>1</ele>
        <time>2018-08-31T11:16:39+02:00</time>
      </trkpt>
      <trkpt lat="42.73459" lon="3.03695">
        <ele>1</ele>
        <time>2018-08-31T11:16:44+02:00</time>
      </trkpt>
      <trkpt lat="42.73433" lon="3.037">
        <ele>1</ele>
        <time>2018-08-31T11:16:49+02:00</time>
      </trkpt>
      <trkpt lat="42.73408" lon="3.03694">
        <ele>1</ele>
        <time>2018-08-31T11:16:55+02:00</time>
      </trkpt>
      <trkpt lat="42.73379" lon="3.03694">
        <ele>1</ele>
        <time>2018-08-31T11:17:01+02:00</time>
      </trkpt>
      <trkpt lat="42.7335" lon="3.03702">
        <ele>1</ele>
        <time>2018-08-31T11:17:05+02:00</time>
      </trkpt>
      <trkpt lat="42.73324" lon="3.03702">
        <ele>1</ele>
        <time>2018-08-31T11:17:10+02:00</time>
      </trkpt>
      <trkpt lat="42.73301" lon="3.03703">
        <ele>1</ele>
        <time>2018-08-31T11:17:14+02:00</time>
      </trkpt>
      <trkpt lat="42.73271" lon="3.03712">
        <ele>1</ele>
        <time>2018-08-31T11:17:19+02:00</time>
      </trkpt>
      <trkpt lat="42.73244" lon="3.03716">
        <ele>1</ele>
        <time>2018-08-31T11:17:24+02:00</time>
      </trkpt>
      <trkpt lat="42.73218" lon="3.03712">
        <ele>1</ele>
        <time>2018-08-31T11:17:30+02:00</time>
      </trkpt>
      <trkpt lat="42.73192" lon="3.03716">
        <ele>1</ele>
        <time>2018-08-31T11:17:35+02:00</time>
      </trkpt>
      <trkpt lat="42.73167" lon="3.03716">
        <ele>1</ele>
        <time>2018-08-31T11:17:40+02:00</time>
      </trkpt>
      <trkpt lat="42.73142" lon="3.03717">
        <ele>1</ele>
        <time>2018-08-31T11:17:46+02:00</time>
      </trkpt>
      <trkpt lat="42.73115" lon="3.03725">
        <ele>1</ele>
        <time>2018-08-31T11:17:50+02:00</time>
      </trkpt>
      <trkpt lat="42.7309" lon="3.03723">
        <ele>1</ele>
        <time>2018-08-31T11:17:55+02:00</time>
      </trkpt>
      <trkpt lat="42.73064" lon="3.03723">
        <ele>1</ele>
        <time>2018-08-31T11:18:00+02:00</time>
      </trkpt>
      <trkpt lat="42.73034" lon="3.03725">
        <ele>2</ele>
        <time>2018-08-31T11:18:06+02:00</time>
      </trkpt>
      <trkpt lat="42.73008" lon="3.03725">
        <ele>2</ele>
        <time>2018-08-31T11:18:12+02:00</time>
      </trkpt>
      <trkpt lat="42.72984" lon="3.03731">
        <ele>2</ele>
        <time>2018-08-31T11:18:17+02:00</time>
      </trkpt>
      <trkpt lat="42.72967" lon="3.03751">
        <ele>2</ele>
        <time>2018-08-31T11:18:23+02:00</time>
      </trkpt>
      <trkpt lat="42.7295" lon="3.03775">
        <ele>2</ele>
        <time>2018-08-31T11:18:29+02:00</time>
      </trkpt>
      <trkpt lat="42.72934" lon="3.03797">
        <ele>2</ele>
        <time>2018-08-31T11:18:35+02:00</time>
      </trkpt>
      <trkpt lat="42.72916" lon="3.03818">
        <ele>2</ele>
        <time>2018-08-31T11:18:43+02:00</time>
      </trkpt>
      <trkpt lat="42.72897" lon="3.03839">
        <ele>2</ele>
        <time>2018-08-31T11:18:50+02:00</time>
      </trkpt>
      <trkpt lat="42.72882" lon="3.03815">
        <ele>2</ele>
        <time>2018-08-31T11:18:59+02:00</time>
      </trkpt>
      <trkpt lat="42.72871" lon="3.03788">
        <ele>2</ele>
        <time>2018-08-31T11:19:08+02:00</time>
      </trkpt>
      <trkpt lat="42.72853" lon="3.03768">
        <ele>2</ele>
        <time>2018-08-31T11:19:16+02:00</time>
      </trkpt>
      <trkpt lat="42.72829" lon="3.03785">
        <ele>2</ele>
        <time>2018-08-31T11:19:21+02:00</time>
      </trkpt>
      <trkpt lat="42.72812" lon="3.03815">
        <ele>2</ele>
        <time>2018-08-31T11:19:26+02:00</time>
      </trkpt>
      <trkpt lat="42.72793" lon="3.03837">
        <ele>2</ele>
        <time>2018-08-31T11:19:31+02:00</time>
      </trkpt>
      <trkpt lat="42.72768" lon="3.03836">
        <ele>2</ele>
        <time>2018-08-31T11:19:37+02:00</time>
      </trkpt>
      <trkpt lat="42.72751" lon="3.0381">
        <ele>2</ele>
        <time>2018-08-31T11:19:43+02:00</time>
      </trkpt>
      <trkpt lat="42.72727" lon="3.03816">
        <ele>2</ele>
        <time>2018-08-31T11:19:49+02:00</time>
      </trkpt>
      <trkpt lat="42.72705" lon="3.0383">
        <ele>2</ele>
        <time>2018-08-31T11:19:54+02:00</time>
      </trkpt>
      <trkpt lat="42.72678" lon="3.03836">
        <ele>2</ele>
        <time>2018-08-31T11:20:00+02:00</time>
      </trkpt>
      <trkpt lat="42.72653" lon="3.03845">
        <ele>2</ele>
        <time>2018-08-31T11:20:06+02:00</time>
      </trkpt>
      <trkpt lat="42.72637" lon="3.03867">
        <ele>2</ele>
        <time>2018-08-31T11:20:10+02:00</time>
      </trkpt>
      <trkpt lat="42.72614" lon="3.03886">
        <ele>2</ele>
        <time>2018-08-31T11:20:15+02:00</time>
      </trkpt>
      <trkpt lat="42.72585" lon="3.0389">
        <ele>2</ele>
        <time>2018-08-31T11:20:20+02:00</time>
      </trkpt>
      <trkpt lat="42.72554" lon="3.03899">
        <ele>2</ele>
        <time>2018-08-31T11:20:26+02:00</time>
      </trkpt>
      <trkpt lat="42.72531" lon="3.03895">
        <ele>2</ele>
        <time>2018-08-31T11:20:30+02:00</time>
      </trkpt>
      <trkpt lat="42.72506" lon="3.03898">
        <ele>2</ele>
        <time>2018-08-31T11:20:35+02:00</time>
      </trkpt>
      <trkpt lat="42.72483" lon="3.03879">
        <ele>2</ele>
        <time>2018-08-31T11:20:42+02:00</time>
      </trkpt>
      <trkpt lat="42.72479" lon="3.03847">
        <ele>2</ele>
        <time>2018-08-31T11:20:48+02:00</time>
      </trkpt>
      <trkpt lat="42.7248" lon="3.03813">
        <ele>2</ele>
        <time>2018-08-31T11:20:54+02:00</time>
      </trkpt>
      <trkpt lat="42.72483" lon="3.0378">
        <ele>2</ele>
        <time>2018-08-31T11:21:00+02:00</time>
      </trkpt>
      <trkpt lat="42.72482" lon="3.03746">
        <ele>2</ele>
        <time>2018-08-31T11:21:06+02:00</time>
      </trkpt>
      <trkpt lat="42.72479" lon="3.03712">
        <ele>2</ele>
        <time>2018-08-31T11:21:12+02:00</time>
      </trkpt>
      <trkpt lat="42.72478" lon="3.03675">
        <ele>1</ele>
        <time>2018-08-31T11:21:18+02:00</time>
      </trkpt>
      <trkpt lat="42.7248" lon="3.03641">
        <ele>1</ele>
        <time>2018-08-31T11:21:23+02:00</time>
      </trkpt>
      <trkpt lat="42.72488" lon="3.03613">
        <ele>1</ele>
        <time>2018-08-31T11:21:28+02:00</time>
      </trkpt>
      <trkpt lat="42.72474" lon="3.03586">
        <ele>1</ele>
        <time>2018-08-31T11:21:36+02:00</time>
      </trkpt>
      <trkpt lat="42.72452" lon="3.03577">
        <ele>1</ele>
        <time>2018-08-31T11:21:47+02:00</time>
      </trkpt>
      <trkpt lat="42.72448" lon="3.03545">
        <ele>1</ele>
        <time>2018-08-31T11:22:00+02:00</time>
      </trkpt>
      <trkpt lat="42.72442" lon="3.03516">
        <ele>1</ele>
        <time>2018-08-31T11:22:06+02:00</time>
      </trkpt>
      <trkpt lat="42.72426" lon="3.03488">
        <ele>1</ele>
        <time>2018-08-31T11:22:13+02:00</time>
      </trkpt>
      <trkpt lat="42.72408" lon="3.03467">
        <ele>1</ele>
        <time>2018-08-31T11:23:23+02:00</time>
      </trkpt>
      <trkpt lat="42.72386" lon="3.03475">
        <ele>1</ele>
        <time>2018-08-31T11:23:36+02:00</time>
      </trkpt>
      <trkpt lat="42.72362" lon="3.03481">
        <ele>1</ele>
        <time>2018-08-31T11:23:42+02:00</time>
      </trkpt>
      <trkpt lat="42.72339" lon="3.03485">
        <ele>1</ele>
        <time>2018-08-31T11:23:47+02:00</time>
      </trkpt>
      <trkpt lat="42.72315" lon="3.03487">
        <ele>1</ele>
        <time>2018-08-31T11:23:53+02:00</time>
      </trkpt>
      <trkpt lat="42.72292" lon="3.03475">
        <ele>1</ele>
        <time>2018-08-31T11:23:59+02:00</time>
      </trkpt>
      <trkpt lat="42.72264" lon="3.03462">
        <ele>1</ele>
        <time>2018-08-31T11:24:06+02:00</time>
      </trkpt>
      <trkpt lat="42.7224" lon="3.03453">
        <ele>1</ele>
        <time>2018-08-31T11:24:12+02:00</time>
      </trkpt>
      <trkpt lat="42.72221" lon="3.03434">
        <ele>1</ele>
        <time>2018-08-31T11:24:17+02:00</time>
      </trkpt>
      <trkpt lat="42.72224" lon="3.03403">
        <ele>1</ele>
        <time>2018-08-31T11:24:22+02:00</time>
      </trkpt>
      <trkpt lat="42.72226" lon="3.03372">
        <ele>1</ele>
        <time>2018-08-31T11:24:30+02:00</time>
      </trkpt>
      <trkpt lat="42.72234" lon="3.03344">
        <ele>1</ele>
        <time>2018-08-31T11:31:40+02:00</time>
      </trkpt>
      <trkpt lat="42.72241" lon="3.03315">
        <ele>1</ele>
        <time>2018-08-31T11:31:46+02:00</time>
      </trkpt>
      <trkpt lat="42.72253" lon="3.03286">
        <ele>1</ele>
        <time>2018-08-31T11:31:52+02:00</time>
      </trkpt>
      <trkpt lat="42.72261" lon="3.03253">
        <ele>1</ele>
        <time>2018-08-31T11:31:58+02:00</time>
      </trkpt>
      <trkpt lat="42.72268" lon="3.03219">
        <ele>1</ele>
        <time>2018-08-31T11:32:04+02:00</time>
      </trkpt>
      <trkpt lat="42.72276" lon="3.03187">
        <ele>1</ele>
        <time>2018-08-31T11:32:10+02:00</time>
      </trkpt>
      <trkpt lat="42.72282" lon="3.03155">
        <ele>1</ele>
        <time>2018-08-31T11:32:16+02:00</time>
      </trkpt>
      <trkpt lat="42.72292" lon="3.03126">
        <ele>1</ele>
        <time>2018-08-31T11:32:21+02:00</time>
      </trkpt>
      <trkpt lat="42.723" lon="3.03092">
        <ele>2</ele>
        <time>2018-08-31T11:32:27+02:00</time>
      </trkpt>
      <trkpt lat="42.72306" lon="3.03058">
        <ele>2</ele>
        <time>2018-08-31T11:32:33+02:00</time>
      </trkpt>
      <trkpt lat="42.72315" lon="3.03027">
        <ele>2</ele>
        <time>2018-08-31T11:32:39+02:00</time>
      </trkpt>
      <trkpt lat="42.72288" lon="3.03025">
        <ele>2</ele>
        <time>2018-08-31T11:32:47+02:00</time>
      </trkpt>
      <trkpt lat="42.72263" lon="3.03027">
        <ele>2</ele>
        <time>2018-08-31T11:32:52+02:00</time>
      </trkpt>
      <trkpt lat="42.72237" lon="3.03026">
        <ele>2</ele>
        <time>2018-08-31T11:32:57+02:00</time>
      </trkpt>
      <trkpt lat="42.72214" lon="3.03026">
        <ele>2</ele>
        <time>2018-08-31T11:33:01+02:00</time>
      </trkpt>
      <trkpt lat="42.72186" lon="3.03022">
        <ele>2</ele>
        <time>2018-08-31T11:33:06+02:00</time>
      </trkpt>
      <trkpt lat="42.72163" lon="3.03019">
        <ele>2</ele>
        <time>2018-08-31T11:33:11+02:00</time>
      </trkpt>
      <trkpt lat="42.72137" lon="3.03015">
        <ele>2</ele>
        <time>2018-08-31T11:33:16+02:00</time>
      </trkpt>
      <trkpt lat="42.72113" lon="3.0301">
        <ele>2</ele>
        <time>2018-08-31T11:33:21+02:00</time>
      </trkpt>
      <trkpt lat="42.72089" lon="3.03004">
        <ele>2</ele>
        <time>2018-08-31T11:33:26+02:00</time>
      </trkpt>
      <trkpt lat="42.72066" lon="3.03001">
        <ele>2</ele>
        <time>2018-08-31T11:33:31+02:00</time>
      </trkpt>
      <trkpt lat="42.72042" lon="3.03015">
        <ele>2</ele>
        <time>2018-08-31T11:33:36+02:00</time>
      </trkpt>
      <trkpt lat="42.72019" lon="3.03023">
        <ele>2</ele>
        <time>2018-08-31T11:33:42+02:00</time>
      </trkpt>
      <trkpt lat="42.71995" lon="3.03019">
        <ele>2</ele>
        <time>2018-08-31T11:33:48+02:00</time>
      </trkpt>
      <trkpt lat="42.71972" lon="3.0302">
        <ele>2</ele>
        <time>2018-08-31T11:33:52+02:00</time>
      </trkpt>
      <trkpt lat="42.71948" lon="3.03017">
        <ele>2</ele>
        <time>2018-08-31T11:33:58+02:00</time>
      </trkpt>
      <trkpt lat="42.71922" lon="3.03018">
        <ele>2</ele>
        <time>2018-08-31T11:34:03+02:00</time>
      </trkpt>
      <trkpt lat="42.71896" lon="3.03019">
        <ele>2</ele>
        <time>2018-08-31T11:34:10+02:00</time>
      </trkpt>
      <trkpt lat="42.71872" lon="3.0302">
        <ele>2</ele>
        <time>2018-08-31T11:34:15+02:00</time>
      </trkpt>
      <trkpt lat="42.71848" lon="3.03018">
        <ele>2</ele>
        <time>2018-08-31T11:34:20+02:00</time>
      </trkpt>
      <trkpt lat="42.71826" lon="3.03011">
        <ele>2</ele>
        <time>2018-08-31T11:34:24+02:00</time>
      </trkpt>
      <trkpt lat="42.71799" lon="3.03005">
        <ele>2</ele>
        <time>2018-08-31T11:34:29+02:00</time>
      </trkpt>
      <trkpt lat="42.71772" lon="3.02997">
        <ele>2</ele>
        <time>2018-08-31T11:34:34+02:00</time>
      </trkpt>
      <trkpt lat="42.71752" lon="3.02974">
        <ele>2</ele>
        <time>2018-08-31T11:34:39+02:00</time>
      </trkpt>
      <trkpt lat="42.71744" lon="3.02945">
        <ele>2</ele>
        <time>2018-08-31T11:34:43+02:00</time>
      </trkpt>
      <trkpt lat="42.71744" lon="3.02908">
        <ele>2</ele>
        <time>2018-08-31T11:34:48+02:00</time>
      </trkpt>
      <trkpt lat="42.71737" lon="3.02876">
        <ele>3</ele>
        <time>2018-08-31T11:34:54+02:00</time>
      </trkpt>
      <trkpt lat="42.71715" lon="3.02863">
        <ele>3</ele>
        <time>2018-08-31T11:34:59+02:00</time>
      </trkpt>
      <trkpt lat="42.7169" lon="3.02849">
        <ele>3</ele>
        <time>2018-08-31T11:35:04+02:00</time>
      </trkpt>
      <trkpt lat="42.71666" lon="3.02834">
        <ele>3</ele>
        <time>2018-08-31T11:35:09+02:00</time>
      </trkpt>
      <trkpt lat="42.71643" lon="3.02818">
        <ele>3</ele>
        <time>2018-08-31T11:35:14+02:00</time>
      </trkpt>
      <trkpt lat="42.71622" lon="3.02801">
        <ele>3</ele>
        <time>2018-08-31T11:35:19+02:00</time>
      </trkpt>
      <trkpt lat="42.71597" lon="3.02792">
        <ele>3</ele>
        <time>2018-08-31T11:35:26+02:00</time>
      </trkpt>
      <trkpt lat="42.71575" lon="3.0278">
        <ele>3</ele>
        <time>2018-08-31T11:35:32+02:00</time>
      </trkpt>
      <trkpt lat="42.71552" lon="3.0276">
        <ele>3</ele>
        <time>2018-08-31T11:35:37+02:00</time>
      </trkpt>
      <trkpt lat="42.71532" lon="3.02745">
        <ele>3</ele>
        <time>2018-08-31T11:35:41+02:00</time>
      </trkpt>
      <trkpt lat="42.71509" lon="3.02728">
        <ele>3</ele>
        <time>2018-08-31T11:35:45+02:00</time>
      </trkpt>
      <trkpt lat="42.71485" lon="3.02711">
        <ele>3</ele>
        <time>2018-08-31T11:35:49+02:00</time>
      </trkpt>
      <trkpt lat="42.71462" lon="3.02694">
        <ele>3</ele>
        <time>2018-08-31T11:35:53+02:00</time>
      </trkpt>
      <trkpt lat="42.71439" lon="3.02678">
        <ele>3</ele>
        <time>2018-08-31T11:35:57+02:00</time>
      </trkpt>
      <trkpt lat="42.71421" lon="3.02658">
        <ele>3</ele>
        <time>2018-08-31T11:36:01+02:00</time>
      </trkpt>
      <trkpt lat="42.71402" lon="3.02639">
        <ele>4</ele>
        <time>2018-08-31T11:36:05+02:00</time>
      </trkpt>
      <trkpt lat="42.71384" lon="3.02615">
        <ele>4</ele>
        <time>2018-08-31T11:36:09+02:00</time>
      </trkpt>
      <trkpt lat="42.71364" lon="3.02597">
        <ele>4</ele>
        <time>2018-08-31T11:36:13+02:00</time>
      </trkpt>
      <trkpt lat="42.71343" lon="3.02576">
        <ele>4</ele>
        <time>2018-08-31T11:36:17+02:00</time>
      </trkpt>
      <trkpt lat="42.71317" lon="3.0255">
        <ele>4</ele>
        <time>2018-08-31T11:36:22+02:00</time>
      </trkpt>
      <trkpt lat="42.71292" lon="3.02532">
        <ele>4</ele>
        <time>2018-08-31T11:36:26+02:00</time>
      </trkpt>
      <trkpt lat="42.71268" lon="3.02512">
        <ele>4</ele>
        <time>2018-08-31T11:36:31+02:00</time>
      </trkpt>
      <trkpt lat="42.71247" lon="3.0249">
        <ele>4</ele>
        <time>2018-08-31T11:36:35+02:00</time>
      </trkpt>
      <trkpt lat="42.71224" lon="3.02474">
        <ele>4</ele>
        <time>2018-08-31T11:36:39+02:00</time>
      </trkpt>
      <trkpt lat="42.71204" lon="3.02455">
        <ele>4</ele>
        <time>2018-08-31T11:36:43+02:00</time>
      </trkpt>
      <trkpt lat="42.71183" lon="3.02436">
        <ele>4</ele>
        <time>2018-08-31T11:36:47+02:00</time>
      </trkpt>
      <trkpt lat="42.71162" lon="3.02417">
        <ele>4</ele>
        <time>2018-08-31T11:36:51+02:00</time>
      </trkpt>
      <trkpt lat="42.7114" lon="3.02401">
        <ele>5</ele>
        <time>2018-08-31T11:36:56+02:00</time>
      </trkpt>
      <trkpt lat="42.71128" lon="3.02375">
        <ele>3</ele>
        <time>2018-08-31T11:37:01+02:00</time>
      </trkpt>
      <trkpt lat="42.71141" lon="3.02346">
        <ele>3</ele>
        <time>2018-08-31T11:37:05+02:00</time>
      </trkpt>
      <trkpt lat="42.71154" lon="3.0232">
        <ele>3</ele>
        <time>2018-08-31T11:37:09+02:00</time>
      </trkpt>
      <trkpt lat="42.71176" lon="3.02301">
        <ele>4</ele>
        <time>2018-08-31T11:37:16+02:00</time>
      </trkpt>
      <trkpt lat="42.71197" lon="3.02315">
        <ele>5</ele>
        <time>2018-08-31T11:37:21+02:00</time>
      </trkpt>
      <trkpt lat="42.71182" lon="3.02345">
        <ele>4</ele>
        <time>2018-08-31T11:37:26+02:00</time>
      </trkpt>
      <trkpt lat="42.71193" lon="3.02372">
        <ele>4</ele>
        <time>2018-08-31T11:37:30+02:00</time>
      </trkpt>
      <trkpt lat="42.71216" lon="3.02393">
        <ele>4</ele>
        <time>2018-08-31T11:37:35+02:00</time>
      </trkpt>
      <trkpt lat="42.71193" lon="3.02386">
        <ele>4</ele>
        <time>2018-08-31T11:37:50+02:00</time>
      </trkpt>
      <trkpt lat="42.7117" lon="3.0237">
        <ele>5</ele>
        <time>2018-08-31T11:37:59+02:00</time>
      </trkpt>
      <trkpt lat="42.7115" lon="3.02352">
        <ele>4</ele>
        <time>2018-08-31T11:38:06+02:00</time>
      </trkpt>
      <trkpt lat="42.71129" lon="3.02332">
        <ele>2</ele>
        <time>2018-08-31T11:38:12+02:00</time>
      </trkpt>
      <trkpt lat="42.71108" lon="3.02311">
        <ele>1</ele>
        <time>2018-08-31T11:38:42+02:00</time>
      </trkpt>
      <trkpt lat="42.71091" lon="3.02291">
        <ele>1</ele>
        <time>2018-08-31T11:38:48+02:00</time>
      </trkpt>
      <trkpt lat="42.7107" lon="3.02272">
        <ele>2</ele>
        <time>2018-08-31T11:38:54+02:00</time>
      </trkpt>
      <trkpt lat="42.71052" lon="3.02254">
        <ele>4</ele>
        <time>2018-08-31T11:39:00+02:00</time>
      </trkpt>
      <trkpt lat="42.7104" lon="3.02226">
        <ele>5</ele>
        <time>2018-08-31T11:39:14+02:00</time>
      </trkpt>
      <trkpt lat="42.71041" lon="3.02193">
        <ele>4</ele>
        <time>2018-08-31T11:39:19+02:00</time>
      </trkpt>
      <trkpt lat="42.71034" lon="3.02158">
        <ele>4</ele>
        <time>2018-08-31T11:39:25+02:00</time>
      </trkpt>
      <trkpt lat="42.71016" lon="3.02131">
        <ele>4</ele>
        <time>2018-08-31T11:39:30+02:00</time>
      </trkpt>
      <trkpt lat="42.70998" lon="3.02106">
        <ele>4</ele>
        <time>2018-08-31T11:39:35+02:00</time>
      </trkpt>
      <trkpt lat="42.70984" lon="3.02079">
        <ele>4</ele>
        <time>2018-08-31T11:39:40+02:00</time>
      </trkpt>
      <trkpt lat="42.70964" lon="3.02055">
        <ele>4</ele>
        <time>2018-08-31T11:39:45+02:00</time>
      </trkpt>
      <trkpt lat="42.70943" lon="3.02039">
        <ele>4</ele>
        <time>2018-08-31T11:39:50+02:00</time>
      </trkpt>
      <trkpt lat="42.70934" lon="3.02011">
        <ele>4</ele>
        <time>2018-08-31T11:39:55+02:00</time>
      </trkpt>
      <trkpt lat="42.70924" lon="3.01983">
        <ele>4</ele>
        <time>2018-08-31T11:39:59+02:00</time>
      </trkpt>
      <trkpt lat="42.70912" lon="3.01952">
        <ele>4</ele>
        <time>2018-08-31T11:40:04+02:00</time>
      </trkpt>
      <trkpt lat="42.709" lon="3.01926">
        <ele>4</ele>
        <time>2018-08-31T11:40:09+02:00</time>
      </trkpt>
      <trkpt lat="42.70882" lon="3.01904">
        <ele>4</ele>
        <time>2018-08-31T11:40:14+02:00</time>
      </trkpt>
      <trkpt lat="42.70857" lon="3.01902">
        <ele>4</ele>
        <time>2018-08-31T11:40:19+02:00</time>
      </trkpt>
      <trkpt lat="42.70826" lon="3.01906">
        <ele>4</ele>
        <time>2018-08-31T11:40:25+02:00</time>
      </trkpt>
      <trkpt lat="42.70816" lon="3.01936">
        <ele>4</ele>
        <time>2018-08-31T11:40:35+02:00</time>
      </trkpt>
      <trkpt lat="42.70818" lon="3.01968">
        <ele>4</ele>
        <time>2018-08-31T11:40:40+02:00</time>
      </trkpt>
      <trkpt lat="42.70821" lon="3.02001">
        <ele>3</ele>
        <time>2018-08-31T11:40:45+02:00</time>
      </trkpt>
      <trkpt lat="42.70799" lon="3.01989">
        <ele>4</ele>
        <time>2018-08-31T11:40:54+02:00</time>
      </trkpt>
      <trkpt lat="42.70777" lon="3.01966">
        <ele>4</ele>
        <time>2018-08-31T11:41:00+02:00</time>
      </trkpt>
      <trkpt lat="42.70757" lon="3.01947">
        <ele>4</ele>
        <time>2018-08-31T11:41:05+02:00</time>
      </trkpt>
      <trkpt lat="42.70735" lon="3.01926">
        <ele>4</ele>
        <time>2018-08-31T11:41:10+02:00</time>
      </trkpt>
      <trkpt lat="42.70714" lon="3.01905">
        <ele>4</ele>
        <time>2018-08-31T11:41:15+02:00</time>
      </trkpt>
      <trkpt lat="42.70692" lon="3.01881">
        <ele>4</ele>
        <time>2018-08-31T11:41:20+02:00</time>
      </trkpt>
      <trkpt lat="42.7067" lon="3.01856">
        <ele>4</ele>
        <time>2018-08-31T11:41:25+02:00</time>
      </trkpt>
      <trkpt lat="42.70648" lon="3.01833">
        <ele>4</ele>
        <time>2018-08-31T11:41:30+02:00</time>
      </trkpt>
      <trkpt lat="42.70626" lon="3.0181">
        <ele>4</ele>
        <time>2018-08-31T11:41:35+02:00</time>
      </trkpt>
      <trkpt lat="42.70605" lon="3.01789">
        <ele>4</ele>
        <time>2018-08-31T11:41:40+02:00</time>
      </trkpt>
      <trkpt lat="42.70582" lon="3.0177">
        <ele>4</ele>
        <time>2018-08-31T11:41:45+02:00</time>
      </trkpt>
      <trkpt lat="42.70562" lon="3.01755">
        <ele>4</ele>
        <time>2018-08-31T11:41:49+02:00</time>
      </trkpt>
      <trkpt lat="42.70541" lon="3.01737">
        <ele>4</ele>
        <time>2018-08-31T11:41:54+02:00</time>
      </trkpt>
      <trkpt lat="42.70525" lon="3.01763">
        <ele>4</ele>
        <time>2018-08-31T11:42:02+02:00</time>
      </trkpt>
      <trkpt lat="42.70507" lon="3.01783">
        <ele>4</ele>
        <time>2018-08-31T11:42:21+02:00</time>
      </trkpt>
      <trkpt lat="42.70485" lon="3.01797">
        <ele>5</ele>
        <time>2018-08-31T11:42:28+02:00</time>
      </trkpt>
      <trkpt lat="42.70467" lon="3.01777">
        <ele>6</ele>
        <time>2018-08-31T11:42:34+02:00</time>
      </trkpt>
      <trkpt lat="42.70448" lon="3.01759">
        <ele>7</ele>
        <time>2018-08-31T11:42:39+02:00</time>
      </trkpt>
      <trkpt lat="42.70429" lon="3.0174">
        <ele>8</ele>
        <time>2018-08-31T11:42:44+02:00</time>
      </trkpt>
      <trkpt lat="42.70409" lon="3.01719">
        <ele>9</ele>
        <time>2018-08-31T11:42:50+02:00</time>
      </trkpt>
      <trkpt lat="42.7039" lon="3.01701">
        <ele>9</ele>
        <time>2018-08-31T11:42:56+02:00</time>
      </trkpt>
      <trkpt lat="42.70368" lon="3.01683">
        <ele>9</ele>
        <time>2018-08-31T11:43:02+02:00</time>
      </trkpt>
      <trkpt lat="42.70345" lon="3.01675">
        <ele>8</ele>
        <time>2018-08-31T11:43:09+02:00</time>
      </trkpt>
      <trkpt lat="42.70318" lon="3.01677">
        <ele>6</ele>
        <time>2018-08-31T11:43:14+02:00</time>
      </trkpt>
      <trkpt lat="42.70295" lon="3.01685">
        <ele>5</ele>
        <time>2018-08-31T11:43:18+02:00</time>
      </trkpt>
      <trkpt lat="42.70278" lon="3.01712">
        <ele>6</ele>
        <time>2018-08-31T11:43:22+02:00</time>
      </trkpt>
      <trkpt lat="42.70262" lon="3.01741">
        <ele>5</ele>
        <time>2018-08-31T11:43:26+02:00</time>
      </trkpt>
      <trkpt lat="42.70235" lon="3.01756">
        <ele>4</ele>
        <time>2018-08-31T11:43:31+02:00</time>
      </trkpt>
      <trkpt lat="42.7022" lon="3.01779">
        <ele>4</ele>
        <time>2018-08-31T11:43:35+02:00</time>
      </trkpt>
      <trkpt lat="42.70201" lon="3.01759">
        <ele>4</ele>
        <time>2018-08-31T11:43:43+02:00</time>
      </trkpt>
      <trkpt lat="42.70181" lon="3.01733">
        <ele>4</ele>
        <time>2018-08-31T11:43:50+02:00</time>
      </trkpt>
      <trkpt lat="42.70159" lon="3.01741">
        <ele>3</ele>
        <time>2018-08-31T11:44:01+02:00</time>
      </trkpt>
      <trkpt lat="42.70138" lon="3.01762">
        <ele>3</ele>
        <time>2018-08-31T11:44:07+02:00</time>
      </trkpt>
      <trkpt lat="42.70121" lon="3.01783">
        <ele>3</ele>
        <time>2018-08-31T11:44:11+02:00</time>
      </trkpt>
      <trkpt lat="42.70099" lon="3.0181">
        <ele>2</ele>
        <time>2018-08-31T11:44:16+02:00</time>
      </trkpt>
      <trkpt lat="42.70074" lon="3.0183">
        <ele>2</ele>
        <time>2018-08-31T11:44:20+02:00</time>
      </trkpt>
      <trkpt lat="42.70052" lon="3.01853">
        <ele>2</ele>
        <time>2018-08-31T11:44:24+02:00</time>
      </trkpt>
      <trkpt lat="42.7003" lon="3.01879">
        <ele>2</ele>
        <time>2018-08-31T11:44:28+02:00</time>
      </trkpt>
      <trkpt lat="42.7001" lon="3.01907">
        <ele>1</ele>
        <time>2018-08-31T11:44:32+02:00</time>
      </trkpt>
      <trkpt lat="42.6999" lon="3.01935">
        <ele>1</ele>
        <time>2018-08-31T11:44:36+02:00</time>
      </trkpt>
      <trkpt lat="42.6997" lon="3.01963">
        <ele>1</ele>
        <time>2018-08-31T11:44:40+02:00</time>
      </trkpt>
      <trkpt lat="42.69952" lon="3.01994">
        <ele>1</ele>
        <time>2018-08-31T11:44:44+02:00</time>
      </trkpt>
      <trkpt lat="42.69938" lon="3.02026">
        <ele>1</ele>
        <time>2018-08-31T11:44:48+02:00</time>
      </trkpt>
      <trkpt lat="42.69922" lon="3.02058">
        <ele>1</ele>
        <time>2018-08-31T11:44:52+02:00</time>
      </trkpt>
      <trkpt lat="42.69911" lon="3.02085">
        <ele>1</ele>
        <time>2018-08-31T11:44:55+02:00</time>
      </trkpt>
      <trkpt lat="42.69895" lon="3.02119">
        <ele>1</ele>
        <time>2018-08-31T11:44:59+02:00</time>
      </trkpt>
      <trkpt lat="42.69883" lon="3.02145">
        <ele>1</ele>
        <time>2018-08-31T11:45:02+02:00</time>
      </trkpt>
      <trkpt lat="42.69868" lon="3.02178">
        <ele>1</ele>
        <time>2018-08-31T11:45:06+02:00</time>
      </trkpt>
      <trkpt lat="42.69853" lon="3.02212">
        <ele>1</ele>
        <time>2018-08-31T11:45:10+02:00</time>
      </trkpt>
      <trkpt lat="42.69841" lon="3.02238">
        <ele>1</ele>
        <time>2018-08-31T11:45:13+02:00</time>
      </trkpt>
      <trkpt lat="42.69823" lon="3.02268">
        <ele>1</ele>
        <time>2018-08-31T11:45:17+02:00</time>
      </trkpt>
      <trkpt lat="42.69805" lon="3.023">
        <ele>1</ele>
        <time>2018-08-31T11:45:21+02:00</time>
      </trkpt>
      <trkpt lat="42.69789" lon="3.02326">
        <ele>1</ele>
        <time>2018-08-31T11:45:25+02:00</time>
      </trkpt>
      <trkpt lat="42.69793" lon="3.02357">
        <ele>2</ele>
        <time>2018-08-31T11:45:39+02:00</time>
      </trkpt>
      <trkpt lat="42.69811" lon="3.02379">
        <ele>2</ele>
        <time>2018-08-31T11:45:50+02:00</time>
      </trkpt>
      <trkpt lat="42.69818" lon="3.02411">
        <ele>2</ele>
        <time>2018-08-31T11:45:58+02:00</time>
      </trkpt>
      <trkpt lat="42.69815" lon="3.02442">
        <ele>2</ele>
        <time>2018-08-31T11:46:04+02:00</time>
      </trkpt>
      <trkpt lat="42.69812" lon="3.02478">
        <ele>2</ele>
        <time>2018-08-31T11:46:10+02:00</time>
      </trkpt>
      <trkpt lat="42.6981" lon="3.02509">
        <ele>2</ele>
        <time>2018-08-31T11:46:14+02:00</time>
      </trkpt>
      <trkpt lat="42.69807" lon="3.02539">
        <ele>2</ele>
        <time>2018-08-31T11:46:19+02:00</time>
      </trkpt>
      <trkpt lat="42.69806" lon="3.0257">
        <ele>2</ele>
        <time>2018-08-31T11:46:23+02:00</time>
      </trkpt>
      <trkpt lat="42.69803" lon="3.02605">
        <ele>2</ele>
        <time>2018-08-31T11:46:28+02:00</time>
      </trkpt>
      <trkpt lat="42.69809" lon="3.02635">
        <ele>2</ele>
        <time>2018-08-31T11:46:37+02:00</time>
      </trkpt>
      <trkpt lat="42.69806" lon="3.02671">
        <ele>2</ele>
        <time>2018-08-31T11:46:43+02:00</time>
      </trkpt>
      <trkpt lat="42.69803" lon="3.02706">
        <ele>2</ele>
        <time>2018-08-31T11:46:48+02:00</time>
      </trkpt>
      <trkpt lat="42.69798" lon="3.02742">
        <ele>2</ele>
        <time>2018-08-31T11:46:53+02:00</time>
      </trkpt>
      <trkpt lat="42.69795" lon="3.02779">
        <ele>2</ele>
        <time>2018-08-31T11:46:58+02:00</time>
      </trkpt>
      <trkpt lat="42.69791" lon="3.02815">
        <ele>2</ele>
        <time>2018-08-31T11:47:03+02:00</time>
      </trkpt>
      <trkpt lat="42.69788" lon="3.02845">
        <ele>2</ele>
        <time>2018-08-31T11:47:07+02:00</time>
      </trkpt>
      <trkpt lat="42.69779" lon="3.02875">
        <ele>2</ele>
        <time>2018-08-31T11:47:11+02:00</time>
      </trkpt>
      <trkpt lat="42.69762" lon="3.02899">
        <ele>2</ele>
        <time>2018-08-31T11:47:15+02:00</time>
      </trkpt>
      <trkpt lat="42.69743" lon="3.02929">
        <ele>2</ele>
        <time>2018-08-31T11:47:20+02:00</time>
      </trkpt>
      <trkpt lat="42.69726" lon="3.0295">
        <ele>2</ele>
        <time>2018-08-31T11:47:24+02:00</time>
      </trkpt>
      <trkpt lat="42.69704" lon="3.02969">
        <ele>2</ele>
        <time>2018-08-31T11:47:29+02:00</time>
      </trkpt>
      <trkpt lat="42.69698" lon="3.03001">
        <ele>2</ele>
        <time>2018-08-31T11:47:33+02:00</time>
      </trkpt>
      <trkpt lat="42.69681" lon="3.03022">
        <ele>2</ele>
        <time>2018-08-31T11:47:37+02:00</time>
      </trkpt>
      <trkpt lat="42.69661" lon="3.0305">
        <ele>2</ele>
        <time>2018-08-31T11:47:42+02:00</time>
      </trkpt>
      <trkpt lat="42.69642" lon="3.03072">
        <ele>2</ele>
        <time>2018-08-31T11:47:46+02:00</time>
      </trkpt>
      <trkpt lat="42.69626" lon="3.03098">
        <ele>2</ele>
        <time>2018-08-31T11:47:50+02:00</time>
      </trkpt>
      <trkpt lat="42.69608" lon="3.03118">
        <ele>2</ele>
        <time>2018-08-31T11:47:54+02:00</time>
      </trkpt>
      <trkpt lat="42.69596" lon="3.03144">
        <ele>2</ele>
        <time>2018-08-31T11:47:57+02:00</time>
      </trkpt>
      <trkpt lat="42.69579" lon="3.03168">
        <ele>2</ele>
        <time>2018-08-31T11:48:01+02:00</time>
      </trkpt>
      <trkpt lat="42.69563" lon="3.03189">
        <ele>2</ele>
        <time>2018-08-31T11:48:05+02:00</time>
      </trkpt>
      <trkpt lat="42.69546" lon="3.03214">
        <ele>2</ele>
        <time>2018-08-31T11:48:09+02:00</time>
      </trkpt>
      <trkpt lat="42.69527" lon="3.03246">
        <ele>2</ele>
        <time>2018-08-31T11:48:14+02:00</time>
      </trkpt>
      <trkpt lat="42.69514" lon="3.03271">
        <ele>2</ele>
        <time>2018-08-31T11:48:19+02:00</time>
      </trkpt>
      <trkpt lat="42.69488" lon="3.03271">
        <ele>2</ele>
        <time>2018-08-31T11:48:25+02:00</time>
      </trkpt>
      <trkpt lat="42.69465" lon="3.03267">
        <ele>2</ele>
        <time>2018-08-31T11:48:29+02:00</time>
      </trkpt>
      <trkpt lat="42.69438" lon="3.03264">
        <ele>2</ele>
        <time>2018-08-31T11:48:35+02:00</time>
      </trkpt>
      <trkpt lat="42.69415" lon="3.0326">
        <ele>2</ele>
        <time>2018-08-31T11:48:39+02:00</time>
      </trkpt>
      <trkpt lat="42.6939" lon="3.03255">
        <ele>2</ele>
        <time>2018-08-31T11:48:43+02:00</time>
      </trkpt>
      <trkpt lat="42.69366" lon="3.0325">
        <ele>2</ele>
        <time>2018-08-31T11:48:47+02:00</time>
      </trkpt>
      <trkpt lat="42.69342" lon="3.03246">
        <ele>2</ele>
        <time>2018-08-31T11:48:51+02:00</time>
      </trkpt>
      <trkpt lat="42.69316" lon="3.0324">
        <ele>2</ele>
        <time>2018-08-31T11:48:55+02:00</time>
      </trkpt>
      <trkpt lat="42.69291" lon="3.03237">
        <ele>2</ele>
        <time>2018-08-31T11:48:59+02:00</time>
      </trkpt>
      <trkpt lat="42.69264" lon="3.0323">
        <ele>2</ele>
        <time>2018-08-31T11:49:04+02:00</time>
      </trkpt>
      <trkpt lat="42.69239" lon="3.03227">
        <ele>2</ele>
        <time>2018-08-31T11:49:08+02:00</time>
      </trkpt>
      <trkpt lat="42.69212" lon="3.03225">
        <ele>2</ele>
        <time>2018-08-31T11:49:12+02:00</time>
      </trkpt>
      <trkpt lat="42.69188" lon="3.03223">
        <ele>2</ele>
        <time>2018-08-31T11:49:16+02:00</time>
      </trkpt>
      <trkpt lat="42.69162" lon="3.03218">
        <ele>2</ele>
        <time>2018-08-31T11:49:20+02:00</time>
      </trkpt>
      <trkpt lat="42.69135" lon="3.03214">
        <ele>2</ele>
        <time>2018-08-31T11:49:24+02:00</time>
      </trkpt>
      <trkpt lat="42.69112" lon="3.03218">
        <ele>2</ele>
        <time>2018-08-31T11:49:27+02:00</time>
      </trkpt>
      <trkpt lat="42.69088" lon="3.03229">
        <ele>2</ele>
        <time>2018-08-31T11:49:32+02:00</time>
      </trkpt>
      <trkpt lat="42.69065" lon="3.03215">
        <ele>2</ele>
        <time>2018-08-31T11:49:43+02:00</time>
      </trkpt>
      <trkpt lat="42.69041" lon="3.03205">
        <ele>2</ele>
        <time>2018-08-31T11:49:49+02:00</time>
      </trkpt>
      <trkpt lat="42.69016" lon="3.03202">
        <ele>2</ele>
        <time>2018-08-31T11:49:53+02:00</time>
      </trkpt>
      <trkpt lat="42.68988" lon="3.03197">
        <ele>2</ele>
        <time>2018-08-31T11:49:57+02:00</time>
      </trkpt>
      <trkpt lat="42.68962" lon="3.03194">
        <ele>2</ele>
        <time>2018-08-31T11:50:01+02:00</time>
      </trkpt>
      <trkpt lat="42.68934" lon="3.0319">
        <ele>2</ele>
        <time>2018-08-31T11:50:06+02:00</time>
      </trkpt>
      <trkpt lat="42.6891" lon="3.03186">
        <ele>2</ele>
        <time>2018-08-31T11:50:10+02:00</time>
      </trkpt>
      <trkpt lat="42.6888" lon="3.03182">
        <ele>2</ele>
        <time>2018-08-31T11:50:14+02:00</time>
      </trkpt>
      <trkpt lat="42.68856" lon="3.03178">
        <ele>2</ele>
        <time>2018-08-31T11:50:18+02:00</time>
      </trkpt>
      <trkpt lat="42.68831" lon="3.03164">
        <ele>2</ele>
        <time>2018-08-31T11:50:22+02:00</time>
      </trkpt>
      <trkpt lat="42.68807" lon="3.03159">
        <ele>2</ele>
        <time>2018-08-31T11:50:26+02:00</time>
      </trkpt>
      <trkpt lat="42.68786" lon="3.03173">
        <ele>2</ele>
        <time>2018-08-31T11:50:30+02:00</time>
      </trkpt>
      <trkpt lat="42.6876" lon="3.0317">
        <ele>2</ele>
        <time>2018-08-31T11:50:34+02:00</time>
      </trkpt>
      <trkpt lat="42.68733" lon="3.03164">
        <ele>2</ele>
        <time>2018-08-31T11:50:38+02:00</time>
      </trkpt>
      <trkpt lat="42.68703" lon="3.03161">
        <ele>2</ele>
        <time>2018-08-31T11:50:42+02:00</time>
      </trkpt>
      <trkpt lat="42.68677" lon="3.03156">
        <ele>2</ele>
        <time>2018-08-31T11:50:46+02:00</time>
      </trkpt>
      <trkpt lat="42.68653" lon="3.03153">
        <ele>2</ele>
        <time>2018-08-31T11:50:50+02:00</time>
      </trkpt>
      <trkpt lat="42.68629" lon="3.03149">
        <ele>2</ele>
        <time>2018-08-31T11:50:54+02:00</time>
      </trkpt>
      <trkpt lat="42.68605" lon="3.03146">
        <ele>2</ele>
        <time>2018-08-31T11:50:58+02:00</time>
      </trkpt>
      <trkpt lat="42.6858" lon="3.0314">
        <ele>2</ele>
        <time>2018-08-31T11:51:02+02:00</time>
      </trkpt>
      <trkpt lat="42.68555" lon="3.03134">
        <ele>2</ele>
        <time>2018-08-31T11:51:06+02:00</time>
      </trkpt>
      <trkpt lat="42.6853" lon="3.03128">
        <ele>2</ele>
        <time>2018-08-31T11:51:10+02:00</time>
      </trkpt>
      <trkpt lat="42.68503" lon="3.03124">
        <ele>2</ele>
        <time>2018-08-31T11:51:15+02:00</time>
      </trkpt>
      <trkpt lat="42.68474" lon="3.03119">
        <ele>2</ele>
        <time>2018-08-31T11:51:19+02:00</time>
      </trkpt>
      <trkpt lat="42.6845" lon="3.03114">
        <ele>2</ele>
        <time>2018-08-31T11:51:23+02:00</time>
      </trkpt>
      <trkpt lat="42.68425" lon="3.0311">
        <ele>2</ele>
        <time>2018-08-31T11:51:26+02:00</time>
      </trkpt>
      <trkpt lat="42.68398" lon="3.03105">
        <ele>2</ele>
        <time>2018-08-31T11:51:30+02:00</time>
      </trkpt>
      <trkpt lat="42.68372" lon="3.031">
        <ele>2</ele>
        <time>2018-08-31T11:51:34+02:00</time>
      </trkpt>
      <trkpt lat="42.68345" lon="3.03094">
        <ele>2</ele>
        <time>2018-08-31T11:51:38+02:00</time>
      </trkpt>
      <trkpt lat="42.6832" lon="3.03089">
        <ele>2</ele>
        <time>2018-08-31T11:51:42+02:00</time>
      </trkpt>
      <trkpt lat="42.68296" lon="3.03086">
        <ele>2</ele>
        <time>2018-08-31T11:51:46+02:00</time>
      </trkpt>
      <trkpt lat="42.68268" lon="3.03087">
        <ele>2</ele>
        <time>2018-08-31T11:51:50+02:00</time>
      </trkpt>
      <trkpt lat="42.68242" lon="3.03089">
        <ele>2</ele>
        <time>2018-08-31T11:51:54+02:00</time>
      </trkpt>
      <trkpt lat="42.6822" lon="3.03098">
        <ele>2</ele>
        <time>2018-08-31T11:51:58+02:00</time>
      </trkpt>
      <trkpt lat="42.68195" lon="3.03111">
        <ele>2</ele>
        <time>2018-08-31T11:52:02+02:00</time>
      </trkpt>
      <trkpt lat="42.68171" lon="3.03127">
        <ele>2</ele>
        <time>2018-08-31T11:52:06+02:00</time>
      </trkpt>
      <trkpt lat="42.6815" lon="3.03143">
        <ele>2</ele>
        <time>2018-08-31T11:52:10+02:00</time>
      </trkpt>
      <trkpt lat="42.68127" lon="3.03167">
        <ele>2</ele>
        <time>2018-08-31T11:52:14+02:00</time>
      </trkpt>
      <trkpt lat="42.6811" lon="3.03192">
        <ele>2</ele>
        <time>2018-08-31T11:52:19+02:00</time>
      </trkpt>
      <trkpt lat="42.68092" lon="3.03211">
        <ele>2</ele>
        <time>2018-08-31T11:52:23+02:00</time>
      </trkpt>
      <trkpt lat="42.6807" lon="3.03221">
        <ele>2</ele>
        <time>2018-08-31T11:52:27+02:00</time>
      </trkpt>
      <trkpt lat="42.68046" lon="3.03221">
        <ele>2</ele>
        <time>2018-08-31T11:52:31+02:00</time>
      </trkpt>
      <trkpt lat="42.68023" lon="3.03215">
        <ele>2</ele>
        <time>2018-08-31T11:52:35+02:00</time>
      </trkpt>
      <trkpt lat="42.67998" lon="3.03206">
        <ele>3</ele>
        <time>2018-08-31T11:52:39+02:00</time>
      </trkpt>
      <trkpt lat="42.67977" lon="3.03191">
        <ele>3</ele>
        <time>2018-08-31T11:52:43+02:00</time>
      </trkpt>
      <trkpt lat="42.67952" lon="3.03176">
        <ele>3</ele>
        <time>2018-08-31T11:52:48+02:00</time>
      </trkpt>
      <trkpt lat="42.6793" lon="3.03162">
        <ele>3</ele>
        <time>2018-08-31T11:52:52+02:00</time>
      </trkpt>
      <trkpt lat="42.67906" lon="3.0315">
        <ele>3</ele>
        <time>2018-08-31T11:52:56+02:00</time>
      </trkpt>
      <trkpt lat="42.67883" lon="3.03138">
        <ele>3</ele>
        <time>2018-08-31T11:53:00+02:00</time>
      </trkpt>
      <trkpt lat="42.67859" lon="3.03126">
        <ele>3</ele>
        <time>2018-08-31T11:53:04+02:00</time>
      </trkpt>
      <trkpt lat="42.67832" lon="3.03113">
        <ele>3</ele>
        <time>2018-08-31T11:53:09+02:00</time>
      </trkpt>
      <trkpt lat="42.67808" lon="3.03102">
        <ele>3</ele>
        <time>2018-08-31T11:53:13+02:00</time>
      </trkpt>
      <trkpt lat="42.67785" lon="3.03095">
        <ele>3</ele>
        <time>2018-08-31T11:53:17+02:00</time>
      </trkpt>
      <trkpt lat="42.67762" lon="3.03088">
        <ele>3</ele>
        <time>2018-08-31T11:53:22+02:00</time>
      </trkpt>
      <trkpt lat="42.67737" lon="3.03078">
        <ele>3</ele>
        <time>2018-08-31T11:53:28+02:00</time>
      </trkpt>
      <trkpt lat="42.67712" lon="3.0308">
        <ele>3</ele>
        <time>2018-08-31T11:53:32+02:00</time>
      </trkpt>
      <trkpt lat="42.67687" lon="3.03076">
        <ele>2</ele>
        <time>2018-08-31T11:53:37+02:00</time>
      </trkpt>
      <trkpt lat="42.67662" lon="3.03075">
        <ele>2</ele>
        <time>2018-08-31T11:53:43+02:00</time>
      </trkpt>
      <trkpt lat="42.67638" lon="3.03087">
        <ele>2</ele>
        <time>2018-08-31T11:53:48+02:00</time>
      </trkpt>
      <trkpt lat="42.67613" lon="3.03106">
        <ele>2</ele>
        <time>2018-08-31T11:53:53+02:00</time>
      </trkpt>
      <trkpt lat="42.6759" lon="3.03118">
        <ele>2</ele>
        <time>2018-08-31T11:53:57+02:00</time>
      </trkpt>
      <trkpt lat="42.67568" lon="3.03132">
        <ele>2</ele>
        <time>2018-08-31T11:54:01+02:00</time>
      </trkpt>
      <trkpt lat="42.67545" lon="3.03151">
        <ele>2</ele>
        <time>2018-08-31T11:54:05+02:00</time>
      </trkpt>
      <trkpt lat="42.67523" lon="3.03165">
        <ele>2</ele>
        <time>2018-08-31T11:54:13+02:00</time>
      </trkpt>
      <trkpt lat="42.67499" lon="3.0318">
        <ele>2</ele>
        <time>2018-08-31T11:54:19+02:00</time>
      </trkpt>
      <trkpt lat="42.67475" lon="3.03199">
        <ele>2</ele>
        <time>2018-08-31T11:54:24+02:00</time>
      </trkpt>
      <trkpt lat="42.67457" lon="3.03217">
        <ele>2</ele>
        <time>2018-08-31T11:54:28+02:00</time>
      </trkpt>
      <trkpt lat="42.67436" lon="3.03234">
        <ele>2</ele>
        <time>2018-08-31T11:54:32+02:00</time>
      </trkpt>
      <trkpt lat="42.67414" lon="3.03251">
        <ele>2</ele>
        <time>2018-08-31T11:54:36+02:00</time>
      </trkpt>
      <trkpt lat="42.6739" lon="3.03264">
        <ele>2</ele>
        <time>2018-08-31T11:54:40+02:00</time>
      </trkpt>
      <trkpt lat="42.67366" lon="3.03276">
        <ele>2</ele>
        <time>2018-08-31T11:54:44+02:00</time>
      </trkpt>
      <trkpt lat="42.67342" lon="3.03285">
        <ele>2</ele>
        <time>2018-08-31T11:54:48+02:00</time>
      </trkpt>
      <trkpt lat="42.67318" lon="3.03293">
        <ele>2</ele>
        <time>2018-08-31T11:54:53+02:00</time>
      </trkpt>
      <trkpt lat="42.67291" lon="3.03301">
        <ele>2</ele>
        <time>2018-08-31T11:54:58+02:00</time>
      </trkpt>
      <trkpt lat="42.67267" lon="3.03306">
        <ele>2</ele>
        <time>2018-08-31T11:55:02+02:00</time>
      </trkpt>
      <trkpt lat="42.67242" lon="3.0331">
        <ele>2</ele>
        <time>2018-08-31T11:55:06+02:00</time>
      </trkpt>
      <trkpt lat="42.67218" lon="3.03312">
        <ele>2</ele>
        <time>2018-08-31T11:55:10+02:00</time>
      </trkpt>
      <trkpt lat="42.67193" lon="3.03313">
        <ele>2</ele>
        <time>2018-08-31T11:55:15+02:00</time>
      </trkpt>
      <trkpt lat="42.67169" lon="3.03312">
        <ele>2</ele>
        <time>2018-08-31T11:55:21+02:00</time>
      </trkpt>
      <trkpt lat="42.67144" lon="3.03314">
        <ele>2</ele>
        <time>2018-08-31T11:57:24+02:00</time>
      </trkpt>
      <trkpt lat="42.67118" lon="3.03311">
        <ele>2</ele>
        <time>2018-08-31T11:57:31+02:00</time>
      </trkpt>
      <trkpt lat="42.67094" lon="3.03311">
        <ele>2</ele>
        <time>2018-08-31T11:57:37+02:00</time>
      </trkpt>
      <trkpt lat="42.67071" lon="3.0331">
        <ele>2</ele>
        <time>2018-08-31T11:57:42+02:00</time>
      </trkpt>
      <trkpt lat="42.67044" lon="3.03308">
        <ele>2</ele>
        <time>2018-08-31T11:57:48+02:00</time>
      </trkpt>
      <trkpt lat="42.67021" lon="3.03309">
        <ele>2</ele>
        <time>2018-08-31T11:57:53+02:00</time>
      </trkpt>
      <trkpt lat="42.66997" lon="3.03306">
        <ele>2</ele>
        <time>2018-08-31T11:57:58+02:00</time>
      </trkpt>
      <trkpt lat="42.6697" lon="3.03307">
        <ele>2</ele>
        <time>2018-08-31T11:58:03+02:00</time>
      </trkpt>
      <trkpt lat="42.66945" lon="3.03306">
        <ele>2</ele>
        <time>2018-08-31T11:58:08+02:00</time>
      </trkpt>
      <trkpt lat="42.6692" lon="3.03308">
        <ele>2</ele>
        <time>2018-08-31T11:58:13+02:00</time>
      </trkpt>
      <trkpt lat="42.66891" lon="3.03303">
        <ele>2</ele>
        <time>2018-08-31T11:58:18+02:00</time>
      </trkpt>
      <trkpt lat="42.66867" lon="3.03296">
        <ele>2</ele>
        <time>2018-08-31T11:58:23+02:00</time>
      </trkpt>
      <trkpt lat="42.66843" lon="3.03294">
        <ele>2</ele>
        <time>2018-08-31T11:58:27+02:00</time>
      </trkpt>
      <trkpt lat="42.66821" lon="3.03294">
        <ele>2</ele>
        <time>2018-08-31T11:58:31+02:00</time>
      </trkpt>
      <trkpt lat="42.66795" lon="3.03297">
        <ele>2</ele>
        <time>2018-08-31T11:58:35+02:00</time>
      </trkpt>
      <trkpt lat="42.66773" lon="3.03293">
        <ele>2</ele>
        <time>2018-08-31T11:58:39+02:00</time>
      </trkpt>
      <trkpt lat="42.66746" lon="3.03298">
        <ele>2</ele>
        <time>2018-08-31T11:58:44+02:00</time>
      </trkpt>
      <trkpt lat="42.66723" lon="3.03294">
        <ele>2</ele>
        <time>2018-08-31T11:58:49+02:00</time>
      </trkpt>
      <trkpt lat="42.66696" lon="3.03291">
        <ele>2</ele>
        <time>2018-08-31T11:58:53+02:00</time>
      </trkpt>
      <trkpt lat="42.66674" lon="3.03287">
        <ele>2</ele>
        <time>2018-08-31T11:58:57+02:00</time>
      </trkpt>
      <trkpt lat="42.66652" lon="3.03298">
        <ele>2</ele>
        <time>2018-08-31T11:59:01+02:00</time>
      </trkpt>
      <trkpt lat="42.66629" lon="3.03297">
        <ele>2</ele>
        <time>2018-08-31T11:59:05+02:00</time>
      </trkpt>
      <trkpt lat="42.66604" lon="3.03294">
        <ele>2</ele>
        <time>2018-08-31T11:59:09+02:00</time>
      </trkpt>
      <trkpt lat="42.66581" lon="3.03291">
        <ele>2</ele>
        <time>2018-08-31T11:59:13+02:00</time>
      </trkpt>
      <trkpt lat="42.66552" lon="3.0329">
        <ele>2</ele>
        <time>2018-08-31T11:59:18+02:00</time>
      </trkpt>
      <trkpt lat="42.66525" lon="3.03287">
        <ele>2</ele>
        <time>2018-08-31T11:59:23+02:00</time>
      </trkpt>
      <trkpt lat="42.66503" lon="3.03274">
        <ele>2</ele>
        <time>2018-08-31T11:59:27+02:00</time>
      </trkpt>
      <trkpt lat="42.6648" lon="3.03272">
        <ele>2</ele>
        <time>2018-08-31T11:59:30+02:00</time>
      </trkpt>
      <trkpt lat="42.66455" lon="3.03269">
        <ele>2</ele>
        <time>2018-08-31T11:59:34+02:00</time>
      </trkpt>
      <trkpt lat="42.66433" lon="3.03264">
        <ele>2</ele>
        <time>2018-08-31T11:59:38+02:00</time>
      </trkpt>
      <trkpt lat="42.6641" lon="3.03258">
        <ele>2</ele>
        <time>2018-08-31T11:59:42+02:00</time>
      </trkpt>
      <trkpt lat="42.66387" lon="3.03252">
        <ele>2</ele>
        <time>2018-08-31T11:59:47+02:00</time>
      </trkpt>
      <trkpt lat="42.6636" lon="3.03245">
        <ele>2</ele>
        <time>2018-08-31T11:59:52+02:00</time>
      </trkpt>
      <trkpt lat="42.66336" lon="3.0324">
        <ele>2</ele>
        <time>2018-08-31T11:59:56+02:00</time>
      </trkpt>
      <trkpt lat="42.66312" lon="3.03236">
        <ele>2</ele>
        <time>2018-08-31T12:00:00+02:00</time>
      </trkpt>
      <trkpt lat="42.66284" lon="3.03229">
        <ele>2</ele>
        <time>2018-08-31T12:00:05+02:00</time>
      </trkpt>
      <trkpt lat="42.66263" lon="3.03212">
        <ele>2</ele>
        <time>2018-08-31T12:00:09+02:00</time>
      </trkpt>
      <trkpt lat="42.66238" lon="3.03217">
        <ele>2</ele>
        <time>2018-08-31T12:00:14+02:00</time>
      </trkpt>
      <trkpt lat="42.66216" lon="3.03225">
        <ele>2</ele>
        <time>2018-08-31T12:00:18+02:00</time>
      </trkpt>
      <trkpt lat="42.66193" lon="3.03229">
        <ele>2</ele>
        <time>2018-08-31T12:00:22+02:00</time>
      </trkpt>
      <trkpt lat="42.66165" lon="3.03228">
        <ele>2</ele>
        <time>2018-08-31T12:00:27+02:00</time>
      </trkpt>
      <trkpt lat="42.66138" lon="3.03227">
        <ele>2</ele>
        <time>2018-08-31T12:00:32+02:00</time>
      </trkpt>
      <trkpt lat="42.66112" lon="3.03241">
        <ele>2</ele>
        <time>2018-08-31T12:00:36+02:00</time>
      </trkpt>
      <trkpt lat="42.66088" lon="3.0325">
        <ele>2</ele>
        <time>2018-08-31T12:00:40+02:00</time>
      </trkpt>
      <trkpt lat="42.66064" lon="3.03244">
        <ele>2</ele>
        <time>2018-08-31T12:00:44+02:00</time>
      </trkpt>
      <trkpt lat="42.66039" lon="3.03242">
        <ele>2</ele>
        <time>2018-08-31T12:00:48+02:00</time>
      </trkpt>
      <trkpt lat="42.66017" lon="3.03247">
        <ele>2</ele>
        <time>2018-08-31T12:00:52+02:00</time>
      </trkpt>
      <trkpt lat="42.6599" lon="3.03251">
        <ele>2</ele>
        <time>2018-08-31T12:00:56+02:00</time>
      </trkpt>
      <trkpt lat="42.65964" lon="3.03257">
        <ele>2</ele>
        <time>2018-08-31T12:01:01+02:00</time>
      </trkpt>
      <trkpt lat="42.65941" lon="3.03247">
        <ele>2</ele>
        <time>2018-08-31T12:01:06+02:00</time>
      </trkpt>
      <trkpt lat="42.65918" lon="3.03261">
        <ele>2</ele>
        <time>2018-08-31T12:01:11+02:00</time>
      </trkpt>
      <trkpt lat="42.65891" lon="3.03272">
        <ele>2</ele>
        <time>2018-08-31T12:01:16+02:00</time>
      </trkpt>
      <trkpt lat="42.65867" lon="3.03269">
        <ele>2</ele>
        <time>2018-08-31T12:01:20+02:00</time>
      </trkpt>
      <trkpt lat="42.65843" lon="3.03268">
        <ele>2</ele>
        <time>2018-08-31T12:01:24+02:00</time>
      </trkpt>
      <trkpt lat="42.65819" lon="3.03262">
        <ele>2</ele>
        <time>2018-08-31T12:01:28+02:00</time>
      </trkpt>
      <trkpt lat="42.6579" lon="3.03273">
        <ele>2</ele>
        <time>2018-08-31T12:01:33+02:00</time>
      </trkpt>
      <trkpt lat="42.65765" lon="3.03279">
        <ele>2</ele>
        <time>2018-08-31T12:01:37+02:00</time>
      </trkpt>
      <trkpt lat="42.65739" lon="3.03271">
        <ele>2</ele>
        <time>2018-08-31T12:01:42+02:00</time>
      </trkpt>
      <trkpt lat="42.65713" lon="3.03272">
        <ele>1</ele>
        <time>2018-08-31T12:01:46+02:00</time>
      </trkpt>
      <trkpt lat="42.65691" lon="3.03276">
        <ele>1</ele>
        <time>2018-08-31T12:01:50+02:00</time>
      </trkpt>
      <trkpt lat="42.65661" lon="3.03281">
        <ele>1</ele>
        <time>2018-08-31T12:01:55+02:00</time>
      </trkpt>
      <trkpt lat="42.65636" lon="3.0328">
        <ele>1</ele>
        <time>2018-08-31T12:01:59+02:00</time>
      </trkpt>
      <trkpt lat="42.65612" lon="3.03284">
        <ele>1</ele>
        <time>2018-08-31T12:02:03+02:00</time>
      </trkpt>
      <trkpt lat="42.65586" lon="3.03287">
        <ele>1</ele>
        <time>2018-08-31T12:02:07+02:00</time>
      </trkpt>
      <trkpt lat="42.65564" lon="3.03294">
        <ele>1</ele>
        <time>2018-08-31T12:02:11+02:00</time>
      </trkpt>
      <trkpt lat="42.6552" lon="3.0328">
        <ele>1</ele>
        <time>2018-08-31T12:02:17+02:00</time>
      </trkpt>
      <trkpt lat="42.65496" lon="3.03284">
        <ele>1</ele>
        <time>2018-08-31T12:02:21+02:00</time>
      </trkpt>
      <trkpt lat="42.65471" lon="3.03295">
        <ele>1</ele>
        <time>2018-08-31T12:02:25+02:00</time>
      </trkpt>
      <trkpt lat="42.65448" lon="3.03299">
        <ele>1</ele>
        <time>2018-08-31T12:02:29+02:00</time>
      </trkpt>
      <trkpt lat="42.65425" lon="3.03287">
        <ele>1</ele>
        <time>2018-08-31T12:02:33+02:00</time>
      </trkpt>
      <trkpt lat="42.65398" lon="3.03283">
        <ele>1</ele>
        <time>2018-08-31T12:02:37+02:00</time>
      </trkpt>
      <trkpt lat="42.65374" lon="3.03286">
        <ele>2</ele>
        <time>2018-08-31T12:02:40+02:00</time>
      </trkpt>
      <trkpt lat="42.65351" lon="3.03287">
        <ele>2</ele>
        <time>2018-08-31T12:02:44+02:00</time>
      </trkpt>
      <trkpt lat="42.65325" lon="3.03295">
        <ele>2</ele>
        <time>2018-08-31T12:02:48+02:00</time>
      </trkpt>
      <trkpt lat="42.653" lon="3.03301">
        <ele>2</ele>
        <time>2018-08-31T12:02:52+02:00</time>
      </trkpt>
      <trkpt lat="42.65276" lon="3.03299">
        <ele>2</ele>
        <time>2018-08-31T12:02:56+02:00</time>
      </trkpt>
      <trkpt lat="42.6525" lon="3.033">
        <ele>2</ele>
        <time>2018-08-31T12:03:00+02:00</time>
      </trkpt>
      <trkpt lat="42.65226" lon="3.03309">
        <ele>2</ele>
        <time>2018-08-31T12:03:03+02:00</time>
      </trkpt>
      <trkpt lat="42.65202" lon="3.03306">
        <ele>2</ele>
        <time>2018-08-31T12:03:07+02:00</time>
      </trkpt>
      <trkpt lat="42.65177" lon="3.03302">
        <ele>2</ele>
        <time>2018-08-31T12:03:11+02:00</time>
      </trkpt>
      <trkpt lat="42.6515" lon="3.03302">
        <ele>2</ele>
        <time>2018-08-31T12:03:15+02:00</time>
      </trkpt>
      <trkpt lat="42.65125" lon="3.03304">
        <ele>2</ele>
        <time>2018-08-31T12:03:19+02:00</time>
      </trkpt>
      <trkpt lat="42.65099" lon="3.03303">
        <ele>2</ele>
        <time>2018-08-31T12:03:24+02:00</time>
      </trkpt>
      <trkpt lat="42.65073" lon="3.03296">
        <ele>3</ele>
        <time>2018-08-31T12:03:28+02:00</time>
      </trkpt>
      <trkpt lat="42.65048" lon="3.03299">
        <ele>3</ele>
        <time>2018-08-31T12:03:32+02:00</time>
      </trkpt>
      <trkpt lat="42.65025" lon="3.03294">
        <ele>3</ele>
        <time>2018-08-31T12:03:36+02:00</time>
      </trkpt>
      <trkpt lat="42.65" lon="3.03292">
        <ele>3</ele>
        <time>2018-08-31T12:03:40+02:00</time>
      </trkpt>
      <trkpt lat="42.64976" lon="3.03293">
        <ele>3</ele>
        <time>2018-08-31T12:03:44+02:00</time>
      </trkpt>
      <trkpt lat="42.64949" lon="3.03292">
        <ele>3</ele>
        <time>2018-08-31T12:03:48+02:00</time>
      </trkpt>
      <trkpt lat="42.64925" lon="3.03288">
        <ele>3</ele>
        <time>2018-08-31T12:03:52+02:00</time>
      </trkpt>
      <trkpt lat="42.64899" lon="3.03294">
        <ele>3</ele>
        <time>2018-08-31T12:03:57+02:00</time>
      </trkpt>
      <trkpt lat="42.64875" lon="3.033">
        <ele>3</ele>
        <time>2018-08-31T12:04:01+02:00</time>
      </trkpt>
      <trkpt lat="42.6485" lon="3.03298">
        <ele>3</ele>
        <time>2018-08-31T12:04:05+02:00</time>
      </trkpt>
      <trkpt lat="42.64824" lon="3.03299">
        <ele>3</ele>
        <time>2018-08-31T12:04:10+02:00</time>
      </trkpt>
      <trkpt lat="42.64798" lon="3.03307">
        <ele>3</ele>
        <time>2018-08-31T12:04:14+02:00</time>
      </trkpt>
      <trkpt lat="42.64767" lon="3.03318">
        <ele>3</ele>
        <time>2018-08-31T12:04:18+02:00</time>
      </trkpt>
      <trkpt lat="42.64739" lon="3.03323">
        <ele>3</ele>
        <time>2018-08-31T12:04:22+02:00</time>
      </trkpt>
      <trkpt lat="42.64713" lon="3.03324">
        <ele>2</ele>
        <time>2018-08-31T12:04:26+02:00</time>
      </trkpt>
      <trkpt lat="42.64686" lon="3.0333">
        <ele>2</ele>
        <time>2018-08-31T12:04:30+02:00</time>
      </trkpt>
      <trkpt lat="42.64658" lon="3.03331">
        <ele>2</ele>
        <time>2018-08-31T12:04:34+02:00</time>
      </trkpt>
      <trkpt lat="42.6463" lon="3.03338">
        <ele>2</ele>
        <time>2018-08-31T12:04:38+02:00</time>
      </trkpt>
      <trkpt lat="42.64603" lon="3.03346">
        <ele>2</ele>
        <time>2018-08-31T12:04:42+02:00</time>
      </trkpt>
      <trkpt lat="42.64574" lon="3.03349">
        <ele>2</ele>
        <time>2018-08-31T12:04:46+02:00</time>
      </trkpt>
      <trkpt lat="42.64551" lon="3.03349">
        <ele>2</ele>
        <time>2018-08-31T12:04:49+02:00</time>
      </trkpt>
      <trkpt lat="42.64526" lon="3.0335">
        <ele>2</ele>
        <time>2018-08-31T12:04:53+02:00</time>
      </trkpt>
      <trkpt lat="42.64502" lon="3.03356">
        <ele>2</ele>
        <time>2018-08-31T12:04:57+02:00</time>
      </trkpt>
      <trkpt lat="42.64474" lon="3.03357">
        <ele>2</ele>
        <time>2018-08-31T12:05:01+02:00</time>
      </trkpt>
      <trkpt lat="42.64447" lon="3.03352">
        <ele>2</ele>
        <time>2018-08-31T12:05:05+02:00</time>
      </trkpt>
      <trkpt lat="42.64422" lon="3.03352">
        <ele>2</ele>
        <time>2018-08-31T12:05:09+02:00</time>
      </trkpt>
      <trkpt lat="42.64399" lon="3.03356">
        <ele>2</ele>
        <time>2018-08-31T12:05:12+02:00</time>
      </trkpt>
      <trkpt lat="42.64373" lon="3.03353">
        <ele>2</ele>
        <time>2018-08-31T12:05:16+02:00</time>
      </trkpt>
      <trkpt lat="42.64349" lon="3.03347">
        <ele>2</ele>
        <time>2018-08-31T12:05:19+02:00</time>
      </trkpt>
      <trkpt lat="42.64326" lon="3.03342">
        <ele>2</ele>
        <time>2018-08-31T12:05:22+02:00</time>
      </trkpt>
      <trkpt lat="42.64299" lon="3.03339">
        <ele>2</ele>
        <time>2018-08-31T12:05:26+02:00</time>
      </trkpt>
      <trkpt lat="42.64275" lon="3.03331">
        <ele>2</ele>
        <time>2018-08-31T12:05:30+02:00</time>
      </trkpt>
      <trkpt lat="42.64249" lon="3.03324">
        <ele>2</ele>
        <time>2018-08-31T12:05:34+02:00</time>
      </trkpt>
      <trkpt lat="42.6422" lon="3.03317">
        <ele>2</ele>
        <time>2018-08-31T12:05:38+02:00</time>
      </trkpt>
      <trkpt lat="42.64196" lon="3.03313">
        <ele>2</ele>
        <time>2018-08-31T12:05:42+02:00</time>
      </trkpt>
      <trkpt lat="42.64172" lon="3.03308">
        <ele>2</ele>
        <time>2018-08-31T12:05:46+02:00</time>
      </trkpt>
      <trkpt lat="42.64148" lon="3.03302">
        <ele>2</ele>
        <time>2018-08-31T12:05:50+02:00</time>
      </trkpt>
      <trkpt lat="42.64123" lon="3.03296">
        <ele>2</ele>
        <time>2018-08-31T12:05:54+02:00</time>
      </trkpt>
      <trkpt lat="42.64099" lon="3.0329">
        <ele>2</ele>
        <time>2018-08-31T12:06:05+02:00</time>
      </trkpt>
      <trkpt lat="42.64076" lon="3.03275">
        <ele>2</ele>
        <time>2018-08-31T12:06:11+02:00</time>
      </trkpt>
      <trkpt lat="42.64052" lon="3.0326">
        <ele>2</ele>
        <time>2018-08-31T12:06:17+02:00</time>
      </trkpt>
      <trkpt lat="42.64031" lon="3.03244">
        <ele>2</ele>
        <time>2018-08-31T12:06:22+02:00</time>
      </trkpt>
      <trkpt lat="42.64011" lon="3.03226">
        <ele>3</ele>
        <time>2018-08-31T12:06:32+02:00</time>
      </trkpt>
      <trkpt lat="42.63993" lon="3.03248">
        <ele>2</ele>
        <time>2018-08-31T12:06:38+02:00</time>
      </trkpt>
      <trkpt lat="42.6397" lon="3.03258">
        <ele>2</ele>
        <time>2018-08-31T12:06:43+02:00</time>
      </trkpt>
      <trkpt lat="42.63944" lon="3.03264">
        <ele>2</ele>
        <time>2018-08-31T12:06:48+02:00</time>
      </trkpt>
      <trkpt lat="42.63916" lon="3.03267">
        <ele>2</ele>
        <time>2018-08-31T12:06:53+02:00</time>
      </trkpt>
      <trkpt lat="42.6389" lon="3.03271">
        <ele>2</ele>
        <time>2018-08-31T12:06:58+02:00</time>
      </trkpt>
      <trkpt lat="42.63863" lon="3.03283">
        <ele>2</ele>
        <time>2018-08-31T12:07:02+02:00</time>
      </trkpt>
      <trkpt lat="42.63839" lon="3.03293">
        <ele>2</ele>
        <time>2018-08-31T12:07:06+02:00</time>
      </trkpt>
      <trkpt lat="42.63815" lon="3.03299">
        <ele>2</ele>
        <time>2018-08-31T12:07:10+02:00</time>
      </trkpt>
      <trkpt lat="42.63789" lon="3.03309">
        <ele>2</ele>
        <time>2018-08-31T12:07:14+02:00</time>
      </trkpt>
      <trkpt lat="42.63766" lon="3.03316">
        <ele>2</ele>
        <time>2018-08-31T12:07:18+02:00</time>
      </trkpt>
      <trkpt lat="42.6374" lon="3.03328">
        <ele>2</ele>
        <time>2018-08-31T12:07:22+02:00</time>
      </trkpt>
      <trkpt lat="42.63718" lon="3.03337">
        <ele>2</ele>
        <time>2018-08-31T12:07:26+02:00</time>
      </trkpt>
      <trkpt lat="42.63695" lon="3.03347">
        <ele>2</ele>
        <time>2018-08-31T12:07:30+02:00</time>
      </trkpt>
      <trkpt lat="42.6367" lon="3.03344">
        <ele>2</ele>
        <time>2018-08-31T12:07:34+02:00</time>
      </trkpt>
      <trkpt lat="42.63644" lon="3.03343">
        <ele>2</ele>
        <time>2018-08-31T12:07:43+02:00</time>
      </trkpt>
      <trkpt lat="42.63621" lon="3.03346">
        <ele>2</ele>
        <time>2018-08-31T12:07:47+02:00</time>
      </trkpt>
      <trkpt lat="42.63586" lon="3.03336">
        <ele>2</ele>
        <time>2018-08-31T12:07:51+02:00</time>
      </trkpt>
      <trkpt lat="42.63563" lon="3.03332">
        <ele>2</ele>
        <time>2018-08-31T12:07:56+02:00</time>
      </trkpt>
      <trkpt lat="42.6354" lon="3.03328">
        <ele>2</ele>
        <time>2018-08-31T12:08:05+02:00</time>
      </trkpt>
      <trkpt lat="42.63517" lon="3.03321">
        <ele>2</ele>
        <time>2018-08-31T12:08:11+02:00</time>
      </trkpt>
      <trkpt lat="42.63494" lon="3.03315">
        <ele>3</ele>
        <time>2018-08-31T12:08:43+02:00</time>
      </trkpt>
      <trkpt lat="42.6347" lon="3.03306">
        <ele>3</ele>
        <time>2018-08-31T12:08:52+02:00</time>
      </trkpt>
      <trkpt lat="42.63447" lon="3.03297">
        <ele>3</ele>
        <time>2018-08-31T12:08:58+02:00</time>
      </trkpt>
      <trkpt lat="42.63425" lon="3.0329">
        <ele>3</ele>
        <time>2018-08-31T12:09:03+02:00</time>
      </trkpt>
      <trkpt lat="42.63399" lon="3.03284">
        <ele>3</ele>
        <time>2018-08-31T12:09:08+02:00</time>
      </trkpt>
      <trkpt lat="42.63371" lon="3.03279">
        <ele>3</ele>
        <time>2018-08-31T12:09:13+02:00</time>
      </trkpt>
      <trkpt lat="42.63349" lon="3.0327">
        <ele>3</ele>
        <time>2018-08-31T12:09:19+02:00</time>
      </trkpt>
      <trkpt lat="42.63318" lon="3.03263">
        <ele>3</ele>
        <time>2018-08-31T12:09:24+02:00</time>
      </trkpt>
      <trkpt lat="42.63292" lon="3.03265">
        <ele>2</ele>
        <time>2018-08-31T12:09:32+02:00</time>
      </trkpt>
      <trkpt lat="42.63268" lon="3.03255">
        <ele>3</ele>
        <time>2018-08-31T12:09:40+02:00</time>
      </trkpt>
      <trkpt lat="42.63244" lon="3.03247">
        <ele>3</ele>
        <time>2018-08-31T12:09:46+02:00</time>
      </trkpt>
      <trkpt lat="42.63219" lon="3.03242">
        <ele>3</ele>
        <time>2018-08-31T12:09:52+02:00</time>
      </trkpt>
      <trkpt lat="42.63196" lon="3.03232">
        <ele>3</ele>
        <time>2018-08-31T12:10:00+02:00</time>
      </trkpt>
      <trkpt lat="42.63166" lon="3.03224">
        <ele>3</ele>
        <time>2018-08-31T12:10:04+02:00</time>
      </trkpt>
      <trkpt lat="42.63143" lon="3.03218">
        <ele>3</ele>
        <time>2018-08-31T12:10:12+02:00</time>
      </trkpt>
      <trkpt lat="42.6312" lon="3.03212">
        <ele>3</ele>
        <time>2018-08-31T12:10:16+02:00</time>
      </trkpt>
      <trkpt lat="42.6309" lon="3.03205">
        <ele>3</ele>
        <time>2018-08-31T12:10:21+02:00</time>
      </trkpt>
      <trkpt lat="42.63068" lon="3.03199">
        <ele>3</ele>
        <time>2018-08-31T12:10:28+02:00</time>
      </trkpt>
      <trkpt lat="42.63045" lon="3.03196">
        <ele>3</ele>
        <time>2018-08-31T12:10:32+02:00</time>
      </trkpt>
      <trkpt lat="42.6302" lon="3.03194">
        <ele>3</ele>
        <time>2018-08-31T12:10:38+02:00</time>
      </trkpt>
      <trkpt lat="42.62993" lon="3.03195">
        <ele>3</ele>
        <time>2018-08-31T12:10:43+02:00</time>
      </trkpt>
      <trkpt lat="42.62969" lon="3.03195">
        <ele>3</ele>
        <time>2018-08-31T12:10:48+02:00</time>
      </trkpt>
      <trkpt lat="42.62946" lon="3.03203">
        <ele>3</ele>
        <time>2018-08-31T12:10:55+02:00</time>
      </trkpt>
      <trkpt lat="42.62921" lon="3.03205">
        <ele>3</ele>
        <time>2018-08-31T12:11:41+02:00</time>
      </trkpt>
      <trkpt lat="42.62899" lon="3.03193">
        <ele>3</ele>
        <time>2018-08-31T12:11:47+02:00</time>
      </trkpt>
      <trkpt lat="42.62875" lon="3.03211">
        <ele>3</ele>
        <time>2018-08-31T12:11:53+02:00</time>
      </trkpt>
      <trkpt lat="42.62852" lon="3.03227">
        <ele>3</ele>
        <time>2018-08-31T12:11:59+02:00</time>
      </trkpt>
      <trkpt lat="42.62828" lon="3.03236">
        <ele>3</ele>
        <time>2018-08-31T12:12:04+02:00</time>
      </trkpt>
      <trkpt lat="42.62804" lon="3.03246">
        <ele>3</ele>
        <time>2018-08-31T12:12:08+02:00</time>
      </trkpt>
      <trkpt lat="42.62779" lon="3.03259">
        <ele>3</ele>
        <time>2018-08-31T12:12:13+02:00</time>
      </trkpt>
      <trkpt lat="42.62756" lon="3.03273">
        <ele>3</ele>
        <time>2018-08-31T12:12:18+02:00</time>
      </trkpt>
      <trkpt lat="42.62735" lon="3.03285">
        <ele>3</ele>
        <time>2018-08-31T12:12:22+02:00</time>
      </trkpt>
      <trkpt lat="42.6271" lon="3.033">
        <ele>2</ele>
        <time>2018-08-31T12:12:27+02:00</time>
      </trkpt>
      <trkpt lat="42.62684" lon="3.03312">
        <ele>2</ele>
        <time>2018-08-31T12:12:32+02:00</time>
      </trkpt>
      <trkpt lat="42.62659" lon="3.03315">
        <ele>2</ele>
        <time>2018-08-31T12:12:36+02:00</time>
      </trkpt>
      <trkpt lat="42.62649" lon="3.03344">
        <ele>2</ele>
        <time>2018-08-31T12:12:41+02:00</time>
      </trkpt>
      <trkpt lat="42.62632" lon="3.03366">
        <ele>2</ele>
        <time>2018-08-31T12:12:45+02:00</time>
      </trkpt>
      <trkpt lat="42.62609" lon="3.03386">
        <ele>2</ele>
        <time>2018-08-31T12:12:50+02:00</time>
      </trkpt>
      <trkpt lat="42.6259" lon="3.03404">
        <ele>2</ele>
        <time>2018-08-31T12:12:54+02:00</time>
      </trkpt>
      <trkpt lat="42.62571" lon="3.03423">
        <ele>2</ele>
        <time>2018-08-31T12:12:58+02:00</time>
      </trkpt>
      <trkpt lat="42.6255" lon="3.03439">
        <ele>2</ele>
        <time>2018-08-31T12:13:02+02:00</time>
      </trkpt>
      <trkpt lat="42.62528" lon="3.03457">
        <ele>2</ele>
        <time>2018-08-31T12:13:06+02:00</time>
      </trkpt>
      <trkpt lat="42.62507" lon="3.03477">
        <ele>2</ele>
        <time>2018-08-31T12:13:11+02:00</time>
      </trkpt>
      <trkpt lat="42.62485" lon="3.03495">
        <ele>2</ele>
        <time>2018-08-31T12:13:15+02:00</time>
      </trkpt>
      <trkpt lat="42.62463" lon="3.03516">
        <ele>1</ele>
        <time>2018-08-31T12:13:20+02:00</time>
      </trkpt>
      <trkpt lat="42.62444" lon="3.03534">
        <ele>1</ele>
        <time>2018-08-31T12:13:24+02:00</time>
      </trkpt>
      <trkpt lat="42.62423" lon="3.03547">
        <ele>1</ele>
        <time>2018-08-31T12:13:28+02:00</time>
      </trkpt>
      <trkpt lat="42.62411" lon="3.03573">
        <ele>1</ele>
        <time>2018-08-31T12:13:34+02:00</time>
      </trkpt>
      <trkpt lat="42.62396" lon="3.03597">
        <ele>3</ele>
        <time>2018-08-31T12:13:40+02:00</time>
      </trkpt>
      <trkpt lat="42.62374" lon="3.03611">
        <ele>3</ele>
        <time>2018-08-31T12:13:44+02:00</time>
      </trkpt>
      <trkpt lat="42.62353" lon="3.0363">
        <ele>3</ele>
        <time>2018-08-31T12:13:49+02:00</time>
      </trkpt>
      <trkpt lat="42.62328" lon="3.03649">
        <ele>2.5</ele>
        <time>2018-08-31T12:13:54+02:00</time>
      </trkpt>
      <trkpt lat="42.62304" lon="3.03664">
        <ele>2</ele>
        <time>2018-08-31T12:14:00+02:00</time>
      </trkpt>
      <trkpt lat="42.62284" lon="3.03647">
        <ele>2</ele>
        <time>2018-08-31T12:14:04+02:00</time>
      </trkpt>
      <trkpt lat="42.62268" lon="3.03618">
        <ele>1.7</ele>
        <time>2018-08-31T12:14:10+02:00</time>
      </trkpt>
      <trkpt lat="42.62248" lon="3.03587">
        <ele>1.9</ele>
        <time>2018-08-31T12:14:15+02:00</time>
      </trkpt>
      <trkpt lat="42.62234" lon="3.03558">
        <ele>1.5</ele>
        <time>2018-08-31T12:14:22+02:00</time>
      </trkpt>
      <trkpt lat="42.62217" lon="3.03537">
        <ele>1.7</ele>
        <time>2018-08-31T12:14:30+02:00</time>
      </trkpt>
      <trkpt lat="42.62195" lon="3.03523">
        <ele>2</ele>
        <time>2018-08-31T12:14:38+02:00</time>
      </trkpt>
      <trkpt lat="42.62173" lon="3.03542">
        <ele>1.5</ele>
        <time>2018-08-31T12:14:44+02:00</time>
      </trkpt>
      <trkpt lat="42.62152" lon="3.0356">
        <ele>1.4</ele>
        <time>2018-08-31T12:14:49+02:00</time>
      </trkpt>
      <trkpt lat="42.62133" lon="3.03579">
        <ele>1.3</ele>
        <time>2018-08-31T12:14:54+02:00</time>
      </trkpt>
      <trkpt lat="42.62118" lon="3.03602">
        <ele>1.3</ele>
        <time>2018-08-31T12:15:02+02:00</time>
      </trkpt>
      <trkpt lat="42.62095" lon="3.03602">
        <ele>1.7</ele>
        <time>2018-08-31T12:15:09+02:00</time>
      </trkpt>
      <trkpt lat="42.62084" lon="3.0357">
        <ele>2</ele>
        <time>2018-08-31T12:15:15+02:00</time>
      </trkpt>
      <trkpt lat="42.62083" lon="3.03536">
        <ele>2</ele>
        <time>2018-08-31T12:15:21+02:00</time>
      </trkpt>
      <trkpt lat="42.62084" lon="3.03501">
        <ele>1</ele>
        <time>2018-08-31T12:15:28+02:00</time>
      </trkpt>
      <trkpt lat="42.62093" lon="3.0347">
        <ele>1</ele>
        <time>2018-08-31T12:15:34+02:00</time>
      </trkpt>
      <trkpt lat="42.62102" lon="3.03441">
        <ele>1</ele>
        <time>2018-08-31T12:15:39+02:00</time>
      </trkpt>
      <trkpt lat="42.62085" lon="3.03416">
        <ele>1</ele>
        <time>2018-08-31T12:15:46+02:00</time>
      </trkpt>
      <trkpt lat="42.62063" lon="3.03407">
        <ele>1</ele>
        <time>2018-08-31T12:15:51+02:00</time>
      </trkpt>
      <trkpt lat="42.62039" lon="3.03394">
        <ele>2</ele>
        <time>2018-08-31T12:15:56+02:00</time>
      </trkpt>
      <trkpt lat="42.6202" lon="3.03377">
        <ele>2</ele>
        <time>2018-08-31T12:16:01+02:00</time>
      </trkpt>
      <trkpt lat="42.62016" lon="3.03345">
        <ele>2</ele>
        <time>2018-08-31T12:16:06+02:00</time>
      </trkpt>
      <trkpt lat="42.62004" lon="3.03316">
        <ele>2</ele>
        <time>2018-08-31T12:16:15+02:00</time>
      </trkpt>
      <trkpt lat="42.61979" lon="3.03317">
        <ele>2</ele>
        <time>2018-08-31T12:16:23+02:00</time>
      </trkpt>
      <trkpt lat="42.61953" lon="3.03321">
        <ele>2</ele>
        <time>2018-08-31T12:16:29+02:00</time>
      </trkpt>
      <trkpt lat="42.61926" lon="3.03319">
        <ele>2</ele>
        <time>2018-08-31T12:16:34+02:00</time>
      </trkpt>
      <trkpt lat="42.61901" lon="3.0331">
        <ele>2</ele>
        <time>2018-08-31T12:16:41+02:00</time>
      </trkpt>
      <trkpt lat="42.61878" lon="3.03298">
        <ele>2</ele>
        <time>2018-08-31T12:16:49+02:00</time>
      </trkpt>
      <trkpt lat="42.61856" lon="3.03278">
        <ele>2</ele>
        <time>2018-08-31T12:16:55+02:00</time>
      </trkpt>
      <trkpt lat="42.61844" lon="3.03248">
        <ele>2</ele>
        <time>2018-08-31T12:17:00+02:00</time>
      </trkpt>
      <trkpt lat="42.61835" lon="3.03214">
        <ele>2</ele>
        <time>2018-08-31T12:17:05+02:00</time>
      </trkpt>
      <trkpt lat="42.61827" lon="3.03182">
        <ele>2</ele>
        <time>2018-08-31T12:17:10+02:00</time>
      </trkpt>
      <trkpt lat="42.61817" lon="3.0315">
        <ele>2</ele>
        <time>2018-08-31T12:17:15+02:00</time>
      </trkpt>
      <trkpt lat="42.61809" lon="3.03116">
        <ele>2</ele>
        <time>2018-08-31T12:17:20+02:00</time>
      </trkpt>
      <trkpt lat="42.61802" lon="3.03084">
        <ele>2</ele>
        <time>2018-08-31T12:17:25+02:00</time>
      </trkpt>
      <trkpt lat="42.61795" lon="3.03053">
        <ele>2</ele>
        <time>2018-08-31T12:17:30+02:00</time>
      </trkpt>
      <trkpt lat="42.61794" lon="3.0302">
        <ele>2</ele>
        <time>2018-08-31T12:17:36+02:00</time>
      </trkpt>
      <trkpt lat="42.61807" lon="3.02991">
        <ele>2</ele>
        <time>2018-08-31T12:17:42+02:00</time>
      </trkpt>
      <trkpt lat="42.61786" lon="3.02968">
        <ele>2</ele>
        <time>2018-08-31T12:17:48+02:00</time>
      </trkpt>
      <trkpt lat="42.61767" lon="3.02943">
        <ele>2</ele>
        <time>2018-08-31T12:17:54+02:00</time>
      </trkpt>
      <trkpt lat="42.61751" lon="3.02917">
        <ele>2</ele>
        <time>2018-08-31T12:17:59+02:00</time>
      </trkpt>
      <trkpt lat="42.61737" lon="3.02892">
        <ele>2</ele>
        <time>2018-08-31T12:18:03+02:00</time>
      </trkpt>
      <trkpt lat="42.61721" lon="3.02865">
        <ele>2</ele>
        <time>2018-08-31T12:18:08+02:00</time>
      </trkpt>
      <trkpt lat="42.61703" lon="3.02841">
        <ele>2</ele>
        <time>2018-08-31T12:18:13+02:00</time>
      </trkpt>
      <trkpt lat="42.61689" lon="3.02813">
        <ele>2</ele>
        <time>2018-08-31T12:18:18+02:00</time>
      </trkpt>
      <trkpt lat="42.61674" lon="3.02786">
        <ele>2</ele>
        <time>2018-08-31T12:18:23+02:00</time>
      </trkpt>
      <trkpt lat="42.61659" lon="3.02762">
        <ele>2</ele>
        <time>2018-08-31T12:18:28+02:00</time>
      </trkpt>
      <trkpt lat="42.61646" lon="3.02731">
        <ele>2</ele>
        <time>2018-08-31T12:18:33+02:00</time>
      </trkpt>
      <trkpt lat="42.6163" lon="3.02703">
        <ele>2</ele>
        <time>2018-08-31T12:18:38+02:00</time>
      </trkpt>
      <trkpt lat="42.61614" lon="3.02676">
        <ele>2</ele>
        <time>2018-08-31T12:18:44+02:00</time>
      </trkpt>
      <trkpt lat="42.616" lon="3.02646">
        <ele>2</ele>
        <time>2018-08-31T12:18:49+02:00</time>
      </trkpt>
      <trkpt lat="42.61586" lon="3.0262">
        <ele>2</ele>
        <time>2018-08-31T12:18:56+02:00</time>
      </trkpt>
      <trkpt lat="42.61574" lon="3.02592">
        <ele>2</ele>
        <time>2018-08-31T12:19:02+02:00</time>
      </trkpt>
      <trkpt lat="42.61555" lon="3.0257">
        <ele>2</ele>
        <time>2018-08-31T12:19:09+02:00</time>
      </trkpt>
      <trkpt lat="42.6154" lon="3.02544">
        <ele>2</ele>
        <time>2018-08-31T12:19:16+02:00</time>
      </trkpt>
      <trkpt lat="42.6153" lon="3.02511">
        <ele>2</ele>
        <time>2018-08-31T12:19:22+02:00</time>
      </trkpt>
      <trkpt lat="42.61515" lon="3.02484">
        <ele>2</ele>
        <time>2018-08-31T12:19:29+02:00</time>
      </trkpt>
      <trkpt lat="42.61506" lon="3.02455">
        <ele>3</ele>
        <time>2018-08-31T12:19:36+02:00</time>
      </trkpt>
      <trkpt lat="42.61491" lon="3.02424">
        <ele>3</ele>
        <time>2018-08-31T12:19:43+02:00</time>
      </trkpt>
      <trkpt lat="42.61477" lon="3.02396">
        <ele>3</ele>
        <time>2018-08-31T12:19:52+02:00</time>
      </trkpt>
      <trkpt lat="42.61459" lon="3.02379">
        <ele>3</ele>
        <time>2018-08-31T12:20:02+02:00</time>
      </trkpt>
      <trkpt lat="42.61438" lon="3.02399">
        <ele>3</ele>
        <time>2018-08-31T12:20:11+02:00</time>
      </trkpt>
      <trkpt lat="42.61442" lon="3.0243">
        <ele>3</ele>
        <time>2018-08-31T12:20:23+02:00</time>
      </trkpt>
      <trkpt lat="42.61454" lon="3.02455">
        <ele>3</ele>
        <time>2018-08-31T12:21:04+02:00</time>
      </trkpt>
      <trkpt lat="42.61463" lon="3.02485">
        <ele>2</ele>
        <time>2018-08-31T12:21:15+02:00</time>
      </trkpt>
      <trkpt lat="42.61441" lon="3.02503">
        <ele>2</ele>
        <time>2018-08-31T12:21:24+02:00</time>
      </trkpt>
      <trkpt lat="42.61416" lon="3.02504">
        <ele>3</ele>
        <time>2018-08-31T12:21:29+02:00</time>
      </trkpt>
      <trkpt lat="42.61389" lon="3.02502">
        <ele>3</ele>
        <time>2018-08-31T12:21:34+02:00</time>
      </trkpt>
      <trkpt lat="42.61364" lon="3.02503">
        <ele>3</ele>
        <time>2018-08-31T12:21:39+02:00</time>
      </trkpt>
      <trkpt lat="42.61337" lon="3.02501">
        <ele>3</ele>
        <time>2018-08-31T12:21:44+02:00</time>
      </trkpt>
      <trkpt lat="42.61312" lon="3.02498">
        <ele>3</ele>
        <time>2018-08-31T12:21:49+02:00</time>
      </trkpt>
      <trkpt lat="42.61285" lon="3.02495">
        <ele>3</ele>
        <time>2018-08-31T12:21:54+02:00</time>
      </trkpt>
      <trkpt lat="42.61261" lon="3.02492">
        <ele>3</ele>
        <time>2018-08-31T12:21:58+02:00</time>
      </trkpt>
      <trkpt lat="42.61233" lon="3.0249">
        <ele>3</ele>
        <time>2018-08-31T12:22:03+02:00</time>
      </trkpt>
      <trkpt lat="42.61207" lon="3.02489">
        <ele>3</ele>
        <time>2018-08-31T12:22:08+02:00</time>
      </trkpt>
      <trkpt lat="42.61182" lon="3.02487">
        <ele>3</ele>
        <time>2018-08-31T12:22:13+02:00</time>
      </trkpt>
      <trkpt lat="42.61155" lon="3.02485">
        <ele>3</ele>
        <time>2018-08-31T12:22:18+02:00</time>
      </trkpt>
      <trkpt lat="42.61129" lon="3.02482">
        <ele>2</ele>
        <time>2018-08-31T12:22:23+02:00</time>
      </trkpt>
      <trkpt lat="42.61106" lon="3.02482">
        <ele>2</ele>
        <time>2018-08-31T12:22:27+02:00</time>
      </trkpt>
      <trkpt lat="42.61079" lon="3.02481">
        <ele>2</ele>
        <time>2018-08-31T12:22:32+02:00</time>
      </trkpt>
      <trkpt lat="42.61054" lon="3.02481">
        <ele>2</ele>
        <time>2018-08-31T12:22:37+02:00</time>
      </trkpt>
      <trkpt lat="42.61028" lon="3.02479">
        <ele>2</ele>
        <time>2018-08-31T12:22:42+02:00</time>
      </trkpt>
      <trkpt lat="42.61004" lon="3.02474">
        <ele>2</ele>
        <time>2018-08-31T12:22:47+02:00</time>
      </trkpt>
      <trkpt lat="42.60978" lon="3.02471">
        <ele>2</ele>
        <time>2018-08-31T12:22:52+02:00</time>
      </trkpt>
      <trkpt lat="42.60955" lon="3.02471">
        <ele>2</ele>
        <time>2018-08-31T12:22:57+02:00</time>
      </trkpt>
      <trkpt lat="42.60931" lon="3.02468">
        <ele>2</ele>
        <time>2018-08-31T12:23:02+02:00</time>
      </trkpt>
      <trkpt lat="42.60906" lon="3.02467">
        <ele>2</ele>
        <time>2018-08-31T12:23:07+02:00</time>
      </trkpt>
      <trkpt lat="42.60878" lon="3.02465">
        <ele>2</ele>
        <time>2018-08-31T12:23:12+02:00</time>
      </trkpt>
      <trkpt lat="42.60853" lon="3.02464">
        <ele>2</ele>
        <time>2018-08-31T12:23:17+02:00</time>
      </trkpt>
      <trkpt lat="42.60827" lon="3.02463">
        <ele>2</ele>
        <time>2018-08-31T12:23:22+02:00</time>
      </trkpt>
      <trkpt lat="42.60802" lon="3.0246">
        <ele>2</ele>
        <time>2018-08-31T12:23:27+02:00</time>
      </trkpt>
      <trkpt lat="42.60782" lon="3.02443">
        <ele>2</ele>
        <time>2018-08-31T12:23:33+02:00</time>
      </trkpt>
      <trkpt lat="42.60763" lon="3.02426">
        <ele>2</ele>
        <time>2018-08-31T12:23:39+02:00</time>
      </trkpt>
      <trkpt lat="42.60739" lon="3.02439">
        <ele>2</ele>
        <time>2018-08-31T12:23:44+02:00</time>
      </trkpt>
      <trkpt lat="42.60714" lon="3.02447">
        <ele>2</ele>
        <time>2018-08-31T12:23:49+02:00</time>
      </trkpt>
      <trkpt lat="42.6069" lon="3.02448">
        <ele>2</ele>
        <time>2018-08-31T12:23:54+02:00</time>
      </trkpt>
      <trkpt lat="42.60665" lon="3.02446">
        <ele>3</ele>
        <time>2018-08-31T12:23:59+02:00</time>
      </trkpt>
      <trkpt lat="42.60642" lon="3.02442">
        <ele>3</ele>
        <time>2018-08-31T12:24:04+02:00</time>
      </trkpt>
      <trkpt lat="42.60614" lon="3.02439">
        <ele>3</ele>
        <time>2018-08-31T12:24:09+02:00</time>
      </trkpt>
      <trkpt lat="42.6059" lon="3.02436">
        <ele>3</ele>
        <time>2018-08-31T12:24:13+02:00</time>
      </trkpt>
      <trkpt lat="42.60564" lon="3.02433">
        <ele>3</ele>
        <time>2018-08-31T12:24:17+02:00</time>
      </trkpt>
      <trkpt lat="42.60539" lon="3.02434">
        <ele>3</ele>
        <time>2018-08-31T12:24:21+02:00</time>
      </trkpt>
      <trkpt lat="42.60516" lon="3.02432">
        <ele>3</ele>
        <time>2018-08-31T12:24:25+02:00</time>
      </trkpt>
      <trkpt lat="42.60491" lon="3.02431">
        <ele>3</ele>
        <time>2018-08-31T12:24:29+02:00</time>
      </trkpt>
      <trkpt lat="42.60465" lon="3.02428">
        <ele>4</ele>
        <time>2018-08-31T12:24:33+02:00</time>
      </trkpt>
      <trkpt lat="42.60442" lon="3.02426">
        <ele>4</ele>
        <time>2018-08-31T12:24:37+02:00</time>
      </trkpt>
      <trkpt lat="42.60418" lon="3.02424">
        <ele>4</ele>
        <time>2018-08-31T12:24:41+02:00</time>
      </trkpt>
      <trkpt lat="42.60393" lon="3.0242">
        <ele>4</ele>
        <time>2018-08-31T12:24:45+02:00</time>
      </trkpt>
      <trkpt lat="42.60367" lon="3.0242">
        <ele>4</ele>
        <time>2018-08-31T12:24:49+02:00</time>
      </trkpt>
      <trkpt lat="42.60343" lon="3.02417">
        <ele>4</ele>
        <time>2018-08-31T12:24:53+02:00</time>
      </trkpt>
      <trkpt lat="42.6032" lon="3.02416">
        <ele>4</ele>
        <time>2018-08-31T12:24:57+02:00</time>
      </trkpt>
      <trkpt lat="42.60297" lon="3.02413">
        <ele>4</ele>
        <time>2018-08-31T12:25:01+02:00</time>
      </trkpt>
      <trkpt lat="42.6027" lon="3.0241">
        <ele>4</ele>
        <time>2018-08-31T12:25:06+02:00</time>
      </trkpt>
      <trkpt lat="42.60245" lon="3.02407">
        <ele>3</ele>
        <time>2018-08-31T12:25:11+02:00</time>
      </trkpt>
      <trkpt lat="42.6022" lon="3.02409">
        <ele>3</ele>
        <time>2018-08-31T12:25:16+02:00</time>
      </trkpt>
      <trkpt lat="42.60197" lon="3.02409">
        <ele>3</ele>
        <time>2018-08-31T12:25:21+02:00</time>
      </trkpt>
      <trkpt lat="42.6017" lon="3.02409">
        <ele>3</ele>
        <time>2018-08-31T12:25:25+02:00</time>
      </trkpt>
      <trkpt lat="42.60147" lon="3.02413">
        <ele>3</ele>
        <time>2018-08-31T12:25:30+02:00</time>
      </trkpt>
      <trkpt lat="42.60121" lon="3.02417">
        <ele>3</ele>
        <time>2018-08-31T12:25:35+02:00</time>
      </trkpt>
      <trkpt lat="42.60095" lon="3.02421">
        <ele>3</ele>
        <time>2018-08-31T12:25:40+02:00</time>
      </trkpt>
      <trkpt lat="42.60069" lon="3.02425">
        <ele>3</ele>
        <time>2018-08-31T12:25:45+02:00</time>
      </trkpt>
      <trkpt lat="42.60043" lon="3.02429">
        <ele>3</ele>
        <time>2018-08-31T12:25:50+02:00</time>
      </trkpt>
      <trkpt lat="42.60018" lon="3.02433">
        <ele>4</ele>
        <time>2018-08-31T12:25:55+02:00</time>
      </trkpt>
      <trkpt lat="42.59992" lon="3.02438">
        <ele>5</ele>
        <time>2018-08-31T12:26:00+02:00</time>
      </trkpt>
      <trkpt lat="42.59967" lon="3.02439">
        <ele>5</ele>
        <time>2018-08-31T12:26:05+02:00</time>
      </trkpt>
      <trkpt lat="42.59942" lon="3.02442">
        <ele>5</ele>
        <time>2018-08-31T12:26:10+02:00</time>
      </trkpt>
      <trkpt lat="42.59913" lon="3.02445">
        <ele>5</ele>
        <time>2018-08-31T12:26:15+02:00</time>
      </trkpt>
      <trkpt lat="42.59891" lon="3.02448">
        <ele>5</ele>
        <time>2018-08-31T12:26:20+02:00</time>
      </trkpt>
      <trkpt lat="42.59867" lon="3.02449">
        <ele>5</ele>
        <time>2018-08-31T12:26:25+02:00</time>
      </trkpt>
      <trkpt lat="42.59843" lon="3.02454">
        <ele>5</ele>
        <time>2018-08-31T12:26:30+02:00</time>
      </trkpt>
      <trkpt lat="42.59818" lon="3.02457">
        <ele>5</ele>
        <time>2018-08-31T12:26:35+02:00</time>
      </trkpt>
      <trkpt lat="42.59793" lon="3.02458">
        <ele>5</ele>
        <time>2018-08-31T12:26:40+02:00</time>
      </trkpt>
      <trkpt lat="42.59768" lon="3.02461">
        <ele>5</ele>
        <time>2018-08-31T12:26:45+02:00</time>
      </trkpt>
      <trkpt lat="42.59743" lon="3.02463">
        <ele>5</ele>
        <time>2018-08-31T12:26:50+02:00</time>
      </trkpt>
      <trkpt lat="42.59718" lon="3.02467">
        <ele>5</ele>
        <time>2018-08-31T12:26:55+02:00</time>
      </trkpt>
      <trkpt lat="42.59691" lon="3.02465">
        <ele>5</ele>
        <time>2018-08-31T12:27:00+02:00</time>
      </trkpt>
      <trkpt lat="42.59667" lon="3.02474">
        <ele>5</ele>
        <time>2018-08-31T12:27:05+02:00</time>
      </trkpt>
      <trkpt lat="42.59641" lon="3.0247">
        <ele>5</ele>
        <time>2018-08-31T12:27:10+02:00</time>
      </trkpt>
      <trkpt lat="42.59618" lon="3.0246">
        <ele>5</ele>
        <time>2018-08-31T12:27:15+02:00</time>
      </trkpt>
      <trkpt lat="42.59593" lon="3.02474">
        <ele>5</ele>
        <time>2018-08-31T12:27:21+02:00</time>
      </trkpt>
      <trkpt lat="42.59569" lon="3.02489">
        <ele>5</ele>
        <time>2018-08-31T12:27:26+02:00</time>
      </trkpt>
      <trkpt lat="42.59543" lon="3.02499">
        <ele>5</ele>
        <time>2018-08-31T12:27:31+02:00</time>
      </trkpt>
      <trkpt lat="42.59518" lon="3.02504">
        <ele>5</ele>
        <time>2018-08-31T12:27:36+02:00</time>
      </trkpt>
      <trkpt lat="42.59492" lon="3.02505">
        <ele>5</ele>
        <time>2018-08-31T12:27:41+02:00</time>
      </trkpt>
      <trkpt lat="42.59467" lon="3.02506">
        <ele>5</ele>
        <time>2018-08-31T12:27:46+02:00</time>
      </trkpt>
      <trkpt lat="42.59441" lon="3.02512">
        <ele>5</ele>
        <time>2018-08-31T12:27:51+02:00</time>
      </trkpt>
      <trkpt lat="42.59414" lon="3.02514">
        <ele>5</ele>
        <time>2018-08-31T12:27:56+02:00</time>
      </trkpt>
      <trkpt lat="42.59389" lon="3.02515">
        <ele>5</ele>
        <time>2018-08-31T12:28:01+02:00</time>
      </trkpt>
      <trkpt lat="42.59365" lon="3.02518">
        <ele>5</ele>
        <time>2018-08-31T12:28:06+02:00</time>
      </trkpt>
      <trkpt lat="42.59341" lon="3.02519">
        <ele>5</ele>
        <time>2018-08-31T12:28:11+02:00</time>
      </trkpt>
      <trkpt lat="42.59317" lon="3.0252">
        <ele>5</ele>
        <time>2018-08-31T12:28:15+02:00</time>
      </trkpt>
      <trkpt lat="42.59294" lon="3.02526">
        <ele>5</ele>
        <time>2018-08-31T12:28:20+02:00</time>
      </trkpt>
      <trkpt lat="42.5927" lon="3.02531">
        <ele>5</ele>
        <time>2018-08-31T12:28:25+02:00</time>
      </trkpt>
      <trkpt lat="42.59248" lon="3.0254">
        <ele>5</ele>
        <time>2018-08-31T12:28:30+02:00</time>
      </trkpt>
      <trkpt lat="42.59224" lon="3.02545">
        <ele>5</ele>
        <time>2018-08-31T12:28:35+02:00</time>
      </trkpt>
      <trkpt lat="42.59198" lon="3.02551">
        <ele>5</ele>
        <time>2018-08-31T12:28:40+02:00</time>
      </trkpt>
      <trkpt lat="42.59175" lon="3.02557">
        <ele>5</ele>
        <time>2018-08-31T12:28:44+02:00</time>
      </trkpt>
      <trkpt lat="42.5915" lon="3.02571">
        <ele>5</ele>
        <time>2018-08-31T12:28:49+02:00</time>
      </trkpt>
      <trkpt lat="42.59124" lon="3.02579">
        <ele>5</ele>
        <time>2018-08-31T12:28:54+02:00</time>
      </trkpt>
      <trkpt lat="42.59102" lon="3.0259">
        <ele>5</ele>
        <time>2018-08-31T12:28:59+02:00</time>
      </trkpt>
      <trkpt lat="42.59079" lon="3.02605">
        <ele>5</ele>
        <time>2018-08-31T12:29:04+02:00</time>
      </trkpt>
      <trkpt lat="42.59057" lon="3.0262">
        <ele>5</ele>
        <time>2018-08-31T12:29:09+02:00</time>
      </trkpt>
      <trkpt lat="42.59036" lon="3.02636">
        <ele>5</ele>
        <time>2018-08-31T12:29:14+02:00</time>
      </trkpt>
      <trkpt lat="42.59016" lon="3.02656">
        <ele>5</ele>
        <time>2018-08-31T12:29:19+02:00</time>
      </trkpt>
      <trkpt lat="42.58997" lon="3.02675">
        <ele>5</ele>
        <time>2018-08-31T12:29:24+02:00</time>
      </trkpt>
      <trkpt lat="42.58977" lon="3.02699">
        <ele>5</ele>
        <time>2018-08-31T12:29:29+02:00</time>
      </trkpt>
      <trkpt lat="42.58957" lon="3.02719">
        <ele>5</ele>
        <time>2018-08-31T12:29:34+02:00</time>
      </trkpt>
      <trkpt lat="42.58935" lon="3.02738">
        <ele>5</ele>
        <time>2018-08-31T12:29:39+02:00</time>
      </trkpt>
      <trkpt lat="42.58915" lon="3.02758">
        <ele>5</ele>
        <time>2018-08-31T12:29:44+02:00</time>
      </trkpt>
      <trkpt lat="42.58895" lon="3.0278">
        <ele>5</ele>
        <time>2018-08-31T12:29:49+02:00</time>
      </trkpt>
      <trkpt lat="42.58874" lon="3.028">
        <ele>5</ele>
        <time>2018-08-31T12:29:54+02:00</time>
      </trkpt>
      <trkpt lat="42.58854" lon="3.0282">
        <ele>5</ele>
        <time>2018-08-31T12:29:59+02:00</time>
      </trkpt>
      <trkpt lat="42.58834" lon="3.02839">
        <ele>5</ele>
        <time>2018-08-31T12:30:04+02:00</time>
      </trkpt>
      <trkpt lat="42.58812" lon="3.02861">
        <ele>5</ele>
        <time>2018-08-31T12:30:10+02:00</time>
      </trkpt>
      <trkpt lat="42.5879" lon="3.02877">
        <ele>5</ele>
        <time>2018-08-31T12:30:15+02:00</time>
      </trkpt>
      <trkpt lat="42.58769" lon="3.02891">
        <ele>5</ele>
        <time>2018-08-31T12:30:21+02:00</time>
      </trkpt>
      <trkpt lat="42.58746" lon="3.02906">
        <ele>5</ele>
        <time>2018-08-31T12:30:27+02:00</time>
      </trkpt>
      <trkpt lat="42.58722" lon="3.02921">
        <ele>5</ele>
        <time>2018-08-31T12:30:33+02:00</time>
      </trkpt>
      <trkpt lat="42.58699" lon="3.02935">
        <ele>5</ele>
        <time>2018-08-31T12:30:39+02:00</time>
      </trkpt>
      <trkpt lat="42.58673" lon="3.02948">
        <ele>5</ele>
        <time>2018-08-31T12:30:45+02:00</time>
      </trkpt>
      <trkpt lat="42.58652" lon="3.02965">
        <ele>5</ele>
        <time>2018-08-31T12:30:51+02:00</time>
      </trkpt>
      <trkpt lat="42.58628" lon="3.02982">
        <ele>3</ele>
        <time>2018-08-31T12:30:57+02:00</time>
      </trkpt>
      <trkpt lat="42.58608" lon="3.02996">
        <ele>1</ele>
        <time>2018-08-31T12:31:08+02:00</time>
      </trkpt>
      <trkpt lat="42.58586" lon="3.03011">
        <ele>2</ele>
        <time>2018-08-31T12:31:38+02:00</time>
      </trkpt>
      <trkpt lat="42.58562" lon="3.03025">
        <ele>5</ele>
        <time>2018-08-31T12:31:45+02:00</time>
      </trkpt>
      <trkpt lat="42.5854" lon="3.0304">
        <ele>5</ele>
        <time>2018-08-31T12:31:51+02:00</time>
      </trkpt>
      <trkpt lat="42.58518" lon="3.03053">
        <ele>5</ele>
        <time>2018-08-31T12:31:56+02:00</time>
      </trkpt>
      <trkpt lat="42.58496" lon="3.03069">
        <ele>5</ele>
        <time>2018-08-31T12:32:01+02:00</time>
      </trkpt>
      <trkpt lat="42.58472" lon="3.03084">
        <ele>5</ele>
        <time>2018-08-31T12:32:06+02:00</time>
      </trkpt>
      <trkpt lat="42.58452" lon="3.03096">
        <ele>5</ele>
        <time>2018-08-31T12:32:10+02:00</time>
      </trkpt>
      <trkpt lat="42.58425" lon="3.03111">
        <ele>5</ele>
        <time>2018-08-31T12:32:15+02:00</time>
      </trkpt>
      <trkpt lat="42.58402" lon="3.03125">
        <ele>5</ele>
        <time>2018-08-31T12:32:20+02:00</time>
      </trkpt>
      <trkpt lat="42.58377" lon="3.03143">
        <ele>5</ele>
        <time>2018-08-31T12:32:25+02:00</time>
      </trkpt>
      <trkpt lat="42.58354" lon="3.03157">
        <ele>5</ele>
        <time>2018-08-31T12:32:30+02:00</time>
      </trkpt>
      <trkpt lat="42.58367" lon="3.03183">
        <ele>4</ele>
        <time>2018-08-31T12:32:48+02:00</time>
      </trkpt>
      <trkpt lat="42.58346" lon="3.03205">
        <ele>4</ele>
        <time>2018-08-31T12:33:03+02:00</time>
      </trkpt>
      <trkpt lat="42.58321" lon="3.03216">
        <ele>4</ele>
        <time>2018-08-31T12:33:08+02:00</time>
      </trkpt>
      <trkpt lat="42.58297" lon="3.03225">
        <ele>4</ele>
        <time>2018-08-31T12:33:13+02:00</time>
      </trkpt>
      <trkpt lat="42.58273" lon="3.03232">
        <ele>3</ele>
        <time>2018-08-31T12:33:18+02:00</time>
      </trkpt>
      <trkpt lat="42.58249" lon="3.0324">
        <ele>2</ele>
        <time>2018-08-31T12:33:24+02:00</time>
      </trkpt>
      <trkpt lat="42.58227" lon="3.03248">
        <ele>2</ele>
        <time>2018-08-31T12:33:30+02:00</time>
      </trkpt>
      <trkpt lat="42.58203" lon="3.03253">
        <ele>2</ele>
        <time>2018-08-31T12:33:36+02:00</time>
      </trkpt>
      <trkpt lat="42.58181" lon="3.03259">
        <ele>2</ele>
        <time>2018-08-31T12:33:41+02:00</time>
      </trkpt>
      <trkpt lat="42.58158" lon="3.03262">
        <ele>2</ele>
        <time>2018-08-31T12:33:46+02:00</time>
      </trkpt>
      <trkpt lat="42.58135" lon="3.03266">
        <ele>2</ele>
        <time>2018-08-31T12:33:51+02:00</time>
      </trkpt>
      <trkpt lat="42.58109" lon="3.03268">
        <ele>2</ele>
        <time>2018-08-31T12:33:56+02:00</time>
      </trkpt>
      <trkpt lat="42.58085" lon="3.03272">
        <ele>2</ele>
        <time>2018-08-31T12:34:01+02:00</time>
      </trkpt>
      <trkpt lat="42.58059" lon="3.03272">
        <ele>2</ele>
        <time>2018-08-31T12:34:06+02:00</time>
      </trkpt>
      <trkpt lat="42.58034" lon="3.03273">
        <ele>3</ele>
        <time>2018-08-31T12:34:11+02:00</time>
      </trkpt>
      <trkpt lat="42.5801" lon="3.03278">
        <ele>3</ele>
        <time>2018-08-31T12:34:15+02:00</time>
      </trkpt>
      <trkpt lat="42.57988" lon="3.03281">
        <ele>3</ele>
        <time>2018-08-31T12:34:20+02:00</time>
      </trkpt>
      <trkpt lat="42.57965" lon="3.03287">
        <ele>3</ele>
        <time>2018-08-31T12:34:25+02:00</time>
      </trkpt>
      <trkpt lat="42.57941" lon="3.03295">
        <ele>3</ele>
        <time>2018-08-31T12:34:30+02:00</time>
      </trkpt>
      <trkpt lat="42.57917" lon="3.03302">
        <ele>3</ele>
        <time>2018-08-31T12:34:35+02:00</time>
      </trkpt>
      <trkpt lat="42.57894" lon="3.0331">
        <ele>3</ele>
        <time>2018-08-31T12:34:40+02:00</time>
      </trkpt>
      <trkpt lat="42.57871" lon="3.0332">
        <ele>3</ele>
        <time>2018-08-31T12:34:45+02:00</time>
      </trkpt>
      <trkpt lat="42.57849" lon="3.03331">
        <ele>3</ele>
        <time>2018-08-31T12:34:50+02:00</time>
      </trkpt>
      <trkpt lat="42.57823" lon="3.0334">
        <ele>3</ele>
        <time>2018-08-31T12:34:56+02:00</time>
      </trkpt>
      <trkpt lat="42.57801" lon="3.0335">
        <ele>3</ele>
        <time>2018-08-31T12:35:01+02:00</time>
      </trkpt>
      <trkpt lat="42.57777" lon="3.0336">
        <ele>3</ele>
        <time>2018-08-31T12:35:06+02:00</time>
      </trkpt>
      <trkpt lat="42.57748" lon="3.0337">
        <ele>3</ele>
        <time>2018-08-31T12:35:13+02:00</time>
      </trkpt>
      <trkpt lat="42.57725" lon="3.03384">
        <ele>3</ele>
        <time>2018-08-31T12:35:18+02:00</time>
      </trkpt>
      <trkpt lat="42.577" lon="3.03394">
        <ele>3</ele>
        <time>2018-08-31T12:35:23+02:00</time>
      </trkpt>
      <trkpt lat="42.57675" lon="3.03405">
        <ele>3</ele>
        <time>2018-08-31T12:35:28+02:00</time>
      </trkpt>
      <trkpt lat="42.57653" lon="3.0342">
        <ele>3</ele>
        <time>2018-08-31T12:35:33+02:00</time>
      </trkpt>
      <trkpt lat="42.57632" lon="3.03436">
        <ele>3</ele>
        <time>2018-08-31T12:35:38+02:00</time>
      </trkpt>
      <trkpt lat="42.57612" lon="3.03454">
        <ele>3</ele>
        <time>2018-08-31T12:35:43+02:00</time>
      </trkpt>
      <trkpt lat="42.57603" lon="3.03484">
        <ele>3</ele>
        <time>2018-08-31T12:35:50+02:00</time>
      </trkpt>
      <trkpt lat="42.57579" lon="3.03496">
        <ele>3</ele>
        <time>2018-08-31T12:35:58+02:00</time>
      </trkpt>
      <trkpt lat="42.57557" lon="3.03503">
        <ele>3</ele>
        <time>2018-08-31T12:36:05+02:00</time>
      </trkpt>
      <trkpt lat="42.57557" lon="3.03469">
        <ele>3</ele>
        <time>2018-08-31T12:36:28+02:00</time>
      </trkpt>
      <trkpt lat="42.57537" lon="3.03453">
        <ele>3</ele>
        <time>2018-08-31T12:36:34+02:00</time>
      </trkpt>
      <trkpt lat="42.57512" lon="3.03447">
        <ele>3</ele>
        <time>2018-08-31T12:36:39+02:00</time>
      </trkpt>
      <trkpt lat="42.57485" lon="3.03445">
        <ele>3</ele>
        <time>2018-08-31T12:36:44+02:00</time>
      </trkpt>
      <trkpt lat="42.5746" lon="3.03448">
        <ele>3</ele>
        <time>2018-08-31T12:36:49+02:00</time>
      </trkpt>
      <trkpt lat="42.57437" lon="3.03455">
        <ele>3</ele>
        <time>2018-08-31T12:36:54+02:00</time>
      </trkpt>
      <trkpt lat="42.57412" lon="3.03453">
        <ele>3</ele>
        <time>2018-08-31T12:36:59+02:00</time>
      </trkpt>
      <trkpt lat="42.57386" lon="3.03451">
        <ele>3</ele>
        <time>2018-08-31T12:37:04+02:00</time>
      </trkpt>
      <trkpt lat="42.57357" lon="3.03453">
        <ele>3</ele>
        <time>2018-08-31T12:37:09+02:00</time>
      </trkpt>
      <trkpt lat="42.5733" lon="3.03448">
        <ele>3</ele>
        <time>2018-08-31T12:37:14+02:00</time>
      </trkpt>
      <trkpt lat="42.57304" lon="3.03444">
        <ele>3</ele>
        <time>2018-08-31T12:37:19+02:00</time>
      </trkpt>
      <trkpt lat="42.5728" lon="3.0344">
        <ele>3</ele>
        <time>2018-08-31T12:37:24+02:00</time>
      </trkpt>
      <trkpt lat="42.57254" lon="3.03438">
        <ele>3</ele>
        <time>2018-08-31T12:37:30+02:00</time>
      </trkpt>
      <trkpt lat="42.5723" lon="3.03435">
        <ele>3</ele>
        <time>2018-08-31T12:37:35+02:00</time>
      </trkpt>
      <trkpt lat="42.57203" lon="3.03431">
        <ele>3</ele>
        <time>2018-08-31T12:37:40+02:00</time>
      </trkpt>
      <trkpt lat="42.57179" lon="3.03429">
        <ele>3</ele>
        <time>2018-08-31T12:37:45+02:00</time>
      </trkpt>
      <trkpt lat="42.57155" lon="3.03428">
        <ele>3</ele>
        <time>2018-08-31T12:37:51+02:00</time>
      </trkpt>
      <trkpt lat="42.57132" lon="3.03435">
        <ele>3</ele>
        <time>2018-08-31T12:38:02+02:00</time>
      </trkpt>
      <trkpt lat="42.57111" lon="3.03423">
        <ele>3</ele>
        <time>2018-08-31T12:38:38+02:00</time>
      </trkpt>
      <trkpt lat="42.57085" lon="3.03417">
        <ele>2</ele>
        <time>2018-08-31T12:38:46+02:00</time>
      </trkpt>
      <trkpt lat="42.57059" lon="3.03417">
        <ele>2</ele>
        <time>2018-08-31T12:38:52+02:00</time>
      </trkpt>
      <trkpt lat="42.57034" lon="3.03415">
        <ele>2</ele>
        <time>2018-08-31T12:38:58+02:00</time>
      </trkpt>
      <trkpt lat="42.5701" lon="3.03407">
        <ele>2</ele>
        <time>2018-08-31T12:39:03+02:00</time>
      </trkpt>
      <trkpt lat="42.56984" lon="3.03408">
        <ele>2</ele>
        <time>2018-08-31T12:39:09+02:00</time>
      </trkpt>
      <trkpt lat="42.56961" lon="3.03406">
        <ele>2</ele>
        <time>2018-08-31T12:39:14+02:00</time>
      </trkpt>
      <trkpt lat="42.56932" lon="3.03405">
        <ele>2</ele>
        <time>2018-08-31T12:39:20+02:00</time>
      </trkpt>
      <trkpt lat="42.56909" lon="3.03408">
        <ele>2</ele>
        <time>2018-08-31T12:39:25+02:00</time>
      </trkpt>
      <trkpt lat="42.56884" lon="3.03402">
        <ele>2</ele>
        <time>2018-08-31T12:39:30+02:00</time>
      </trkpt>
      <trkpt lat="42.56861" lon="3.03409">
        <ele>2</ele>
        <time>2018-08-31T12:39:36+02:00</time>
      </trkpt>
      <trkpt lat="42.56837" lon="3.03411">
        <ele>2</ele>
        <time>2018-08-31T12:39:41+02:00</time>
      </trkpt>
      <trkpt lat="42.56813" lon="3.03405">
        <ele>2</ele>
        <time>2018-08-31T12:39:47+02:00</time>
      </trkpt>
      <trkpt lat="42.5679" lon="3.03396">
        <ele>2</ele>
        <time>2018-08-31T12:39:52+02:00</time>
      </trkpt>
      <trkpt lat="42.56768" lon="3.03383">
        <ele>2</ele>
        <time>2018-08-31T12:39:59+02:00</time>
      </trkpt>
      <trkpt lat="42.56746" lon="3.03367">
        <ele>2</ele>
        <time>2018-08-31T12:40:06+02:00</time>
      </trkpt>
      <trkpt lat="42.56725" lon="3.03351">
        <ele>2</ele>
        <time>2018-08-31T12:40:11+02:00</time>
      </trkpt>
      <trkpt lat="42.56699" lon="3.03335">
        <ele>2</ele>
        <time>2018-08-31T12:40:18+02:00</time>
      </trkpt>
      <trkpt lat="42.56677" lon="3.03316">
        <ele>2</ele>
        <time>2018-08-31T12:40:22+02:00</time>
      </trkpt>
      <trkpt lat="42.56656" lon="3.03296">
        <ele>2</ele>
        <time>2018-08-31T12:40:28+02:00</time>
      </trkpt>
      <trkpt lat="42.56637" lon="3.03276">
        <ele>2</ele>
        <time>2018-08-31T12:40:34+02:00</time>
      </trkpt>
      <trkpt lat="42.56617" lon="3.03256">
        <ele>2</ele>
        <time>2018-08-31T12:40:41+02:00</time>
      </trkpt>
      <trkpt lat="42.56598" lon="3.03235">
        <ele>2</ele>
        <time>2018-08-31T12:40:47+02:00</time>
      </trkpt>
      <trkpt lat="42.5658" lon="3.03212">
        <ele>2</ele>
        <time>2018-08-31T12:40:53+02:00</time>
      </trkpt>
      <trkpt lat="42.56563" lon="3.03185">
        <ele>2</ele>
        <time>2018-08-31T12:40:59+02:00</time>
      </trkpt>
      <trkpt lat="42.56543" lon="3.03161">
        <ele>2</ele>
        <time>2018-08-31T12:41:04+02:00</time>
      </trkpt>
      <trkpt lat="42.56525" lon="3.03136">
        <ele>2</ele>
        <time>2018-08-31T12:41:10+02:00</time>
      </trkpt>
      <trkpt lat="42.56508" lon="3.03108">
        <ele>2</ele>
        <time>2018-08-31T12:41:16+02:00</time>
      </trkpt>
      <trkpt lat="42.56492" lon="3.03083">
        <ele>2</ele>
        <time>2018-08-31T12:41:22+02:00</time>
      </trkpt>
      <trkpt lat="42.56477" lon="3.03056">
        <ele>2</ele>
        <time>2018-08-31T12:41:28+02:00</time>
      </trkpt>
      <trkpt lat="42.56461" lon="3.0303">
        <ele>2</ele>
        <time>2018-08-31T12:41:34+02:00</time>
      </trkpt>
      <trkpt lat="42.56442" lon="3.03007">
        <ele>2</ele>
        <time>2018-08-31T12:41:40+02:00</time>
      </trkpt>
      <trkpt lat="42.56422" lon="3.02986">
        <ele>2</ele>
        <time>2018-08-31T12:41:45+02:00</time>
      </trkpt>
      <trkpt lat="42.56404" lon="3.02965">
        <ele>2</ele>
        <time>2018-08-31T12:41:50+02:00</time>
      </trkpt>
      <trkpt lat="42.56386" lon="3.02947">
        <ele>2</ele>
        <time>2018-08-31T12:41:55+02:00</time>
      </trkpt>
      <trkpt lat="42.56367" lon="3.02925">
        <ele>2</ele>
        <time>2018-08-31T12:42:01+02:00</time>
      </trkpt>
      <trkpt lat="42.56345" lon="3.02903">
        <ele>2</ele>
        <time>2018-08-31T12:42:07+02:00</time>
      </trkpt>
      <trkpt lat="42.56326" lon="3.02881">
        <ele>2</ele>
        <time>2018-08-31T12:42:13+02:00</time>
      </trkpt>
      <trkpt lat="42.56308" lon="3.02859">
        <ele>2</ele>
        <time>2018-08-31T12:42:18+02:00</time>
      </trkpt>
      <trkpt lat="42.56284" lon="3.02851">
        <ele>2</ele>
        <time>2018-08-31T12:42:23+02:00</time>
      </trkpt>
      <trkpt lat="42.56259" lon="3.02846">
        <ele>2</ele>
        <time>2018-08-31T12:42:28+02:00</time>
      </trkpt>
      <trkpt lat="42.56235" lon="3.02843">
        <ele>2</ele>
        <time>2018-08-31T12:42:33+02:00</time>
      </trkpt>
      <trkpt lat="42.56211" lon="3.02842">
        <ele>2</ele>
        <time>2018-08-31T12:42:38+02:00</time>
      </trkpt>
      <trkpt lat="42.56187" lon="3.02837">
        <ele>2</ele>
        <time>2018-08-31T12:42:44+02:00</time>
      </trkpt>
      <trkpt lat="42.56162" lon="3.02833">
        <ele>3</ele>
        <time>2018-08-31T12:42:49+02:00</time>
      </trkpt>
      <trkpt lat="42.56138" lon="3.02827">
        <ele>3</ele>
        <time>2018-08-31T12:42:55+02:00</time>
      </trkpt>
      <trkpt lat="42.56117" lon="3.02812">
        <ele>3</ele>
        <time>2018-08-31T12:43:01+02:00</time>
      </trkpt>
      <trkpt lat="42.561" lon="3.02791">
        <ele>3</ele>
        <time>2018-08-31T12:43:06+02:00</time>
      </trkpt>
      <trkpt lat="42.56082" lon="3.02765">
        <ele>3</ele>
        <time>2018-08-31T12:43:13+02:00</time>
      </trkpt>
      <trkpt lat="42.56061" lon="3.02745">
        <ele>3</ele>
        <time>2018-08-31T12:43:21+02:00</time>
      </trkpt>
      <trkpt lat="42.56035" lon="3.02735">
        <ele>3</ele>
        <time>2018-08-31T12:43:26+02:00</time>
      </trkpt>
      <trkpt lat="42.5601" lon="3.02726">
        <ele>3</ele>
        <time>2018-08-31T12:43:31+02:00</time>
      </trkpt>
      <trkpt lat="42.55984" lon="3.02719">
        <ele>3</ele>
        <time>2018-08-31T12:43:37+02:00</time>
      </trkpt>
      <trkpt lat="42.55958" lon="3.02715">
        <ele>4</ele>
        <time>2018-08-31T12:43:42+02:00</time>
      </trkpt>
      <trkpt lat="42.55934" lon="3.02706">
        <ele>4</ele>
        <time>2018-08-31T12:43:48+02:00</time>
      </trkpt>
      <trkpt lat="42.55909" lon="3.02698">
        <ele>4</ele>
        <time>2018-08-31T12:43:54+02:00</time>
      </trkpt>
      <trkpt lat="42.55887" lon="3.02691">
        <ele>4</ele>
        <time>2018-08-31T12:43:59+02:00</time>
      </trkpt>
      <trkpt lat="42.55863" lon="3.02684">
        <ele>4</ele>
        <time>2018-08-31T12:44:05+02:00</time>
      </trkpt>
      <trkpt lat="42.55839" lon="3.02675">
        <ele>4</ele>
        <time>2018-08-31T12:44:11+02:00</time>
      </trkpt>
      <trkpt lat="42.55816" lon="3.02663">
        <ele>5</ele>
        <time>2018-08-31T12:44:17+02:00</time>
      </trkpt>
      <trkpt lat="42.55792" lon="3.02654">
        <ele>5</ele>
        <time>2018-08-31T12:44:23+02:00</time>
      </trkpt>
      <trkpt lat="42.5577" lon="3.02645">
        <ele>5</ele>
        <time>2018-08-31T12:44:29+02:00</time>
      </trkpt>
      <trkpt lat="42.55746" lon="3.02636">
        <ele>5</ele>
        <time>2018-08-31T12:44:37+02:00</time>
      </trkpt>
      <trkpt lat="42.55723" lon="3.02626">
        <ele>5</ele>
        <time>2018-08-31T12:44:45+02:00</time>
      </trkpt>
      <trkpt lat="42.557" lon="3.02619">
        <ele>5</ele>
        <time>2018-08-31T12:44:51+02:00</time>
      </trkpt>
      <trkpt lat="42.55675" lon="3.02617">
        <ele>5</ele>
        <time>2018-08-31T12:44:58+02:00</time>
      </trkpt>
      <trkpt lat="42.55649" lon="3.02618">
        <ele>5</ele>
        <time>2018-08-31T12:45:05+02:00</time>
      </trkpt>
      <trkpt lat="42.55623" lon="3.02618">
        <ele>5</ele>
        <time>2018-08-31T12:45:11+02:00</time>
      </trkpt>
      <trkpt lat="42.55599" lon="3.02623">
        <ele>5</ele>
        <time>2018-08-31T12:45:16+02:00</time>
      </trkpt>
      <trkpt lat="42.55575" lon="3.02623">
        <ele>5</ele>
        <time>2018-08-31T12:45:21+02:00</time>
      </trkpt>
      <trkpt lat="42.5555" lon="3.02623">
        <ele>5</ele>
        <time>2018-08-31T12:45:26+02:00</time>
      </trkpt>
      <trkpt lat="42.55525" lon="3.02623">
        <ele>5</ele>
        <time>2018-08-31T12:45:31+02:00</time>
      </trkpt>
      <trkpt lat="42.55502" lon="3.02625">
        <ele>5</ele>
        <time>2018-08-31T12:45:36+02:00</time>
      </trkpt>
      <trkpt lat="42.55477" lon="3.02625">
        <ele>5</ele>
        <time>2018-08-31T12:45:42+02:00</time>
      </trkpt>
      <trkpt lat="42.55452" lon="3.02626">
        <ele>5</ele>
        <time>2018-08-31T12:45:48+02:00</time>
      </trkpt>
      <trkpt lat="42.55429" lon="3.02629">
        <ele>5</ele>
        <time>2018-08-31T12:45:54+02:00</time>
      </trkpt>
      <trkpt lat="42.55405" lon="3.0263">
        <ele>5</ele>
        <time>2018-08-31T12:46:03+02:00</time>
      </trkpt>
      <trkpt lat="42.55381" lon="3.02639">
        <ele>5</ele>
        <time>2018-08-31T12:46:10+02:00</time>
      </trkpt>
      <trkpt lat="42.55357" lon="3.0264">
        <ele>5</ele>
        <time>2018-08-31T12:46:16+02:00</time>
      </trkpt>
      <trkpt lat="42.55333" lon="3.02637">
        <ele>5</ele>
        <time>2018-08-31T12:46:23+02:00</time>
      </trkpt>
      <trkpt lat="42.55311" lon="3.02623">
        <ele>5</ele>
        <time>2018-08-31T12:46:29+02:00</time>
      </trkpt>
      <trkpt lat="42.55287" lon="3.02607">
        <ele>5</ele>
        <time>2018-08-31T12:46:35+02:00</time>
      </trkpt>
      <trkpt lat="42.55268" lon="3.02589">
        <ele>5</ele>
        <time>2018-08-31T12:46:40+02:00</time>
      </trkpt>
      <trkpt lat="42.55247" lon="3.02571">
        <ele>6</ele>
        <time>2018-08-31T12:46:45+02:00</time>
      </trkpt>
      <trkpt lat="42.55226" lon="3.02547">
        <ele>6</ele>
        <time>2018-08-31T12:46:51+02:00</time>
      </trkpt>
      <trkpt lat="42.55206" lon="3.02526">
        <ele>6</ele>
        <time>2018-08-31T12:46:56+02:00</time>
      </trkpt>
      <trkpt lat="42.55185" lon="3.02509">
        <ele>7</ele>
        <time>2018-08-31T12:47:01+02:00</time>
      </trkpt>
      <trkpt lat="42.55165" lon="3.02494">
        <ele>7</ele>
        <time>2018-08-31T12:47:06+02:00</time>
      </trkpt>
      <trkpt lat="42.55142" lon="3.02488">
        <ele>7</ele>
        <time>2018-08-31T12:47:11+02:00</time>
      </trkpt>
      <trkpt lat="42.5512" lon="3.02483">
        <ele>7</ele>
        <time>2018-08-31T12:47:16+02:00</time>
      </trkpt>
      <trkpt lat="42.55096" lon="3.02481">
        <ele>7</ele>
        <time>2018-08-31T12:47:21+02:00</time>
      </trkpt>
      <trkpt lat="42.55073" lon="3.02474">
        <ele>7</ele>
        <time>2018-08-31T12:47:27+02:00</time>
      </trkpt>
      <trkpt lat="42.55051" lon="3.02484">
        <ele>7</ele>
        <time>2018-08-31T12:47:33+02:00</time>
      </trkpt>
      <trkpt lat="42.55026" lon="3.02476">
        <ele>7</ele>
        <time>2018-08-31T12:47:39+02:00</time>
      </trkpt>
      <trkpt lat="42.55004" lon="3.02468">
        <ele>7</ele>
        <time>2018-08-31T12:47:44+02:00</time>
      </trkpt>
      <trkpt lat="42.54982" lon="3.02457">
        <ele>7</ele>
        <time>2018-08-31T12:47:49+02:00</time>
      </trkpt>
      <trkpt lat="42.54959" lon="3.02447">
        <ele>7</ele>
        <time>2018-08-31T12:47:55+02:00</time>
      </trkpt>
      <trkpt lat="42.54936" lon="3.02438">
        <ele>7</ele>
        <time>2018-08-31T12:48:01+02:00</time>
      </trkpt>
      <trkpt lat="42.54913" lon="3.02429">
        <ele>7</ele>
        <time>2018-08-31T12:48:09+02:00</time>
      </trkpt>
      <trkpt lat="42.54888" lon="3.02425">
        <ele>7</ele>
        <time>2018-08-31T12:48:15+02:00</time>
      </trkpt>
      <trkpt lat="42.54862" lon="3.02426">
        <ele>7</ele>
        <time>2018-08-31T12:48:22+02:00</time>
      </trkpt>
      <trkpt lat="42.54837" lon="3.02423">
        <ele>8</ele>
        <time>2018-08-31T12:48:28+02:00</time>
      </trkpt>
      <trkpt lat="42.54813" lon="3.02421">
        <ele>9</ele>
        <time>2018-08-31T12:48:35+02:00</time>
      </trkpt>
      <trkpt lat="42.5479" lon="3.02418">
        <ele>10</ele>
        <time>2018-08-31T12:48:42+02:00</time>
      </trkpt>
      <trkpt lat="42.54765" lon="3.02416">
        <ele>10</ele>
        <time>2018-08-31T12:48:50+02:00</time>
      </trkpt>
      <trkpt lat="42.54741" lon="3.02417">
        <ele>10</ele>
        <time>2018-08-31T12:48:57+02:00</time>
      </trkpt>
      <trkpt lat="42.54718" lon="3.02419">
        <ele>10</ele>
        <time>2018-08-31T12:49:07+02:00</time>
      </trkpt>
      <trkpt lat="42.54695" lon="3.02421">
        <ele>10</ele>
        <time>2018-08-31T12:49:15+02:00</time>
      </trkpt>
      <trkpt lat="42.54671" lon="3.0242">
        <ele>10</ele>
        <time>2018-08-31T12:49:22+02:00</time>
      </trkpt>
      <trkpt lat="42.5465" lon="3.02403">
        <ele>10</ele>
        <time>2018-08-31T12:50:07+02:00</time>
      </trkpt>
      <trkpt lat="42.54636" lon="3.02377">
        <ele>11</ele>
        <time>2018-08-31T12:50:14+02:00</time>
      </trkpt>
      <trkpt lat="42.54622" lon="3.02348">
        <ele>11</ele>
        <time>2018-08-31T12:50:22+02:00</time>
      </trkpt>
      <trkpt lat="42.54613" lon="3.02318">
        <ele>12</ele>
        <time>2018-08-31T12:50:32+02:00</time>
      </trkpt>
      <trkpt lat="42.54601" lon="3.02291">
        <ele>12</ele>
        <time>2018-08-31T12:50:44+02:00</time>
      </trkpt>
      <trkpt lat="42.54591" lon="3.02262">
        <ele>12</ele>
        <time>2018-08-31T12:50:51+02:00</time>
      </trkpt>
      <trkpt lat="42.54594" lon="3.02231">
        <ele>12</ele>
        <time>2018-08-31T12:51:03+02:00</time>
      </trkpt>
      <trkpt lat="42.54571" lon="3.02198">
        <ele>12</ele>
        <time>2018-08-31T12:51:15+02:00</time>
      </trkpt>
      <trkpt lat="42.5455" lon="3.02185">
        <ele>12</ele>
        <time>2018-08-31T12:51:20+02:00</time>
      </trkpt>
      <trkpt lat="42.54532" lon="3.02167">
        <ele>12</ele>
        <time>2018-08-31T12:51:30+02:00</time>
      </trkpt>
      <trkpt lat="42.5451" lon="3.02183">
        <ele>12</ele>
        <time>2018-08-31T12:51:41+02:00</time>
      </trkpt>
      <trkpt lat="42.54483" lon="3.02202">
        <ele>12</ele>
        <time>2018-08-31T12:51:49+02:00</time>
      </trkpt>
      <trkpt lat="42.54456" lon="3.02202">
        <ele>12</ele>
        <time>2018-08-31T12:51:51+02:00</time>
      </trkpt>
      <trkpt lat="42.54434" lon="3.02189">
        <ele>12</ele>
        <time>2018-08-31T12:52:03+02:00</time>
      </trkpt>
      <trkpt lat="42.54415" lon="3.02205">
        <ele>12</ele>
        <time>2018-08-31T12:52:35+02:00</time>
      </trkpt>
    </trkseg>
  </trk>
</gpx>